<?xml version="1.0" encoding="UTF-8" standalone="no" ?>
<gpx xmlns="http://www.topografix.com/GPX/1/1" xmlns:xsi="http://www.w3.org/2001/XMLSchema-instance" xsi:schemaLocation="http://www.topografix.com/GPX/1/1 http://www.topografix.com/GPX/1/1/gpx.xsd" version="1.1" creator="VisuGPX - https://www.visugpx.com">
  <metadata>
    <name>Traversée</name>
  </metadata>
  <trk>
    <name><![CDATA[Traversée]]></name>
    <trkseg>
      <trkpt lat="42.46078" lon="2.64149">
        <ele>268.46</ele>
        <time>2021-10-29T16:58:51Z</time>
      </trkpt>
      <trkpt lat="42.46078" lon="2.64149">
        <ele>268.46</ele>
        <time>2021-10-29T16:58:51Z</time>
      </trkpt>
      <trkpt lat="42.46069" lon="2.6418">
        <ele>268.33</ele>
        <time>2021-10-29T16:58:51Z</time>
      </trkpt>
      <trkpt lat="42.46065" lon="2.64214">
        <ele>268.81</ele>
        <time>2021-10-29T16:58:51Z</time>
      </trkpt>
      <trkpt lat="42.46066" lon="2.64246">
        <ele>268.83</ele>
        <time>2021-10-29T16:58:51Z</time>
      </trkpt>
      <trkpt lat="42.46062" lon="2.64272">
        <ele>270.57</ele>
        <time>2021-10-29T16:58:51Z</time>
      </trkpt>
      <trkpt lat="42.46048" lon="2.64264">
        <ele>273.26</ele>
        <time>2021-10-29T16:58:51Z</time>
      </trkpt>
      <trkpt lat="42.46036" lon="2.64252">
        <ele>274.28</ele>
        <time>2021-10-29T16:58:51Z</time>
      </trkpt>
      <trkpt lat="42.46013" lon="2.64246">
        <ele>276.28</ele>
        <time>2021-10-29T16:58:51Z</time>
      </trkpt>
      <trkpt lat="42.4598" lon="2.64245">
        <ele>280.73</ele>
        <time>2021-10-29T16:58:51Z</time>
      </trkpt>
      <trkpt lat="42.45965" lon="2.64239">
        <ele>283.9</ele>
        <time>2021-10-29T16:58:51Z</time>
      </trkpt>
      <trkpt lat="42.45947" lon="2.64229">
        <ele>290.19</ele>
        <time>2021-10-29T16:58:51Z</time>
      </trkpt>
      <trkpt lat="42.45938" lon="2.64211">
        <ele>292.38</ele>
        <time>2021-10-29T16:58:51Z</time>
      </trkpt>
      <trkpt lat="42.45944" lon="2.64183">
        <ele>291.24</ele>
        <time>2021-10-29T16:58:51Z</time>
      </trkpt>
      <trkpt lat="42.45944" lon="2.64159">
        <ele>289.04</ele>
        <time>2021-10-29T16:58:51Z</time>
      </trkpt>
      <trkpt lat="42.45938" lon="2.64138">
        <ele>286.65</ele>
        <time>2021-10-29T16:58:51Z</time>
      </trkpt>
      <trkpt lat="42.45927" lon="2.64151">
        <ele>290.36</ele>
        <time>2021-10-29T16:58:51Z</time>
      </trkpt>
      <trkpt lat="42.45923" lon="2.64184">
        <ele>294.83</ele>
        <time>2021-10-29T16:58:51Z</time>
      </trkpt>
      <trkpt lat="42.45915" lon="2.64202">
        <ele>296.72</ele>
        <time>2021-10-29T16:58:51Z</time>
      </trkpt>
      <trkpt lat="42.45901" lon="2.64221">
        <ele>300.03</ele>
        <time>2021-10-29T16:58:51Z</time>
      </trkpt>
      <trkpt lat="42.45885" lon="2.64242">
        <ele>300.81</ele>
        <time>2021-10-29T16:58:51Z</time>
      </trkpt>
      <trkpt lat="42.45869" lon="2.64255">
        <ele>301.52</ele>
        <time>2021-10-29T16:58:51Z</time>
      </trkpt>
      <trkpt lat="42.45854" lon="2.64267">
        <ele>301.16</ele>
        <time>2021-10-29T16:58:51Z</time>
      </trkpt>
      <trkpt lat="42.45825" lon="2.64274">
        <ele>299.89</ele>
        <time>2021-10-29T16:58:51Z</time>
      </trkpt>
      <trkpt lat="42.45803" lon="2.64283">
        <ele>301.31</ele>
        <time>2021-10-29T16:58:51Z</time>
      </trkpt>
      <trkpt lat="42.45791" lon="2.64304">
        <ele>301.68</ele>
        <time>2021-10-29T16:58:51Z</time>
      </trkpt>
      <trkpt lat="42.45784" lon="2.64318">
        <ele>305.68</ele>
        <time>2021-10-29T16:58:51Z</time>
      </trkpt>
      <trkpt lat="42.45773" lon="2.64312">
        <ele>309.54</ele>
        <time>2021-10-29T16:58:51Z</time>
      </trkpt>
      <trkpt lat="42.45778" lon="2.6429">
        <ele>307.98</ele>
        <time>2021-10-29T16:58:51Z</time>
      </trkpt>
      <trkpt lat="42.45782" lon="2.6427">
        <ele>307.75</ele>
        <time>2021-10-29T16:58:51Z</time>
      </trkpt>
      <trkpt lat="42.45771" lon="2.64246">
        <ele>308.23</ele>
        <time>2021-10-29T16:58:51Z</time>
      </trkpt>
      <trkpt lat="42.4576" lon="2.64225">
        <ele>308.92</ele>
        <time>2021-10-29T16:58:51Z</time>
      </trkpt>
      <trkpt lat="42.45745" lon="2.64218">
        <ele>310.02</ele>
        <time>2021-10-29T16:58:51Z</time>
      </trkpt>
      <trkpt lat="42.45731" lon="2.64227">
        <ele>311.23</ele>
        <time>2021-10-29T16:58:51Z</time>
      </trkpt>
      <trkpt lat="42.45719" lon="2.64247">
        <ele>313.92</ele>
        <time>2021-10-29T16:58:51Z</time>
      </trkpt>
      <trkpt lat="42.45714" lon="2.64283">
        <ele>319.59</ele>
        <time>2021-10-29T16:58:51Z</time>
      </trkpt>
      <trkpt lat="42.45708" lon="2.64312">
        <ele>321.66</ele>
        <time>2021-10-29T16:58:51Z</time>
      </trkpt>
      <trkpt lat="42.4571" lon="2.6434">
        <ele>321.21</ele>
        <time>2021-10-29T16:58:51Z</time>
      </trkpt>
      <trkpt lat="42.45701" lon="2.64348">
        <ele>322.33</ele>
        <time>2021-10-29T16:58:51Z</time>
      </trkpt>
      <trkpt lat="42.45687" lon="2.64343">
        <ele>326.51</ele>
        <time>2021-10-29T16:58:51Z</time>
      </trkpt>
      <trkpt lat="42.4568" lon="2.64327">
        <ele>328.27</ele>
        <time>2021-10-29T16:58:51Z</time>
      </trkpt>
      <trkpt lat="42.45663" lon="2.64315">
        <ele>329.1</ele>
        <time>2021-10-29T16:58:51Z</time>
      </trkpt>
      <trkpt lat="42.45645" lon="2.64313">
        <ele>332.71</ele>
        <time>2021-10-29T16:58:51Z</time>
      </trkpt>
      <trkpt lat="42.45623" lon="2.64293">
        <ele>332.79</ele>
        <time>2021-10-29T16:58:51Z</time>
      </trkpt>
      <trkpt lat="42.456" lon="2.64284">
        <ele>332.33</ele>
        <time>2021-10-29T16:58:51Z</time>
      </trkpt>
      <trkpt lat="42.45581" lon="2.64277">
        <ele>333.36</ele>
        <time>2021-10-29T16:58:51Z</time>
      </trkpt>
      <trkpt lat="42.45557" lon="2.64277">
        <ele>332.43</ele>
        <time>2021-10-29T16:58:51Z</time>
      </trkpt>
      <trkpt lat="42.45543" lon="2.64276">
        <ele>333.59</ele>
        <time>2021-10-29T16:58:51Z</time>
      </trkpt>
      <trkpt lat="42.45531" lon="2.64264">
        <ele>332.85</ele>
        <time>2021-10-29T16:58:51Z</time>
      </trkpt>
      <trkpt lat="42.45517" lon="2.64262">
        <ele>334.51</ele>
        <time>2021-10-29T16:58:51Z</time>
      </trkpt>
      <trkpt lat="42.45519" lon="2.64277">
        <ele>336.72</ele>
        <time>2021-10-29T16:58:51Z</time>
      </trkpt>
      <trkpt lat="42.4552" lon="2.64305">
        <ele>339.26</ele>
        <time>2021-10-29T16:58:51Z</time>
      </trkpt>
      <trkpt lat="42.45513" lon="2.64321">
        <ele>341.22</ele>
        <time>2021-10-29T16:58:51Z</time>
      </trkpt>
      <trkpt lat="42.45495" lon="2.64309">
        <ele>344.03</ele>
        <time>2021-10-29T16:58:51Z</time>
      </trkpt>
      <trkpt lat="42.45481" lon="2.64302">
        <ele>344.85</ele>
        <time>2021-10-29T16:58:51Z</time>
      </trkpt>
      <trkpt lat="42.45474" lon="2.64322">
        <ele>352.4</ele>
        <time>2021-10-29T16:58:51Z</time>
      </trkpt>
      <trkpt lat="42.45477" lon="2.64366">
        <ele>355.84</ele>
        <time>2021-10-29T16:58:51Z</time>
      </trkpt>
      <trkpt lat="42.45479" lon="2.64384">
        <ele>356.58</ele>
        <time>2021-10-29T16:58:51Z</time>
      </trkpt>
      <trkpt lat="42.45466" lon="2.64461">
        <ele>364.03</ele>
        <time>2021-10-29T16:58:51Z</time>
      </trkpt>
      <trkpt lat="42.45461" lon="2.64443">
        <ele>364.33</ele>
        <time>2021-10-29T16:58:51Z</time>
      </trkpt>
      <trkpt lat="42.4545" lon="2.64449">
        <ele>367.74</ele>
        <time>2021-10-29T16:58:51Z</time>
      </trkpt>
      <trkpt lat="42.45437" lon="2.64461">
        <ele>372.22</ele>
        <time>2021-10-29T16:58:51Z</time>
      </trkpt>
      <trkpt lat="42.45411" lon="2.64487">
        <ele>380.74</ele>
        <time>2021-10-29T16:58:51Z</time>
      </trkpt>
      <trkpt lat="42.4539" lon="2.64506">
        <ele>386.89</ele>
        <time>2021-10-29T16:58:51Z</time>
      </trkpt>
      <trkpt lat="42.45376" lon="2.64517">
        <ele>391.84</ele>
        <time>2021-10-29T16:58:51Z</time>
      </trkpt>
      <trkpt lat="42.45368" lon="2.64502">
        <ele>393.88</ele>
        <time>2021-10-29T16:58:51Z</time>
      </trkpt>
      <trkpt lat="42.45351" lon="2.64512">
        <ele>399.84</ele>
        <time>2021-10-29T16:58:51Z</time>
      </trkpt>
      <trkpt lat="42.45334" lon="2.64534">
        <ele>406.58</ele>
        <time>2021-10-29T16:58:51Z</time>
      </trkpt>
      <trkpt lat="42.45326" lon="2.64529">
        <ele>408.99</ele>
        <time>2021-10-29T16:58:51Z</time>
      </trkpt>
      <trkpt lat="42.45316" lon="2.64537">
        <ele>412.45</ele>
        <time>2021-10-29T16:58:51Z</time>
      </trkpt>
      <trkpt lat="42.45306" lon="2.64535">
        <ele>415.1</ele>
        <time>2021-10-29T16:58:51Z</time>
      </trkpt>
      <trkpt lat="42.45299" lon="2.64547">
        <ele>418.44</ele>
        <time>2021-10-29T16:58:51Z</time>
      </trkpt>
      <trkpt lat="42.45289" lon="2.64537">
        <ele>420.15</ele>
        <time>2021-10-29T16:58:51Z</time>
      </trkpt>
      <trkpt lat="42.45275" lon="2.64553">
        <ele>426.88</ele>
        <time>2021-10-29T16:58:51Z</time>
      </trkpt>
      <trkpt lat="42.45267" lon="2.64571">
        <ele>432.92</ele>
        <time>2021-10-29T16:58:51Z</time>
      </trkpt>
      <trkpt lat="42.45259" lon="2.64592">
        <ele>440.23</ele>
        <time>2021-10-29T16:58:51Z</time>
      </trkpt>
      <trkpt lat="42.45254" lon="2.64617">
        <ele>447.64</ele>
        <time>2021-10-29T16:58:51Z</time>
      </trkpt>
      <trkpt lat="42.45246" lon="2.64626">
        <ele>452.47</ele>
        <time>2021-10-29T16:58:51Z</time>
      </trkpt>
      <trkpt lat="42.45214" lon="2.64625">
        <ele>463.61</ele>
        <time>2021-10-29T16:58:51Z</time>
      </trkpt>
      <trkpt lat="42.45216" lon="2.64638">
        <ele>466.05</ele>
        <time>2021-10-29T16:58:51Z</time>
      </trkpt>
      <trkpt lat="42.45223" lon="2.64664">
        <ele>468.97</ele>
        <time>2021-10-29T16:58:51Z</time>
      </trkpt>
      <trkpt lat="42.45197" lon="2.64665">
        <ele>478.82</ele>
        <time>2021-10-29T16:58:51Z</time>
      </trkpt>
      <trkpt lat="42.45208" lon="2.64691">
        <ele>480.3</ele>
        <time>2021-10-29T16:58:51Z</time>
      </trkpt>
      <trkpt lat="42.45186" lon="2.64692">
        <ele>488.79</ele>
        <time>2021-10-29T16:58:51Z</time>
      </trkpt>
      <trkpt lat="42.45205" lon="2.64718">
        <ele>485.46</ele>
        <time>2021-10-29T16:58:51Z</time>
      </trkpt>
      <trkpt lat="42.45185" lon="2.64724">
        <ele>493.64</ele>
        <time>2021-10-29T16:58:51Z</time>
      </trkpt>
      <trkpt lat="42.45162" lon="2.64717">
        <ele>503</ele>
        <time>2021-10-29T16:58:51Z</time>
      </trkpt>
      <trkpt lat="42.45167" lon="2.64738">
        <ele>503.37</ele>
        <time>2021-10-29T16:58:51Z</time>
      </trkpt>
      <trkpt lat="42.45155" lon="2.64727">
        <ele>507.42</ele>
        <time>2021-10-29T16:58:51Z</time>
      </trkpt>
      <trkpt lat="42.45158" lon="2.64756">
        <ele>509.88</ele>
        <time>2021-10-29T16:58:51Z</time>
      </trkpt>
      <trkpt lat="42.4513" lon="2.64721">
        <ele>517.68</ele>
        <time>2021-10-29T16:58:51Z</time>
      </trkpt>
      <trkpt lat="42.45132" lon="2.64761">
        <ele>523.15</ele>
        <time>2021-10-29T16:58:51Z</time>
      </trkpt>
      <trkpt lat="42.45111" lon="2.64721">
        <ele>525.98</ele>
        <time>2021-10-29T16:58:51Z</time>
      </trkpt>
      <trkpt lat="42.4511" lon="2.64761">
        <ele>533.89</ele>
        <time>2021-10-29T16:58:51Z</time>
      </trkpt>
      <trkpt lat="42.45087" lon="2.64744">
        <ele>541.4</ele>
        <time>2021-10-29T16:58:51Z</time>
      </trkpt>
      <trkpt lat="42.45089" lon="2.64776">
        <ele>546.9</ele>
        <time>2021-10-29T16:58:51Z</time>
      </trkpt>
      <trkpt lat="42.45069" lon="2.64761">
        <ele>554.12</ele>
        <time>2021-10-29T16:58:51Z</time>
      </trkpt>
      <trkpt lat="42.45072" lon="2.64782">
        <ele>556.53</ele>
        <time>2021-10-29T16:58:51Z</time>
      </trkpt>
      <trkpt lat="42.45052" lon="2.64768">
        <ele>564.51</ele>
        <time>2021-10-29T16:58:51Z</time>
      </trkpt>
      <trkpt lat="42.45055" lon="2.64795">
        <ele>567.68</ele>
        <time>2021-10-29T16:58:51Z</time>
      </trkpt>
      <trkpt lat="42.45029" lon="2.64783">
        <ele>578.02</ele>
        <time>2021-10-29T16:58:51Z</time>
      </trkpt>
      <trkpt lat="42.45043" lon="2.64819">
        <ele>578.23</ele>
        <time>2021-10-29T16:58:51Z</time>
      </trkpt>
      <trkpt lat="42.45034" lon="2.64819">
        <ele>582.72</ele>
        <time>2021-10-29T16:58:51Z</time>
      </trkpt>
      <trkpt lat="42.45007" lon="2.64804">
        <ele>592.76</ele>
        <time>2021-10-29T16:58:51Z</time>
      </trkpt>
      <trkpt lat="42.45004" lon="2.64829">
        <ele>599.99</ele>
        <time>2021-10-29T16:58:51Z</time>
      </trkpt>
      <trkpt lat="42.45005" lon="2.6486">
        <ele>601.51</ele>
        <time>2021-10-29T16:58:51Z</time>
      </trkpt>
      <trkpt lat="42.44995" lon="2.64864">
        <ele>607.27</ele>
        <time>2021-10-29T16:58:51Z</time>
      </trkpt>
      <trkpt lat="42.44993" lon="2.64883">
        <ele>608.68</ele>
        <time>2021-10-29T16:58:51Z</time>
      </trkpt>
      <trkpt lat="42.44977" lon="2.64898">
        <ele>619.23</ele>
        <time>2021-10-29T16:58:51Z</time>
      </trkpt>
      <trkpt lat="42.44973" lon="2.64852">
        <ele>619.01</ele>
        <time>2021-10-29T16:58:51Z</time>
      </trkpt>
      <trkpt lat="42.4495" lon="2.64823">
        <ele>624.6</ele>
        <time>2021-10-29T16:58:51Z</time>
      </trkpt>
      <trkpt lat="42.44937" lon="2.64834">
        <ele>634.01</ele>
        <time>2021-10-29T16:58:51Z</time>
      </trkpt>
      <trkpt lat="42.44913" lon="2.64803">
        <ele>635.08</ele>
        <time>2021-10-29T16:58:51Z</time>
      </trkpt>
      <trkpt lat="42.44913" lon="2.64836">
        <ele>646.08</ele>
        <time>2021-10-29T16:58:51Z</time>
      </trkpt>
      <trkpt lat="42.44898" lon="2.64832">
        <ele>652.73</ele>
        <time>2021-10-29T16:58:51Z</time>
      </trkpt>
      <trkpt lat="42.44901" lon="2.64859">
        <ele>656.63</ele>
        <time>2021-10-29T16:58:51Z</time>
      </trkpt>
      <trkpt lat="42.44917" lon="2.64877">
        <ele>650.9</ele>
        <time>2021-10-29T16:58:51Z</time>
      </trkpt>
      <trkpt lat="42.44912" lon="2.6489">
        <ele>655.69</ele>
        <time>2021-10-29T16:58:51Z</time>
      </trkpt>
      <trkpt lat="42.4489" lon="2.64922">
        <ele>667.95</ele>
        <time>2021-10-29T16:58:51Z</time>
      </trkpt>
      <trkpt lat="42.44878" lon="2.64947">
        <ele>670.94</ele>
        <time>2021-10-29T16:58:51Z</time>
      </trkpt>
      <trkpt lat="42.44867" lon="2.64954">
        <ele>676.27</ele>
        <time>2021-10-29T16:58:51Z</time>
      </trkpt>
      <trkpt lat="42.44853" lon="2.64934">
        <ele>686.55</ele>
        <time>2021-10-29T16:58:51Z</time>
      </trkpt>
      <trkpt lat="42.44834" lon="2.64929">
        <ele>697.96</ele>
        <time>2021-10-29T16:58:51Z</time>
      </trkpt>
      <trkpt lat="42.4481" lon="2.64938">
        <ele>711.71</ele>
        <time>2021-10-29T16:58:51Z</time>
      </trkpt>
      <trkpt lat="42.44795" lon="2.64955">
        <ele>719.78</ele>
        <time>2021-10-29T16:58:51Z</time>
      </trkpt>
      <trkpt lat="42.44785" lon="2.64976">
        <ele>724.89</ele>
        <time>2021-10-29T16:58:51Z</time>
      </trkpt>
      <trkpt lat="42.44781" lon="2.65017">
        <ele>724.95</ele>
        <time>2021-10-29T16:58:51Z</time>
      </trkpt>
      <trkpt lat="42.44764" lon="2.64995">
        <ele>737.53</ele>
        <time>2021-10-29T16:58:51Z</time>
      </trkpt>
      <trkpt lat="42.44766" lon="2.65043">
        <ele>733.39</ele>
        <time>2021-10-29T16:58:51Z</time>
      </trkpt>
      <trkpt lat="42.4475" lon="2.65029">
        <ele>744.93</ele>
        <time>2021-10-29T16:58:51Z</time>
      </trkpt>
      <trkpt lat="42.44754" lon="2.65091">
        <ele>737.67</ele>
        <time>2021-10-29T16:58:51Z</time>
      </trkpt>
      <trkpt lat="42.4474" lon="2.65072">
        <ele>748.16</ele>
        <time>2021-10-29T16:58:51Z</time>
      </trkpt>
      <trkpt lat="42.44738" lon="2.65102">
        <ele>746.55</ele>
        <time>2021-10-29T16:58:51Z</time>
      </trkpt>
      <trkpt lat="42.44723" lon="2.65085">
        <ele>757.61</ele>
        <time>2021-10-29T16:58:51Z</time>
      </trkpt>
      <trkpt lat="42.44712" lon="2.65115">
        <ele>760.8</ele>
        <time>2021-10-29T16:58:51Z</time>
      </trkpt>
      <trkpt lat="42.44693" lon="2.65123">
        <ele>771.04</ele>
        <time>2021-10-29T16:58:51Z</time>
      </trkpt>
      <trkpt lat="42.44676" lon="2.65128">
        <ele>780.36</ele>
        <time>2021-10-29T16:58:51Z</time>
      </trkpt>
      <trkpt lat="42.44663" lon="2.65146">
        <ele>785.84</ele>
        <time>2021-10-29T16:58:51Z</time>
      </trkpt>
      <trkpt lat="42.44642" lon="2.65157">
        <ele>796.79</ele>
        <time>2021-10-29T16:58:51Z</time>
      </trkpt>
      <trkpt lat="42.44654" lon="2.65171">
        <ele>788.17</ele>
        <time>2021-10-29T16:58:51Z</time>
      </trkpt>
      <trkpt lat="42.44658" lon="2.65215">
        <ele>782.78</ele>
        <time>2021-10-29T16:58:51Z</time>
      </trkpt>
      <trkpt lat="42.44663" lon="2.65243">
        <ele>778.26</ele>
        <time>2021-10-29T16:58:51Z</time>
      </trkpt>
      <trkpt lat="42.44637" lon="2.65283">
        <ele>790.53</ele>
        <time>2021-10-29T16:58:51Z</time>
      </trkpt>
      <trkpt lat="42.4462" lon="2.65306">
        <ele>795.67</ele>
        <time>2021-10-29T16:58:51Z</time>
      </trkpt>
      <trkpt lat="42.44597" lon="2.65339">
        <ele>799.43</ele>
        <time>2021-10-29T16:58:51Z</time>
      </trkpt>
      <trkpt lat="42.44582" lon="2.6536">
        <ele>801.19</ele>
        <time>2021-10-29T16:58:51Z</time>
      </trkpt>
      <trkpt lat="42.44563" lon="2.65369">
        <ele>805.18</ele>
        <time>2021-10-29T16:58:51Z</time>
      </trkpt>
      <trkpt lat="42.44545" lon="2.65365">
        <ele>808.91</ele>
        <time>2021-10-29T16:58:51Z</time>
      </trkpt>
      <trkpt lat="42.44524" lon="2.65358">
        <ele>812.31</ele>
        <time>2021-10-29T16:58:51Z</time>
      </trkpt>
      <trkpt lat="42.44502" lon="2.65362">
        <ele>812.56</ele>
        <time>2021-10-29T16:58:51Z</time>
      </trkpt>
      <trkpt lat="42.44482" lon="2.6536">
        <ele>815.42</ele>
        <time>2021-10-29T16:58:51Z</time>
      </trkpt>
      <trkpt lat="42.44467" lon="2.65353">
        <ele>819.92</ele>
        <time>2021-10-29T16:58:51Z</time>
      </trkpt>
      <trkpt lat="42.44451" lon="2.65371">
        <ele>825.61</ele>
        <time>2021-10-29T16:58:51Z</time>
      </trkpt>
      <trkpt lat="42.44445" lon="2.65395">
        <ele>826.17</ele>
        <time>2021-10-29T16:58:51Z</time>
      </trkpt>
      <trkpt lat="42.44447" lon="2.65434">
        <ele>823.21</ele>
        <time>2021-10-29T16:58:51Z</time>
      </trkpt>
      <trkpt lat="42.44432" lon="2.6545">
        <ele>831.22</ele>
        <time>2021-10-29T16:58:51Z</time>
      </trkpt>
      <trkpt lat="42.44426" lon="2.65475">
        <ele>832.6</ele>
        <time>2021-10-29T16:58:51Z</time>
      </trkpt>
      <trkpt lat="42.44421" lon="2.65495">
        <ele>830.91</ele>
        <time>2021-10-29T16:58:51Z</time>
      </trkpt>
      <trkpt lat="42.44411" lon="2.65505">
        <ele>833.09</ele>
        <time>2021-10-29T16:58:51Z</time>
      </trkpt>
      <trkpt lat="42.44409" lon="2.65482">
        <ele>837.49</ele>
        <time>2021-10-29T16:58:51Z</time>
      </trkpt>
      <trkpt lat="42.44378" lon="2.65501">
        <ele>842.96</ele>
        <time>2021-10-29T16:58:51Z</time>
      </trkpt>
      <trkpt lat="42.4435" lon="2.65513">
        <ele>848.48</ele>
        <time>2021-10-29T16:58:51Z</time>
      </trkpt>
      <trkpt lat="42.44318" lon="2.65524">
        <ele>854.52</ele>
        <time>2021-10-29T16:58:51Z</time>
      </trkpt>
      <trkpt lat="42.44282" lon="2.65536">
        <ele>864.48</ele>
        <time>2021-10-29T16:58:51Z</time>
      </trkpt>
      <trkpt lat="42.44259" lon="2.65543">
        <ele>868.87</ele>
        <time>2021-10-29T16:58:51Z</time>
      </trkpt>
      <trkpt lat="42.44239" lon="2.65569">
        <ele>878.01</ele>
        <time>2021-10-29T16:58:51Z</time>
      </trkpt>
      <trkpt lat="42.44223" lon="2.65619">
        <ele>889.02</ele>
        <time>2021-10-29T16:58:51Z</time>
      </trkpt>
      <trkpt lat="42.44214" lon="2.65661">
        <ele>896.98</ele>
        <time>2021-10-29T16:58:51Z</time>
      </trkpt>
      <trkpt lat="42.44207" lon="2.65699">
        <ele>900.13</ele>
        <time>2021-10-29T16:58:51Z</time>
      </trkpt>
      <trkpt lat="42.44188" lon="2.65715">
        <ele>900.9</ele>
        <time>2021-10-29T16:58:51Z</time>
      </trkpt>
      <trkpt lat="42.44164" lon="2.65725">
        <ele>896.33</ele>
        <time>2021-10-29T16:58:51Z</time>
      </trkpt>
      <trkpt lat="42.44133" lon="2.65725">
        <ele>891.57</ele>
        <time>2021-10-29T16:58:51Z</time>
      </trkpt>
      <trkpt lat="42.44107" lon="2.65724">
        <ele>888.76</ele>
        <time>2021-10-29T16:58:51Z</time>
      </trkpt>
      <trkpt lat="42.44079" lon="2.65726">
        <ele>891.48</ele>
        <time>2021-10-29T16:58:51Z</time>
      </trkpt>
      <trkpt lat="42.44031" lon="2.65751">
        <ele>879.35</ele>
        <time>2021-10-29T16:58:51Z</time>
      </trkpt>
      <trkpt lat="42.44005" lon="2.65777">
        <ele>878.66</ele>
        <time>2021-10-29T16:58:51Z</time>
      </trkpt>
      <trkpt lat="42.43988" lon="2.65808">
        <ele>875</ele>
        <time>2021-10-29T16:58:51Z</time>
      </trkpt>
      <trkpt lat="42.43933" lon="2.65828">
        <ele>874.21</ele>
        <time>2021-10-29T16:58:51Z</time>
      </trkpt>
      <trkpt lat="42.4392" lon="2.6583">
        <ele>871.64</ele>
        <time>2021-10-29T16:58:51Z</time>
      </trkpt>
      <trkpt lat="42.43911" lon="2.65812">
        <ele>874.72</ele>
        <time>2021-10-29T16:58:51Z</time>
      </trkpt>
      <trkpt lat="42.43902" lon="2.65796">
        <ele>877.71</ele>
        <time>2021-10-29T16:58:51Z</time>
      </trkpt>
      <trkpt lat="42.43893" lon="2.65781">
        <ele>882.26</ele>
        <time>2021-10-29T16:58:51Z</time>
      </trkpt>
      <trkpt lat="42.43877" lon="2.65781">
        <ele>880.83</ele>
        <time>2021-10-29T16:58:51Z</time>
      </trkpt>
      <trkpt lat="42.4386" lon="2.65788">
        <ele>878.58</ele>
        <time>2021-10-29T16:58:51Z</time>
      </trkpt>
      <trkpt lat="42.43849" lon="2.65795">
        <ele>876.67</ele>
        <time>2021-10-29T16:58:51Z</time>
      </trkpt>
      <trkpt lat="42.43838" lon="2.65795">
        <ele>878.38</ele>
        <time>2021-10-29T16:58:51Z</time>
      </trkpt>
      <trkpt lat="42.43829" lon="2.65795">
        <ele>878.45</ele>
        <time>2021-10-29T16:58:51Z</time>
      </trkpt>
      <trkpt lat="42.43808" lon="2.65789">
        <ele>877.63</ele>
        <time>2021-10-29T16:58:51Z</time>
      </trkpt>
      <trkpt lat="42.43788" lon="2.65787">
        <ele>870.68</ele>
        <time>2021-10-29T16:58:51Z</time>
      </trkpt>
      <trkpt lat="42.43771" lon="2.65792">
        <ele>866.59</ele>
        <time>2021-10-29T16:58:51Z</time>
      </trkpt>
      <trkpt lat="42.43761" lon="2.65801">
        <ele>868.59</ele>
        <time>2021-10-29T16:58:51Z</time>
      </trkpt>
      <trkpt lat="42.43747" lon="2.65801">
        <ele>876.49</ele>
        <time>2021-10-29T16:58:51Z</time>
      </trkpt>
      <trkpt lat="42.4373" lon="2.65804">
        <ele>880.31</ele>
        <time>2021-10-29T16:58:51Z</time>
      </trkpt>
      <trkpt lat="42.43713" lon="2.65815">
        <ele>878.83</ele>
        <time>2021-10-29T16:58:51Z</time>
      </trkpt>
      <trkpt lat="42.437" lon="2.65824">
        <ele>881.01</ele>
        <time>2021-10-29T16:58:51Z</time>
      </trkpt>
      <trkpt lat="42.4368" lon="2.65843">
        <ele>883.72</ele>
        <time>2021-10-29T16:58:51Z</time>
      </trkpt>
      <trkpt lat="42.43671" lon="2.65854">
        <ele>882.08</ele>
        <time>2021-10-29T16:58:51Z</time>
      </trkpt>
      <trkpt lat="42.43665" lon="2.65879">
        <ele>873.22</ele>
        <time>2021-10-29T16:58:51Z</time>
      </trkpt>
      <trkpt lat="42.43658" lon="2.65897">
        <ele>866.16</ele>
        <time>2021-10-29T16:58:51Z</time>
      </trkpt>
      <trkpt lat="42.4365" lon="2.65911">
        <ele>861.1</ele>
        <time>2021-10-29T16:58:51Z</time>
      </trkpt>
      <trkpt lat="42.43628" lon="2.65919">
        <ele>860.47</ele>
        <time>2021-10-29T16:58:51Z</time>
      </trkpt>
      <trkpt lat="42.43612" lon="2.65931">
        <ele>858.59</ele>
        <time>2021-10-29T16:58:51Z</time>
      </trkpt>
      <trkpt lat="42.43599" lon="2.65938">
        <ele>861.27</ele>
        <time>2021-10-29T16:58:51Z</time>
      </trkpt>
      <trkpt lat="42.4359" lon="2.65943">
        <ele>865.6</ele>
        <time>2021-10-29T16:58:51Z</time>
      </trkpt>
      <trkpt lat="42.43581" lon="2.65962">
        <ele>867.55</ele>
        <time>2021-10-29T16:58:51Z</time>
      </trkpt>
      <trkpt lat="42.43581" lon="2.65979">
        <ele>868.78</ele>
        <time>2021-10-29T16:58:51Z</time>
      </trkpt>
      <trkpt lat="42.43585" lon="2.66005">
        <ele>870.49</ele>
        <time>2021-10-29T16:58:51Z</time>
      </trkpt>
      <trkpt lat="42.43589" lon="2.66022">
        <ele>872.38</ele>
        <time>2021-10-29T16:58:51Z</time>
      </trkpt>
      <trkpt lat="42.43601" lon="2.66038">
        <ele>871.8</ele>
        <time>2021-10-29T16:58:51Z</time>
      </trkpt>
      <trkpt lat="42.43617" lon="2.66052">
        <ele>870.81</ele>
        <time>2021-10-29T16:58:51Z</time>
      </trkpt>
      <trkpt lat="42.43631" lon="2.66065">
        <ele>869.57</ele>
        <time>2021-10-29T16:58:51Z</time>
      </trkpt>
      <trkpt lat="42.43647" lon="2.66073">
        <ele>869.15</ele>
        <time>2021-10-29T16:58:51Z</time>
      </trkpt>
      <trkpt lat="42.43658" lon="2.66089">
        <ele>869.3</ele>
        <time>2021-10-29T16:58:51Z</time>
      </trkpt>
      <trkpt lat="42.43673" lon="2.66101">
        <ele>867.79</ele>
        <time>2021-10-29T16:58:51Z</time>
      </trkpt>
      <trkpt lat="42.43677" lon="2.66129">
        <ele>866.71</ele>
        <time>2021-10-29T16:58:51Z</time>
      </trkpt>
      <trkpt lat="42.43678" lon="2.66149">
        <ele>864.04</ele>
        <time>2021-10-29T16:58:51Z</time>
      </trkpt>
      <trkpt lat="42.43679" lon="2.66169">
        <ele>862.36</ele>
        <time>2021-10-29T16:58:51Z</time>
      </trkpt>
      <trkpt lat="42.43679" lon="2.66193">
        <ele>861.03</ele>
        <time>2021-10-29T16:58:51Z</time>
      </trkpt>
      <trkpt lat="42.43677" lon="2.66215">
        <ele>860.1</ele>
        <time>2021-10-29T16:58:51Z</time>
      </trkpt>
      <trkpt lat="42.43659" lon="2.66214">
        <ele>861.51</ele>
        <time>2021-10-29T16:58:51Z</time>
      </trkpt>
      <trkpt lat="42.43628" lon="2.66213">
        <ele>862.77</ele>
        <time>2021-10-29T16:58:51Z</time>
      </trkpt>
      <trkpt lat="42.43609" lon="2.66213">
        <ele>863.82</ele>
        <time>2021-10-29T16:58:51Z</time>
      </trkpt>
      <trkpt lat="42.43571" lon="2.66221">
        <ele>864.42</ele>
        <time>2021-10-29T16:58:51Z</time>
      </trkpt>
      <trkpt lat="42.43551" lon="2.6622">
        <ele>862.64</ele>
        <time>2021-10-29T16:58:51Z</time>
      </trkpt>
      <trkpt lat="42.43524" lon="2.66215">
        <ele>863.92</ele>
        <time>2021-10-29T16:58:51Z</time>
      </trkpt>
      <trkpt lat="42.43506" lon="2.66217">
        <ele>863.13</ele>
        <time>2021-10-29T16:58:51Z</time>
      </trkpt>
      <trkpt lat="42.43483" lon="2.66227">
        <ele>862.7</ele>
        <time>2021-10-29T16:58:51Z</time>
      </trkpt>
      <trkpt lat="42.43465" lon="2.66229">
        <ele>871.73</ele>
        <time>2021-10-29T16:58:51Z</time>
      </trkpt>
      <trkpt lat="42.4346" lon="2.66245">
        <ele>872.72</ele>
        <time>2021-10-29T16:58:51Z</time>
      </trkpt>
      <trkpt lat="42.43462" lon="2.66284">
        <ele>873.08</ele>
        <time>2021-10-29T16:58:51Z</time>
      </trkpt>
      <trkpt lat="42.43468" lon="2.66323">
        <ele>866.06</ele>
        <time>2021-10-29T16:58:51Z</time>
      </trkpt>
      <trkpt lat="42.43467" lon="2.66344">
        <ele>864.44</ele>
        <time>2021-10-29T16:58:51Z</time>
      </trkpt>
      <trkpt lat="42.43453" lon="2.66372">
        <ele>864.06</ele>
        <time>2021-10-29T16:58:51Z</time>
      </trkpt>
      <trkpt lat="42.43434" lon="2.66386">
        <ele>863.86</ele>
        <time>2021-10-29T16:58:51Z</time>
      </trkpt>
      <trkpt lat="42.43415" lon="2.66402">
        <ele>862.82</ele>
        <time>2021-10-29T16:58:51Z</time>
      </trkpt>
      <trkpt lat="42.43397" lon="2.66426">
        <ele>861.44</ele>
        <time>2021-10-29T16:58:51Z</time>
      </trkpt>
      <trkpt lat="42.43388" lon="2.66441">
        <ele>860.51</ele>
        <time>2021-10-29T16:58:51Z</time>
      </trkpt>
      <trkpt lat="42.43383" lon="2.66466">
        <ele>857.89</ele>
        <time>2021-10-29T16:58:51Z</time>
      </trkpt>
      <trkpt lat="42.43381" lon="2.66499">
        <ele>851.6</ele>
        <time>2021-10-29T16:58:51Z</time>
      </trkpt>
      <trkpt lat="42.4338" lon="2.66543">
        <ele>843.65</ele>
        <time>2021-10-29T16:58:51Z</time>
      </trkpt>
      <trkpt lat="42.43386" lon="2.66566">
        <ele>839.7</ele>
        <time>2021-10-29T16:58:51Z</time>
      </trkpt>
      <trkpt lat="42.43405" lon="2.66573">
        <ele>841.29</ele>
        <time>2021-10-29T16:58:51Z</time>
      </trkpt>
      <trkpt lat="42.43427" lon="2.6656">
        <ele>844.72</ele>
        <time>2021-10-29T16:58:51Z</time>
      </trkpt>
      <trkpt lat="42.4344" lon="2.66587">
        <ele>841.9</ele>
        <time>2021-10-29T16:58:51Z</time>
      </trkpt>
      <trkpt lat="42.43453" lon="2.66629">
        <ele>837.25</ele>
        <time>2021-10-29T16:58:51Z</time>
      </trkpt>
      <trkpt lat="42.43468" lon="2.66661">
        <ele>835.24</ele>
        <time>2021-10-29T16:58:51Z</time>
      </trkpt>
      <trkpt lat="42.43478" lon="2.66689">
        <ele>830.53</ele>
        <time>2021-10-29T16:58:51Z</time>
      </trkpt>
      <trkpt lat="42.43491" lon="2.6672">
        <ele>826.74</ele>
        <time>2021-10-29T16:58:51Z</time>
      </trkpt>
      <trkpt lat="42.43498" lon="2.66742">
        <ele>823.89</ele>
        <time>2021-10-29T16:58:51Z</time>
      </trkpt>
      <trkpt lat="42.4348" lon="2.66744">
        <ele>820.96</ele>
        <time>2021-10-29T16:58:51Z</time>
      </trkpt>
      <trkpt lat="42.43461" lon="2.66742">
        <ele>817.48</ele>
        <time>2021-10-29T16:58:51Z</time>
      </trkpt>
      <trkpt lat="42.43451" lon="2.66743">
        <ele>815.23</ele>
        <time>2021-10-29T16:58:51Z</time>
      </trkpt>
      <trkpt lat="42.4344" lon="2.66759">
        <ele>807.02</ele>
        <time>2021-10-29T16:58:51Z</time>
      </trkpt>
      <trkpt lat="42.43424" lon="2.66776">
        <ele>796.51</ele>
        <time>2021-10-29T16:58:51Z</time>
      </trkpt>
      <trkpt lat="42.43407" lon="2.66795">
        <ele>786.73</ele>
        <time>2021-10-29T16:58:51Z</time>
      </trkpt>
      <trkpt lat="42.43392" lon="2.668">
        <ele>782.13</ele>
        <time>2021-10-29T16:58:51Z</time>
      </trkpt>
      <trkpt lat="42.43373" lon="2.6681">
        <ele>774.39</ele>
        <time>2021-10-29T16:58:51Z</time>
      </trkpt>
      <trkpt lat="42.43369" lon="2.66828">
        <ele>765.17</ele>
        <time>2021-10-29T16:58:51Z</time>
      </trkpt>
      <trkpt lat="42.43387" lon="2.66845">
        <ele>758.89</ele>
        <time>2021-10-29T16:58:51Z</time>
      </trkpt>
      <trkpt lat="42.43392" lon="2.66864">
        <ele>748.24</ele>
        <time>2021-10-29T16:58:51Z</time>
      </trkpt>
      <trkpt lat="42.43379" lon="2.66889">
        <ele>734.26</ele>
        <time>2021-10-29T16:58:51Z</time>
      </trkpt>
      <trkpt lat="42.43365" lon="2.66912">
        <ele>722.09</ele>
        <time>2021-10-29T16:58:51Z</time>
      </trkpt>
      <trkpt lat="42.43353" lon="2.66933">
        <ele>710.07</ele>
        <time>2021-10-29T16:58:51Z</time>
      </trkpt>
      <trkpt lat="42.43336" lon="2.66952">
        <ele>699.67</ele>
        <time>2021-10-29T16:58:51Z</time>
      </trkpt>
      <trkpt lat="42.43317" lon="2.6697">
        <ele>691.66</ele>
        <time>2021-10-29T16:58:51Z</time>
      </trkpt>
      <trkpt lat="42.43296" lon="2.66973">
        <ele>689.87</ele>
        <time>2021-10-29T16:58:51Z</time>
      </trkpt>
      <trkpt lat="42.43278" lon="2.6697">
        <ele>689.76</ele>
        <time>2021-10-29T16:58:51Z</time>
      </trkpt>
      <trkpt lat="42.43263" lon="2.66964">
        <ele>690.17</ele>
        <time>2021-10-29T16:58:51Z</time>
      </trkpt>
      <trkpt lat="42.43226" lon="2.66968">
        <ele>681.67</ele>
        <time>2021-10-29T16:58:51Z</time>
      </trkpt>
      <trkpt lat="42.43211" lon="2.66978">
        <ele>675.68</ele>
        <time>2021-10-29T16:58:51Z</time>
      </trkpt>
      <trkpt lat="42.43194" lon="2.66988">
        <ele>670.03</ele>
        <time>2021-10-29T16:58:51Z</time>
      </trkpt>
      <trkpt lat="42.43168" lon="2.67001">
        <ele>669.45</ele>
        <time>2021-10-29T16:58:51Z</time>
      </trkpt>
      <trkpt lat="42.43155" lon="2.67005">
        <ele>670.58</ele>
        <time>2021-10-29T16:58:51Z</time>
      </trkpt>
      <trkpt lat="42.43139" lon="2.67001">
        <ele>673.12</ele>
        <time>2021-10-29T16:58:51Z</time>
      </trkpt>
      <trkpt lat="42.4313" lon="2.66986">
        <ele>675.81</ele>
        <time>2021-10-29T16:58:51Z</time>
      </trkpt>
      <trkpt lat="42.43121" lon="2.66967">
        <ele>679.78</ele>
        <time>2021-10-29T16:58:51Z</time>
      </trkpt>
      <trkpt lat="42.43111" lon="2.66959">
        <ele>684.53</ele>
        <time>2021-10-29T16:58:51Z</time>
      </trkpt>
      <trkpt lat="42.43097" lon="2.66959">
        <ele>689.22</ele>
        <time>2021-10-29T16:58:51Z</time>
      </trkpt>
      <trkpt lat="42.43084" lon="2.66972">
        <ele>691.68</ele>
        <time>2021-10-29T16:58:51Z</time>
      </trkpt>
      <trkpt lat="42.43079" lon="2.67002">
        <ele>690.91</ele>
        <time>2021-10-29T16:58:51Z</time>
      </trkpt>
      <trkpt lat="42.43081" lon="2.67024">
        <ele>688.38</ele>
        <time>2021-10-29T16:58:51Z</time>
      </trkpt>
      <trkpt lat="42.43085" lon="2.67047">
        <ele>684.94</ele>
        <time>2021-10-29T16:58:51Z</time>
      </trkpt>
      <trkpt lat="42.4309" lon="2.67067">
        <ele>681.39</ele>
        <time>2021-10-29T16:58:51Z</time>
      </trkpt>
      <trkpt lat="42.43097" lon="2.67085">
        <ele>677.4</ele>
        <time>2021-10-29T16:58:51Z</time>
      </trkpt>
      <trkpt lat="42.43093" lon="2.67099">
        <ele>677.56</ele>
        <time>2021-10-29T16:58:51Z</time>
      </trkpt>
      <trkpt lat="42.43082" lon="2.6711">
        <ele>679.56</ele>
        <time>2021-10-29T16:58:51Z</time>
      </trkpt>
      <trkpt lat="42.43063" lon="2.67116">
        <ele>684.17</ele>
        <time>2021-10-29T16:58:51Z</time>
      </trkpt>
      <trkpt lat="42.43049" lon="2.67118">
        <ele>687.46</ele>
        <time>2021-10-29T16:58:51Z</time>
      </trkpt>
      <trkpt lat="42.43032" lon="2.67119">
        <ele>691.33</ele>
        <time>2021-10-29T16:58:51Z</time>
      </trkpt>
      <trkpt lat="42.43018" lon="2.6712">
        <ele>694.42</ele>
        <time>2021-10-29T16:58:51Z</time>
      </trkpt>
      <trkpt lat="42.42997" lon="2.67116">
        <ele>700.94</ele>
        <time>2021-10-29T16:58:51Z</time>
      </trkpt>
      <trkpt lat="42.4298" lon="2.67114">
        <ele>706.89</ele>
        <time>2021-10-29T16:58:51Z</time>
      </trkpt>
      <trkpt lat="42.42966" lon="2.67133">
        <ele>705.81</ele>
        <time>2021-10-29T16:58:51Z</time>
      </trkpt>
      <trkpt lat="42.42962" lon="2.67156">
        <ele>700.06</ele>
        <time>2021-10-29T16:58:51Z</time>
      </trkpt>
      <trkpt lat="42.42951" lon="2.67176">
        <ele>698.81</ele>
        <time>2021-10-29T16:58:51Z</time>
      </trkpt>
      <trkpt lat="42.42939" lon="2.67204">
        <ele>695.81</ele>
        <time>2021-10-29T16:58:51Z</time>
      </trkpt>
      <trkpt lat="42.42928" lon="2.6723">
        <ele>693.47</ele>
        <time>2021-10-29T16:58:51Z</time>
      </trkpt>
      <trkpt lat="42.42913" lon="2.6725">
        <ele>697.42</ele>
        <time>2021-10-29T16:58:51Z</time>
      </trkpt>
      <trkpt lat="42.42904" lon="2.67275">
        <ele>699.07</ele>
        <time>2021-10-29T16:58:51Z</time>
      </trkpt>
      <trkpt lat="42.42893" lon="2.67301">
        <ele>702.07</ele>
        <time>2021-10-29T16:58:51Z</time>
      </trkpt>
      <trkpt lat="42.42889" lon="2.67321">
        <ele>702.66</ele>
        <time>2021-10-29T16:58:51Z</time>
      </trkpt>
      <trkpt lat="42.42885" lon="2.67356">
        <ele>703.94</ele>
        <time>2021-10-29T16:58:51Z</time>
      </trkpt>
      <trkpt lat="42.42882" lon="2.67388">
        <ele>704.86</ele>
        <time>2021-10-29T16:58:51Z</time>
      </trkpt>
      <trkpt lat="42.42885" lon="2.67413">
        <ele>703.09</ele>
        <time>2021-10-29T16:58:51Z</time>
      </trkpt>
      <trkpt lat="42.42889" lon="2.67432">
        <ele>700.99</ele>
        <time>2021-10-29T16:58:51Z</time>
      </trkpt>
      <trkpt lat="42.42897" lon="2.67451">
        <ele>696.98</ele>
        <time>2021-10-29T16:58:51Z</time>
      </trkpt>
      <trkpt lat="42.42899" lon="2.67467">
        <ele>695.79</ele>
        <time>2021-10-29T16:58:51Z</time>
      </trkpt>
      <trkpt lat="42.42913" lon="2.67483">
        <ele>689.53</ele>
        <time>2021-10-29T16:58:51Z</time>
      </trkpt>
      <trkpt lat="42.42931" lon="2.67483">
        <ele>682.72</ele>
        <time>2021-10-29T16:58:51Z</time>
      </trkpt>
      <trkpt lat="42.42949" lon="2.67483">
        <ele>676.56</ele>
        <time>2021-10-29T16:58:51Z</time>
      </trkpt>
      <trkpt lat="42.42966" lon="2.6749">
        <ele>671.08</ele>
        <time>2021-10-29T16:58:51Z</time>
      </trkpt>
      <trkpt lat="42.42977" lon="2.67502">
        <ele>668.3</ele>
        <time>2021-10-29T16:58:51Z</time>
      </trkpt>
      <trkpt lat="42.42984" lon="2.67521">
        <ele>666.94</ele>
        <time>2021-10-29T16:58:51Z</time>
      </trkpt>
      <trkpt lat="42.42992" lon="2.67546">
        <ele>664.26</ele>
        <time>2021-10-29T16:58:51Z</time>
      </trkpt>
      <trkpt lat="42.42996" lon="2.67564">
        <ele>661.44</ele>
        <time>2021-10-29T16:58:51Z</time>
      </trkpt>
      <trkpt lat="42.42988" lon="2.6758">
        <ele>661.12</ele>
        <time>2021-10-29T16:58:51Z</time>
      </trkpt>
      <trkpt lat="42.42978" lon="2.67591">
        <ele>661.93</ele>
        <time>2021-10-29T16:58:51Z</time>
      </trkpt>
      <trkpt lat="42.42964" lon="2.67606">
        <ele>661.09</ele>
        <time>2021-10-29T16:58:51Z</time>
      </trkpt>
      <trkpt lat="42.4295" lon="2.6762">
        <ele>656.62</ele>
        <time>2021-10-29T16:58:51Z</time>
      </trkpt>
      <trkpt lat="42.42931" lon="2.67626">
        <ele>657.63</ele>
        <time>2021-10-29T16:58:51Z</time>
      </trkpt>
      <trkpt lat="42.42919" lon="2.67638">
        <ele>655.43</ele>
        <time>2021-10-29T16:58:51Z</time>
      </trkpt>
      <trkpt lat="42.42918" lon="2.6765">
        <ele>653.13</ele>
        <time>2021-10-29T16:58:51Z</time>
      </trkpt>
      <trkpt lat="42.42927" lon="2.67663">
        <ele>652.79</ele>
        <time>2021-10-29T16:58:51Z</time>
      </trkpt>
      <trkpt lat="42.4294" lon="2.67685">
        <ele>658.99</ele>
        <time>2021-10-29T16:58:51Z</time>
      </trkpt>
      <trkpt lat="42.42951" lon="2.67694">
        <ele>664.98</ele>
        <time>2021-10-29T16:58:51Z</time>
      </trkpt>
      <trkpt lat="42.4297" lon="2.67697">
        <ele>665.77</ele>
        <time>2021-10-29T16:58:51Z</time>
      </trkpt>
      <trkpt lat="42.42984" lon="2.67692">
        <ele>663.92</ele>
        <time>2021-10-29T16:58:51Z</time>
      </trkpt>
      <trkpt lat="42.42997" lon="2.67692">
        <ele>663.86</ele>
        <time>2021-10-29T16:58:51Z</time>
      </trkpt>
      <trkpt lat="42.43018" lon="2.677">
        <ele>664.23</ele>
        <time>2021-10-29T16:58:51Z</time>
      </trkpt>
      <trkpt lat="42.43038" lon="2.677">
        <ele>665.18</ele>
        <time>2021-10-29T16:58:51Z</time>
      </trkpt>
      <trkpt lat="42.43057" lon="2.67694">
        <ele>665.8</ele>
        <time>2021-10-29T16:58:51Z</time>
      </trkpt>
      <trkpt lat="42.43057" lon="2.67669">
        <ele>665.63</ele>
        <time>2021-10-29T16:58:51Z</time>
      </trkpt>
      <trkpt lat="42.43059" lon="2.67645">
        <ele>665.44</ele>
        <time>2021-10-29T16:58:51Z</time>
      </trkpt>
      <trkpt lat="42.43065" lon="2.67613">
        <ele>665.11</ele>
        <time>2021-10-29T16:58:51Z</time>
      </trkpt>
      <trkpt lat="42.43068" lon="2.67587">
        <ele>664.96</ele>
        <time>2021-10-29T16:58:51Z</time>
      </trkpt>
      <trkpt lat="42.43053" lon="2.67566">
        <ele>662.35</ele>
        <time>2021-10-29T16:58:51Z</time>
      </trkpt>
      <trkpt lat="42.43045" lon="2.67542">
        <ele>662.99</ele>
        <time>2021-10-29T16:58:51Z</time>
      </trkpt>
      <trkpt lat="42.43041" lon="2.67505">
        <ele>665.1</ele>
        <time>2021-10-29T16:58:51Z</time>
      </trkpt>
      <trkpt lat="42.4303" lon="2.67478">
        <ele>663.57</ele>
        <time>2021-10-29T16:58:51Z</time>
      </trkpt>
      <trkpt lat="42.43025" lon="2.67446">
        <ele>663.28</ele>
        <time>2021-10-29T16:58:51Z</time>
      </trkpt>
      <trkpt lat="42.43019" lon="2.67419">
        <ele>661.65</ele>
        <time>2021-10-29T16:58:51Z</time>
      </trkpt>
      <trkpt lat="42.43011" lon="2.6738">
        <ele>657.74</ele>
        <time>2021-10-29T16:58:51Z</time>
      </trkpt>
      <trkpt lat="42.43015" lon="2.6736">
        <ele>656.87</ele>
        <time>2021-10-29T16:58:51Z</time>
      </trkpt>
      <trkpt lat="42.43026" lon="2.67339">
        <ele>655.63</ele>
        <time>2021-10-29T16:58:51Z</time>
      </trkpt>
      <trkpt lat="42.4305" lon="2.67332">
        <ele>655.73</ele>
        <time>2021-10-29T16:58:51Z</time>
      </trkpt>
      <trkpt lat="42.43089" lon="2.67337">
        <ele>658.67</ele>
        <time>2021-10-29T16:58:51Z</time>
      </trkpt>
      <trkpt lat="42.43124" lon="2.6733">
        <ele>658.34</ele>
        <time>2021-10-29T16:58:51Z</time>
      </trkpt>
      <trkpt lat="42.4316" lon="2.67324">
        <ele>656.79</ele>
        <time>2021-10-29T16:58:51Z</time>
      </trkpt>
      <trkpt lat="42.43178" lon="2.67323">
        <ele>657.54</ele>
        <time>2021-10-29T16:58:51Z</time>
      </trkpt>
      <trkpt lat="42.43195" lon="2.67315">
        <ele>654.76</ele>
        <time>2021-10-29T16:58:51Z</time>
      </trkpt>
      <trkpt lat="42.43219" lon="2.67299">
        <ele>650.8</ele>
        <time>2021-10-29T16:58:51Z</time>
      </trkpt>
      <trkpt lat="42.43235" lon="2.67279">
        <ele>649.56</ele>
        <time>2021-10-29T16:58:51Z</time>
      </trkpt>
      <trkpt lat="42.43243" lon="2.67262">
        <ele>650.46</ele>
        <time>2021-10-29T16:58:51Z</time>
      </trkpt>
      <trkpt lat="42.43243" lon="2.67246">
        <ele>648.17</ele>
        <time>2021-10-29T16:58:51Z</time>
      </trkpt>
      <trkpt lat="42.43247" lon="2.67218">
        <ele>644.79</ele>
        <time>2021-10-29T16:58:51Z</time>
      </trkpt>
      <trkpt lat="42.43257" lon="2.67199">
        <ele>641.98</ele>
        <time>2021-10-29T16:58:51Z</time>
      </trkpt>
      <trkpt lat="42.43272" lon="2.67191">
        <ele>640.2</ele>
        <time>2021-10-29T16:58:51Z</time>
      </trkpt>
      <trkpt lat="42.43284" lon="2.67193">
        <ele>642.51</ele>
        <time>2021-10-29T16:58:51Z</time>
      </trkpt>
      <trkpt lat="42.43301" lon="2.67202">
        <ele>645.53</ele>
        <time>2021-10-29T16:58:51Z</time>
      </trkpt>
      <trkpt lat="42.43316" lon="2.67214">
        <ele>648.61</ele>
        <time>2021-10-29T16:58:51Z</time>
      </trkpt>
      <trkpt lat="42.43328" lon="2.67218">
        <ele>647.58</ele>
        <time>2021-10-29T16:58:51Z</time>
      </trkpt>
      <trkpt lat="42.43347" lon="2.67222">
        <ele>645.96</ele>
        <time>2021-10-29T16:58:51Z</time>
      </trkpt>
      <trkpt lat="42.43367" lon="2.67222">
        <ele>645.03</ele>
        <time>2021-10-29T16:58:51Z</time>
      </trkpt>
      <trkpt lat="42.43381" lon="2.67226">
        <ele>645.9</ele>
        <time>2021-10-29T16:58:51Z</time>
      </trkpt>
      <trkpt lat="42.43409" lon="2.6723">
        <ele>642.3</ele>
        <time>2021-10-29T16:58:51Z</time>
      </trkpt>
      <trkpt lat="42.43423" lon="2.67237">
        <ele>642.35</ele>
        <time>2021-10-29T16:58:51Z</time>
      </trkpt>
      <trkpt lat="42.43438" lon="2.67246">
        <ele>639.63</ele>
        <time>2021-10-29T16:58:51Z</time>
      </trkpt>
      <trkpt lat="42.43444" lon="2.67264">
        <ele>646.07</ele>
        <time>2021-10-29T16:58:51Z</time>
      </trkpt>
      <trkpt lat="42.43461" lon="2.67279">
        <ele>642.72</ele>
        <time>2021-10-29T16:58:51Z</time>
      </trkpt>
      <trkpt lat="42.43475" lon="2.67291">
        <ele>641.65</ele>
        <time>2021-10-29T16:58:51Z</time>
      </trkpt>
      <trkpt lat="42.43493" lon="2.67308">
        <ele>637.4</ele>
        <time>2021-10-29T16:58:51Z</time>
      </trkpt>
      <trkpt lat="42.43497" lon="2.67323">
        <ele>638.3</ele>
        <time>2021-10-29T16:58:51Z</time>
      </trkpt>
      <trkpt lat="42.43491" lon="2.6734">
        <ele>643.33</ele>
        <time>2021-10-29T16:58:51Z</time>
      </trkpt>
      <trkpt lat="42.43488" lon="2.67354">
        <ele>645.78</ele>
        <time>2021-10-29T16:58:51Z</time>
      </trkpt>
      <trkpt lat="42.43502" lon="2.6736">
        <ele>641.95</ele>
        <time>2021-10-29T16:58:51Z</time>
      </trkpt>
      <trkpt lat="42.43521" lon="2.67369">
        <ele>638.23</ele>
        <time>2021-10-29T16:58:51Z</time>
      </trkpt>
      <trkpt lat="42.43536" lon="2.67376">
        <ele>636.19</ele>
        <time>2021-10-29T16:58:51Z</time>
      </trkpt>
      <trkpt lat="42.43555" lon="2.6739">
        <ele>638.69</ele>
        <time>2021-10-29T16:58:51Z</time>
      </trkpt>
      <trkpt lat="42.43566" lon="2.67402">
        <ele>640.47</ele>
        <time>2021-10-29T16:58:51Z</time>
      </trkpt>
      <trkpt lat="42.43586" lon="2.67413">
        <ele>640.72</ele>
        <time>2021-10-29T16:58:51Z</time>
      </trkpt>
      <trkpt lat="42.43593" lon="2.67426">
        <ele>646.8</ele>
        <time>2021-10-29T16:58:51Z</time>
      </trkpt>
      <trkpt lat="42.43609" lon="2.67427">
        <ele>650.02</ele>
        <time>2021-10-29T16:58:51Z</time>
      </trkpt>
      <trkpt lat="42.43624" lon="2.67429">
        <ele>654.29</ele>
        <time>2021-10-29T16:58:51Z</time>
      </trkpt>
      <trkpt lat="42.43643" lon="2.6744">
        <ele>654.59</ele>
        <time>2021-10-29T16:58:51Z</time>
      </trkpt>
      <trkpt lat="42.43663" lon="2.67468">
        <ele>657.04</ele>
        <time>2021-10-29T16:58:51Z</time>
      </trkpt>
      <trkpt lat="42.43682" lon="2.67468">
        <ele>659.25</ele>
        <time>2021-10-29T16:58:51Z</time>
      </trkpt>
      <trkpt lat="42.43702" lon="2.67468">
        <ele>666.53</ele>
        <time>2021-10-29T16:58:51Z</time>
      </trkpt>
      <trkpt lat="42.43719" lon="2.67467">
        <ele>670.48</ele>
        <time>2021-10-29T16:58:51Z</time>
      </trkpt>
      <trkpt lat="42.43733" lon="2.67471">
        <ele>671.23</ele>
        <time>2021-10-29T16:58:51Z</time>
      </trkpt>
      <trkpt lat="42.43719" lon="2.67497">
        <ele>673.76</ele>
        <time>2021-10-29T16:58:51Z</time>
      </trkpt>
      <trkpt lat="42.43711" lon="2.67517">
        <ele>677.22</ele>
        <time>2021-10-29T16:58:51Z</time>
      </trkpt>
      <trkpt lat="42.43707" lon="2.67543">
        <ele>678.59</ele>
        <time>2021-10-29T16:58:51Z</time>
      </trkpt>
      <trkpt lat="42.43713" lon="2.67577">
        <ele>686.76</ele>
        <time>2021-10-29T16:58:51Z</time>
      </trkpt>
      <trkpt lat="42.43723" lon="2.676">
        <ele>689.68</ele>
        <time>2021-10-29T16:58:51Z</time>
      </trkpt>
      <trkpt lat="42.43738" lon="2.67611">
        <ele>690.75</ele>
        <time>2021-10-29T16:58:51Z</time>
      </trkpt>
      <trkpt lat="42.4376" lon="2.67619">
        <ele>689.06</ele>
        <time>2021-10-29T16:58:51Z</time>
      </trkpt>
      <trkpt lat="42.43775" lon="2.67632">
        <ele>691.1</ele>
        <time>2021-10-29T16:58:51Z</time>
      </trkpt>
      <trkpt lat="42.43787" lon="2.67647">
        <ele>693.3</ele>
        <time>2021-10-29T16:58:51Z</time>
      </trkpt>
      <trkpt lat="42.43814" lon="2.6765">
        <ele>689.18</ele>
        <time>2021-10-29T16:58:51Z</time>
      </trkpt>
      <trkpt lat="42.43844" lon="2.67654">
        <ele>683.55</ele>
        <time>2021-10-29T16:58:51Z</time>
      </trkpt>
      <trkpt lat="42.43869" lon="2.67661">
        <ele>683.79</ele>
        <time>2021-10-29T16:58:51Z</time>
      </trkpt>
      <trkpt lat="42.4389" lon="2.67667">
        <ele>682</ele>
        <time>2021-10-29T16:58:51Z</time>
      </trkpt>
      <trkpt lat="42.43914" lon="2.67662">
        <ele>675.75</ele>
        <time>2021-10-29T16:58:51Z</time>
      </trkpt>
      <trkpt lat="42.43928" lon="2.67663">
        <ele>672.68</ele>
        <time>2021-10-29T16:58:51Z</time>
      </trkpt>
      <trkpt lat="42.43943" lon="2.67691">
        <ele>674.04</ele>
        <time>2021-10-29T16:58:51Z</time>
      </trkpt>
      <trkpt lat="42.4396" lon="2.67711">
        <ele>670.96</ele>
        <time>2021-10-29T16:58:51Z</time>
      </trkpt>
      <trkpt lat="42.43971" lon="2.67726">
        <ele>672.12</ele>
        <time>2021-10-29T16:58:51Z</time>
      </trkpt>
      <trkpt lat="42.43999" lon="2.67732">
        <ele>668.37</ele>
        <time>2021-10-29T16:58:51Z</time>
      </trkpt>
      <trkpt lat="42.44023" lon="2.67732">
        <ele>662.77</ele>
        <time>2021-10-29T16:58:51Z</time>
      </trkpt>
      <trkpt lat="42.44037" lon="2.67733">
        <ele>659.66</ele>
        <time>2021-10-29T16:58:51Z</time>
      </trkpt>
      <trkpt lat="42.44061" lon="2.67723">
        <ele>650.5</ele>
        <time>2021-10-29T16:58:51Z</time>
      </trkpt>
      <trkpt lat="42.44079" lon="2.67719">
        <ele>644.44</ele>
        <time>2021-10-29T16:58:51Z</time>
      </trkpt>
      <trkpt lat="42.44102" lon="2.67724">
        <ele>641.03</ele>
        <time>2021-10-29T16:58:51Z</time>
      </trkpt>
      <trkpt lat="42.44125" lon="2.67734">
        <ele>638.02</ele>
        <time>2021-10-29T16:58:51Z</time>
      </trkpt>
      <trkpt lat="42.44146" lon="2.67744">
        <ele>632.02</ele>
        <time>2021-10-29T16:58:51Z</time>
      </trkpt>
      <trkpt lat="42.44151" lon="2.67763">
        <ele>630.13</ele>
        <time>2021-10-29T16:58:51Z</time>
      </trkpt>
      <trkpt lat="42.44145" lon="2.6778">
        <ele>629.25</ele>
        <time>2021-10-29T16:58:51Z</time>
      </trkpt>
      <trkpt lat="42.44133" lon="2.67791">
        <ele>630.23</ele>
        <time>2021-10-29T16:58:51Z</time>
      </trkpt>
      <trkpt lat="42.44118" lon="2.67803">
        <ele>634.78</ele>
        <time>2021-10-29T16:58:51Z</time>
      </trkpt>
      <trkpt lat="42.44118" lon="2.67821">
        <ele>634.31</ele>
        <time>2021-10-29T16:58:51Z</time>
      </trkpt>
      <trkpt lat="42.44127" lon="2.6785">
        <ele>629.74</ele>
        <time>2021-10-29T16:58:51Z</time>
      </trkpt>
      <trkpt lat="42.44137" lon="2.67886">
        <ele>622.24</ele>
        <time>2021-10-29T16:58:51Z</time>
      </trkpt>
      <trkpt lat="42.44143" lon="2.67912">
        <ele>611.34</ele>
        <time>2021-10-29T16:58:51Z</time>
      </trkpt>
      <trkpt lat="42.44137" lon="2.67928">
        <ele>611.95</ele>
        <time>2021-10-29T16:58:51Z</time>
      </trkpt>
      <trkpt lat="42.44122" lon="2.67949">
        <ele>612.84</ele>
        <time>2021-10-29T16:58:51Z</time>
      </trkpt>
      <trkpt lat="42.44108" lon="2.6796">
        <ele>615.99</ele>
        <time>2021-10-29T16:58:51Z</time>
      </trkpt>
      <trkpt lat="42.44097" lon="2.67978">
        <ele>615.58</ele>
        <time>2021-10-29T16:58:51Z</time>
      </trkpt>
      <trkpt lat="42.44081" lon="2.67995">
        <ele>618.45</ele>
        <time>2021-10-29T16:58:51Z</time>
      </trkpt>
      <trkpt lat="42.44069" lon="2.68013">
        <ele>619.44</ele>
        <time>2021-10-29T16:58:51Z</time>
      </trkpt>
      <trkpt lat="42.44061" lon="2.68026">
        <ele>619.65</ele>
        <time>2021-10-29T16:58:51Z</time>
      </trkpt>
      <trkpt lat="42.44055" lon="2.68047">
        <ele>615.93</ele>
        <time>2021-10-29T16:58:51Z</time>
      </trkpt>
      <trkpt lat="42.44047" lon="2.68067">
        <ele>613.63</ele>
        <time>2021-10-29T16:58:51Z</time>
      </trkpt>
      <trkpt lat="42.44031" lon="2.68094">
        <ele>612.63</ele>
        <time>2021-10-29T16:58:51Z</time>
      </trkpt>
      <trkpt lat="42.44012" lon="2.68126">
        <ele>611.93</ele>
        <time>2021-10-29T16:58:51Z</time>
      </trkpt>
      <trkpt lat="42.43999" lon="2.68141">
        <ele>615.51</ele>
        <time>2021-10-29T16:58:51Z</time>
      </trkpt>
      <trkpt lat="42.43988" lon="2.68164">
        <ele>615.36</ele>
        <time>2021-10-29T16:58:51Z</time>
      </trkpt>
      <trkpt lat="42.43989" lon="2.682">
        <ele>602.88</ele>
        <time>2021-10-29T16:58:51Z</time>
      </trkpt>
      <trkpt lat="42.43981" lon="2.68226">
        <ele>600.76</ele>
        <time>2021-10-29T16:58:51Z</time>
      </trkpt>
      <trkpt lat="42.43965" lon="2.68249">
        <ele>602.93</ele>
        <time>2021-10-29T16:58:51Z</time>
      </trkpt>
      <trkpt lat="42.4396" lon="2.68263">
        <ele>601.25</ele>
        <time>2021-10-29T16:58:51Z</time>
      </trkpt>
      <trkpt lat="42.43953" lon="2.68279">
        <ele>600.31</ele>
        <time>2021-10-29T16:58:51Z</time>
      </trkpt>
      <trkpt lat="42.43939" lon="2.68297">
        <ele>604.13</ele>
        <time>2021-10-29T16:58:51Z</time>
      </trkpt>
      <trkpt lat="42.43929" lon="2.68305">
        <ele>607.83</ele>
        <time>2021-10-29T16:58:51Z</time>
      </trkpt>
      <trkpt lat="42.43924" lon="2.68328">
        <ele>604.75</ele>
        <time>2021-10-29T16:58:51Z</time>
      </trkpt>
      <trkpt lat="42.43913" lon="2.68352">
        <ele>607.17</ele>
        <time>2021-10-29T16:58:51Z</time>
      </trkpt>
      <trkpt lat="42.43903" lon="2.68365">
        <ele>611.54</ele>
        <time>2021-10-29T16:58:51Z</time>
      </trkpt>
      <trkpt lat="42.43899" lon="2.68385">
        <ele>612.77</ele>
        <time>2021-10-29T16:58:51Z</time>
      </trkpt>
      <trkpt lat="42.43893" lon="2.68407">
        <ele>613.71</ele>
        <time>2021-10-29T16:58:51Z</time>
      </trkpt>
      <trkpt lat="42.43882" lon="2.68429">
        <ele>619.26</ele>
        <time>2021-10-29T16:58:51Z</time>
      </trkpt>
      <trkpt lat="42.43884" lon="2.68447">
        <ele>622.32</ele>
        <time>2021-10-29T16:58:51Z</time>
      </trkpt>
      <trkpt lat="42.43899" lon="2.68441">
        <ele>619.85</ele>
        <time>2021-10-29T16:58:51Z</time>
      </trkpt>
      <trkpt lat="42.43916" lon="2.68436">
        <ele>616.8</ele>
        <time>2021-10-29T16:58:51Z</time>
      </trkpt>
      <trkpt lat="42.43929" lon="2.68425">
        <ele>611.56</ele>
        <time>2021-10-29T16:58:51Z</time>
      </trkpt>
      <trkpt lat="42.43955" lon="2.68425">
        <ele>608.42</ele>
        <time>2021-10-29T16:58:51Z</time>
      </trkpt>
      <trkpt lat="42.43975" lon="2.68425">
        <ele>608.44</ele>
        <time>2021-10-29T16:58:51Z</time>
      </trkpt>
      <trkpt lat="42.44006" lon="2.68416">
        <ele>604.45</ele>
        <time>2021-10-29T16:58:51Z</time>
      </trkpt>
      <trkpt lat="42.4403" lon="2.68416">
        <ele>603.38</ele>
        <time>2021-10-29T16:58:51Z</time>
      </trkpt>
      <trkpt lat="42.44046" lon="2.68416">
        <ele>602.04</ele>
        <time>2021-10-29T16:58:51Z</time>
      </trkpt>
      <trkpt lat="42.44062" lon="2.68424">
        <ele>604.96</ele>
        <time>2021-10-29T16:58:51Z</time>
      </trkpt>
      <trkpt lat="42.44086" lon="2.68434">
        <ele>608.83</ele>
        <time>2021-10-29T16:58:51Z</time>
      </trkpt>
      <trkpt lat="42.44105" lon="2.68433">
        <ele>610.56</ele>
        <time>2021-10-29T16:58:51Z</time>
      </trkpt>
      <trkpt lat="42.44125" lon="2.68424">
        <ele>609.69</ele>
        <time>2021-10-29T16:58:51Z</time>
      </trkpt>
      <trkpt lat="42.44145" lon="2.68412">
        <ele>610.39</ele>
        <time>2021-10-29T16:58:51Z</time>
      </trkpt>
      <trkpt lat="42.44164" lon="2.68394">
        <ele>607.22</ele>
        <time>2021-10-29T16:58:51Z</time>
      </trkpt>
      <trkpt lat="42.44188" lon="2.68368">
        <ele>603.15</ele>
        <time>2021-10-29T16:58:51Z</time>
      </trkpt>
      <trkpt lat="42.44198" lon="2.68345">
        <ele>597.4</ele>
        <time>2021-10-29T16:58:51Z</time>
      </trkpt>
      <trkpt lat="42.44215" lon="2.68318">
        <ele>591.66</ele>
        <time>2021-10-29T16:58:51Z</time>
      </trkpt>
      <trkpt lat="42.44227" lon="2.68304">
        <ele>587.56</ele>
        <time>2021-10-29T16:58:51Z</time>
      </trkpt>
      <trkpt lat="42.44241" lon="2.68308">
        <ele>586.07</ele>
        <time>2021-10-29T16:58:51Z</time>
      </trkpt>
      <trkpt lat="42.44249" lon="2.68322">
        <ele>587.92</ele>
        <time>2021-10-29T16:58:51Z</time>
      </trkpt>
      <trkpt lat="42.44254" lon="2.6834">
        <ele>592.12</ele>
        <time>2021-10-29T16:58:51Z</time>
      </trkpt>
      <trkpt lat="42.4427" lon="2.68327">
        <ele>582.86</ele>
        <time>2021-10-29T16:58:51Z</time>
      </trkpt>
      <trkpt lat="42.44274" lon="2.68359">
        <ele>591.9</ele>
        <time>2021-10-29T16:58:51Z</time>
      </trkpt>
      <trkpt lat="42.4429" lon="2.6834">
        <ele>580.62</ele>
        <time>2021-10-29T16:58:51Z</time>
      </trkpt>
      <trkpt lat="42.44308" lon="2.68366">
        <ele>581.82</ele>
        <time>2021-10-29T16:58:51Z</time>
      </trkpt>
      <trkpt lat="42.44328" lon="2.68386">
        <ele>578.97</ele>
        <time>2021-10-29T16:58:51Z</time>
      </trkpt>
      <trkpt lat="42.44344" lon="2.68399">
        <ele>575.76</ele>
        <time>2021-10-29T16:58:51Z</time>
      </trkpt>
      <trkpt lat="42.44364" lon="2.68418">
        <ele>571.11</ele>
        <time>2021-10-29T16:58:51Z</time>
      </trkpt>
      <trkpt lat="42.44378" lon="2.68418">
        <ele>566.53</ele>
        <time>2021-10-29T16:58:51Z</time>
      </trkpt>
      <trkpt lat="42.44394" lon="2.68427">
        <ele>560.97</ele>
        <time>2021-10-29T16:58:51Z</time>
      </trkpt>
      <trkpt lat="42.44411" lon="2.6843">
        <ele>551.54</ele>
        <time>2021-10-29T16:58:51Z</time>
      </trkpt>
      <trkpt lat="42.44433" lon="2.68442">
        <ele>542.17</ele>
        <time>2021-10-29T16:58:51Z</time>
      </trkpt>
      <trkpt lat="42.44419" lon="2.68454">
        <ele>545.91</ele>
        <time>2021-10-29T16:58:51Z</time>
      </trkpt>
      <trkpt lat="42.44407" lon="2.68458">
        <ele>549.99</ele>
        <time>2021-10-29T16:58:51Z</time>
      </trkpt>
      <trkpt lat="42.44392" lon="2.68466">
        <ele>558.03</ele>
        <time>2021-10-29T16:58:51Z</time>
      </trkpt>
      <trkpt lat="42.44376" lon="2.6848">
        <ele>563.62</ele>
        <time>2021-10-29T16:58:51Z</time>
      </trkpt>
      <trkpt lat="42.44368" lon="2.68494">
        <ele>564.15</ele>
        <time>2021-10-29T16:58:51Z</time>
      </trkpt>
      <trkpt lat="42.44358" lon="2.68503">
        <ele>567.21</ele>
        <time>2021-10-29T16:58:51Z</time>
      </trkpt>
      <trkpt lat="42.44343" lon="2.68518">
        <ele>572.74</ele>
        <time>2021-10-29T16:58:51Z</time>
      </trkpt>
      <trkpt lat="42.44337" lon="2.68534">
        <ele>574.87</ele>
        <time>2021-10-29T16:58:51Z</time>
      </trkpt>
      <trkpt lat="42.4433" lon="2.68553">
        <ele>578.05</ele>
        <time>2021-10-29T16:58:51Z</time>
      </trkpt>
      <trkpt lat="42.4433" lon="2.68572">
        <ele>578.16</ele>
        <time>2021-10-29T16:58:51Z</time>
      </trkpt>
      <trkpt lat="42.44335" lon="2.6859">
        <ele>575.58</ele>
        <time>2021-10-29T16:58:51Z</time>
      </trkpt>
      <trkpt lat="42.44343" lon="2.68611">
        <ele>570.86</ele>
        <time>2021-10-29T16:58:51Z</time>
      </trkpt>
      <trkpt lat="42.44348" lon="2.68632">
        <ele>567.31</ele>
        <time>2021-10-29T16:58:51Z</time>
      </trkpt>
      <trkpt lat="42.44341" lon="2.68653">
        <ele>570.72</ele>
        <time>2021-10-29T16:58:51Z</time>
      </trkpt>
      <trkpt lat="42.44335" lon="2.68669">
        <ele>573.85</ele>
        <time>2021-10-29T16:58:51Z</time>
      </trkpt>
      <trkpt lat="42.44329" lon="2.68683">
        <ele>577.14</ele>
        <time>2021-10-29T16:58:51Z</time>
      </trkpt>
      <trkpt lat="42.4432" lon="2.68696">
        <ele>580.72</ele>
        <time>2021-10-29T16:58:51Z</time>
      </trkpt>
      <trkpt lat="42.44312" lon="2.68709">
        <ele>583.4</ele>
        <time>2021-10-29T16:58:51Z</time>
      </trkpt>
      <trkpt lat="42.44297" lon="2.68728">
        <ele>589.13</ele>
        <time>2021-10-29T16:58:51Z</time>
      </trkpt>
      <trkpt lat="42.4428" lon="2.68737">
        <ele>597.5</ele>
        <time>2021-10-29T16:58:51Z</time>
      </trkpt>
      <trkpt lat="42.44271" lon="2.68745">
        <ele>601.35</ele>
        <time>2021-10-29T16:58:51Z</time>
      </trkpt>
      <trkpt lat="42.44263" lon="2.68751">
        <ele>604.96</ele>
        <time>2021-10-29T16:58:51Z</time>
      </trkpt>
      <trkpt lat="42.44251" lon="2.68758">
        <ele>610.47</ele>
        <time>2021-10-29T16:58:51Z</time>
      </trkpt>
      <trkpt lat="42.44236" lon="2.68771">
        <ele>616.5</ele>
        <time>2021-10-29T16:58:51Z</time>
      </trkpt>
      <trkpt lat="42.44224" lon="2.6878">
        <ele>621.84</ele>
        <time>2021-10-29T16:58:51Z</time>
      </trkpt>
      <trkpt lat="42.44209" lon="2.68789">
        <ele>629.31</ele>
        <time>2021-10-29T16:58:51Z</time>
      </trkpt>
      <trkpt lat="42.44198" lon="2.68799">
        <ele>634.26</ele>
        <time>2021-10-29T16:58:51Z</time>
      </trkpt>
      <trkpt lat="42.4419" lon="2.68811">
        <ele>637.09</ele>
        <time>2021-10-29T16:58:51Z</time>
      </trkpt>
      <trkpt lat="42.4418" lon="2.68823">
        <ele>641.5</ele>
        <time>2021-10-29T16:58:51Z</time>
      </trkpt>
      <trkpt lat="42.44178" lon="2.6884">
        <ele>642.12</ele>
        <time>2021-10-29T16:58:51Z</time>
      </trkpt>
      <trkpt lat="42.44177" lon="2.68861">
        <ele>641.97</ele>
        <time>2021-10-29T16:58:51Z</time>
      </trkpt>
      <trkpt lat="42.44177" lon="2.68881">
        <ele>641.21</ele>
        <time>2021-10-29T16:58:51Z</time>
      </trkpt>
      <trkpt lat="42.44175" lon="2.68905">
        <ele>642.93</ele>
        <time>2021-10-29T16:58:51Z</time>
      </trkpt>
      <trkpt lat="42.44176" lon="2.68929">
        <ele>643.44</ele>
        <time>2021-10-29T16:58:51Z</time>
      </trkpt>
      <trkpt lat="42.44176" lon="2.68951">
        <ele>644.54</ele>
        <time>2021-10-29T16:58:51Z</time>
      </trkpt>
      <trkpt lat="42.44176" lon="2.68969">
        <ele>645.77</ele>
        <time>2021-10-29T16:58:51Z</time>
      </trkpt>
      <trkpt lat="42.44174" lon="2.68984">
        <ele>648.42</ele>
        <time>2021-10-29T16:58:51Z</time>
      </trkpt>
      <trkpt lat="42.44168" lon="2.6901">
        <ele>654.85</ele>
        <time>2021-10-29T16:58:51Z</time>
      </trkpt>
      <trkpt lat="42.4416" lon="2.69029">
        <ele>662.18</ele>
        <time>2021-10-29T16:58:51Z</time>
      </trkpt>
      <trkpt lat="42.44156" lon="2.69044">
        <ele>666.34</ele>
        <time>2021-10-29T16:58:51Z</time>
      </trkpt>
      <trkpt lat="42.44145" lon="2.69062">
        <ele>674.5</ele>
        <time>2021-10-29T16:58:51Z</time>
      </trkpt>
      <trkpt lat="42.44138" lon="2.69083">
        <ele>680.51</ele>
        <time>2021-10-29T16:58:51Z</time>
      </trkpt>
      <trkpt lat="42.4413" lon="2.691">
        <ele>687.13</ele>
        <time>2021-10-29T16:58:51Z</time>
      </trkpt>
      <trkpt lat="42.44123" lon="2.69122">
        <ele>695.01</ele>
        <time>2021-10-29T16:58:51Z</time>
      </trkpt>
      <trkpt lat="42.44123" lon="2.69135">
        <ele>697.23</ele>
        <time>2021-10-29T16:58:51Z</time>
      </trkpt>
      <trkpt lat="42.44123" lon="2.69151">
        <ele>699.97</ele>
        <time>2021-10-29T16:58:51Z</time>
      </trkpt>
      <trkpt lat="42.44129" lon="2.69167">
        <ele>700.32</ele>
        <time>2021-10-29T16:58:51Z</time>
      </trkpt>
      <trkpt lat="42.44137" lon="2.69185">
        <ele>702.25</ele>
        <time>2021-10-29T16:58:51Z</time>
      </trkpt>
      <trkpt lat="42.44149" lon="2.69198">
        <ele>701.33</ele>
        <time>2021-10-29T16:58:51Z</time>
      </trkpt>
      <trkpt lat="42.44166" lon="2.69215">
        <ele>699.71</ele>
        <time>2021-10-29T16:58:51Z</time>
      </trkpt>
      <trkpt lat="42.4418" lon="2.69228">
        <ele>700.48</ele>
        <time>2021-10-29T16:58:51Z</time>
      </trkpt>
      <trkpt lat="42.44191" lon="2.69245">
        <ele>698.6</ele>
        <time>2021-10-29T16:58:51Z</time>
      </trkpt>
      <trkpt lat="42.44195" lon="2.6926">
        <ele>697.65</ele>
        <time>2021-10-29T16:58:51Z</time>
      </trkpt>
      <trkpt lat="42.44198" lon="2.69287">
        <ele>697.26</ele>
        <time>2021-10-29T16:58:51Z</time>
      </trkpt>
      <trkpt lat="42.44198" lon="2.69314">
        <ele>694.44</ele>
        <time>2021-10-29T16:58:51Z</time>
      </trkpt>
      <trkpt lat="42.44197" lon="2.69336">
        <ele>691.35</ele>
        <time>2021-10-29T16:58:51Z</time>
      </trkpt>
      <trkpt lat="42.44197" lon="2.69356">
        <ele>687.23</ele>
        <time>2021-10-29T16:58:51Z</time>
      </trkpt>
      <trkpt lat="42.442" lon="2.6937">
        <ele>682.12</ele>
        <time>2021-10-29T16:58:51Z</time>
      </trkpt>
      <trkpt lat="42.44195" lon="2.69384">
        <ele>679.89</ele>
        <time>2021-10-29T16:58:51Z</time>
      </trkpt>
      <trkpt lat="42.44186" lon="2.69391">
        <ele>681.74</ele>
        <time>2021-10-29T16:58:51Z</time>
      </trkpt>
      <trkpt lat="42.44175" lon="2.69394">
        <ele>686.98</ele>
        <time>2021-10-29T16:58:51Z</time>
      </trkpt>
      <trkpt lat="42.44164" lon="2.69394">
        <ele>692.32</ele>
        <time>2021-10-29T16:58:51Z</time>
      </trkpt>
      <trkpt lat="42.44153" lon="2.69398">
        <ele>695.21</ele>
        <time>2021-10-29T16:58:51Z</time>
      </trkpt>
      <trkpt lat="42.44142" lon="2.69399">
        <ele>699.68</ele>
        <time>2021-10-29T16:58:51Z</time>
      </trkpt>
      <trkpt lat="42.44128" lon="2.69404">
        <ele>703.25</ele>
        <time>2021-10-29T16:58:51Z</time>
      </trkpt>
      <trkpt lat="42.44114" lon="2.69404">
        <ele>708.99</ele>
        <time>2021-10-29T16:58:51Z</time>
      </trkpt>
      <trkpt lat="42.441" lon="2.69406">
        <ele>713.12</ele>
        <time>2021-10-29T16:58:51Z</time>
      </trkpt>
      <trkpt lat="42.44091" lon="2.6941">
        <ele>714.13</ele>
        <time>2021-10-29T16:58:51Z</time>
      </trkpt>
      <trkpt lat="42.4408" lon="2.69415">
        <ele>715.12</ele>
        <time>2021-10-29T16:58:51Z</time>
      </trkpt>
      <trkpt lat="42.44085" lon="2.6943">
        <ele>708.71</ele>
        <time>2021-10-29T16:58:51Z</time>
      </trkpt>
      <trkpt lat="42.44091" lon="2.69445">
        <ele>703.03</ele>
        <time>2021-10-29T16:58:51Z</time>
      </trkpt>
      <trkpt lat="42.441" lon="2.69459">
        <ele>697.39</ele>
        <time>2021-10-29T16:58:51Z</time>
      </trkpt>
      <trkpt lat="42.44106" lon="2.69472">
        <ele>692.91</ele>
        <time>2021-10-29T16:58:51Z</time>
      </trkpt>
      <trkpt lat="42.44111" lon="2.69484">
        <ele>689.12</ele>
        <time>2021-10-29T16:58:51Z</time>
      </trkpt>
      <trkpt lat="42.44118" lon="2.69498">
        <ele>684.4</ele>
        <time>2021-10-29T16:58:51Z</time>
      </trkpt>
      <trkpt lat="42.44125" lon="2.69512">
        <ele>682.6</ele>
        <time>2021-10-29T16:58:51Z</time>
      </trkpt>
      <trkpt lat="42.44133" lon="2.69527">
        <ele>678.27</ele>
        <time>2021-10-29T16:58:51Z</time>
      </trkpt>
      <trkpt lat="42.44138" lon="2.69541">
        <ele>672.87</ele>
        <time>2021-10-29T16:58:51Z</time>
      </trkpt>
      <trkpt lat="42.44126" lon="2.69545">
        <ele>677.1</ele>
        <time>2021-10-29T16:58:51Z</time>
      </trkpt>
      <trkpt lat="42.44112" lon="2.6954">
        <ele>685.96</ele>
        <time>2021-10-29T16:58:51Z</time>
      </trkpt>
      <trkpt lat="42.44099" lon="2.69534">
        <ele>692.71</ele>
        <time>2021-10-29T16:58:51Z</time>
      </trkpt>
      <trkpt lat="42.44088" lon="2.6953">
        <ele>696.83</ele>
        <time>2021-10-29T16:58:51Z</time>
      </trkpt>
      <trkpt lat="42.44077" lon="2.69523">
        <ele>701.65</ele>
        <time>2021-10-29T16:58:51Z</time>
      </trkpt>
      <trkpt lat="42.44065" lon="2.69523">
        <ele>706.44</ele>
        <time>2021-10-29T16:58:51Z</time>
      </trkpt>
      <trkpt lat="42.44057" lon="2.6953">
        <ele>708.21</ele>
        <time>2021-10-29T16:58:51Z</time>
      </trkpt>
      <trkpt lat="42.4405" lon="2.69544">
        <ele>707.99</ele>
        <time>2021-10-29T16:58:51Z</time>
      </trkpt>
      <trkpt lat="42.44045" lon="2.69556">
        <ele>706.23</ele>
        <time>2021-10-29T16:58:51Z</time>
      </trkpt>
      <trkpt lat="42.44042" lon="2.69571">
        <ele>701.23</ele>
        <time>2021-10-29T16:58:51Z</time>
      </trkpt>
      <trkpt lat="42.44035" lon="2.69587">
        <ele>698.36</ele>
        <time>2021-10-29T16:58:51Z</time>
      </trkpt>
      <trkpt lat="42.44029" lon="2.69601">
        <ele>697.85</ele>
        <time>2021-10-29T16:58:51Z</time>
      </trkpt>
      <trkpt lat="42.44022" lon="2.69616">
        <ele>699.26</ele>
        <time>2021-10-29T16:58:51Z</time>
      </trkpt>
      <trkpt lat="42.44012" lon="2.69629">
        <ele>699.72</ele>
        <time>2021-10-29T16:58:51Z</time>
      </trkpt>
      <trkpt lat="42.44003" lon="2.69638">
        <ele>698.12</ele>
        <time>2021-10-29T16:58:51Z</time>
      </trkpt>
      <trkpt lat="42.43978" lon="2.69671">
        <ele>696.04</ele>
        <time>2021-10-29T16:58:51Z</time>
      </trkpt>
      <trkpt lat="42.43969" lon="2.69685">
        <ele>697.58</ele>
        <time>2021-10-29T16:58:51Z</time>
      </trkpt>
      <trkpt lat="42.43955" lon="2.697">
        <ele>701.71</ele>
        <time>2021-10-29T16:58:51Z</time>
      </trkpt>
      <trkpt lat="42.43943" lon="2.69709">
        <ele>707.78</ele>
        <time>2021-10-29T16:58:51Z</time>
      </trkpt>
      <trkpt lat="42.43934" lon="2.69723">
        <ele>709.27</ele>
        <time>2021-10-29T16:58:51Z</time>
      </trkpt>
      <trkpt lat="42.43924" lon="2.69735">
        <ele>711.58</ele>
        <time>2021-10-29T16:58:51Z</time>
      </trkpt>
      <trkpt lat="42.43913" lon="2.6975">
        <ele>711.95</ele>
        <time>2021-10-29T16:58:51Z</time>
      </trkpt>
      <trkpt lat="42.43902" lon="2.69767">
        <ele>711.83</ele>
        <time>2021-10-29T16:58:51Z</time>
      </trkpt>
      <trkpt lat="42.43897" lon="2.69789">
        <ele>710.33</ele>
        <time>2021-10-29T16:58:51Z</time>
      </trkpt>
      <trkpt lat="42.43893" lon="2.6981">
        <ele>711.51</ele>
        <time>2021-10-29T16:58:51Z</time>
      </trkpt>
      <trkpt lat="42.4389" lon="2.69828">
        <ele>711.92</ele>
        <time>2021-10-29T16:58:51Z</time>
      </trkpt>
      <trkpt lat="42.43886" lon="2.69847">
        <ele>708.04</ele>
        <time>2021-10-29T16:58:51Z</time>
      </trkpt>
      <trkpt lat="42.43871" lon="2.69852">
        <ele>710.97</ele>
        <time>2021-10-29T16:58:51Z</time>
      </trkpt>
      <trkpt lat="42.43852" lon="2.69854">
        <ele>716.1</ele>
        <time>2021-10-29T16:58:51Z</time>
      </trkpt>
      <trkpt lat="42.43833" lon="2.69856">
        <ele>717.25</ele>
        <time>2021-10-29T16:58:51Z</time>
      </trkpt>
      <trkpt lat="42.43813" lon="2.69856">
        <ele>717.75</ele>
        <time>2021-10-29T16:58:51Z</time>
      </trkpt>
      <trkpt lat="42.43802" lon="2.69856">
        <ele>716.19</ele>
        <time>2021-10-29T16:58:51Z</time>
      </trkpt>
      <trkpt lat="42.43767" lon="2.69862">
        <ele>718.89</ele>
        <time>2021-10-29T16:58:51Z</time>
      </trkpt>
      <trkpt lat="42.4375" lon="2.69862">
        <ele>723.27</ele>
        <time>2021-10-29T16:58:51Z</time>
      </trkpt>
      <trkpt lat="42.43725" lon="2.69865">
        <ele>730.26</ele>
        <time>2021-10-29T16:58:51Z</time>
      </trkpt>
      <trkpt lat="42.4371" lon="2.69866">
        <ele>736.65</ele>
        <time>2021-10-29T16:58:51Z</time>
      </trkpt>
      <trkpt lat="42.4369" lon="2.69878">
        <ele>738.77</ele>
        <time>2021-10-29T16:58:51Z</time>
      </trkpt>
      <trkpt lat="42.43673" lon="2.69887">
        <ele>738.7</ele>
        <time>2021-10-29T16:58:51Z</time>
      </trkpt>
      <trkpt lat="42.43656" lon="2.69902">
        <ele>733.99</ele>
        <time>2021-10-29T16:58:51Z</time>
      </trkpt>
      <trkpt lat="42.43643" lon="2.6991">
        <ele>731.42</ele>
        <time>2021-10-29T16:58:51Z</time>
      </trkpt>
      <trkpt lat="42.43629" lon="2.69919">
        <ele>728.77</ele>
        <time>2021-10-29T16:58:51Z</time>
      </trkpt>
      <trkpt lat="42.43617" lon="2.69932">
        <ele>725.68</ele>
        <time>2021-10-29T16:58:51Z</time>
      </trkpt>
      <trkpt lat="42.43612" lon="2.69945">
        <ele>721.08</ele>
        <time>2021-10-29T16:58:51Z</time>
      </trkpt>
      <trkpt lat="42.43599" lon="2.6996">
        <ele>724.14</ele>
        <time>2021-10-29T16:58:51Z</time>
      </trkpt>
      <trkpt lat="42.43587" lon="2.69975">
        <ele>727.16</ele>
        <time>2021-10-29T16:58:51Z</time>
      </trkpt>
      <trkpt lat="42.43577" lon="2.69975">
        <ele>735.48</ele>
        <time>2021-10-29T16:58:51Z</time>
      </trkpt>
      <trkpt lat="42.43557" lon="2.69979">
        <ele>743.79</ele>
        <time>2021-10-29T16:58:51Z</time>
      </trkpt>
      <trkpt lat="42.43548" lon="2.69998">
        <ele>737.71</ele>
        <time>2021-10-29T16:58:51Z</time>
      </trkpt>
      <trkpt lat="42.43553" lon="2.70018">
        <ele>730.17</ele>
        <time>2021-10-29T16:58:51Z</time>
      </trkpt>
      <trkpt lat="42.43559" lon="2.70045">
        <ele>725.26</ele>
        <time>2021-10-29T16:58:51Z</time>
      </trkpt>
      <trkpt lat="42.43568" lon="2.70076">
        <ele>720.05</ele>
        <time>2021-10-29T16:58:51Z</time>
      </trkpt>
      <trkpt lat="42.43569" lon="2.70099">
        <ele>717.97</ele>
        <time>2021-10-29T16:58:51Z</time>
      </trkpt>
      <trkpt lat="42.4357" lon="2.70114">
        <ele>715.84</ele>
        <time>2021-10-29T16:58:51Z</time>
      </trkpt>
      <trkpt lat="42.4357" lon="2.70129">
        <ele>714.03</ele>
        <time>2021-10-29T16:58:51Z</time>
      </trkpt>
      <trkpt lat="42.43564" lon="2.70142">
        <ele>713.77</ele>
        <time>2021-10-29T16:58:51Z</time>
      </trkpt>
      <trkpt lat="42.43554" lon="2.70152">
        <ele>716.82</ele>
        <time>2021-10-29T16:58:51Z</time>
      </trkpt>
      <trkpt lat="42.43539" lon="2.70167">
        <ele>718.73</ele>
        <time>2021-10-29T16:58:51Z</time>
      </trkpt>
      <trkpt lat="42.43525" lon="2.70168">
        <ele>723.87</ele>
        <time>2021-10-29T16:58:51Z</time>
      </trkpt>
      <trkpt lat="42.43511" lon="2.7018">
        <ele>724.95</ele>
        <time>2021-10-29T16:58:51Z</time>
      </trkpt>
      <trkpt lat="42.43498" lon="2.70176">
        <ele>728.59</ele>
        <time>2021-10-29T16:58:51Z</time>
      </trkpt>
      <trkpt lat="42.43485" lon="2.70161">
        <ele>733.5</ele>
        <time>2021-10-29T16:58:51Z</time>
      </trkpt>
      <trkpt lat="42.43478" lon="2.70145">
        <ele>739.31</ele>
        <time>2021-10-29T16:58:51Z</time>
      </trkpt>
      <trkpt lat="42.43467" lon="2.70148">
        <ele>730.55</ele>
        <time>2021-10-29T16:58:51Z</time>
      </trkpt>
      <trkpt lat="42.43469" lon="2.70177">
        <ele>733.63</ele>
        <time>2021-10-29T16:58:51Z</time>
      </trkpt>
      <trkpt lat="42.4348" lon="2.70201">
        <ele>733.61</ele>
        <time>2021-10-29T16:58:51Z</time>
      </trkpt>
      <trkpt lat="42.43487" lon="2.70228">
        <ele>737.99</ele>
        <time>2021-10-29T16:58:51Z</time>
      </trkpt>
      <trkpt lat="42.43488" lon="2.70253">
        <ele>743.06</ele>
        <time>2021-10-29T16:58:51Z</time>
      </trkpt>
      <trkpt lat="42.43483" lon="2.70283">
        <ele>748.07</ele>
        <time>2021-10-29T16:58:51Z</time>
      </trkpt>
      <trkpt lat="42.43481" lon="2.70313">
        <ele>749.92</ele>
        <time>2021-10-29T16:58:51Z</time>
      </trkpt>
      <trkpt lat="42.43472" lon="2.70356">
        <ele>754.09</ele>
        <time>2021-10-29T16:58:51Z</time>
      </trkpt>
      <trkpt lat="42.43465" lon="2.70378">
        <ele>757.41</ele>
        <time>2021-10-29T16:58:51Z</time>
      </trkpt>
      <trkpt lat="42.43461" lon="2.70417">
        <ele>762.56</ele>
        <time>2021-10-29T16:58:51Z</time>
      </trkpt>
      <trkpt lat="42.43449" lon="2.7045">
        <ele>767.61</ele>
        <time>2021-10-29T16:58:51Z</time>
      </trkpt>
      <trkpt lat="42.43448" lon="2.70486">
        <ele>767.6</ele>
        <time>2021-10-29T16:58:51Z</time>
      </trkpt>
      <trkpt lat="42.43437" lon="2.70498">
        <ele>769.55</ele>
        <time>2021-10-29T16:58:51Z</time>
      </trkpt>
      <trkpt lat="42.4341" lon="2.70514">
        <ele>772.19</ele>
        <time>2021-10-29T16:58:51Z</time>
      </trkpt>
      <trkpt lat="42.43378" lon="2.7051">
        <ele>775.47</ele>
        <time>2021-10-29T16:58:51Z</time>
      </trkpt>
      <trkpt lat="42.43355" lon="2.70511">
        <ele>774.75</ele>
        <time>2021-10-29T16:58:51Z</time>
      </trkpt>
      <trkpt lat="42.43342" lon="2.70502">
        <ele>777.49</ele>
        <time>2021-10-29T16:58:51Z</time>
      </trkpt>
      <trkpt lat="42.43327" lon="2.70489">
        <ele>777.53</ele>
        <time>2021-10-29T16:58:51Z</time>
      </trkpt>
      <trkpt lat="42.43315" lon="2.70484">
        <ele>777.24</ele>
        <time>2021-10-29T16:58:51Z</time>
      </trkpt>
      <trkpt lat="42.43304" lon="2.70498">
        <ele>779.89</ele>
        <time>2021-10-29T16:58:51Z</time>
      </trkpt>
      <trkpt lat="42.4331" lon="2.70526">
        <ele>782.13</ele>
        <time>2021-10-29T16:58:51Z</time>
      </trkpt>
      <trkpt lat="42.43308" lon="2.70546">
        <ele>784.25</ele>
        <time>2021-10-29T16:58:51Z</time>
      </trkpt>
      <trkpt lat="42.43309" lon="2.70567">
        <ele>787.15</ele>
        <time>2021-10-29T16:58:51Z</time>
      </trkpt>
      <trkpt lat="42.43297" lon="2.70569">
        <ele>789.41</ele>
        <time>2021-10-29T16:58:51Z</time>
      </trkpt>
      <trkpt lat="42.43281" lon="2.7056">
        <ele>792.69</ele>
        <time>2021-10-29T16:58:51Z</time>
      </trkpt>
      <trkpt lat="42.4326" lon="2.70543">
        <ele>796.58</ele>
        <time>2021-10-29T16:58:51Z</time>
      </trkpt>
      <trkpt lat="42.4324" lon="2.70516">
        <ele>799.07</ele>
        <time>2021-10-29T16:58:51Z</time>
      </trkpt>
      <trkpt lat="42.43213" lon="2.70484">
        <ele>804.32</ele>
        <time>2021-10-29T16:58:51Z</time>
      </trkpt>
      <trkpt lat="42.43194" lon="2.70471">
        <ele>807.02</ele>
        <time>2021-10-29T16:58:51Z</time>
      </trkpt>
      <trkpt lat="42.43167" lon="2.70456">
        <ele>811.66</ele>
        <time>2021-10-29T16:58:51Z</time>
      </trkpt>
      <trkpt lat="42.43156" lon="2.70446">
        <ele>812.79</ele>
        <time>2021-10-29T16:58:51Z</time>
      </trkpt>
      <trkpt lat="42.4315" lon="2.7043">
        <ele>813.87</ele>
        <time>2021-10-29T16:58:51Z</time>
      </trkpt>
      <trkpt lat="42.43159" lon="2.70415">
        <ele>816.23</ele>
        <time>2021-10-29T16:58:51Z</time>
      </trkpt>
      <trkpt lat="42.43179" lon="2.70403">
        <ele>818.49</ele>
        <time>2021-10-29T16:58:51Z</time>
      </trkpt>
      <trkpt lat="42.43196" lon="2.70395">
        <ele>819.48</ele>
        <time>2021-10-29T16:58:51Z</time>
      </trkpt>
      <trkpt lat="42.43215" lon="2.70395">
        <ele>817.4</ele>
        <time>2021-10-29T16:58:51Z</time>
      </trkpt>
      <trkpt lat="42.43232" lon="2.70384">
        <ele>822.27</ele>
        <time>2021-10-29T16:58:51Z</time>
      </trkpt>
      <trkpt lat="42.43248" lon="2.70377">
        <ele>823.16</ele>
        <time>2021-10-29T16:58:51Z</time>
      </trkpt>
      <trkpt lat="42.43256" lon="2.70355">
        <ele>827.76</ele>
        <time>2021-10-29T16:58:51Z</time>
      </trkpt>
      <trkpt lat="42.43262" lon="2.7034">
        <ele>827.15</ele>
        <time>2021-10-29T16:58:51Z</time>
      </trkpt>
      <trkpt lat="42.43267" lon="2.70319">
        <ele>829.13</ele>
        <time>2021-10-29T16:58:51Z</time>
      </trkpt>
      <trkpt lat="42.43278" lon="2.70305">
        <ele>831.23</ele>
        <time>2021-10-29T16:58:51Z</time>
      </trkpt>
      <trkpt lat="42.43289" lon="2.70296">
        <ele>833.99</ele>
        <time>2021-10-29T16:58:51Z</time>
      </trkpt>
      <trkpt lat="42.43289" lon="2.7028">
        <ele>837.82</ele>
        <time>2021-10-29T16:58:51Z</time>
      </trkpt>
      <trkpt lat="42.43274" lon="2.70269">
        <ele>842.99</ele>
        <time>2021-10-29T16:58:51Z</time>
      </trkpt>
      <trkpt lat="42.43258" lon="2.7026">
        <ele>847.24</ele>
        <time>2021-10-29T16:58:51Z</time>
      </trkpt>
      <trkpt lat="42.43239" lon="2.70256">
        <ele>850.86</ele>
        <time>2021-10-29T16:58:51Z</time>
      </trkpt>
      <trkpt lat="42.43222" lon="2.70256">
        <ele>853.44</ele>
        <time>2021-10-29T16:58:51Z</time>
      </trkpt>
      <trkpt lat="42.43211" lon="2.70256">
        <ele>855.49</ele>
        <time>2021-10-29T16:58:51Z</time>
      </trkpt>
      <trkpt lat="42.43197" lon="2.70251">
        <ele>860.68</ele>
        <time>2021-10-29T16:58:51Z</time>
      </trkpt>
      <trkpt lat="42.43174" lon="2.70253">
        <ele>867.39</ele>
        <time>2021-10-29T16:58:51Z</time>
      </trkpt>
      <trkpt lat="42.43157" lon="2.70258">
        <ele>871.25</ele>
        <time>2021-10-29T16:58:51Z</time>
      </trkpt>
      <trkpt lat="42.43136" lon="2.70255">
        <ele>876.19</ele>
        <time>2021-10-29T16:58:51Z</time>
      </trkpt>
      <trkpt lat="42.43117" lon="2.70256">
        <ele>881.17</ele>
        <time>2021-10-29T16:58:51Z</time>
      </trkpt>
      <trkpt lat="42.43083" lon="2.70262">
        <ele>889.03</ele>
        <time>2021-10-29T16:58:51Z</time>
      </trkpt>
      <trkpt lat="42.43072" lon="2.70249">
        <ele>893.97</ele>
        <time>2021-10-29T16:58:51Z</time>
      </trkpt>
      <trkpt lat="42.4306" lon="2.70238">
        <ele>898.85</ele>
        <time>2021-10-29T16:58:51Z</time>
      </trkpt>
      <trkpt lat="42.43045" lon="2.70237">
        <ele>905.57</ele>
        <time>2021-10-29T16:58:51Z</time>
      </trkpt>
      <trkpt lat="42.43028" lon="2.70226">
        <ele>913.61</ele>
        <time>2021-10-29T16:58:51Z</time>
      </trkpt>
      <trkpt lat="42.43013" lon="2.70224">
        <ele>918.31</ele>
        <time>2021-10-29T16:58:51Z</time>
      </trkpt>
      <trkpt lat="42.43004" lon="2.70228">
        <ele>921.22</ele>
        <time>2021-10-29T16:58:51Z</time>
      </trkpt>
      <trkpt lat="42.42988" lon="2.70233">
        <ele>926.02</ele>
        <time>2021-10-29T16:58:51Z</time>
      </trkpt>
      <trkpt lat="42.42971" lon="2.70223">
        <ele>930.41</ele>
        <time>2021-10-29T16:58:51Z</time>
      </trkpt>
      <trkpt lat="42.42952" lon="2.70211">
        <ele>937.26</ele>
        <time>2021-10-29T16:58:51Z</time>
      </trkpt>
      <trkpt lat="42.42941" lon="2.70203">
        <ele>941.54</ele>
        <time>2021-10-29T16:58:51Z</time>
      </trkpt>
      <trkpt lat="42.4293" lon="2.70189">
        <ele>946.24</ele>
        <time>2021-10-29T16:58:51Z</time>
      </trkpt>
      <trkpt lat="42.42919" lon="2.70175">
        <ele>952.39</ele>
        <time>2021-10-29T16:58:51Z</time>
      </trkpt>
      <trkpt lat="42.42902" lon="2.7016">
        <ele>961.4</ele>
        <time>2021-10-29T16:58:51Z</time>
      </trkpt>
      <trkpt lat="42.42892" lon="2.70172">
        <ele>967.97</ele>
        <time>2021-10-29T16:58:51Z</time>
      </trkpt>
      <trkpt lat="42.42878" lon="2.70191">
        <ele>973.19</ele>
        <time>2021-10-29T16:58:51Z</time>
      </trkpt>
      <trkpt lat="42.4286" lon="2.70204">
        <ele>976.01</ele>
        <time>2021-10-29T16:58:51Z</time>
      </trkpt>
      <trkpt lat="42.42846" lon="2.70206">
        <ele>978.07</ele>
        <time>2021-10-29T16:58:51Z</time>
      </trkpt>
      <trkpt lat="42.42829" lon="2.70208">
        <ele>982.15</ele>
        <time>2021-10-29T16:58:51Z</time>
      </trkpt>
      <trkpt lat="42.42809" lon="2.70215">
        <ele>984.24</ele>
        <time>2021-10-29T16:58:51Z</time>
      </trkpt>
      <trkpt lat="42.42787" lon="2.70218">
        <ele>990.97</ele>
        <time>2021-10-29T16:58:51Z</time>
      </trkpt>
      <trkpt lat="42.42763" lon="2.7022">
        <ele>1000.19</ele>
        <time>2021-10-29T16:58:51Z</time>
      </trkpt>
      <trkpt lat="42.42741" lon="2.70224">
        <ele>1005.81</ele>
        <time>2021-10-29T16:58:51Z</time>
      </trkpt>
      <trkpt lat="42.42725" lon="2.70233">
        <ele>1008.11</ele>
        <time>2021-10-29T16:58:51Z</time>
      </trkpt>
      <trkpt lat="42.427" lon="2.70246">
        <ele>1014.81</ele>
        <time>2021-10-29T16:58:51Z</time>
      </trkpt>
      <trkpt lat="42.42684" lon="2.70254">
        <ele>1017.42</ele>
        <time>2021-10-29T16:58:51Z</time>
      </trkpt>
      <trkpt lat="42.42668" lon="2.70269">
        <ele>1017.76</ele>
        <time>2021-10-29T16:58:51Z</time>
      </trkpt>
      <trkpt lat="42.42659" lon="2.70282">
        <ele>1018.1</ele>
        <time>2021-10-29T16:58:51Z</time>
      </trkpt>
      <trkpt lat="42.42642" lon="2.70269">
        <ele>1032.17</ele>
        <time>2021-10-29T16:58:51Z</time>
      </trkpt>
      <trkpt lat="42.42628" lon="2.70285">
        <ele>1036.17</ele>
        <time>2021-10-29T16:58:51Z</time>
      </trkpt>
      <trkpt lat="42.42617" lon="2.70265">
        <ele>1045.26</ele>
        <time>2021-10-29T16:58:51Z</time>
      </trkpt>
      <trkpt lat="42.42603" lon="2.70269">
        <ele>1049.98</ele>
        <time>2021-10-29T16:58:51Z</time>
      </trkpt>
      <trkpt lat="42.4258" lon="2.70243">
        <ele>1058.41</ele>
        <time>2021-10-29T16:58:51Z</time>
      </trkpt>
      <trkpt lat="42.42566" lon="2.70256">
        <ele>1059.25</ele>
        <time>2021-10-29T16:58:51Z</time>
      </trkpt>
      <trkpt lat="42.42552" lon="2.70269">
        <ele>1063.43</ele>
        <time>2021-10-29T16:58:51Z</time>
      </trkpt>
      <trkpt lat="42.42539" lon="2.70285">
        <ele>1067.9</ele>
        <time>2021-10-29T16:58:51Z</time>
      </trkpt>
      <trkpt lat="42.42517" lon="2.70295">
        <ele>1069.76</ele>
        <time>2021-10-29T16:58:51Z</time>
      </trkpt>
      <trkpt lat="42.42494" lon="2.70315">
        <ele>1072.77</ele>
        <time>2021-10-29T16:58:51Z</time>
      </trkpt>
      <trkpt lat="42.42478" lon="2.70333">
        <ele>1075.86</ele>
        <time>2021-10-29T16:58:51Z</time>
      </trkpt>
      <trkpt lat="42.4246" lon="2.70344">
        <ele>1076.58</ele>
        <time>2021-10-29T16:58:51Z</time>
      </trkpt>
      <trkpt lat="42.4245" lon="2.70366">
        <ele>1082.28</ele>
        <time>2021-10-29T16:58:51Z</time>
      </trkpt>
      <trkpt lat="42.42433" lon="2.70385">
        <ele>1085.98</ele>
        <time>2021-10-29T16:58:51Z</time>
      </trkpt>
      <trkpt lat="42.42422" lon="2.70405">
        <ele>1088.92</ele>
        <time>2021-10-29T16:58:51Z</time>
      </trkpt>
      <trkpt lat="42.42409" lon="2.70428">
        <ele>1092.26</ele>
        <time>2021-10-29T16:58:51Z</time>
      </trkpt>
      <trkpt lat="42.42392" lon="2.70441">
        <ele>1091.66</ele>
        <time>2021-10-29T16:58:51Z</time>
      </trkpt>
      <trkpt lat="42.42381" lon="2.70458">
        <ele>1095.44</ele>
        <time>2021-10-29T16:58:51Z</time>
      </trkpt>
      <trkpt lat="42.42377" lon="2.70473">
        <ele>1100.07</ele>
        <time>2021-10-29T16:58:51Z</time>
      </trkpt>
      <trkpt lat="42.42368" lon="2.70484">
        <ele>1100.93</ele>
        <time>2021-10-29T16:58:51Z</time>
      </trkpt>
      <trkpt lat="42.4236" lon="2.7051">
        <ele>1105.97</ele>
        <time>2021-10-29T16:58:51Z</time>
      </trkpt>
      <trkpt lat="42.42355" lon="2.70533">
        <ele>1110.33</ele>
        <time>2021-10-29T16:58:51Z</time>
      </trkpt>
      <trkpt lat="42.42347" lon="2.70547">
        <ele>1110.17</ele>
        <time>2021-10-29T16:58:51Z</time>
      </trkpt>
      <trkpt lat="42.42349" lon="2.70573">
        <ele>1117.15</ele>
        <time>2021-10-29T16:58:51Z</time>
      </trkpt>
      <trkpt lat="42.42353" lon="2.70595">
        <ele>1124.68</ele>
        <time>2021-10-29T16:58:51Z</time>
      </trkpt>
      <trkpt lat="42.42349" lon="2.7063">
        <ele>1130.36</ele>
        <time>2021-10-29T16:58:51Z</time>
      </trkpt>
      <trkpt lat="42.42345" lon="2.70656">
        <ele>1137.57</ele>
        <time>2021-10-29T16:58:51Z</time>
      </trkpt>
      <trkpt lat="42.42347" lon="2.70672">
        <ele>1143.14</ele>
        <time>2021-10-29T16:58:51Z</time>
      </trkpt>
      <trkpt lat="42.42334" lon="2.7071">
        <ele>1150.48</ele>
        <time>2021-10-29T16:58:51Z</time>
      </trkpt>
      <trkpt lat="42.42343" lon="2.70724">
        <ele>1157.6</ele>
        <time>2021-10-29T16:58:51Z</time>
      </trkpt>
      <trkpt lat="42.42336" lon="2.70741">
        <ele>1160.8</ele>
        <time>2021-10-29T16:58:51Z</time>
      </trkpt>
      <trkpt lat="42.42324" lon="2.70765">
        <ele>1165.44</ele>
        <time>2021-10-29T16:58:51Z</time>
      </trkpt>
      <trkpt lat="42.42319" lon="2.7078">
        <ele>1168.03</ele>
        <time>2021-10-29T16:58:51Z</time>
      </trkpt>
      <trkpt lat="42.42315" lon="2.70807">
        <ele>1173.73</ele>
        <time>2021-10-29T16:58:51Z</time>
      </trkpt>
      <trkpt lat="42.42307" lon="2.70829">
        <ele>1179.75</ele>
        <time>2021-10-29T16:58:51Z</time>
      </trkpt>
      <trkpt lat="42.42297" lon="2.70872">
        <ele>1190.48</ele>
        <time>2021-10-29T16:58:51Z</time>
      </trkpt>
      <trkpt lat="42.42304" lon="2.70891">
        <ele>1194.94</ele>
        <time>2021-10-29T16:58:51Z</time>
      </trkpt>
      <trkpt lat="42.4231" lon="2.70916">
        <ele>1201.23</ele>
        <time>2021-10-29T16:58:51Z</time>
      </trkpt>
      <trkpt lat="42.42311" lon="2.70946">
        <ele>1207.12</ele>
        <time>2021-10-29T16:58:51Z</time>
      </trkpt>
      <trkpt lat="42.42316" lon="2.70979">
        <ele>1215.5</ele>
        <time>2021-10-29T16:58:51Z</time>
      </trkpt>
      <trkpt lat="42.42319" lon="2.71009">
        <ele>1222.69</ele>
        <time>2021-10-29T16:58:51Z</time>
      </trkpt>
      <trkpt lat="42.42326" lon="2.71045">
        <ele>1232.46</ele>
        <time>2021-10-29T16:58:51Z</time>
      </trkpt>
      <trkpt lat="42.42328" lon="2.71079">
        <ele>1239.11</ele>
        <time>2021-10-29T16:58:51Z</time>
      </trkpt>
      <trkpt lat="42.4232" lon="2.71107">
        <ele>1241.67</ele>
        <time>2021-10-29T16:58:51Z</time>
      </trkpt>
      <trkpt lat="42.42313" lon="2.71143">
        <ele>1247.91</ele>
        <time>2021-10-29T16:58:51Z</time>
      </trkpt>
      <trkpt lat="42.42303" lon="2.71165">
        <ele>1254.67</ele>
        <time>2021-10-29T16:58:51Z</time>
      </trkpt>
      <trkpt lat="42.4229" lon="2.71189">
        <ele>1263.94</ele>
        <time>2021-10-29T16:58:51Z</time>
      </trkpt>
      <trkpt lat="42.4228" lon="2.71207">
        <ele>1270.96</ele>
        <time>2021-10-29T16:58:51Z</time>
      </trkpt>
      <trkpt lat="42.42254" lon="2.71216">
        <ele>1276.29</ele>
        <time>2021-10-29T16:58:51Z</time>
      </trkpt>
      <trkpt lat="42.42235" lon="2.71229">
        <ele>1278.85</ele>
        <time>2021-10-29T16:58:51Z</time>
      </trkpt>
      <trkpt lat="42.42219" lon="2.71246">
        <ele>1283.49</ele>
        <time>2021-10-29T16:58:51Z</time>
      </trkpt>
      <trkpt lat="42.42206" lon="2.71267">
        <ele>1291.41</ele>
        <time>2021-10-29T16:58:51Z</time>
      </trkpt>
      <trkpt lat="42.42195" lon="2.71285">
        <ele>1299.84</ele>
        <time>2021-10-29T16:58:51Z</time>
      </trkpt>
      <trkpt lat="42.42185" lon="2.71304">
        <ele>1307.86</ele>
        <time>2021-10-29T16:58:51Z</time>
      </trkpt>
      <trkpt lat="42.42181" lon="2.71318">
        <ele>1313.35</ele>
        <time>2021-10-29T16:58:51Z</time>
      </trkpt>
      <trkpt lat="42.42182" lon="2.71337">
        <ele>1318.4</ele>
        <time>2021-10-29T16:58:51Z</time>
      </trkpt>
      <trkpt lat="42.42187" lon="2.71364">
        <ele>1323.26</ele>
        <time>2021-10-29T16:58:51Z</time>
      </trkpt>
      <trkpt lat="42.42185" lon="2.71383">
        <ele>1327.27</ele>
        <time>2021-10-29T16:58:51Z</time>
      </trkpt>
      <trkpt lat="42.42181" lon="2.714">
        <ele>1331.07</ele>
        <time>2021-10-29T16:58:51Z</time>
      </trkpt>
      <trkpt lat="42.42176" lon="2.71432">
        <ele>1338.08</ele>
        <time>2021-10-29T16:58:51Z</time>
      </trkpt>
      <trkpt lat="42.42172" lon="2.71457">
        <ele>1346</ele>
        <time>2021-10-29T16:58:51Z</time>
      </trkpt>
      <trkpt lat="42.42171" lon="2.71492">
        <ele>1356.12</ele>
        <time>2021-10-29T16:58:51Z</time>
      </trkpt>
      <trkpt lat="42.42169" lon="2.71515">
        <ele>1363.56</ele>
        <time>2021-10-29T16:58:51Z</time>
      </trkpt>
      <trkpt lat="42.42162" lon="2.71539">
        <ele>1371.14</ele>
        <time>2021-10-29T16:58:51Z</time>
      </trkpt>
      <trkpt lat="42.42156" lon="2.71558">
        <ele>1377.55</ele>
        <time>2021-10-29T16:58:51Z</time>
      </trkpt>
      <trkpt lat="42.42155" lon="2.71581">
        <ele>1384.52</ele>
        <time>2021-10-29T16:58:51Z</time>
      </trkpt>
      <trkpt lat="42.42158" lon="2.71609">
        <ele>1389.27</ele>
        <time>2021-10-29T16:58:51Z</time>
      </trkpt>
      <trkpt lat="42.42159" lon="2.71642">
        <ele>1395.29</ele>
        <time>2021-10-29T16:58:51Z</time>
      </trkpt>
      <trkpt lat="42.42159" lon="2.71672">
        <ele>1401.29</ele>
        <time>2021-10-29T16:58:51Z</time>
      </trkpt>
      <trkpt lat="42.42165" lon="2.71701">
        <ele>1402.65</ele>
        <time>2021-10-29T16:58:51Z</time>
      </trkpt>
      <trkpt lat="42.42168" lon="2.71728">
        <ele>1405.57</ele>
        <time>2021-10-29T16:58:51Z</time>
      </trkpt>
      <trkpt lat="42.42167" lon="2.71752">
        <ele>1406.84</ele>
        <time>2021-10-29T16:58:51Z</time>
      </trkpt>
      <trkpt lat="42.4217" lon="2.71777">
        <ele>1403.97</ele>
        <time>2021-10-29T16:58:51Z</time>
      </trkpt>
      <trkpt lat="42.42173" lon="2.71796">
        <ele>1404.65</ele>
        <time>2021-10-29T16:58:51Z</time>
      </trkpt>
      <trkpt lat="42.42185" lon="2.71814">
        <ele>1405.41</ele>
        <time>2021-10-29T16:58:51Z</time>
      </trkpt>
      <trkpt lat="42.42203" lon="2.71822">
        <ele>1397.14</ele>
        <time>2021-10-29T16:58:51Z</time>
      </trkpt>
      <trkpt lat="42.42216" lon="2.71835">
        <ele>1391.87</ele>
        <time>2021-10-29T16:58:51Z</time>
      </trkpt>
      <trkpt lat="42.42227" lon="2.71864">
        <ele>1385.56</ele>
        <time>2021-10-29T16:58:51Z</time>
      </trkpt>
      <trkpt lat="42.42231" lon="2.71893">
        <ele>1379.15</ele>
        <time>2021-10-29T16:58:51Z</time>
      </trkpt>
      <trkpt lat="42.42223" lon="2.71924">
        <ele>1378.56</ele>
        <time>2021-10-29T16:58:51Z</time>
      </trkpt>
      <trkpt lat="42.42216" lon="2.71959">
        <ele>1372.16</ele>
        <time>2021-10-29T16:58:51Z</time>
      </trkpt>
      <trkpt lat="42.42214" lon="2.71998">
        <ele>1369.91</ele>
        <time>2021-10-29T16:58:51Z</time>
      </trkpt>
      <trkpt lat="42.42212" lon="2.72027">
        <ele>1369.62</ele>
        <time>2021-10-29T16:58:51Z</time>
      </trkpt>
      <trkpt lat="42.42219" lon="2.7206">
        <ele>1369.72</ele>
        <time>2021-10-29T16:58:51Z</time>
      </trkpt>
      <trkpt lat="42.42232" lon="2.72088">
        <ele>1368.68</ele>
        <time>2021-10-29T16:58:51Z</time>
      </trkpt>
      <trkpt lat="42.42235" lon="2.7211">
        <ele>1370.11</ele>
        <time>2021-10-29T16:58:51Z</time>
      </trkpt>
      <trkpt lat="42.42243" lon="2.72143">
        <ele>1373.22</ele>
        <time>2021-10-29T16:58:51Z</time>
      </trkpt>
      <trkpt lat="42.4225" lon="2.72166">
        <ele>1376.16</ele>
        <time>2021-10-29T16:58:51Z</time>
      </trkpt>
      <trkpt lat="42.42245" lon="2.72189">
        <ele>1383.01</ele>
        <time>2021-10-29T16:58:51Z</time>
      </trkpt>
      <trkpt lat="42.4226" lon="2.72214">
        <ele>1380.77</ele>
        <time>2021-10-29T16:58:51Z</time>
      </trkpt>
      <trkpt lat="42.42258" lon="2.7224">
        <ele>1387</ele>
        <time>2021-10-29T16:58:51Z</time>
      </trkpt>
      <trkpt lat="42.42255" lon="2.72262">
        <ele>1389.8</ele>
        <time>2021-10-29T16:58:51Z</time>
      </trkpt>
      <trkpt lat="42.42258" lon="2.7229">
        <ele>1391.37</ele>
        <time>2021-10-29T16:58:51Z</time>
      </trkpt>
      <trkpt lat="42.42265" lon="2.72312">
        <ele>1395.18</ele>
        <time>2021-10-29T16:58:51Z</time>
      </trkpt>
      <trkpt lat="42.42274" lon="2.72332">
        <ele>1399.7</ele>
        <time>2021-10-29T16:58:51Z</time>
      </trkpt>
      <trkpt lat="42.42275" lon="2.72353">
        <ele>1406.74</ele>
        <time>2021-10-29T16:58:51Z</time>
      </trkpt>
      <trkpt lat="42.42283" lon="2.72372">
        <ele>1408.74</ele>
        <time>2021-10-29T16:58:51Z</time>
      </trkpt>
      <trkpt lat="42.4228" lon="2.7239">
        <ele>1414</ele>
        <time>2021-10-29T16:58:51Z</time>
      </trkpt>
      <trkpt lat="42.42281" lon="2.72412">
        <ele>1416.07</ele>
        <time>2021-10-29T16:58:51Z</time>
      </trkpt>
      <trkpt lat="42.42284" lon="2.72438">
        <ele>1411.46</ele>
        <time>2021-10-29T16:58:51Z</time>
      </trkpt>
      <trkpt lat="42.42293" lon="2.72454">
        <ele>1405.1</ele>
        <time>2021-10-29T16:58:51Z</time>
      </trkpt>
      <trkpt lat="42.42298" lon="2.72473">
        <ele>1399.96</ele>
        <time>2021-10-29T16:58:51Z</time>
      </trkpt>
      <trkpt lat="42.423" lon="2.72488">
        <ele>1398.25</ele>
        <time>2021-10-29T16:58:51Z</time>
      </trkpt>
      <trkpt lat="42.42303" lon="2.72506">
        <ele>1398.21</ele>
        <time>2021-10-29T16:58:51Z</time>
      </trkpt>
      <trkpt lat="42.42303" lon="2.72528">
        <ele>1399.61</ele>
        <time>2021-10-29T16:58:51Z</time>
      </trkpt>
      <trkpt lat="42.42306" lon="2.72564">
        <ele>1400.77</ele>
        <time>2021-10-29T16:58:51Z</time>
      </trkpt>
      <trkpt lat="42.42303" lon="2.72598">
        <ele>1403.58</ele>
        <time>2021-10-29T16:58:51Z</time>
      </trkpt>
      <trkpt lat="42.42299" lon="2.72622">
        <ele>1407.86</ele>
        <time>2021-10-29T16:58:51Z</time>
      </trkpt>
      <trkpt lat="42.42294" lon="2.72651">
        <ele>1416.76</ele>
        <time>2021-10-29T16:58:51Z</time>
      </trkpt>
      <trkpt lat="42.42289" lon="2.72675">
        <ele>1423.93</ele>
        <time>2021-10-29T16:58:51Z</time>
      </trkpt>
      <trkpt lat="42.42289" lon="2.72696">
        <ele>1427.76</ele>
        <time>2021-10-29T16:58:51Z</time>
      </trkpt>
      <trkpt lat="42.42295" lon="2.72733">
        <ele>1434.25</ele>
        <time>2021-10-29T16:58:51Z</time>
      </trkpt>
      <trkpt lat="42.42291" lon="2.72785">
        <ele>1428.98</ele>
        <time>2021-10-29T16:58:51Z</time>
      </trkpt>
      <trkpt lat="42.42287" lon="2.72822">
        <ele>1430.16</ele>
        <time>2021-10-29T16:58:51Z</time>
      </trkpt>
      <trkpt lat="42.4228" lon="2.72852">
        <ele>1433.93</ele>
        <time>2021-10-29T16:58:51Z</time>
      </trkpt>
      <trkpt lat="42.42279" lon="2.72876">
        <ele>1432.12</ele>
        <time>2021-10-29T16:58:51Z</time>
      </trkpt>
      <trkpt lat="42.42274" lon="2.72895">
        <ele>1432.38</ele>
        <time>2021-10-29T16:58:51Z</time>
      </trkpt>
      <trkpt lat="42.42274" lon="2.72925">
        <ele>1432.85</ele>
        <time>2021-10-29T16:58:51Z</time>
      </trkpt>
      <trkpt lat="42.42275" lon="2.72959">
        <ele>1435.34</ele>
        <time>2021-10-29T16:58:51Z</time>
      </trkpt>
      <trkpt lat="42.42274" lon="2.72988">
        <ele>1437.36</ele>
        <time>2021-10-29T16:58:51Z</time>
      </trkpt>
      <trkpt lat="42.42267" lon="2.73022">
        <ele>1439.08</ele>
        <time>2021-10-29T16:58:51Z</time>
      </trkpt>
      <trkpt lat="42.42265" lon="2.73051">
        <ele>1437.82</ele>
        <time>2021-10-29T16:58:51Z</time>
      </trkpt>
      <trkpt lat="42.42286" lon="2.73051">
        <ele>1433.17</ele>
        <time>2021-10-29T16:58:51Z</time>
      </trkpt>
      <trkpt lat="42.42312" lon="2.73051">
        <ele>1425.75</ele>
        <time>2021-10-29T16:58:51Z</time>
      </trkpt>
      <trkpt lat="42.42335" lon="2.73068">
        <ele>1419.88</ele>
        <time>2021-10-29T16:58:51Z</time>
      </trkpt>
      <trkpt lat="42.42337" lon="2.73102">
        <ele>1420.7</ele>
        <time>2021-10-29T16:58:51Z</time>
      </trkpt>
      <trkpt lat="42.42337" lon="2.73146">
        <ele>1415.26</ele>
        <time>2021-10-29T16:58:51Z</time>
      </trkpt>
      <trkpt lat="42.42337" lon="2.73177">
        <ele>1409.34</ele>
        <time>2021-10-29T16:58:51Z</time>
      </trkpt>
      <trkpt lat="42.42328" lon="2.73211">
        <ele>1402.07</ele>
        <time>2021-10-29T16:58:51Z</time>
      </trkpt>
      <trkpt lat="42.42323" lon="2.73241">
        <ele>1395.18</ele>
        <time>2021-10-29T16:58:51Z</time>
      </trkpt>
      <trkpt lat="42.42309" lon="2.73272">
        <ele>1388.81</ele>
        <time>2021-10-29T16:58:51Z</time>
      </trkpt>
      <trkpt lat="42.42289" lon="2.73297">
        <ele>1382.07</ele>
        <time>2021-10-29T16:58:51Z</time>
      </trkpt>
      <trkpt lat="42.42269" lon="2.73324">
        <ele>1375.22</ele>
        <time>2021-10-29T16:58:51Z</time>
      </trkpt>
      <trkpt lat="42.42246" lon="2.73348">
        <ele>1373.33</ele>
        <time>2021-10-29T16:58:51Z</time>
      </trkpt>
      <trkpt lat="42.42226" lon="2.73365">
        <ele>1372.56</ele>
        <time>2021-10-29T16:58:51Z</time>
      </trkpt>
      <trkpt lat="42.42201" lon="2.73382">
        <ele>1372.62</ele>
        <time>2021-10-29T16:58:51Z</time>
      </trkpt>
      <trkpt lat="42.42178" lon="2.73389">
        <ele>1375.5</ele>
        <time>2021-10-29T16:58:51Z</time>
      </trkpt>
      <trkpt lat="42.42166" lon="2.73407">
        <ele>1372.95</ele>
        <time>2021-10-29T16:58:51Z</time>
      </trkpt>
      <trkpt lat="42.42148" lon="2.7343">
        <ele>1369.99</ele>
        <time>2021-10-29T16:58:51Z</time>
      </trkpt>
      <trkpt lat="42.42137" lon="2.73445">
        <ele>1367.52</ele>
        <time>2021-10-29T16:58:51Z</time>
      </trkpt>
      <trkpt lat="42.42121" lon="2.73457">
        <ele>1365.34</ele>
        <time>2021-10-29T16:58:51Z</time>
      </trkpt>
      <trkpt lat="42.42108" lon="2.73458">
        <ele>1363.66</ele>
        <time>2021-10-29T16:58:51Z</time>
      </trkpt>
      <trkpt lat="42.42095" lon="2.73463">
        <ele>1361.1</ele>
        <time>2021-10-29T16:58:51Z</time>
      </trkpt>
      <trkpt lat="42.42094" lon="2.73483">
        <ele>1356.56</ele>
        <time>2021-10-29T16:58:51Z</time>
      </trkpt>
      <trkpt lat="42.42102" lon="2.73512">
        <ele>1352.19</ele>
        <time>2021-10-29T16:58:51Z</time>
      </trkpt>
      <trkpt lat="42.42107" lon="2.7353">
        <ele>1349.41</ele>
        <time>2021-10-29T16:58:51Z</time>
      </trkpt>
      <trkpt lat="42.42119" lon="2.73549">
        <ele>1347.29</ele>
        <time>2021-10-29T16:58:51Z</time>
      </trkpt>
      <trkpt lat="42.42144" lon="2.73555">
        <ele>1343.99</ele>
        <time>2021-10-29T16:58:51Z</time>
      </trkpt>
      <trkpt lat="42.4217" lon="2.73556">
        <ele>1340.64</ele>
        <time>2021-10-29T16:58:51Z</time>
      </trkpt>
      <trkpt lat="42.42198" lon="2.73553">
        <ele>1332.91</ele>
        <time>2021-10-29T16:58:51Z</time>
      </trkpt>
      <trkpt lat="42.42219" lon="2.73528">
        <ele>1330.72</ele>
        <time>2021-10-29T16:58:51Z</time>
      </trkpt>
      <trkpt lat="42.42236" lon="2.73507">
        <ele>1327.59</ele>
        <time>2021-10-29T16:58:51Z</time>
      </trkpt>
      <trkpt lat="42.42251" lon="2.73497">
        <ele>1322.82</ele>
        <time>2021-10-29T16:58:51Z</time>
      </trkpt>
      <trkpt lat="42.42263" lon="2.73549">
        <ele>1316.59</ele>
        <time>2021-10-29T16:58:51Z</time>
      </trkpt>
      <trkpt lat="42.42274" lon="2.736">
        <ele>1310.54</ele>
        <time>2021-10-29T16:58:51Z</time>
      </trkpt>
      <trkpt lat="42.42286" lon="2.73634">
        <ele>1307.71</ele>
        <time>2021-10-29T16:58:51Z</time>
      </trkpt>
      <trkpt lat="42.42286" lon="2.73681">
        <ele>1300.34</ele>
        <time>2021-10-29T16:58:51Z</time>
      </trkpt>
      <trkpt lat="42.42295" lon="2.73705">
        <ele>1299.14</ele>
        <time>2021-10-29T16:58:51Z</time>
      </trkpt>
      <trkpt lat="42.42319" lon="2.73751">
        <ele>1294.25</ele>
        <time>2021-10-29T16:58:51Z</time>
      </trkpt>
      <trkpt lat="42.42327" lon="2.73786">
        <ele>1289.96</ele>
        <time>2021-10-29T16:58:51Z</time>
      </trkpt>
      <trkpt lat="42.42332" lon="2.73826">
        <ele>1282.45</ele>
        <time>2021-10-29T16:58:51Z</time>
      </trkpt>
      <trkpt lat="42.42352" lon="2.73851">
        <ele>1278.04</ele>
        <time>2021-10-29T16:58:51Z</time>
      </trkpt>
      <trkpt lat="42.42342" lon="2.73866">
        <ele>1272.43</ele>
        <time>2021-10-29T16:58:51Z</time>
      </trkpt>
      <trkpt lat="42.42322" lon="2.73846">
        <ele>1271.48</ele>
        <time>2021-10-29T16:58:51Z</time>
      </trkpt>
      <trkpt lat="42.42304" lon="2.7383">
        <ele>1268.28</ele>
        <time>2021-10-29T16:58:51Z</time>
      </trkpt>
      <trkpt lat="42.42296" lon="2.73837">
        <ele>1264.5</ele>
        <time>2021-10-29T16:58:51Z</time>
      </trkpt>
      <trkpt lat="42.42301" lon="2.73859">
        <ele>1260.36</ele>
        <time>2021-10-29T16:58:51Z</time>
      </trkpt>
      <trkpt lat="42.42313" lon="2.73883">
        <ele>1257.38</ele>
        <time>2021-10-29T16:58:51Z</time>
      </trkpt>
      <trkpt lat="42.42323" lon="2.7391">
        <ele>1254.13</ele>
        <time>2021-10-29T16:58:51Z</time>
      </trkpt>
      <trkpt lat="42.42331" lon="2.73943">
        <ele>1250.11</ele>
        <time>2021-10-29T16:58:51Z</time>
      </trkpt>
      <trkpt lat="42.42346" lon="2.73962">
        <ele>1247.46</ele>
        <time>2021-10-29T16:58:51Z</time>
      </trkpt>
      <trkpt lat="42.42363" lon="2.73977">
        <ele>1244.47</ele>
        <time>2021-10-29T16:58:51Z</time>
      </trkpt>
      <trkpt lat="42.42379" lon="2.7399">
        <ele>1241.1</ele>
        <time>2021-10-29T16:58:51Z</time>
      </trkpt>
      <trkpt lat="42.42388" lon="2.74008">
        <ele>1238.96</ele>
        <time>2021-10-29T16:58:51Z</time>
      </trkpt>
      <trkpt lat="42.4238" lon="2.74022">
        <ele>1237.62</ele>
        <time>2021-10-29T16:58:51Z</time>
      </trkpt>
      <trkpt lat="42.42366" lon="2.74024">
        <ele>1236.12</ele>
        <time>2021-10-29T16:58:51Z</time>
      </trkpt>
      <trkpt lat="42.42349" lon="2.74021">
        <ele>1234.1</ele>
        <time>2021-10-29T16:58:51Z</time>
      </trkpt>
      <trkpt lat="42.42316" lon="2.74004">
        <ele>1228.55</ele>
        <time>2021-10-29T16:58:51Z</time>
      </trkpt>
      <trkpt lat="42.42293" lon="2.73983">
        <ele>1225.99</ele>
        <time>2021-10-29T16:58:51Z</time>
      </trkpt>
      <trkpt lat="42.4228" lon="2.73966">
        <ele>1224.33</ele>
        <time>2021-10-29T16:58:51Z</time>
      </trkpt>
      <trkpt lat="42.42278" lon="2.73942">
        <ele>1229.28</ele>
        <time>2021-10-29T16:58:51Z</time>
      </trkpt>
      <trkpt lat="42.4227" lon="2.73928">
        <ele>1228.12</ele>
        <time>2021-10-29T16:58:51Z</time>
      </trkpt>
      <trkpt lat="42.42255" lon="2.73936">
        <ele>1220.51</ele>
        <time>2021-10-29T16:58:51Z</time>
      </trkpt>
      <trkpt lat="42.42243" lon="2.73967">
        <ele>1213.97</ele>
        <time>2021-10-29T16:58:51Z</time>
      </trkpt>
      <trkpt lat="42.42232" lon="2.74017">
        <ele>1216.59</ele>
        <time>2021-10-29T16:58:51Z</time>
      </trkpt>
      <trkpt lat="42.42229" lon="2.74054">
        <ele>1212.1</ele>
        <time>2021-10-29T16:58:51Z</time>
      </trkpt>
      <trkpt lat="42.42221" lon="2.74081">
        <ele>1212.37</ele>
        <time>2021-10-29T16:58:51Z</time>
      </trkpt>
      <trkpt lat="42.42218" lon="2.74116">
        <ele>1210.75</ele>
        <time>2021-10-29T16:58:51Z</time>
      </trkpt>
      <trkpt lat="42.42211" lon="2.74145">
        <ele>1208.71</ele>
        <time>2021-10-29T16:58:51Z</time>
      </trkpt>
      <trkpt lat="42.42195" lon="2.74174">
        <ele>1208.15</ele>
        <time>2021-10-29T16:58:51Z</time>
      </trkpt>
      <trkpt lat="42.42182" lon="2.74216">
        <ele>1202.79</ele>
        <time>2021-10-29T16:58:51Z</time>
      </trkpt>
      <trkpt lat="42.42183" lon="2.74246">
        <ele>1197.97</ele>
        <time>2021-10-29T16:58:51Z</time>
      </trkpt>
      <trkpt lat="42.42174" lon="2.74284">
        <ele>1192.69</ele>
        <time>2021-10-29T16:58:51Z</time>
      </trkpt>
      <trkpt lat="42.42156" lon="2.74305">
        <ele>1192.5</ele>
        <time>2021-10-29T16:58:51Z</time>
      </trkpt>
      <trkpt lat="42.42151" lon="2.74338">
        <ele>1188.95</ele>
        <time>2021-10-29T16:58:51Z</time>
      </trkpt>
      <trkpt lat="42.4214" lon="2.7438">
        <ele>1185.14</ele>
        <time>2021-10-29T16:58:51Z</time>
      </trkpt>
      <trkpt lat="42.42132" lon="2.7443">
        <ele>1180.84</ele>
        <time>2021-10-29T16:58:51Z</time>
      </trkpt>
      <trkpt lat="42.42124" lon="2.74459">
        <ele>1177.78</ele>
        <time>2021-10-29T16:58:51Z</time>
      </trkpt>
      <trkpt lat="42.42112" lon="2.745">
        <ele>1171.37</ele>
        <time>2021-10-29T16:58:51Z</time>
      </trkpt>
      <trkpt lat="42.42091" lon="2.7454">
        <ele>1168.37</ele>
        <time>2021-10-29T16:58:51Z</time>
      </trkpt>
      <trkpt lat="42.42079" lon="2.74576">
        <ele>1163.81</ele>
        <time>2021-10-29T16:58:51Z</time>
      </trkpt>
      <trkpt lat="42.4206" lon="2.74613">
        <ele>1158.1</ele>
        <time>2021-10-29T16:58:51Z</time>
      </trkpt>
      <trkpt lat="42.42042" lon="2.74634">
        <ele>1154.28</ele>
        <time>2021-10-29T16:58:51Z</time>
      </trkpt>
      <trkpt lat="42.42018" lon="2.74651">
        <ele>1150.06</ele>
        <time>2021-10-29T16:58:51Z</time>
      </trkpt>
      <trkpt lat="42.42002" lon="2.74662">
        <ele>1147.45</ele>
        <time>2021-10-29T16:58:51Z</time>
      </trkpt>
      <trkpt lat="42.41983" lon="2.74676">
        <ele>1143.77</ele>
        <time>2021-10-29T16:58:51Z</time>
      </trkpt>
      <trkpt lat="42.4196" lon="2.74694">
        <ele>1139.33</ele>
        <time>2021-10-29T16:58:51Z</time>
      </trkpt>
      <trkpt lat="42.41939" lon="2.7471">
        <ele>1136.31</ele>
        <time>2021-10-29T16:58:51Z</time>
      </trkpt>
      <trkpt lat="42.4192" lon="2.74718">
        <ele>1135.23</ele>
        <time>2021-10-29T16:58:51Z</time>
      </trkpt>
      <trkpt lat="42.41899" lon="2.74742">
        <ele>1131</ele>
        <time>2021-10-29T16:58:51Z</time>
      </trkpt>
      <trkpt lat="42.41878" lon="2.74757">
        <ele>1129.32</ele>
        <time>2021-10-29T16:58:51Z</time>
      </trkpt>
      <trkpt lat="42.41862" lon="2.74774">
        <ele>1127.49</ele>
        <time>2021-10-29T16:58:51Z</time>
      </trkpt>
      <trkpt lat="42.4184" lon="2.74801">
        <ele>1122.43</ele>
        <time>2021-10-29T16:58:51Z</time>
      </trkpt>
      <trkpt lat="42.41825" lon="2.74816">
        <ele>1120.03</ele>
        <time>2021-10-29T16:58:51Z</time>
      </trkpt>
      <trkpt lat="42.4181" lon="2.74832">
        <ele>1117.36</ele>
        <time>2021-10-29T16:58:51Z</time>
      </trkpt>
      <trkpt lat="42.41798" lon="2.7485">
        <ele>1114.96</ele>
        <time>2021-10-29T16:58:51Z</time>
      </trkpt>
      <trkpt lat="42.4179" lon="2.74866">
        <ele>1113.75</ele>
        <time>2021-10-29T16:58:51Z</time>
      </trkpt>
      <trkpt lat="42.41797" lon="2.74879">
        <ele>1110.64</ele>
        <time>2021-10-29T16:58:51Z</time>
      </trkpt>
      <trkpt lat="42.41812" lon="2.74864">
        <ele>1109.45</ele>
        <time>2021-10-29T16:58:51Z</time>
      </trkpt>
      <trkpt lat="42.41835" lon="2.74851">
        <ele>1106.92</ele>
        <time>2021-10-29T16:58:51Z</time>
      </trkpt>
      <trkpt lat="42.4185" lon="2.74853">
        <ele>1103.85</ele>
        <time>2021-10-29T16:58:51Z</time>
      </trkpt>
      <trkpt lat="42.41875" lon="2.74864">
        <ele>1099.67</ele>
        <time>2021-10-29T16:58:51Z</time>
      </trkpt>
      <trkpt lat="42.41891" lon="2.74867">
        <ele>1097.86</ele>
        <time>2021-10-29T16:58:51Z</time>
      </trkpt>
      <trkpt lat="42.41907" lon="2.74867">
        <ele>1098.13</ele>
        <time>2021-10-29T16:58:51Z</time>
      </trkpt>
      <trkpt lat="42.41923" lon="2.74875">
        <ele>1097.74</ele>
        <time>2021-10-29T16:58:51Z</time>
      </trkpt>
      <trkpt lat="42.4192" lon="2.74892">
        <ele>1093.44</ele>
        <time>2021-10-29T16:58:51Z</time>
      </trkpt>
      <trkpt lat="42.41908" lon="2.74892">
        <ele>1091.8</ele>
        <time>2021-10-29T16:58:51Z</time>
      </trkpt>
      <trkpt lat="42.41893" lon="2.74892">
        <ele>1090.29</ele>
        <time>2021-10-29T16:58:51Z</time>
      </trkpt>
      <trkpt lat="42.41883" lon="2.74906">
        <ele>1087.35</ele>
        <time>2021-10-29T16:58:51Z</time>
      </trkpt>
      <trkpt lat="42.41875" lon="2.74921">
        <ele>1084.9</ele>
        <time>2021-10-29T16:58:51Z</time>
      </trkpt>
      <trkpt lat="42.41863" lon="2.74925">
        <ele>1084.68</ele>
        <time>2021-10-29T16:58:51Z</time>
      </trkpt>
      <trkpt lat="42.41851" lon="2.74925">
        <ele>1085.28</ele>
        <time>2021-10-29T16:58:51Z</time>
      </trkpt>
      <trkpt lat="42.41841" lon="2.74951">
        <ele>1081.74</ele>
        <time>2021-10-29T16:58:51Z</time>
      </trkpt>
      <trkpt lat="42.41836" lon="2.74991">
        <ele>1077.1</ele>
        <time>2021-10-29T16:58:51Z</time>
      </trkpt>
      <trkpt lat="42.41825" lon="2.75038">
        <ele>1075.43</ele>
        <time>2021-10-29T16:58:51Z</time>
      </trkpt>
      <trkpt lat="42.41821" lon="2.75066">
        <ele>1070.19</ele>
        <time>2021-10-29T16:58:51Z</time>
      </trkpt>
      <trkpt lat="42.41811" lon="2.75096">
        <ele>1067.62</ele>
        <time>2021-10-29T16:58:51Z</time>
      </trkpt>
      <trkpt lat="42.41802" lon="2.75122">
        <ele>1064.85</ele>
        <time>2021-10-29T16:58:51Z</time>
      </trkpt>
      <trkpt lat="42.41789" lon="2.75152">
        <ele>1061.85</ele>
        <time>2021-10-29T16:58:51Z</time>
      </trkpt>
      <trkpt lat="42.41779" lon="2.75176">
        <ele>1058.65</ele>
        <time>2021-10-29T16:58:51Z</time>
      </trkpt>
      <trkpt lat="42.41763" lon="2.75198">
        <ele>1056.13</ele>
        <time>2021-10-29T16:58:51Z</time>
      </trkpt>
      <trkpt lat="42.41751" lon="2.75224">
        <ele>1053.52</ele>
        <time>2021-10-29T16:58:51Z</time>
      </trkpt>
      <trkpt lat="42.41741" lon="2.75244">
        <ele>1049.92</ele>
        <time>2021-10-29T16:58:51Z</time>
      </trkpt>
      <trkpt lat="42.41729" lon="2.75269">
        <ele>1045.92</ele>
        <time>2021-10-29T16:58:51Z</time>
      </trkpt>
      <trkpt lat="42.41719" lon="2.75287">
        <ele>1043.11</ele>
        <time>2021-10-29T16:58:51Z</time>
      </trkpt>
      <trkpt lat="42.41703" lon="2.75293">
        <ele>1042.98</ele>
        <time>2021-10-29T16:58:51Z</time>
      </trkpt>
      <trkpt lat="42.41687" lon="2.75293">
        <ele>1042.49</ele>
        <time>2021-10-29T16:58:51Z</time>
      </trkpt>
      <trkpt lat="42.41678" lon="2.75311">
        <ele>1040.2</ele>
        <time>2021-10-29T16:58:51Z</time>
      </trkpt>
      <trkpt lat="42.41662" lon="2.75319">
        <ele>1038.34</ele>
        <time>2021-10-29T16:58:51Z</time>
      </trkpt>
      <trkpt lat="42.41649" lon="2.75332">
        <ele>1035.97</ele>
        <time>2021-10-29T16:58:51Z</time>
      </trkpt>
      <trkpt lat="42.41638" lon="2.75349">
        <ele>1033.2</ele>
        <time>2021-10-29T16:58:51Z</time>
      </trkpt>
      <trkpt lat="42.41618" lon="2.7536">
        <ele>1031.06</ele>
        <time>2021-10-29T16:58:51Z</time>
      </trkpt>
      <trkpt lat="42.41603" lon="2.75374">
        <ele>1029.28</ele>
        <time>2021-10-29T16:58:51Z</time>
      </trkpt>
      <trkpt lat="42.41585" lon="2.75391">
        <ele>1026.6</ele>
        <time>2021-10-29T16:58:51Z</time>
      </trkpt>
      <trkpt lat="42.41576" lon="2.7541">
        <ele>1024.78</ele>
        <time>2021-10-29T16:58:51Z</time>
      </trkpt>
      <trkpt lat="42.41564" lon="2.75426">
        <ele>1023.71</ele>
        <time>2021-10-29T16:58:51Z</time>
      </trkpt>
      <trkpt lat="42.41551" lon="2.75447">
        <ele>1022.34</ele>
        <time>2021-10-29T16:58:51Z</time>
      </trkpt>
      <trkpt lat="42.41541" lon="2.75463">
        <ele>1021.4</ele>
        <time>2021-10-29T16:58:51Z</time>
      </trkpt>
      <trkpt lat="42.4153" lon="2.75479">
        <ele>1019.9</ele>
        <time>2021-10-29T16:58:51Z</time>
      </trkpt>
      <trkpt lat="42.41516" lon="2.75501">
        <ele>1018.07</ele>
        <time>2021-10-29T16:58:51Z</time>
      </trkpt>
      <trkpt lat="42.41507" lon="2.75518">
        <ele>1016.84</ele>
        <time>2021-10-29T16:58:51Z</time>
      </trkpt>
      <trkpt lat="42.41495" lon="2.75534">
        <ele>1015.09</ele>
        <time>2021-10-29T16:58:51Z</time>
      </trkpt>
      <trkpt lat="42.41489" lon="2.75562">
        <ele>1013.47</ele>
        <time>2021-10-29T16:58:51Z</time>
      </trkpt>
      <trkpt lat="42.41486" lon="2.75601">
        <ele>1012.07</ele>
        <time>2021-10-29T16:58:51Z</time>
      </trkpt>
      <trkpt lat="42.41485" lon="2.7564">
        <ele>1009.21</ele>
        <time>2021-10-29T16:58:51Z</time>
      </trkpt>
      <trkpt lat="42.41482" lon="2.75679">
        <ele>1007.24</ele>
        <time>2021-10-29T16:58:51Z</time>
      </trkpt>
      <trkpt lat="42.41483" lon="2.7571">
        <ele>1005.81</ele>
        <time>2021-10-29T16:58:51Z</time>
      </trkpt>
      <trkpt lat="42.41476" lon="2.75735">
        <ele>1003.83</ele>
        <time>2021-10-29T16:58:51Z</time>
      </trkpt>
      <trkpt lat="42.41463" lon="2.75768">
        <ele>1000.36</ele>
        <time>2021-10-29T16:58:51Z</time>
      </trkpt>
      <trkpt lat="42.41448" lon="2.75795">
        <ele>998.18</ele>
        <time>2021-10-29T16:58:51Z</time>
      </trkpt>
      <trkpt lat="42.41437" lon="2.75821">
        <ele>995.54</ele>
        <time>2021-10-29T16:58:51Z</time>
      </trkpt>
      <trkpt lat="42.41425" lon="2.75849">
        <ele>993.22</ele>
        <time>2021-10-29T16:58:51Z</time>
      </trkpt>
      <trkpt lat="42.41413" lon="2.75876">
        <ele>990.72</ele>
        <time>2021-10-29T16:58:51Z</time>
      </trkpt>
      <trkpt lat="42.41409" lon="2.75904">
        <ele>988.39</ele>
        <time>2021-10-29T16:58:51Z</time>
      </trkpt>
      <trkpt lat="42.41414" lon="2.75932">
        <ele>984.98</ele>
        <time>2021-10-29T16:58:51Z</time>
      </trkpt>
      <trkpt lat="42.41422" lon="2.75956">
        <ele>983</ele>
        <time>2021-10-29T16:58:51Z</time>
      </trkpt>
      <trkpt lat="42.41429" lon="2.75989">
        <ele>980.35</ele>
        <time>2021-10-29T16:58:51Z</time>
      </trkpt>
      <trkpt lat="42.41426" lon="2.76012">
        <ele>977.8</ele>
        <time>2021-10-29T16:58:51Z</time>
      </trkpt>
      <trkpt lat="42.41418" lon="2.76039">
        <ele>974.62</ele>
        <time>2021-10-29T16:58:51Z</time>
      </trkpt>
      <trkpt lat="42.41411" lon="2.76057">
        <ele>971.82</ele>
        <time>2021-10-29T16:58:51Z</time>
      </trkpt>
      <trkpt lat="42.41399" lon="2.76071">
        <ele>970.54</ele>
        <time>2021-10-29T16:58:51Z</time>
      </trkpt>
      <trkpt lat="42.41375" lon="2.76092">
        <ele>967.61</ele>
        <time>2021-10-29T16:58:51Z</time>
      </trkpt>
      <trkpt lat="42.41357" lon="2.76108">
        <ele>965.25</ele>
        <time>2021-10-29T16:58:51Z</time>
      </trkpt>
      <trkpt lat="42.41344" lon="2.76121">
        <ele>963.08</ele>
        <time>2021-10-29T16:58:51Z</time>
      </trkpt>
      <trkpt lat="42.41333" lon="2.76127">
        <ele>961.8</ele>
        <time>2021-10-29T16:58:51Z</time>
      </trkpt>
      <trkpt lat="42.41316" lon="2.76145">
        <ele>957.76</ele>
        <time>2021-10-29T16:58:51Z</time>
      </trkpt>
      <trkpt lat="42.4131" lon="2.76166">
        <ele>953.36</ele>
        <time>2021-10-29T16:58:51Z</time>
      </trkpt>
      <trkpt lat="42.41295" lon="2.76189">
        <ele>949.06</ele>
        <time>2021-10-29T16:58:51Z</time>
      </trkpt>
      <trkpt lat="42.41277" lon="2.76216">
        <ele>943.83</ele>
        <time>2021-10-29T16:58:51Z</time>
      </trkpt>
      <trkpt lat="42.41268" lon="2.76241">
        <ele>940.28</ele>
        <time>2021-10-29T16:58:51Z</time>
      </trkpt>
      <trkpt lat="42.41261" lon="2.76259">
        <ele>937.02</ele>
        <time>2021-10-29T16:58:51Z</time>
      </trkpt>
      <trkpt lat="42.41248" lon="2.76291">
        <ele>931.74</ele>
        <time>2021-10-29T16:58:51Z</time>
      </trkpt>
      <trkpt lat="42.41244" lon="2.76309">
        <ele>928.99</ele>
        <time>2021-10-29T16:58:51Z</time>
      </trkpt>
      <trkpt lat="42.41233" lon="2.76337">
        <ele>925.59</ele>
        <time>2021-10-29T16:58:51Z</time>
      </trkpt>
      <trkpt lat="42.41228" lon="2.76353">
        <ele>923.43</ele>
        <time>2021-10-29T16:58:51Z</time>
      </trkpt>
      <trkpt lat="42.41222" lon="2.76383">
        <ele>919.69</ele>
        <time>2021-10-29T16:58:51Z</time>
      </trkpt>
      <trkpt lat="42.41208" lon="2.76405">
        <ele>916.97</ele>
        <time>2021-10-29T16:58:51Z</time>
      </trkpt>
      <trkpt lat="42.41211" lon="2.76433">
        <ele>915.26</ele>
        <time>2021-10-29T16:58:51Z</time>
      </trkpt>
      <trkpt lat="42.41208" lon="2.76471">
        <ele>913.74</ele>
        <time>2021-10-29T16:58:51Z</time>
      </trkpt>
      <trkpt lat="42.41202" lon="2.76495">
        <ele>910.88</ele>
        <time>2021-10-29T16:58:51Z</time>
      </trkpt>
      <trkpt lat="42.41185" lon="2.76522">
        <ele>908.89</ele>
        <time>2021-10-29T16:58:51Z</time>
      </trkpt>
      <trkpt lat="42.41177" lon="2.76543">
        <ele>906.92</ele>
        <time>2021-10-29T16:58:51Z</time>
      </trkpt>
      <trkpt lat="42.41167" lon="2.7657">
        <ele>905.18</ele>
        <time>2021-10-29T16:58:51Z</time>
      </trkpt>
      <trkpt lat="42.41164" lon="2.76601">
        <ele>902.04</ele>
        <time>2021-10-29T16:58:51Z</time>
      </trkpt>
      <trkpt lat="42.41163" lon="2.76634">
        <ele>898.94</ele>
        <time>2021-10-29T16:58:51Z</time>
      </trkpt>
      <trkpt lat="42.41162" lon="2.76673">
        <ele>895.41</ele>
        <time>2021-10-29T16:58:51Z</time>
      </trkpt>
      <trkpt lat="42.41159" lon="2.76706">
        <ele>892.29</ele>
        <time>2021-10-29T16:58:51Z</time>
      </trkpt>
      <trkpt lat="42.41156" lon="2.76741">
        <ele>890.08</ele>
        <time>2021-10-29T16:58:51Z</time>
      </trkpt>
      <trkpt lat="42.41154" lon="2.76774">
        <ele>887.64</ele>
        <time>2021-10-29T16:58:51Z</time>
      </trkpt>
      <trkpt lat="42.41152" lon="2.76803">
        <ele>886.06</ele>
        <time>2021-10-29T16:58:51Z</time>
      </trkpt>
      <trkpt lat="42.41156" lon="2.76843">
        <ele>883.47</ele>
        <time>2021-10-29T16:58:51Z</time>
      </trkpt>
      <trkpt lat="42.41158" lon="2.76878">
        <ele>882.52</ele>
        <time>2021-10-29T16:58:51Z</time>
      </trkpt>
      <trkpt lat="42.41154" lon="2.76901">
        <ele>884.42</ele>
        <time>2021-10-29T16:58:51Z</time>
      </trkpt>
      <trkpt lat="42.41146" lon="2.76924">
        <ele>886.13</ele>
        <time>2021-10-29T16:58:51Z</time>
      </trkpt>
      <trkpt lat="42.41127" lon="2.76956">
        <ele>886.13</ele>
        <time>2021-10-29T16:58:51Z</time>
      </trkpt>
      <trkpt lat="42.41119" lon="2.76977">
        <ele>888.09</ele>
        <time>2021-10-29T16:58:51Z</time>
      </trkpt>
      <trkpt lat="42.41108" lon="2.76992">
        <ele>887.92</ele>
        <time>2021-10-29T16:58:51Z</time>
      </trkpt>
      <trkpt lat="42.41091" lon="2.77004">
        <ele>885.28</ele>
        <time>2021-10-29T16:58:51Z</time>
      </trkpt>
      <trkpt lat="42.41077" lon="2.77014">
        <ele>883.77</ele>
        <time>2021-10-29T16:58:51Z</time>
      </trkpt>
      <trkpt lat="42.41056" lon="2.77026">
        <ele>883.04</ele>
        <time>2021-10-29T16:58:51Z</time>
      </trkpt>
      <trkpt lat="42.41041" lon="2.77049">
        <ele>880.54</ele>
        <time>2021-10-29T16:58:51Z</time>
      </trkpt>
      <trkpt lat="42.41031" lon="2.77074">
        <ele>878.8</ele>
        <time>2021-10-29T16:58:51Z</time>
      </trkpt>
      <trkpt lat="42.41021" lon="2.771">
        <ele>874.95</ele>
        <time>2021-10-29T16:58:51Z</time>
      </trkpt>
      <trkpt lat="42.41012" lon="2.7711">
        <ele>871.24</ele>
        <time>2021-10-29T16:58:51Z</time>
      </trkpt>
      <trkpt lat="42.41001" lon="2.77128">
        <ele>869.61</ele>
        <time>2021-10-29T16:58:51Z</time>
      </trkpt>
      <trkpt lat="42.4099" lon="2.77143">
        <ele>867.6</ele>
        <time>2021-10-29T16:58:51Z</time>
      </trkpt>
      <trkpt lat="42.40972" lon="2.77156">
        <ele>863.11</ele>
        <time>2021-10-29T16:58:51Z</time>
      </trkpt>
      <trkpt lat="42.40953" lon="2.77169">
        <ele>858.6</ele>
        <time>2021-10-29T16:58:51Z</time>
      </trkpt>
      <trkpt lat="42.4094" lon="2.77179">
        <ele>856.98</ele>
        <time>2021-10-29T16:58:51Z</time>
      </trkpt>
      <trkpt lat="42.40933" lon="2.77193">
        <ele>857.64</ele>
        <time>2021-10-29T16:58:51Z</time>
      </trkpt>
      <trkpt lat="42.40929" lon="2.77213">
        <ele>856.77</ele>
        <time>2021-10-29T16:58:51Z</time>
      </trkpt>
      <trkpt lat="42.40931" lon="2.77238">
        <ele>854.56</ele>
        <time>2021-10-29T16:58:51Z</time>
      </trkpt>
      <trkpt lat="42.40947" lon="2.77252">
        <ele>855.1</ele>
        <time>2021-10-29T16:58:51Z</time>
      </trkpt>
      <trkpt lat="42.40968" lon="2.77259">
        <ele>854.54</ele>
        <time>2021-10-29T16:58:51Z</time>
      </trkpt>
      <trkpt lat="42.40991" lon="2.77263">
        <ele>855.99</ele>
        <time>2021-10-29T16:58:51Z</time>
      </trkpt>
      <trkpt lat="42.4101" lon="2.77271">
        <ele>853.5</ele>
        <time>2021-10-29T16:58:51Z</time>
      </trkpt>
      <trkpt lat="42.41033" lon="2.77273">
        <ele>853.07</ele>
        <time>2021-10-29T16:58:51Z</time>
      </trkpt>
      <trkpt lat="42.41057" lon="2.77273">
        <ele>852.13</ele>
        <time>2021-10-29T16:58:51Z</time>
      </trkpt>
      <trkpt lat="42.41074" lon="2.77272">
        <ele>850.99</ele>
        <time>2021-10-29T16:58:51Z</time>
      </trkpt>
      <trkpt lat="42.41094" lon="2.7727">
        <ele>849.43</ele>
        <time>2021-10-29T16:58:51Z</time>
      </trkpt>
      <trkpt lat="42.41113" lon="2.7728">
        <ele>847.6</ele>
        <time>2021-10-29T16:58:51Z</time>
      </trkpt>
      <trkpt lat="42.41135" lon="2.77294">
        <ele>846.06</ele>
        <time>2021-10-29T16:58:51Z</time>
      </trkpt>
      <trkpt lat="42.4115" lon="2.77308">
        <ele>844.32</ele>
        <time>2021-10-29T16:58:51Z</time>
      </trkpt>
      <trkpt lat="42.41168" lon="2.77319">
        <ele>843.71</ele>
        <time>2021-10-29T16:58:51Z</time>
      </trkpt>
      <trkpt lat="42.41185" lon="2.77334">
        <ele>842.83</ele>
        <time>2021-10-29T16:58:51Z</time>
      </trkpt>
      <trkpt lat="42.41198" lon="2.77349">
        <ele>842.29</ele>
        <time>2021-10-29T16:58:51Z</time>
      </trkpt>
      <trkpt lat="42.41206" lon="2.77374">
        <ele>839.45</ele>
        <time>2021-10-29T16:58:51Z</time>
      </trkpt>
      <trkpt lat="42.41212" lon="2.77399">
        <ele>838.26</ele>
        <time>2021-10-29T16:58:51Z</time>
      </trkpt>
      <trkpt lat="42.41214" lon="2.77422">
        <ele>835.26</ele>
        <time>2021-10-29T16:58:51Z</time>
      </trkpt>
      <trkpt lat="42.41214" lon="2.77446">
        <ele>832.96</ele>
        <time>2021-10-29T16:58:51Z</time>
      </trkpt>
      <trkpt lat="42.41209" lon="2.77469">
        <ele>829.81</ele>
        <time>2021-10-29T16:58:51Z</time>
      </trkpt>
      <trkpt lat="42.41208" lon="2.77502">
        <ele>828.27</ele>
        <time>2021-10-29T16:58:51Z</time>
      </trkpt>
      <trkpt lat="42.41207" lon="2.77539">
        <ele>824.33</ele>
        <time>2021-10-29T16:58:51Z</time>
      </trkpt>
      <trkpt lat="42.41207" lon="2.77567">
        <ele>822.86</ele>
        <time>2021-10-29T16:58:51Z</time>
      </trkpt>
      <trkpt lat="42.412" lon="2.77597">
        <ele>817.21</ele>
        <time>2021-10-29T16:58:51Z</time>
      </trkpt>
      <trkpt lat="42.41193" lon="2.7762">
        <ele>815.93</ele>
        <time>2021-10-29T16:58:51Z</time>
      </trkpt>
      <trkpt lat="42.41178" lon="2.77634">
        <ele>810.99</ele>
        <time>2021-10-29T16:58:51Z</time>
      </trkpt>
      <trkpt lat="42.4117" lon="2.77648">
        <ele>809.22</ele>
        <time>2021-10-29T16:58:51Z</time>
      </trkpt>
      <trkpt lat="42.41155" lon="2.77667">
        <ele>804.49</ele>
        <time>2021-10-29T16:58:51Z</time>
      </trkpt>
      <trkpt lat="42.4115" lon="2.77685">
        <ele>803.75</ele>
        <time>2021-10-29T16:58:51Z</time>
      </trkpt>
      <trkpt lat="42.4114" lon="2.77704">
        <ele>800.46</ele>
        <time>2021-10-29T16:58:51Z</time>
      </trkpt>
      <trkpt lat="42.41131" lon="2.77725">
        <ele>796.55</ele>
        <time>2021-10-29T16:58:51Z</time>
      </trkpt>
      <trkpt lat="42.4113" lon="2.77748">
        <ele>795.23</ele>
        <time>2021-10-29T16:58:51Z</time>
      </trkpt>
      <trkpt lat="42.41129" lon="2.7778">
        <ele>790.8</ele>
        <time>2021-10-29T16:58:51Z</time>
      </trkpt>
      <trkpt lat="42.41127" lon="2.77808">
        <ele>786.97</ele>
        <time>2021-10-29T16:58:51Z</time>
      </trkpt>
      <trkpt lat="42.41121" lon="2.7783">
        <ele>782.72</ele>
        <time>2021-10-29T16:58:51Z</time>
      </trkpt>
      <trkpt lat="42.4111" lon="2.77852">
        <ele>778.55</ele>
        <time>2021-10-29T16:58:51Z</time>
      </trkpt>
      <trkpt lat="42.41108" lon="2.77874">
        <ele>777.03</ele>
        <time>2021-10-29T16:58:51Z</time>
      </trkpt>
      <trkpt lat="42.41115" lon="2.77897">
        <ele>775.69</ele>
        <time>2021-10-29T16:58:51Z</time>
      </trkpt>
      <trkpt lat="42.4113" lon="2.77919">
        <ele>772.01</ele>
        <time>2021-10-29T16:58:51Z</time>
      </trkpt>
      <trkpt lat="42.41147" lon="2.7792">
        <ele>771.67</ele>
        <time>2021-10-29T16:58:51Z</time>
      </trkpt>
      <trkpt lat="42.41162" lon="2.77921">
        <ele>769.68</ele>
        <time>2021-10-29T16:58:51Z</time>
      </trkpt>
      <trkpt lat="42.41181" lon="2.77921">
        <ele>766.87</ele>
        <time>2021-10-29T16:58:51Z</time>
      </trkpt>
      <trkpt lat="42.41195" lon="2.77933">
        <ele>765.74</ele>
        <time>2021-10-29T16:58:51Z</time>
      </trkpt>
      <trkpt lat="42.41198" lon="2.7795">
        <ele>762.45</ele>
        <time>2021-10-29T16:58:51Z</time>
      </trkpt>
      <trkpt lat="42.41198" lon="2.77979">
        <ele>756.59</ele>
        <time>2021-10-29T16:58:51Z</time>
      </trkpt>
      <trkpt lat="42.41204" lon="2.78013">
        <ele>752.36</ele>
        <time>2021-10-29T16:58:51Z</time>
      </trkpt>
      <trkpt lat="42.41211" lon="2.78042">
        <ele>749.41</ele>
        <time>2021-10-29T16:58:51Z</time>
      </trkpt>
      <trkpt lat="42.41222" lon="2.78065">
        <ele>746.74</ele>
        <time>2021-10-29T16:58:51Z</time>
      </trkpt>
      <trkpt lat="42.41238" lon="2.78087">
        <ele>743.8</ele>
        <time>2021-10-29T16:58:51Z</time>
      </trkpt>
      <trkpt lat="42.41255" lon="2.781">
        <ele>741.55</ele>
        <time>2021-10-29T16:58:51Z</time>
      </trkpt>
      <trkpt lat="42.41284" lon="2.78103">
        <ele>737.67</ele>
        <time>2021-10-29T16:58:51Z</time>
      </trkpt>
      <trkpt lat="42.41303" lon="2.78095">
        <ele>735.44</ele>
        <time>2021-10-29T16:58:51Z</time>
      </trkpt>
      <trkpt lat="42.41324" lon="2.78081">
        <ele>733.27</ele>
        <time>2021-10-29T16:58:51Z</time>
      </trkpt>
      <trkpt lat="42.41341" lon="2.78071">
        <ele>731.25</ele>
        <time>2021-10-29T16:58:51Z</time>
      </trkpt>
      <trkpt lat="42.41364" lon="2.78064">
        <ele>728.15</ele>
        <time>2021-10-29T16:58:51Z</time>
      </trkpt>
      <trkpt lat="42.41382" lon="2.7806">
        <ele>726.47</ele>
        <time>2021-10-29T16:58:51Z</time>
      </trkpt>
      <trkpt lat="42.41404" lon="2.78058">
        <ele>723.54</ele>
        <time>2021-10-29T16:58:51Z</time>
      </trkpt>
      <trkpt lat="42.41421" lon="2.78066">
        <ele>721.15</ele>
        <time>2021-10-29T16:58:51Z</time>
      </trkpt>
      <trkpt lat="42.41436" lon="2.78079">
        <ele>719.09</ele>
        <time>2021-10-29T16:58:51Z</time>
      </trkpt>
      <trkpt lat="42.41451" lon="2.78097">
        <ele>716.25</ele>
        <time>2021-10-29T16:58:51Z</time>
      </trkpt>
      <trkpt lat="42.41466" lon="2.78116">
        <ele>714.1</ele>
        <time>2021-10-29T16:58:51Z</time>
      </trkpt>
      <trkpt lat="42.41482" lon="2.78136">
        <ele>713.39</ele>
        <time>2021-10-29T16:58:51Z</time>
      </trkpt>
      <trkpt lat="42.41501" lon="2.78153">
        <ele>712.78</ele>
        <time>2021-10-29T16:58:51Z</time>
      </trkpt>
      <trkpt lat="42.41515" lon="2.78139">
        <ele>714</ele>
        <time>2021-10-29T16:58:51Z</time>
      </trkpt>
      <trkpt lat="42.41514" lon="2.78116">
        <ele>714.05</ele>
        <time>2021-10-29T16:58:51Z</time>
      </trkpt>
      <trkpt lat="42.41517" lon="2.78085">
        <ele>715.21</ele>
        <time>2021-10-29T16:58:51Z</time>
      </trkpt>
      <trkpt lat="42.41523" lon="2.78061">
        <ele>716.75</ele>
        <time>2021-10-29T16:58:51Z</time>
      </trkpt>
      <trkpt lat="42.41544" lon="2.7805">
        <ele>717.58</ele>
        <time>2021-10-29T16:58:51Z</time>
      </trkpt>
      <trkpt lat="42.41551" lon="2.78034">
        <ele>716.47</ele>
        <time>2021-10-29T16:58:51Z</time>
      </trkpt>
      <trkpt lat="42.41557" lon="2.78006">
        <ele>714.58</ele>
        <time>2021-10-29T16:58:51Z</time>
      </trkpt>
      <trkpt lat="42.41565" lon="2.77982">
        <ele>711.86</ele>
        <time>2021-10-29T16:58:51Z</time>
      </trkpt>
      <trkpt lat="42.41572" lon="2.77966">
        <ele>709.34</ele>
        <time>2021-10-29T16:58:51Z</time>
      </trkpt>
      <trkpt lat="42.41592" lon="2.77954">
        <ele>704.02</ele>
        <time>2021-10-29T16:58:51Z</time>
      </trkpt>
      <trkpt lat="42.41614" lon="2.77948">
        <ele>696.73</ele>
        <time>2021-10-29T16:58:51Z</time>
      </trkpt>
      <trkpt lat="42.41634" lon="2.77936">
        <ele>690.22</ele>
        <time>2021-10-29T16:58:51Z</time>
      </trkpt>
      <trkpt lat="42.41645" lon="2.77936">
        <ele>691.47</ele>
        <time>2021-10-29T16:58:51Z</time>
      </trkpt>
      <trkpt lat="42.4166" lon="2.77944">
        <ele>690.03</ele>
        <time>2021-10-29T16:58:51Z</time>
      </trkpt>
      <trkpt lat="42.41686" lon="2.7794">
        <ele>689.34</ele>
        <time>2021-10-29T16:58:51Z</time>
      </trkpt>
      <trkpt lat="42.41709" lon="2.7794">
        <ele>686.74</ele>
        <time>2021-10-29T16:58:51Z</time>
      </trkpt>
      <trkpt lat="42.41721" lon="2.7794">
        <ele>685.92</ele>
        <time>2021-10-29T16:58:51Z</time>
      </trkpt>
      <trkpt lat="42.41739" lon="2.77949">
        <ele>682.36</ele>
        <time>2021-10-29T16:58:51Z</time>
      </trkpt>
      <trkpt lat="42.4176" lon="2.77959">
        <ele>679.78</ele>
        <time>2021-10-29T16:58:51Z</time>
      </trkpt>
      <trkpt lat="42.41778" lon="2.77968">
        <ele>677.19</ele>
        <time>2021-10-29T16:58:51Z</time>
      </trkpt>
      <trkpt lat="42.418" lon="2.77984">
        <ele>673.65</ele>
        <time>2021-10-29T16:58:51Z</time>
      </trkpt>
      <trkpt lat="42.41822" lon="2.77995">
        <ele>671.19</ele>
        <time>2021-10-29T16:58:51Z</time>
      </trkpt>
      <trkpt lat="42.41846" lon="2.78007">
        <ele>666.39</ele>
        <time>2021-10-29T16:58:51Z</time>
      </trkpt>
      <trkpt lat="42.41864" lon="2.78017">
        <ele>662.41</ele>
        <time>2021-10-29T16:58:51Z</time>
      </trkpt>
      <trkpt lat="42.41887" lon="2.78027">
        <ele>661.56</ele>
        <time>2021-10-29T16:58:51Z</time>
      </trkpt>
      <trkpt lat="42.41903" lon="2.78038">
        <ele>659.86</ele>
        <time>2021-10-29T16:58:51Z</time>
      </trkpt>
      <trkpt lat="42.41926" lon="2.78046">
        <ele>657.54</ele>
        <time>2021-10-29T16:58:51Z</time>
      </trkpt>
      <trkpt lat="42.41948" lon="2.78057">
        <ele>654.69</ele>
        <time>2021-10-29T16:58:51Z</time>
      </trkpt>
      <trkpt lat="42.41963" lon="2.78064">
        <ele>653.02</ele>
        <time>2021-10-29T16:58:51Z</time>
      </trkpt>
      <trkpt lat="42.41979" lon="2.78069">
        <ele>647.78</ele>
        <time>2021-10-29T16:58:51Z</time>
      </trkpt>
      <trkpt lat="42.41999" lon="2.78081">
        <ele>643.09</ele>
        <time>2021-10-29T16:58:51Z</time>
      </trkpt>
      <trkpt lat="42.4202" lon="2.78095">
        <ele>638.24</ele>
        <time>2021-10-29T16:58:51Z</time>
      </trkpt>
      <trkpt lat="42.42042" lon="2.78106">
        <ele>635.02</ele>
        <time>2021-10-29T16:58:51Z</time>
      </trkpt>
      <trkpt lat="42.42064" lon="2.78119">
        <ele>632.31</ele>
        <time>2021-10-29T16:58:51Z</time>
      </trkpt>
      <trkpt lat="42.42085" lon="2.78127">
        <ele>629.15</ele>
        <time>2021-10-29T16:58:51Z</time>
      </trkpt>
      <trkpt lat="42.42102" lon="2.78151">
        <ele>629.08</ele>
        <time>2021-10-29T16:58:51Z</time>
      </trkpt>
      <trkpt lat="42.42118" lon="2.7818">
        <ele>627.88</ele>
        <time>2021-10-29T16:58:51Z</time>
      </trkpt>
      <trkpt lat="42.42136" lon="2.7819">
        <ele>626.36</ele>
        <time>2021-10-29T16:58:51Z</time>
      </trkpt>
      <trkpt lat="42.42155" lon="2.782">
        <ele>624.69</ele>
        <time>2021-10-29T16:58:51Z</time>
      </trkpt>
      <trkpt lat="42.42173" lon="2.782">
        <ele>622.28</ele>
        <time>2021-10-29T16:58:51Z</time>
      </trkpt>
      <trkpt lat="42.42195" lon="2.782">
        <ele>621.65</ele>
        <time>2021-10-29T16:58:51Z</time>
      </trkpt>
      <trkpt lat="42.42215" lon="2.78199">
        <ele>621.42</ele>
        <time>2021-10-29T16:58:51Z</time>
      </trkpt>
      <trkpt lat="42.42236" lon="2.78198">
        <ele>618.33</ele>
        <time>2021-10-29T16:58:51Z</time>
      </trkpt>
      <trkpt lat="42.42254" lon="2.78204">
        <ele>614.17</ele>
        <time>2021-10-29T16:58:51Z</time>
      </trkpt>
      <trkpt lat="42.42273" lon="2.78214">
        <ele>609.35</ele>
        <time>2021-10-29T16:58:51Z</time>
      </trkpt>
      <trkpt lat="42.42296" lon="2.78229">
        <ele>599.43</ele>
        <time>2021-10-29T16:58:51Z</time>
      </trkpt>
      <trkpt lat="42.42315" lon="2.78249">
        <ele>586.39</ele>
        <time>2021-10-29T16:58:51Z</time>
      </trkpt>
      <trkpt lat="42.4233" lon="2.78267">
        <ele>570.76</ele>
        <time>2021-10-29T16:58:51Z</time>
      </trkpt>
      <trkpt lat="42.42349" lon="2.78292">
        <ele>564.71</ele>
        <time>2021-10-29T16:58:51Z</time>
      </trkpt>
      <trkpt lat="42.42365" lon="2.7832">
        <ele>560.24</ele>
        <time>2021-10-29T16:58:51Z</time>
      </trkpt>
      <trkpt lat="42.4238" lon="2.78343">
        <ele>553.8</ele>
        <time>2021-10-29T16:58:51Z</time>
      </trkpt>
      <trkpt lat="42.42394" lon="2.78363">
        <ele>551.55</ele>
        <time>2021-10-29T16:58:51Z</time>
      </trkpt>
      <trkpt lat="42.42415" lon="2.78388">
        <ele>550.81</ele>
        <time>2021-10-29T16:58:51Z</time>
      </trkpt>
      <trkpt lat="42.42425" lon="2.78407">
        <ele>552.9</ele>
        <time>2021-10-29T16:58:51Z</time>
      </trkpt>
      <trkpt lat="42.42439" lon="2.78423">
        <ele>553.38</ele>
        <time>2021-10-29T16:58:51Z</time>
      </trkpt>
      <trkpt lat="42.42447" lon="2.78435">
        <ele>554.06</ele>
        <time>2021-10-29T16:58:51Z</time>
      </trkpt>
      <trkpt lat="42.42456" lon="2.78447">
        <ele>553.85</ele>
        <time>2021-10-29T16:58:51Z</time>
      </trkpt>
      <trkpt lat="42.42471" lon="2.78447">
        <ele>552.44</ele>
        <time>2021-10-29T16:58:51Z</time>
      </trkpt>
      <trkpt lat="42.42485" lon="2.78447">
        <ele>551.85</ele>
        <time>2021-10-29T16:58:51Z</time>
      </trkpt>
      <trkpt lat="42.42497" lon="2.78457">
        <ele>551.7</ele>
        <time>2021-10-29T16:58:51Z</time>
      </trkpt>
      <trkpt lat="42.42513" lon="2.78468">
        <ele>550.97</ele>
        <time>2021-10-29T16:58:51Z</time>
      </trkpt>
      <trkpt lat="42.42528" lon="2.78479">
        <ele>549.89</ele>
        <time>2021-10-29T16:58:51Z</time>
      </trkpt>
      <trkpt lat="42.42546" lon="2.78492">
        <ele>548.08</ele>
        <time>2021-10-29T16:58:51Z</time>
      </trkpt>
      <trkpt lat="42.42566" lon="2.78505">
        <ele>546.85</ele>
        <time>2021-10-29T16:58:51Z</time>
      </trkpt>
      <trkpt lat="42.42578" lon="2.78523">
        <ele>545.76</ele>
        <time>2021-10-29T16:58:51Z</time>
      </trkpt>
      <trkpt lat="42.42592" lon="2.78534">
        <ele>544.37</ele>
        <time>2021-10-29T16:58:51Z</time>
      </trkpt>
      <trkpt lat="42.42596" lon="2.78561">
        <ele>542.92</ele>
        <time>2021-10-29T16:58:51Z</time>
      </trkpt>
      <trkpt lat="42.42604" lon="2.78581">
        <ele>542.08</ele>
        <time>2021-10-29T16:58:51Z</time>
      </trkpt>
      <trkpt lat="42.4261" lon="2.78597">
        <ele>541.78</ele>
        <time>2021-10-29T16:58:51Z</time>
      </trkpt>
      <trkpt lat="42.4263" lon="2.78599">
        <ele>541.32</ele>
        <time>2021-10-29T16:58:51Z</time>
      </trkpt>
      <trkpt lat="42.42648" lon="2.78604">
        <ele>540.15</ele>
        <time>2021-10-29T16:58:51Z</time>
      </trkpt>
      <trkpt lat="42.42661" lon="2.7861">
        <ele>538.63</ele>
        <time>2021-10-29T16:58:51Z</time>
      </trkpt>
      <trkpt lat="42.42673" lon="2.78624">
        <ele>535.54</ele>
        <time>2021-10-29T16:58:51Z</time>
      </trkpt>
      <trkpt lat="42.42686" lon="2.7864">
        <ele>535.14</ele>
        <time>2021-10-29T16:58:51Z</time>
      </trkpt>
      <trkpt lat="42.42703" lon="2.78651">
        <ele>536.43</ele>
        <time>2021-10-29T16:58:51Z</time>
      </trkpt>
      <trkpt lat="42.42721" lon="2.7866">
        <ele>536.86</ele>
        <time>2021-10-29T16:58:51Z</time>
      </trkpt>
      <trkpt lat="42.42733" lon="2.78664">
        <ele>534.06</ele>
        <time>2021-10-29T16:58:51Z</time>
      </trkpt>
      <trkpt lat="42.42747" lon="2.78668">
        <ele>534.1</ele>
        <time>2021-10-29T16:58:51Z</time>
      </trkpt>
      <trkpt lat="42.42764" lon="2.78682">
        <ele>534.46</ele>
        <time>2021-10-29T16:58:51Z</time>
      </trkpt>
      <trkpt lat="42.42775" lon="2.78685">
        <ele>534.05</ele>
        <time>2021-10-29T16:58:51Z</time>
      </trkpt>
      <trkpt lat="42.42788" lon="2.78695">
        <ele>534.65</ele>
        <time>2021-10-29T16:58:51Z</time>
      </trkpt>
      <trkpt lat="42.42781" lon="2.78708">
        <ele>542.04</ele>
        <time>2021-10-29T16:58:51Z</time>
      </trkpt>
      <trkpt lat="42.4277" lon="2.78702">
        <ele>540.5</ele>
        <time>2021-10-29T16:58:51Z</time>
      </trkpt>
      <trkpt lat="42.42758" lon="2.78698">
        <ele>542.8</ele>
        <time>2021-10-29T16:58:51Z</time>
      </trkpt>
      <trkpt lat="42.42747" lon="2.78689">
        <ele>544.13</ele>
        <time>2021-10-29T16:58:51Z</time>
      </trkpt>
      <trkpt lat="42.42737" lon="2.78683">
        <ele>544.55</ele>
        <time>2021-10-29T16:58:51Z</time>
      </trkpt>
      <trkpt lat="42.42722" lon="2.78683">
        <ele>547.66</ele>
        <time>2021-10-29T16:58:51Z</time>
      </trkpt>
      <trkpt lat="42.42722" lon="2.78701">
        <ele>551.59</ele>
        <time>2021-10-29T16:58:51Z</time>
      </trkpt>
      <trkpt lat="42.42735" lon="2.78716">
        <ele>553.59</ele>
        <time>2021-10-29T16:58:51Z</time>
      </trkpt>
      <trkpt lat="42.4274" lon="2.78738">
        <ele>551.82</ele>
        <time>2021-10-29T16:58:51Z</time>
      </trkpt>
      <trkpt lat="42.42748" lon="2.78757">
        <ele>551.86</ele>
        <time>2021-10-29T16:58:51Z</time>
      </trkpt>
      <trkpt lat="42.42752" lon="2.78775">
        <ele>556</ele>
        <time>2021-10-29T16:58:51Z</time>
      </trkpt>
      <trkpt lat="42.42756" lon="2.78801">
        <ele>565.26</ele>
        <time>2021-10-29T16:58:51Z</time>
      </trkpt>
      <trkpt lat="42.42756" lon="2.78831">
        <ele>566.68</ele>
        <time>2021-10-29T16:58:51Z</time>
      </trkpt>
      <trkpt lat="42.42756" lon="2.78869">
        <ele>567.24</ele>
        <time>2021-10-29T16:58:51Z</time>
      </trkpt>
      <trkpt lat="42.42756" lon="2.78896">
        <ele>569.69</ele>
        <time>2021-10-29T16:58:51Z</time>
      </trkpt>
      <trkpt lat="42.42754" lon="2.78923">
        <ele>572.39</ele>
        <time>2021-10-29T16:58:51Z</time>
      </trkpt>
      <trkpt lat="42.42751" lon="2.78948">
        <ele>573.69</ele>
        <time>2021-10-29T16:58:51Z</time>
      </trkpt>
      <trkpt lat="42.42751" lon="2.78977">
        <ele>576.95</ele>
        <time>2021-10-29T16:58:51Z</time>
      </trkpt>
      <trkpt lat="42.42752" lon="2.78998">
        <ele>578.93</ele>
        <time>2021-10-29T16:58:51Z</time>
      </trkpt>
      <trkpt lat="42.42754" lon="2.79015">
        <ele>580.88</ele>
        <time>2021-10-29T16:58:51Z</time>
      </trkpt>
      <trkpt lat="42.4275" lon="2.79032">
        <ele>583.04</ele>
        <time>2021-10-29T16:58:51Z</time>
      </trkpt>
      <trkpt lat="42.42763" lon="2.79037">
        <ele>585.71</ele>
        <time>2021-10-29T16:58:51Z</time>
      </trkpt>
      <trkpt lat="42.42763" lon="2.79013">
        <ele>583.76</ele>
        <time>2021-10-29T16:58:51Z</time>
      </trkpt>
      <trkpt lat="42.42765" lon="2.78987">
        <ele>584.22</ele>
        <time>2021-10-29T16:58:51Z</time>
      </trkpt>
      <trkpt lat="42.42773" lon="2.78963">
        <ele>586.54</ele>
        <time>2021-10-29T16:58:51Z</time>
      </trkpt>
      <trkpt lat="42.42782" lon="2.78943">
        <ele>588.19</ele>
        <time>2021-10-29T16:58:51Z</time>
      </trkpt>
      <trkpt lat="42.42794" lon="2.78922">
        <ele>590.16</ele>
        <time>2021-10-29T16:58:51Z</time>
      </trkpt>
      <trkpt lat="42.42798" lon="2.78904">
        <ele>588.87</ele>
        <time>2021-10-29T16:58:51Z</time>
      </trkpt>
      <trkpt lat="42.42804" lon="2.78877">
        <ele>589.4</ele>
        <time>2021-10-29T16:58:51Z</time>
      </trkpt>
      <trkpt lat="42.42817" lon="2.78849">
        <ele>590.82</ele>
        <time>2021-10-29T16:58:51Z</time>
      </trkpt>
      <trkpt lat="42.42829" lon="2.78843">
        <ele>591.85</ele>
        <time>2021-10-29T16:58:51Z</time>
      </trkpt>
      <trkpt lat="42.42844" lon="2.78842">
        <ele>593.12</ele>
        <time>2021-10-29T16:58:51Z</time>
      </trkpt>
      <trkpt lat="42.42839" lon="2.78855">
        <ele>595.65</ele>
        <time>2021-10-29T16:58:51Z</time>
      </trkpt>
      <trkpt lat="42.42828" lon="2.78866">
        <ele>596.39</ele>
        <time>2021-10-29T16:58:51Z</time>
      </trkpt>
      <trkpt lat="42.42818" lon="2.78888">
        <ele>598.04</ele>
        <time>2021-10-29T16:58:51Z</time>
      </trkpt>
      <trkpt lat="42.42816" lon="2.78908">
        <ele>600.09</ele>
        <time>2021-10-29T16:58:51Z</time>
      </trkpt>
      <trkpt lat="42.42813" lon="2.78926">
        <ele>600.59</ele>
        <time>2021-10-29T16:58:51Z</time>
      </trkpt>
      <trkpt lat="42.42809" lon="2.78945">
        <ele>601.98</ele>
        <time>2021-10-29T16:58:51Z</time>
      </trkpt>
      <trkpt lat="42.42806" lon="2.78963">
        <ele>603.76</ele>
        <time>2021-10-29T16:58:51Z</time>
      </trkpt>
      <trkpt lat="42.42802" lon="2.78991">
        <ele>604.85</ele>
        <time>2021-10-29T16:58:51Z</time>
      </trkpt>
      <trkpt lat="42.42802" lon="2.79009">
        <ele>606.22</ele>
        <time>2021-10-29T16:58:51Z</time>
      </trkpt>
      <trkpt lat="42.42801" lon="2.79033">
        <ele>607.81</ele>
        <time>2021-10-29T16:58:51Z</time>
      </trkpt>
      <trkpt lat="42.42799" lon="2.79055">
        <ele>608.05</ele>
        <time>2021-10-29T16:58:51Z</time>
      </trkpt>
      <trkpt lat="42.42795" lon="2.79081">
        <ele>608.78</ele>
        <time>2021-10-29T16:58:51Z</time>
      </trkpt>
      <trkpt lat="42.42789" lon="2.79106">
        <ele>611.73</ele>
        <time>2021-10-29T16:58:51Z</time>
      </trkpt>
      <trkpt lat="42.42775" lon="2.7913">
        <ele>613.23</ele>
        <time>2021-10-29T16:58:51Z</time>
      </trkpt>
      <trkpt lat="42.42769" lon="2.79154">
        <ele>616.11</ele>
        <time>2021-10-29T16:58:51Z</time>
      </trkpt>
      <trkpt lat="42.42758" lon="2.79175">
        <ele>615.88</ele>
        <time>2021-10-29T16:58:51Z</time>
      </trkpt>
      <trkpt lat="42.42754" lon="2.79199">
        <ele>618.55</ele>
        <time>2021-10-29T16:58:51Z</time>
      </trkpt>
      <trkpt lat="42.4275" lon="2.7922">
        <ele>619.22</ele>
        <time>2021-10-29T16:58:51Z</time>
      </trkpt>
      <trkpt lat="42.4275" lon="2.79235">
        <ele>620.62</ele>
        <time>2021-10-29T16:58:51Z</time>
      </trkpt>
      <trkpt lat="42.42754" lon="2.79253">
        <ele>623.3</ele>
        <time>2021-10-29T16:58:51Z</time>
      </trkpt>
      <trkpt lat="42.42766" lon="2.79234">
        <ele>626.75</ele>
        <time>2021-10-29T16:58:51Z</time>
      </trkpt>
      <trkpt lat="42.42771" lon="2.79206">
        <ele>625.41</ele>
        <time>2021-10-29T16:58:51Z</time>
      </trkpt>
      <trkpt lat="42.42783" lon="2.79191">
        <ele>627.4</ele>
        <time>2021-10-29T16:58:51Z</time>
      </trkpt>
      <trkpt lat="42.42791" lon="2.79177">
        <ele>628.4</ele>
        <time>2021-10-29T16:58:51Z</time>
      </trkpt>
      <trkpt lat="42.42799" lon="2.79157">
        <ele>628.56</ele>
        <time>2021-10-29T16:58:51Z</time>
      </trkpt>
      <trkpt lat="42.42813" lon="2.79142">
        <ele>631.64</ele>
        <time>2021-10-29T16:58:51Z</time>
      </trkpt>
      <trkpt lat="42.42825" lon="2.79129">
        <ele>633.06</ele>
        <time>2021-10-29T16:58:51Z</time>
      </trkpt>
      <trkpt lat="42.42835" lon="2.79117">
        <ele>634.19</ele>
        <time>2021-10-29T16:58:51Z</time>
      </trkpt>
      <trkpt lat="42.4284" lon="2.79091">
        <ele>634.37</ele>
        <time>2021-10-29T16:58:51Z</time>
      </trkpt>
      <trkpt lat="42.42842" lon="2.79069">
        <ele>635.05</ele>
        <time>2021-10-29T16:58:51Z</time>
      </trkpt>
      <trkpt lat="42.42848" lon="2.7905">
        <ele>637.02</ele>
        <time>2021-10-29T16:58:51Z</time>
      </trkpt>
      <trkpt lat="42.42858" lon="2.79028">
        <ele>637.78</ele>
        <time>2021-10-29T16:58:51Z</time>
      </trkpt>
      <trkpt lat="42.42864" lon="2.7901">
        <ele>637.7</ele>
        <time>2021-10-29T16:58:51Z</time>
      </trkpt>
      <trkpt lat="42.42875" lon="2.7899">
        <ele>638.43</ele>
        <time>2021-10-29T16:58:51Z</time>
      </trkpt>
      <trkpt lat="42.42887" lon="2.78978">
        <ele>639.5</ele>
        <time>2021-10-29T16:58:51Z</time>
      </trkpt>
      <trkpt lat="42.42899" lon="2.78977">
        <ele>641.17</ele>
        <time>2021-10-29T16:58:51Z</time>
      </trkpt>
      <trkpt lat="42.4291" lon="2.78987">
        <ele>643.11</ele>
        <time>2021-10-29T16:58:51Z</time>
      </trkpt>
      <trkpt lat="42.42901" lon="2.79002">
        <ele>646.8</ele>
        <time>2021-10-29T16:58:51Z</time>
      </trkpt>
      <trkpt lat="42.42887" lon="2.79019">
        <ele>647.2</ele>
        <time>2021-10-29T16:58:51Z</time>
      </trkpt>
      <trkpt lat="42.4288" lon="2.79037">
        <ele>646.88</ele>
        <time>2021-10-29T16:58:51Z</time>
      </trkpt>
      <trkpt lat="42.42875" lon="2.79054">
        <ele>648.19</ele>
        <time>2021-10-29T16:58:51Z</time>
      </trkpt>
      <trkpt lat="42.42867" lon="2.79076">
        <ele>648.43</ele>
        <time>2021-10-29T16:58:51Z</time>
      </trkpt>
      <trkpt lat="42.42867" lon="2.79106">
        <ele>650.52</ele>
        <time>2021-10-29T16:58:51Z</time>
      </trkpt>
      <trkpt lat="42.42859" lon="2.79128">
        <ele>649.51</ele>
        <time>2021-10-29T16:58:51Z</time>
      </trkpt>
      <trkpt lat="42.42853" lon="2.79151">
        <ele>650.67</ele>
        <time>2021-10-29T16:58:51Z</time>
      </trkpt>
      <trkpt lat="42.42846" lon="2.79168">
        <ele>652.18</ele>
        <time>2021-10-29T16:58:51Z</time>
      </trkpt>
      <trkpt lat="42.42838" lon="2.79185">
        <ele>651.82</ele>
        <time>2021-10-29T16:58:51Z</time>
      </trkpt>
      <trkpt lat="42.42833" lon="2.79209">
        <ele>652.86</ele>
        <time>2021-10-29T16:58:51Z</time>
      </trkpt>
      <trkpt lat="42.42825" lon="2.79233">
        <ele>651.85</ele>
        <time>2021-10-29T16:58:51Z</time>
      </trkpt>
      <trkpt lat="42.42821" lon="2.7926">
        <ele>654.36</ele>
        <time>2021-10-29T16:58:51Z</time>
      </trkpt>
      <trkpt lat="42.42815" lon="2.79287">
        <ele>653.65</ele>
        <time>2021-10-29T16:58:51Z</time>
      </trkpt>
      <trkpt lat="42.4281" lon="2.79317">
        <ele>652.65</ele>
        <time>2021-10-29T16:58:51Z</time>
      </trkpt>
      <trkpt lat="42.42808" lon="2.79333">
        <ele>655.32</ele>
        <time>2021-10-29T16:58:51Z</time>
      </trkpt>
      <trkpt lat="42.42801" lon="2.79345">
        <ele>656.69</ele>
        <time>2021-10-29T16:58:51Z</time>
      </trkpt>
      <trkpt lat="42.42795" lon="2.79358">
        <ele>659.24</ele>
        <time>2021-10-29T16:58:51Z</time>
      </trkpt>
      <trkpt lat="42.42808" lon="2.79364">
        <ele>663.06</ele>
        <time>2021-10-29T16:58:51Z</time>
      </trkpt>
      <trkpt lat="42.42821" lon="2.79343">
        <ele>661.78</ele>
        <time>2021-10-29T16:58:51Z</time>
      </trkpt>
      <trkpt lat="42.42826" lon="2.79324">
        <ele>662.28</ele>
        <time>2021-10-29T16:58:51Z</time>
      </trkpt>
      <trkpt lat="42.42831" lon="2.79298">
        <ele>662.83</ele>
        <time>2021-10-29T16:58:51Z</time>
      </trkpt>
      <trkpt lat="42.42841" lon="2.79272">
        <ele>665.46</ele>
        <time>2021-10-29T16:58:51Z</time>
      </trkpt>
      <trkpt lat="42.4285" lon="2.79248">
        <ele>666.51</ele>
        <time>2021-10-29T16:58:51Z</time>
      </trkpt>
      <trkpt lat="42.42856" lon="2.7923">
        <ele>667.3</ele>
        <time>2021-10-29T16:58:51Z</time>
      </trkpt>
      <trkpt lat="42.42863" lon="2.79206">
        <ele>666.65</ele>
        <time>2021-10-29T16:58:51Z</time>
      </trkpt>
      <trkpt lat="42.42874" lon="2.79187">
        <ele>668.14</ele>
        <time>2021-10-29T16:58:51Z</time>
      </trkpt>
      <trkpt lat="42.42888" lon="2.79174">
        <ele>670.04</ele>
        <time>2021-10-29T16:58:51Z</time>
      </trkpt>
      <trkpt lat="42.42897" lon="2.79156">
        <ele>670.6</ele>
        <time>2021-10-29T16:58:51Z</time>
      </trkpt>
      <trkpt lat="42.4291" lon="2.79128">
        <ele>671.99</ele>
        <time>2021-10-29T16:58:51Z</time>
      </trkpt>
      <trkpt lat="42.42926" lon="2.79111">
        <ele>673.23</ele>
        <time>2021-10-29T16:58:51Z</time>
      </trkpt>
      <trkpt lat="42.4294" lon="2.79114">
        <ele>674.63</ele>
        <time>2021-10-29T16:58:51Z</time>
      </trkpt>
      <trkpt lat="42.42958" lon="2.79123">
        <ele>675.94</ele>
        <time>2021-10-29T16:58:51Z</time>
      </trkpt>
      <trkpt lat="42.42975" lon="2.79136">
        <ele>677.63</ele>
        <time>2021-10-29T16:58:51Z</time>
      </trkpt>
      <trkpt lat="42.42992" lon="2.79146">
        <ele>677.95</ele>
        <time>2021-10-29T16:58:51Z</time>
      </trkpt>
      <trkpt lat="42.43007" lon="2.79165">
        <ele>678.45</ele>
        <time>2021-10-29T16:58:51Z</time>
      </trkpt>
      <trkpt lat="42.43015" lon="2.79194">
        <ele>679.34</ele>
        <time>2021-10-29T16:58:51Z</time>
      </trkpt>
      <trkpt lat="42.43014" lon="2.79234">
        <ele>682.18</ele>
        <time>2021-10-29T16:58:51Z</time>
      </trkpt>
      <trkpt lat="42.43016" lon="2.79268">
        <ele>681.66</ele>
        <time>2021-10-29T16:58:51Z</time>
      </trkpt>
      <trkpt lat="42.43015" lon="2.79307">
        <ele>681.75</ele>
        <time>2021-10-29T16:58:51Z</time>
      </trkpt>
      <trkpt lat="42.43011" lon="2.79344">
        <ele>681.8</ele>
        <time>2021-10-29T16:58:51Z</time>
      </trkpt>
      <trkpt lat="42.43002" lon="2.79363">
        <ele>681.75</ele>
        <time>2021-10-29T16:58:51Z</time>
      </trkpt>
      <trkpt lat="42.42985" lon="2.79383">
        <ele>682.19</ele>
        <time>2021-10-29T16:58:51Z</time>
      </trkpt>
      <trkpt lat="42.42983" lon="2.79403">
        <ele>681.73</ele>
        <time>2021-10-29T16:58:51Z</time>
      </trkpt>
      <trkpt lat="42.42981" lon="2.79426">
        <ele>681.34</ele>
        <time>2021-10-29T16:58:51Z</time>
      </trkpt>
      <trkpt lat="42.4298" lon="2.79445">
        <ele>680.6</ele>
        <time>2021-10-29T16:58:51Z</time>
      </trkpt>
      <trkpt lat="42.42975" lon="2.79466">
        <ele>680.14</ele>
        <time>2021-10-29T16:58:51Z</time>
      </trkpt>
      <trkpt lat="42.42966" lon="2.7948">
        <ele>681.67</ele>
        <time>2021-10-29T16:58:51Z</time>
      </trkpt>
      <trkpt lat="42.42961" lon="2.79493">
        <ele>683.02</ele>
        <time>2021-10-29T16:58:51Z</time>
      </trkpt>
      <trkpt lat="42.42971" lon="2.79508">
        <ele>685.62</ele>
        <time>2021-10-29T16:58:51Z</time>
      </trkpt>
      <trkpt lat="42.42996" lon="2.79524">
        <ele>686.82</ele>
        <time>2021-10-29T16:58:51Z</time>
      </trkpt>
      <trkpt lat="42.43015" lon="2.7954">
        <ele>687.18</ele>
        <time>2021-10-29T16:58:51Z</time>
      </trkpt>
      <trkpt lat="42.4303" lon="2.79559">
        <ele>686.53</ele>
        <time>2021-10-29T16:58:51Z</time>
      </trkpt>
      <trkpt lat="42.43039" lon="2.7958">
        <ele>690.31</ele>
        <time>2021-10-29T16:58:51Z</time>
      </trkpt>
      <trkpt lat="42.43049" lon="2.796">
        <ele>694.28</ele>
        <time>2021-10-29T16:58:51Z</time>
      </trkpt>
      <trkpt lat="42.43062" lon="2.79617">
        <ele>697.11</ele>
        <time>2021-10-29T16:58:51Z</time>
      </trkpt>
      <trkpt lat="42.43079" lon="2.7963">
        <ele>696.82</ele>
        <time>2021-10-29T16:58:51Z</time>
      </trkpt>
      <trkpt lat="42.43094" lon="2.79641">
        <ele>697.18</ele>
        <time>2021-10-29T16:58:51Z</time>
      </trkpt>
      <trkpt lat="42.43111" lon="2.79652">
        <ele>698.04</ele>
        <time>2021-10-29T16:58:51Z</time>
      </trkpt>
      <trkpt lat="42.43141" lon="2.7967">
        <ele>701.41</ele>
        <time>2021-10-29T16:58:51Z</time>
      </trkpt>
      <trkpt lat="42.43154" lon="2.79679">
        <ele>703.56</ele>
        <time>2021-10-29T16:58:51Z</time>
      </trkpt>
      <trkpt lat="42.43167" lon="2.79685">
        <ele>704.02</ele>
        <time>2021-10-29T16:58:51Z</time>
      </trkpt>
      <trkpt lat="42.43185" lon="2.79703">
        <ele>708.46</ele>
        <time>2021-10-29T16:58:51Z</time>
      </trkpt>
      <trkpt lat="42.43193" lon="2.79721">
        <ele>709.97</ele>
        <time>2021-10-29T16:58:51Z</time>
      </trkpt>
      <trkpt lat="42.43189" lon="2.79741">
        <ele>711.72</ele>
        <time>2021-10-29T16:58:51Z</time>
      </trkpt>
      <trkpt lat="42.43183" lon="2.7976">
        <ele>713.58</ele>
        <time>2021-10-29T16:58:51Z</time>
      </trkpt>
      <trkpt lat="42.43178" lon="2.79778">
        <ele>715.57</ele>
        <time>2021-10-29T16:58:51Z</time>
      </trkpt>
      <trkpt lat="42.43171" lon="2.79798">
        <ele>717.42</ele>
        <time>2021-10-29T16:58:51Z</time>
      </trkpt>
      <trkpt lat="42.43167" lon="2.79823">
        <ele>718.67</ele>
        <time>2021-10-29T16:58:51Z</time>
      </trkpt>
      <trkpt lat="42.43174" lon="2.79847">
        <ele>718.5</ele>
        <time>2021-10-29T16:58:51Z</time>
      </trkpt>
      <trkpt lat="42.43175" lon="2.79879">
        <ele>716.01</ele>
        <time>2021-10-29T16:58:51Z</time>
      </trkpt>
      <trkpt lat="42.43175" lon="2.79904">
        <ele>712.44</ele>
        <time>2021-10-29T16:58:51Z</time>
      </trkpt>
      <trkpt lat="42.43172" lon="2.79931">
        <ele>711.68</ele>
        <time>2021-10-29T16:58:51Z</time>
      </trkpt>
      <trkpt lat="42.43175" lon="2.79956">
        <ele>711.8</ele>
        <time>2021-10-29T16:58:51Z</time>
      </trkpt>
      <trkpt lat="42.43178" lon="2.79977">
        <ele>712.33</ele>
        <time>2021-10-29T16:58:51Z</time>
      </trkpt>
      <trkpt lat="42.43182" lon="2.80007">
        <ele>712.86</ele>
        <time>2021-10-29T16:58:51Z</time>
      </trkpt>
      <trkpt lat="42.4319" lon="2.80025">
        <ele>712.93</ele>
        <time>2021-10-29T16:58:51Z</time>
      </trkpt>
      <trkpt lat="42.43203" lon="2.80035">
        <ele>713.57</ele>
        <time>2021-10-29T16:58:51Z</time>
      </trkpt>
      <trkpt lat="42.43224" lon="2.8004">
        <ele>715.74</ele>
        <time>2021-10-29T16:58:51Z</time>
      </trkpt>
      <trkpt lat="42.43243" lon="2.80039">
        <ele>716.99</ele>
        <time>2021-10-29T16:58:51Z</time>
      </trkpt>
      <trkpt lat="42.43257" lon="2.80039">
        <ele>718.46</ele>
        <time>2021-10-29T16:58:51Z</time>
      </trkpt>
      <trkpt lat="42.43271" lon="2.8004">
        <ele>720.5</ele>
        <time>2021-10-29T16:58:51Z</time>
      </trkpt>
      <trkpt lat="42.43288" lon="2.8005">
        <ele>721.12</ele>
        <time>2021-10-29T16:58:51Z</time>
      </trkpt>
      <trkpt lat="42.43305" lon="2.80067">
        <ele>721.7</ele>
        <time>2021-10-29T16:58:51Z</time>
      </trkpt>
      <trkpt lat="42.43324" lon="2.80081">
        <ele>722.5</ele>
        <time>2021-10-29T16:58:51Z</time>
      </trkpt>
      <trkpt lat="42.43346" lon="2.80097">
        <ele>725.11</ele>
        <time>2021-10-29T16:58:51Z</time>
      </trkpt>
      <trkpt lat="42.43365" lon="2.80106">
        <ele>726.03</ele>
        <time>2021-10-29T16:58:51Z</time>
      </trkpt>
      <trkpt lat="42.43385" lon="2.80106">
        <ele>726.78</ele>
        <time>2021-10-29T16:58:51Z</time>
      </trkpt>
      <trkpt lat="42.43408" lon="2.80106">
        <ele>727.72</ele>
        <time>2021-10-29T16:58:51Z</time>
      </trkpt>
      <trkpt lat="42.4343" lon="2.80109">
        <ele>730.1</ele>
        <time>2021-10-29T16:58:51Z</time>
      </trkpt>
      <trkpt lat="42.43447" lon="2.80113">
        <ele>733.42</ele>
        <time>2021-10-29T16:58:51Z</time>
      </trkpt>
      <trkpt lat="42.43458" lon="2.80145">
        <ele>734.7</ele>
        <time>2021-10-29T16:58:51Z</time>
      </trkpt>
      <trkpt lat="42.43469" lon="2.80176">
        <ele>734.44</ele>
        <time>2021-10-29T16:58:51Z</time>
      </trkpt>
      <trkpt lat="42.43477" lon="2.80214">
        <ele>730.52</ele>
        <time>2021-10-29T16:58:51Z</time>
      </trkpt>
      <trkpt lat="42.43491" lon="2.80242">
        <ele>727.48</ele>
        <time>2021-10-29T16:58:51Z</time>
      </trkpt>
      <trkpt lat="42.43502" lon="2.8028">
        <ele>723.47</ele>
        <time>2021-10-29T16:58:51Z</time>
      </trkpt>
      <trkpt lat="42.43517" lon="2.8031">
        <ele>724.11</ele>
        <time>2021-10-29T16:58:51Z</time>
      </trkpt>
      <trkpt lat="42.4353" lon="2.80343">
        <ele>726.6</ele>
        <time>2021-10-29T16:58:51Z</time>
      </trkpt>
      <trkpt lat="42.43546" lon="2.80369">
        <ele>726.46</ele>
        <time>2021-10-29T16:58:51Z</time>
      </trkpt>
      <trkpt lat="42.43561" lon="2.804">
        <ele>725.24</ele>
        <time>2021-10-29T16:58:51Z</time>
      </trkpt>
      <trkpt lat="42.43563" lon="2.80428">
        <ele>723.43</ele>
        <time>2021-10-29T16:58:51Z</time>
      </trkpt>
      <trkpt lat="42.43555" lon="2.8046">
        <ele>719.34</ele>
        <time>2021-10-29T16:58:51Z</time>
      </trkpt>
      <trkpt lat="42.43546" lon="2.80491">
        <ele>714.69</ele>
        <time>2021-10-29T16:58:51Z</time>
      </trkpt>
      <trkpt lat="42.4354" lon="2.80526">
        <ele>712</ele>
        <time>2021-10-29T16:58:51Z</time>
      </trkpt>
      <trkpt lat="42.43538" lon="2.80562">
        <ele>708.69</ele>
        <time>2021-10-29T16:58:51Z</time>
      </trkpt>
      <trkpt lat="42.43532" lon="2.80592">
        <ele>709.34</ele>
        <time>2021-10-29T16:58:51Z</time>
      </trkpt>
      <trkpt lat="42.43535" lon="2.80611">
        <ele>709.56</ele>
        <time>2021-10-29T16:58:51Z</time>
      </trkpt>
      <trkpt lat="42.43546" lon="2.80622">
        <ele>708.3</ele>
        <time>2021-10-29T16:58:51Z</time>
      </trkpt>
      <trkpt lat="42.43559" lon="2.80623">
        <ele>710.71</ele>
        <time>2021-10-29T16:58:51Z</time>
      </trkpt>
      <trkpt lat="42.43576" lon="2.80602">
        <ele>708.9</ele>
        <time>2021-10-29T16:58:51Z</time>
      </trkpt>
      <trkpt lat="42.43597" lon="2.80585">
        <ele>707.22</ele>
        <time>2021-10-29T16:58:51Z</time>
      </trkpt>
      <trkpt lat="42.43615" lon="2.80573">
        <ele>706.29</ele>
        <time>2021-10-29T16:58:51Z</time>
      </trkpt>
      <trkpt lat="42.43631" lon="2.80573">
        <ele>705.9</ele>
        <time>2021-10-29T16:58:51Z</time>
      </trkpt>
      <trkpt lat="42.43658" lon="2.80582">
        <ele>707.11</ele>
        <time>2021-10-29T16:58:51Z</time>
      </trkpt>
      <trkpt lat="42.43679" lon="2.80592">
        <ele>707.07</ele>
        <time>2021-10-29T16:58:51Z</time>
      </trkpt>
      <trkpt lat="42.43711" lon="2.80608">
        <ele>705.49</ele>
        <time>2021-10-29T16:58:51Z</time>
      </trkpt>
      <trkpt lat="42.43732" lon="2.80619">
        <ele>703.08</ele>
        <time>2021-10-29T16:58:51Z</time>
      </trkpt>
      <trkpt lat="42.4375" lon="2.80631">
        <ele>703</ele>
        <time>2021-10-29T16:58:51Z</time>
      </trkpt>
      <trkpt lat="42.43769" lon="2.80652">
        <ele>702.71</ele>
        <time>2021-10-29T16:58:51Z</time>
      </trkpt>
      <trkpt lat="42.43787" lon="2.80665">
        <ele>698.34</ele>
        <time>2021-10-29T16:58:51Z</time>
      </trkpt>
      <trkpt lat="42.43804" lon="2.80682">
        <ele>694.91</ele>
        <time>2021-10-29T16:58:51Z</time>
      </trkpt>
      <trkpt lat="42.43819" lon="2.80692">
        <ele>689.67</ele>
        <time>2021-10-29T16:58:51Z</time>
      </trkpt>
      <trkpt lat="42.43833" lon="2.80713">
        <ele>684.48</ele>
        <time>2021-10-29T16:58:51Z</time>
      </trkpt>
      <trkpt lat="42.43837" lon="2.80741">
        <ele>684.35</ele>
        <time>2021-10-29T16:58:51Z</time>
      </trkpt>
      <trkpt lat="42.43844" lon="2.80771">
        <ele>682.75</ele>
        <time>2021-10-29T16:58:51Z</time>
      </trkpt>
      <trkpt lat="42.43848" lon="2.80795">
        <ele>682.7</ele>
        <time>2021-10-29T16:58:51Z</time>
      </trkpt>
      <trkpt lat="42.4385" lon="2.80824">
        <ele>678.87</ele>
        <time>2021-10-29T16:58:51Z</time>
      </trkpt>
      <trkpt lat="42.43856" lon="2.80851">
        <ele>676.72</ele>
        <time>2021-10-29T16:58:51Z</time>
      </trkpt>
      <trkpt lat="42.43858" lon="2.8088">
        <ele>680.33</ele>
        <time>2021-10-29T16:58:51Z</time>
      </trkpt>
      <trkpt lat="42.43862" lon="2.80906">
        <ele>678.06</ele>
        <time>2021-10-29T16:58:51Z</time>
      </trkpt>
      <trkpt lat="42.4386" lon="2.80943">
        <ele>682.62</ele>
        <time>2021-10-29T16:58:51Z</time>
      </trkpt>
      <trkpt lat="42.4385" lon="2.80966">
        <ele>684.59</ele>
        <time>2021-10-29T16:58:51Z</time>
      </trkpt>
      <trkpt lat="42.43842" lon="2.80981">
        <ele>685.92</ele>
        <time>2021-10-29T16:58:51Z</time>
      </trkpt>
      <trkpt lat="42.43833" lon="2.80994">
        <ele>687.06</ele>
        <time>2021-10-29T16:58:51Z</time>
      </trkpt>
      <trkpt lat="42.43833" lon="2.8101">
        <ele>685.36</ele>
        <time>2021-10-29T16:58:51Z</time>
      </trkpt>
      <trkpt lat="42.43849" lon="2.81022">
        <ele>683.44</ele>
        <time>2021-10-29T16:58:51Z</time>
      </trkpt>
      <trkpt lat="42.43863" lon="2.81034">
        <ele>680.35</ele>
        <time>2021-10-29T16:58:51Z</time>
      </trkpt>
      <trkpt lat="42.43875" lon="2.8105">
        <ele>682.59</ele>
        <time>2021-10-29T16:58:51Z</time>
      </trkpt>
      <trkpt lat="42.4389" lon="2.81065">
        <ele>680.95</ele>
        <time>2021-10-29T16:58:51Z</time>
      </trkpt>
      <trkpt lat="42.43905" lon="2.81083">
        <ele>683.47</ele>
        <time>2021-10-29T16:58:51Z</time>
      </trkpt>
      <trkpt lat="42.43916" lon="2.81098">
        <ele>685</ele>
        <time>2021-10-29T16:58:51Z</time>
      </trkpt>
      <trkpt lat="42.43928" lon="2.81114">
        <ele>684.34</ele>
        <time>2021-10-29T16:58:51Z</time>
      </trkpt>
      <trkpt lat="42.43947" lon="2.81117">
        <ele>677.86</ele>
        <time>2021-10-29T16:58:51Z</time>
      </trkpt>
      <trkpt lat="42.43963" lon="2.81117">
        <ele>674.33</ele>
        <time>2021-10-29T16:58:51Z</time>
      </trkpt>
      <trkpt lat="42.43981" lon="2.81111">
        <ele>674.13</ele>
        <time>2021-10-29T16:58:51Z</time>
      </trkpt>
      <trkpt lat="42.43993" lon="2.81107">
        <ele>672.81</ele>
        <time>2021-10-29T16:58:51Z</time>
      </trkpt>
      <trkpt lat="42.44008" lon="2.81111">
        <ele>673.23</ele>
        <time>2021-10-29T16:58:51Z</time>
      </trkpt>
      <trkpt lat="42.4402" lon="2.81111">
        <ele>673.27</ele>
        <time>2021-10-29T16:58:51Z</time>
      </trkpt>
      <trkpt lat="42.44033" lon="2.81115">
        <ele>674.13</ele>
        <time>2021-10-29T16:58:51Z</time>
      </trkpt>
      <trkpt lat="42.44046" lon="2.81133">
        <ele>674.04</ele>
        <time>2021-10-29T16:58:51Z</time>
      </trkpt>
      <trkpt lat="42.44057" lon="2.81152">
        <ele>673.8</ele>
        <time>2021-10-29T16:58:51Z</time>
      </trkpt>
      <trkpt lat="42.44065" lon="2.81174">
        <ele>675.79</ele>
        <time>2021-10-29T16:58:51Z</time>
      </trkpt>
      <trkpt lat="42.44078" lon="2.81189">
        <ele>675.96</ele>
        <time>2021-10-29T16:58:51Z</time>
      </trkpt>
      <trkpt lat="42.44089" lon="2.81208">
        <ele>675.87</ele>
        <time>2021-10-29T16:58:51Z</time>
      </trkpt>
      <trkpt lat="42.44101" lon="2.81226">
        <ele>676.63</ele>
        <time>2021-10-29T16:58:51Z</time>
      </trkpt>
      <trkpt lat="42.44106" lon="2.81246">
        <ele>677.62</ele>
        <time>2021-10-29T16:58:51Z</time>
      </trkpt>
      <trkpt lat="42.44103" lon="2.8127">
        <ele>678.45</ele>
        <time>2021-10-29T16:58:51Z</time>
      </trkpt>
      <trkpt lat="42.44091" lon="2.81282">
        <ele>679.17</ele>
        <time>2021-10-29T16:58:51Z</time>
      </trkpt>
      <trkpt lat="42.4408" lon="2.81294">
        <ele>680.5</ele>
        <time>2021-10-29T16:58:51Z</time>
      </trkpt>
      <trkpt lat="42.44075" lon="2.81314">
        <ele>681.79</ele>
        <time>2021-10-29T16:58:51Z</time>
      </trkpt>
      <trkpt lat="42.44077" lon="2.81332">
        <ele>680.72</ele>
        <time>2021-10-29T16:58:51Z</time>
      </trkpt>
      <trkpt lat="42.44085" lon="2.8135">
        <ele>680.07</ele>
        <time>2021-10-29T16:58:51Z</time>
      </trkpt>
      <trkpt lat="42.44098" lon="2.81372">
        <ele>679.93</ele>
        <time>2021-10-29T16:58:51Z</time>
      </trkpt>
      <trkpt lat="42.44112" lon="2.81395">
        <ele>679.62</ele>
        <time>2021-10-29T16:58:51Z</time>
      </trkpt>
      <trkpt lat="42.44122" lon="2.81414">
        <ele>678.16</ele>
        <time>2021-10-29T16:58:51Z</time>
      </trkpt>
      <trkpt lat="42.4413" lon="2.81436">
        <ele>677.38</ele>
        <time>2021-10-29T16:58:51Z</time>
      </trkpt>
      <trkpt lat="42.44144" lon="2.81452">
        <ele>673.21</ele>
        <time>2021-10-29T16:58:51Z</time>
      </trkpt>
      <trkpt lat="42.4415" lon="2.81486">
        <ele>671.27</ele>
        <time>2021-10-29T16:58:51Z</time>
      </trkpt>
      <trkpt lat="42.4415" lon="2.81513">
        <ele>671.16</ele>
        <time>2021-10-29T16:58:51Z</time>
      </trkpt>
      <trkpt lat="42.44147" lon="2.81532">
        <ele>672.04</ele>
        <time>2021-10-29T16:58:51Z</time>
      </trkpt>
      <trkpt lat="42.44135" lon="2.81559">
        <ele>673.22</ele>
        <time>2021-10-29T16:58:51Z</time>
      </trkpt>
      <trkpt lat="42.44131" lon="2.81581">
        <ele>672.3</ele>
        <time>2021-10-29T16:58:51Z</time>
      </trkpt>
      <trkpt lat="42.44126" lon="2.8161">
        <ele>673.6</ele>
        <time>2021-10-29T16:58:51Z</time>
      </trkpt>
      <trkpt lat="42.44126" lon="2.81638">
        <ele>673.58</ele>
        <time>2021-10-29T16:58:51Z</time>
      </trkpt>
      <trkpt lat="42.44128" lon="2.81662">
        <ele>673.84</ele>
        <time>2021-10-29T16:58:51Z</time>
      </trkpt>
      <trkpt lat="42.44137" lon="2.81682">
        <ele>674.7</ele>
        <time>2021-10-29T16:58:51Z</time>
      </trkpt>
      <trkpt lat="42.44151" lon="2.81694">
        <ele>675.91</ele>
        <time>2021-10-29T16:58:51Z</time>
      </trkpt>
      <trkpt lat="42.44164" lon="2.81707">
        <ele>678.12</ele>
        <time>2021-10-29T16:58:51Z</time>
      </trkpt>
      <trkpt lat="42.44179" lon="2.81719">
        <ele>679.32</ele>
        <time>2021-10-29T16:58:51Z</time>
      </trkpt>
      <trkpt lat="42.4419" lon="2.81725">
        <ele>678.61</ele>
        <time>2021-10-29T16:58:51Z</time>
      </trkpt>
      <trkpt lat="42.44202" lon="2.81738">
        <ele>678</ele>
        <time>2021-10-29T16:58:51Z</time>
      </trkpt>
      <trkpt lat="42.44207" lon="2.81756">
        <ele>677.52</ele>
        <time>2021-10-29T16:58:51Z</time>
      </trkpt>
      <trkpt lat="42.44209" lon="2.81784">
        <ele>676.22</ele>
        <time>2021-10-29T16:58:51Z</time>
      </trkpt>
      <trkpt lat="42.44213" lon="2.81809">
        <ele>674.87</ele>
        <time>2021-10-29T16:58:51Z</time>
      </trkpt>
      <trkpt lat="42.44213" lon="2.81829">
        <ele>674.26</ele>
        <time>2021-10-29T16:58:51Z</time>
      </trkpt>
      <trkpt lat="42.44206" lon="2.81852">
        <ele>673.55</ele>
        <time>2021-10-29T16:58:51Z</time>
      </trkpt>
      <trkpt lat="42.44204" lon="2.81866">
        <ele>672.73</ele>
        <time>2021-10-29T16:58:51Z</time>
      </trkpt>
      <trkpt lat="42.44209" lon="2.81884">
        <ele>672.87</ele>
        <time>2021-10-29T16:58:51Z</time>
      </trkpt>
      <trkpt lat="42.44225" lon="2.81893">
        <ele>673.92</ele>
        <time>2021-10-29T16:58:51Z</time>
      </trkpt>
      <trkpt lat="42.44249" lon="2.81898">
        <ele>672.33</ele>
        <time>2021-10-29T16:58:51Z</time>
      </trkpt>
      <trkpt lat="42.44262" lon="2.81905">
        <ele>672.62</ele>
        <time>2021-10-29T16:58:51Z</time>
      </trkpt>
      <trkpt lat="42.44278" lon="2.81929">
        <ele>673.45</ele>
        <time>2021-10-29T16:58:51Z</time>
      </trkpt>
      <trkpt lat="42.44289" lon="2.81946">
        <ele>675.12</ele>
        <time>2021-10-29T16:58:51Z</time>
      </trkpt>
      <trkpt lat="42.44303" lon="2.81967">
        <ele>675.67</ele>
        <time>2021-10-29T16:58:51Z</time>
      </trkpt>
      <trkpt lat="42.44305" lon="2.81994">
        <ele>678.23</ele>
        <time>2021-10-29T16:58:51Z</time>
      </trkpt>
      <trkpt lat="42.44308" lon="2.82027">
        <ele>679.88</ele>
        <time>2021-10-29T16:58:51Z</time>
      </trkpt>
      <trkpt lat="42.44308" lon="2.82057">
        <ele>674.68</ele>
        <time>2021-10-29T16:58:51Z</time>
      </trkpt>
      <trkpt lat="42.44309" lon="2.82081">
        <ele>669.89</ele>
        <time>2021-10-29T16:58:51Z</time>
      </trkpt>
      <trkpt lat="42.44316" lon="2.82106">
        <ele>665.09</ele>
        <time>2021-10-29T16:58:51Z</time>
      </trkpt>
      <trkpt lat="42.44315" lon="2.82128">
        <ele>665.01</ele>
        <time>2021-10-29T16:58:51Z</time>
      </trkpt>
      <trkpt lat="42.44315" lon="2.82163">
        <ele>667.65</ele>
        <time>2021-10-29T16:58:51Z</time>
      </trkpt>
      <trkpt lat="42.44312" lon="2.82201">
        <ele>667.55</ele>
        <time>2021-10-29T16:58:51Z</time>
      </trkpt>
      <trkpt lat="42.44304" lon="2.8224">
        <ele>664.98</ele>
        <time>2021-10-29T16:58:51Z</time>
      </trkpt>
      <trkpt lat="42.44291" lon="2.82266">
        <ele>667.54</ele>
        <time>2021-10-29T16:58:51Z</time>
      </trkpt>
      <trkpt lat="42.44279" lon="2.82292">
        <ele>667.29</ele>
        <time>2021-10-29T16:58:51Z</time>
      </trkpt>
      <trkpt lat="42.44269" lon="2.82307">
        <ele>666.37</ele>
        <time>2021-10-29T16:58:51Z</time>
      </trkpt>
      <trkpt lat="42.44248" lon="2.82335">
        <ele>663.74</ele>
        <time>2021-10-29T16:58:51Z</time>
      </trkpt>
      <trkpt lat="42.4423" lon="2.82354">
        <ele>663.77</ele>
        <time>2021-10-29T16:58:51Z</time>
      </trkpt>
      <trkpt lat="42.44223" lon="2.8238">
        <ele>661.33</ele>
        <time>2021-10-29T16:58:51Z</time>
      </trkpt>
      <trkpt lat="42.44217" lon="2.82404">
        <ele>658.95</ele>
        <time>2021-10-29T16:58:51Z</time>
      </trkpt>
      <trkpt lat="42.44209" lon="2.82424">
        <ele>658.19</ele>
        <time>2021-10-29T16:58:51Z</time>
      </trkpt>
      <trkpt lat="42.44194" lon="2.82438">
        <ele>661.05</ele>
        <time>2021-10-29T16:58:51Z</time>
      </trkpt>
      <trkpt lat="42.44191" lon="2.82467">
        <ele>656.63</ele>
        <time>2021-10-29T16:58:51Z</time>
      </trkpt>
      <trkpt lat="42.44199" lon="2.82487">
        <ele>653.34</ele>
        <time>2021-10-29T16:58:51Z</time>
      </trkpt>
      <trkpt lat="42.44196" lon="2.82514">
        <ele>652.11</ele>
        <time>2021-10-29T16:58:51Z</time>
      </trkpt>
      <trkpt lat="42.44212" lon="2.82524">
        <ele>646.8</ele>
        <time>2021-10-29T16:58:51Z</time>
      </trkpt>
      <trkpt lat="42.44212" lon="2.82554">
        <ele>649.26</ele>
        <time>2021-10-29T16:58:51Z</time>
      </trkpt>
      <trkpt lat="42.44255" lon="2.82551">
        <ele>648.7</ele>
        <time>2021-10-29T16:58:51Z</time>
      </trkpt>
      <trkpt lat="42.44276" lon="2.82564">
        <ele>651.44</ele>
        <time>2021-10-29T16:58:51Z</time>
      </trkpt>
      <trkpt lat="42.44292" lon="2.82575">
        <ele>653.35</ele>
        <time>2021-10-29T16:58:51Z</time>
      </trkpt>
      <trkpt lat="42.44316" lon="2.82589">
        <ele>656.71</ele>
        <time>2021-10-29T16:58:51Z</time>
      </trkpt>
      <trkpt lat="42.44338" lon="2.82608">
        <ele>661.18</ele>
        <time>2021-10-29T16:58:51Z</time>
      </trkpt>
      <trkpt lat="42.4435" lon="2.82616">
        <ele>662.29</ele>
        <time>2021-10-29T16:58:51Z</time>
      </trkpt>
      <trkpt lat="42.44376" lon="2.82631">
        <ele>660.44</ele>
        <time>2021-10-29T16:58:51Z</time>
      </trkpt>
      <trkpt lat="42.4439" lon="2.82649">
        <ele>659.3</ele>
        <time>2021-10-29T16:58:51Z</time>
      </trkpt>
      <trkpt lat="42.44393" lon="2.82685">
        <ele>662.1</ele>
        <time>2021-10-29T16:58:51Z</time>
      </trkpt>
      <trkpt lat="42.44394" lon="2.82716">
        <ele>663.42</ele>
        <time>2021-10-29T16:58:51Z</time>
      </trkpt>
      <trkpt lat="42.44397" lon="2.82748">
        <ele>662.91</ele>
        <time>2021-10-29T16:58:51Z</time>
      </trkpt>
      <trkpt lat="42.44399" lon="2.82773">
        <ele>662.88</ele>
        <time>2021-10-29T16:58:51Z</time>
      </trkpt>
      <trkpt lat="42.44403" lon="2.82798">
        <ele>662.2</ele>
        <time>2021-10-29T16:58:51Z</time>
      </trkpt>
      <trkpt lat="42.44408" lon="2.82825">
        <ele>662.04</ele>
        <time>2021-10-29T16:58:51Z</time>
      </trkpt>
      <trkpt lat="42.44415" lon="2.82849">
        <ele>662.81</ele>
        <time>2021-10-29T16:58:51Z</time>
      </trkpt>
      <trkpt lat="42.44426" lon="2.8287">
        <ele>663.92</ele>
        <time>2021-10-29T16:58:51Z</time>
      </trkpt>
      <trkpt lat="42.44442" lon="2.82892">
        <ele>665</ele>
        <time>2021-10-29T16:58:51Z</time>
      </trkpt>
      <trkpt lat="42.44466" lon="2.8291">
        <ele>665.4</ele>
        <time>2021-10-29T16:58:51Z</time>
      </trkpt>
      <trkpt lat="42.4449" lon="2.82925">
        <ele>666.61</ele>
        <time>2021-10-29T16:58:51Z</time>
      </trkpt>
      <trkpt lat="42.4451" lon="2.82939">
        <ele>667.48</ele>
        <time>2021-10-29T16:58:51Z</time>
      </trkpt>
      <trkpt lat="42.44525" lon="2.82955">
        <ele>669.33</ele>
        <time>2021-10-29T16:58:51Z</time>
      </trkpt>
      <trkpt lat="42.44536" lon="2.82978">
        <ele>666.93</ele>
        <time>2021-10-29T16:58:51Z</time>
      </trkpt>
      <trkpt lat="42.44541" lon="2.83004">
        <ele>662.56</ele>
        <time>2021-10-29T16:58:51Z</time>
      </trkpt>
      <trkpt lat="42.44526" lon="2.83044">
        <ele>664.53</ele>
        <time>2021-10-29T16:58:51Z</time>
      </trkpt>
      <trkpt lat="42.44516" lon="2.83061">
        <ele>665.03</ele>
        <time>2021-10-29T16:58:51Z</time>
      </trkpt>
      <trkpt lat="42.4451" lon="2.83083">
        <ele>664.93</ele>
        <time>2021-10-29T16:58:51Z</time>
      </trkpt>
      <trkpt lat="42.44503" lon="2.831">
        <ele>665.41</ele>
        <time>2021-10-29T16:58:51Z</time>
      </trkpt>
      <trkpt lat="42.44498" lon="2.83114">
        <ele>666.01</ele>
        <time>2021-10-29T16:58:51Z</time>
      </trkpt>
      <trkpt lat="42.4449" lon="2.83127">
        <ele>666.97</ele>
        <time>2021-10-29T16:58:51Z</time>
      </trkpt>
      <trkpt lat="42.44502" lon="2.83135">
        <ele>667.09</ele>
        <time>2021-10-29T16:58:51Z</time>
      </trkpt>
      <trkpt lat="42.44518" lon="2.83138">
        <ele>667.49</ele>
        <time>2021-10-29T16:58:51Z</time>
      </trkpt>
      <trkpt lat="42.44539" lon="2.83138">
        <ele>668</ele>
        <time>2021-10-29T16:58:51Z</time>
      </trkpt>
      <trkpt lat="42.44559" lon="2.83138">
        <ele>668.7</ele>
        <time>2021-10-29T16:58:51Z</time>
      </trkpt>
      <trkpt lat="42.44606" lon="2.8315">
        <ele>670.13</ele>
        <time>2021-10-29T16:58:51Z</time>
      </trkpt>
      <trkpt lat="42.44623" lon="2.8316">
        <ele>671.36</ele>
        <time>2021-10-29T16:58:51Z</time>
      </trkpt>
      <trkpt lat="42.44637" lon="2.83165">
        <ele>669.56</ele>
        <time>2021-10-29T16:58:51Z</time>
      </trkpt>
      <trkpt lat="42.44657" lon="2.83165">
        <ele>667.96</ele>
        <time>2021-10-29T16:58:51Z</time>
      </trkpt>
      <trkpt lat="42.44684" lon="2.83165">
        <ele>664.79</ele>
        <time>2021-10-29T16:58:51Z</time>
      </trkpt>
      <trkpt lat="42.44707" lon="2.8315">
        <ele>663.04</ele>
        <time>2021-10-29T16:58:51Z</time>
      </trkpt>
      <trkpt lat="42.44722" lon="2.8314">
        <ele>661.55</ele>
        <time>2021-10-29T16:58:51Z</time>
      </trkpt>
      <trkpt lat="42.44739" lon="2.83126">
        <ele>661.11</ele>
        <time>2021-10-29T16:58:51Z</time>
      </trkpt>
      <trkpt lat="42.44757" lon="2.83119">
        <ele>658.43</ele>
        <time>2021-10-29T16:58:51Z</time>
      </trkpt>
      <trkpt lat="42.44775" lon="2.83105">
        <ele>656.48</ele>
        <time>2021-10-29T16:58:51Z</time>
      </trkpt>
      <trkpt lat="42.44791" lon="2.83088">
        <ele>654.97</ele>
        <time>2021-10-29T16:58:51Z</time>
      </trkpt>
      <trkpt lat="42.44802" lon="2.83076">
        <ele>654.24</ele>
        <time>2021-10-29T16:58:51Z</time>
      </trkpt>
      <trkpt lat="42.44816" lon="2.8306">
        <ele>652.35</ele>
        <time>2021-10-29T16:58:51Z</time>
      </trkpt>
      <trkpt lat="42.44831" lon="2.83041">
        <ele>649.8</ele>
        <time>2021-10-29T16:58:51Z</time>
      </trkpt>
      <trkpt lat="42.44851" lon="2.83027">
        <ele>647</ele>
        <time>2021-10-29T16:58:51Z</time>
      </trkpt>
      <trkpt lat="42.44868" lon="2.83012">
        <ele>646.18</ele>
        <time>2021-10-29T16:58:51Z</time>
      </trkpt>
      <trkpt lat="42.44882" lon="2.83003">
        <ele>643.24</ele>
        <time>2021-10-29T16:58:51Z</time>
      </trkpt>
      <trkpt lat="42.44893" lon="2.82986">
        <ele>642.99</ele>
        <time>2021-10-29T16:58:51Z</time>
      </trkpt>
      <trkpt lat="42.44906" lon="2.82972">
        <ele>641.75</ele>
        <time>2021-10-29T16:58:51Z</time>
      </trkpt>
      <trkpt lat="42.44917" lon="2.82957">
        <ele>641.69</ele>
        <time>2021-10-29T16:58:51Z</time>
      </trkpt>
      <trkpt lat="42.44927" lon="2.82944">
        <ele>641.89</ele>
        <time>2021-10-29T16:58:51Z</time>
      </trkpt>
      <trkpt lat="42.44931" lon="2.8296">
        <ele>637.53</ele>
        <time>2021-10-29T16:58:51Z</time>
      </trkpt>
      <trkpt lat="42.44919" lon="2.8297">
        <ele>638.02</ele>
        <time>2021-10-29T16:58:51Z</time>
      </trkpt>
      <trkpt lat="42.4491" lon="2.82993">
        <ele>635.98</ele>
        <time>2021-10-29T16:58:51Z</time>
      </trkpt>
      <trkpt lat="42.44906" lon="2.83013">
        <ele>633.07</ele>
        <time>2021-10-29T16:58:51Z</time>
      </trkpt>
      <trkpt lat="42.4489" lon="2.83033">
        <ele>632.31</ele>
        <time>2021-10-29T16:58:51Z</time>
      </trkpt>
      <trkpt lat="42.44879" lon="2.8305">
        <ele>631.47</ele>
        <time>2021-10-29T16:58:51Z</time>
      </trkpt>
      <trkpt lat="42.44871" lon="2.83069">
        <ele>628.61</ele>
        <time>2021-10-29T16:58:51Z</time>
      </trkpt>
      <trkpt lat="42.44863" lon="2.83087">
        <ele>627.8</ele>
        <time>2021-10-29T16:58:51Z</time>
      </trkpt>
      <trkpt lat="42.44855" lon="2.83117">
        <ele>627.05</ele>
        <time>2021-10-29T16:58:51Z</time>
      </trkpt>
      <trkpt lat="42.4485" lon="2.83142">
        <ele>624.88</ele>
        <time>2021-10-29T16:58:51Z</time>
      </trkpt>
      <trkpt lat="42.44847" lon="2.83162">
        <ele>622.24</ele>
        <time>2021-10-29T16:58:51Z</time>
      </trkpt>
      <trkpt lat="42.44839" lon="2.83187">
        <ele>620.06</ele>
        <time>2021-10-29T16:58:51Z</time>
      </trkpt>
      <trkpt lat="42.44831" lon="2.83209">
        <ele>618.85</ele>
        <time>2021-10-29T16:58:51Z</time>
      </trkpt>
      <trkpt lat="42.44821" lon="2.83225">
        <ele>617.9</ele>
        <time>2021-10-29T16:58:51Z</time>
      </trkpt>
      <trkpt lat="42.44808" lon="2.83238">
        <ele>619.21</ele>
        <time>2021-10-29T16:58:51Z</time>
      </trkpt>
      <trkpt lat="42.448" lon="2.83254">
        <ele>618.62</ele>
        <time>2021-10-29T16:58:51Z</time>
      </trkpt>
      <trkpt lat="42.448" lon="2.83277">
        <ele>617.23</ele>
        <time>2021-10-29T16:58:51Z</time>
      </trkpt>
      <trkpt lat="42.448" lon="2.8329">
        <ele>617.27</ele>
        <time>2021-10-29T16:58:51Z</time>
      </trkpt>
      <trkpt lat="42.44808" lon="2.83307">
        <ele>615.62</ele>
        <time>2021-10-29T16:58:51Z</time>
      </trkpt>
      <trkpt lat="42.44825" lon="2.8331">
        <ele>613.69</ele>
        <time>2021-10-29T16:58:51Z</time>
      </trkpt>
      <trkpt lat="42.44846" lon="2.8331">
        <ele>612.25</ele>
        <time>2021-10-29T16:58:51Z</time>
      </trkpt>
      <trkpt lat="42.44862" lon="2.83298">
        <ele>610.67</ele>
        <time>2021-10-29T16:58:51Z</time>
      </trkpt>
      <trkpt lat="42.44877" lon="2.83291">
        <ele>608.54</ele>
        <time>2021-10-29T16:58:51Z</time>
      </trkpt>
      <trkpt lat="42.44893" lon="2.83293">
        <ele>607.03</ele>
        <time>2021-10-29T16:58:51Z</time>
      </trkpt>
      <trkpt lat="42.44907" lon="2.83292">
        <ele>606.28</ele>
        <time>2021-10-29T16:58:51Z</time>
      </trkpt>
      <trkpt lat="42.44922" lon="2.8328">
        <ele>604.23</ele>
        <time>2021-10-29T16:58:51Z</time>
      </trkpt>
      <trkpt lat="42.44936" lon="2.83271">
        <ele>603</ele>
        <time>2021-10-29T16:58:51Z</time>
      </trkpt>
      <trkpt lat="42.4495" lon="2.83256">
        <ele>601.34</ele>
        <time>2021-10-29T16:58:51Z</time>
      </trkpt>
      <trkpt lat="42.44959" lon="2.83242">
        <ele>599.1</ele>
        <time>2021-10-29T16:58:51Z</time>
      </trkpt>
      <trkpt lat="42.44974" lon="2.83231">
        <ele>597.78</ele>
        <time>2021-10-29T16:58:51Z</time>
      </trkpt>
      <trkpt lat="42.44988" lon="2.83219">
        <ele>595.87</ele>
        <time>2021-10-29T16:58:51Z</time>
      </trkpt>
      <trkpt lat="42.45004" lon="2.83212">
        <ele>594.53</ele>
        <time>2021-10-29T16:58:51Z</time>
      </trkpt>
      <trkpt lat="42.45019" lon="2.83204">
        <ele>592.7</ele>
        <time>2021-10-29T16:58:51Z</time>
      </trkpt>
      <trkpt lat="42.45041" lon="2.832">
        <ele>590.55</ele>
        <time>2021-10-29T16:58:51Z</time>
      </trkpt>
      <trkpt lat="42.45057" lon="2.832">
        <ele>588.23</ele>
        <time>2021-10-29T16:58:51Z</time>
      </trkpt>
      <trkpt lat="42.45072" lon="2.832">
        <ele>586.7</ele>
        <time>2021-10-29T16:58:51Z</time>
      </trkpt>
      <trkpt lat="42.45085" lon="2.83197">
        <ele>585.71</ele>
        <time>2021-10-29T16:58:51Z</time>
      </trkpt>
      <trkpt lat="42.45099" lon="2.83186">
        <ele>584.73</ele>
        <time>2021-10-29T16:58:51Z</time>
      </trkpt>
      <trkpt lat="42.45109" lon="2.83168">
        <ele>583.07</ele>
        <time>2021-10-29T16:58:51Z</time>
      </trkpt>
      <trkpt lat="42.45115" lon="2.83149">
        <ele>579.97</ele>
        <time>2021-10-29T16:58:51Z</time>
      </trkpt>
      <trkpt lat="42.45131" lon="2.83139">
        <ele>578.36</ele>
        <time>2021-10-29T16:58:51Z</time>
      </trkpt>
      <trkpt lat="42.45147" lon="2.83129">
        <ele>577.08</ele>
        <time>2021-10-29T16:58:51Z</time>
      </trkpt>
      <trkpt lat="42.45163" lon="2.83111">
        <ele>575.78</ele>
        <time>2021-10-29T16:58:51Z</time>
      </trkpt>
      <trkpt lat="42.45178" lon="2.83091">
        <ele>573.36</ele>
        <time>2021-10-29T16:58:51Z</time>
      </trkpt>
      <trkpt lat="42.45192" lon="2.83069">
        <ele>570.76</ele>
        <time>2021-10-29T16:58:51Z</time>
      </trkpt>
      <trkpt lat="42.45204" lon="2.83057">
        <ele>569.5</ele>
        <time>2021-10-29T16:58:51Z</time>
      </trkpt>
      <trkpt lat="42.45221" lon="2.83045">
        <ele>568.11</ele>
        <time>2021-10-29T16:58:51Z</time>
      </trkpt>
      <trkpt lat="42.45238" lon="2.8304">
        <ele>567.12</ele>
        <time>2021-10-29T16:58:51Z</time>
      </trkpt>
      <trkpt lat="42.45251" lon="2.83033">
        <ele>564.26</ele>
        <time>2021-10-29T16:58:51Z</time>
      </trkpt>
      <trkpt lat="42.45265" lon="2.83021">
        <ele>563.25</ele>
        <time>2021-10-29T16:58:51Z</time>
      </trkpt>
      <trkpt lat="42.4528" lon="2.83019">
        <ele>562.33</ele>
        <time>2021-10-29T16:58:51Z</time>
      </trkpt>
      <trkpt lat="42.45295" lon="2.83025">
        <ele>561.79</ele>
        <time>2021-10-29T16:58:51Z</time>
      </trkpt>
      <trkpt lat="42.45309" lon="2.83037">
        <ele>560.68</ele>
        <time>2021-10-29T16:58:51Z</time>
      </trkpt>
      <trkpt lat="42.45319" lon="2.83063">
        <ele>559.9</ele>
        <time>2021-10-29T16:58:51Z</time>
      </trkpt>
      <trkpt lat="42.45328" lon="2.83084">
        <ele>557.66</ele>
        <time>2021-10-29T16:58:51Z</time>
      </trkpt>
      <trkpt lat="42.45345" lon="2.83101">
        <ele>555.35</ele>
        <time>2021-10-29T16:58:51Z</time>
      </trkpt>
      <trkpt lat="42.45362" lon="2.83115">
        <ele>553.07</ele>
        <time>2021-10-29T16:58:51Z</time>
      </trkpt>
      <trkpt lat="42.45374" lon="2.83128">
        <ele>551.7</ele>
        <time>2021-10-29T16:58:51Z</time>
      </trkpt>
      <trkpt lat="42.45389" lon="2.83142">
        <ele>549.86</ele>
        <time>2021-10-29T16:58:51Z</time>
      </trkpt>
      <trkpt lat="42.45403" lon="2.83158">
        <ele>546.11</ele>
        <time>2021-10-29T16:58:51Z</time>
      </trkpt>
      <trkpt lat="42.45406" lon="2.83184">
        <ele>546.09</ele>
        <time>2021-10-29T16:58:51Z</time>
      </trkpt>
      <trkpt lat="42.4541" lon="2.83209">
        <ele>544.28</ele>
        <time>2021-10-29T16:58:51Z</time>
      </trkpt>
      <trkpt lat="42.45424" lon="2.83233">
        <ele>541.04</ele>
        <time>2021-10-29T16:58:51Z</time>
      </trkpt>
      <trkpt lat="42.45432" lon="2.83254">
        <ele>540.12</ele>
        <time>2021-10-29T16:58:51Z</time>
      </trkpt>
      <trkpt lat="42.45441" lon="2.83268">
        <ele>536.89</ele>
        <time>2021-10-29T16:58:51Z</time>
      </trkpt>
      <trkpt lat="42.45441" lon="2.83288">
        <ele>536.52</ele>
        <time>2021-10-29T16:58:51Z</time>
      </trkpt>
      <trkpt lat="42.45444" lon="2.8331">
        <ele>536</ele>
        <time>2021-10-29T16:58:51Z</time>
      </trkpt>
      <trkpt lat="42.45456" lon="2.83326">
        <ele>532.71</ele>
        <time>2021-10-29T16:58:51Z</time>
      </trkpt>
      <trkpt lat="42.45465" lon="2.8335">
        <ele>532.28</ele>
        <time>2021-10-29T16:58:51Z</time>
      </trkpt>
      <trkpt lat="42.45475" lon="2.83368">
        <ele>530.57</ele>
        <time>2021-10-29T16:58:51Z</time>
      </trkpt>
      <trkpt lat="42.45488" lon="2.83386">
        <ele>528.06</ele>
        <time>2021-10-29T16:58:51Z</time>
      </trkpt>
      <trkpt lat="42.45498" lon="2.83404">
        <ele>526.24</ele>
        <time>2021-10-29T16:58:51Z</time>
      </trkpt>
      <trkpt lat="42.45511" lon="2.83421">
        <ele>524</ele>
        <time>2021-10-29T16:58:51Z</time>
      </trkpt>
      <trkpt lat="42.45523" lon="2.83436">
        <ele>522.03</ele>
        <time>2021-10-29T16:58:51Z</time>
      </trkpt>
      <trkpt lat="42.45537" lon="2.83449">
        <ele>519.8</ele>
        <time>2021-10-29T16:58:51Z</time>
      </trkpt>
      <trkpt lat="42.4555" lon="2.83452">
        <ele>519.45</ele>
        <time>2021-10-29T16:58:51Z</time>
      </trkpt>
      <trkpt lat="42.45564" lon="2.83441">
        <ele>517.59</ele>
        <time>2021-10-29T16:58:51Z</time>
      </trkpt>
      <trkpt lat="42.45578" lon="2.83439">
        <ele>516.35</ele>
        <time>2021-10-29T16:58:51Z</time>
      </trkpt>
      <trkpt lat="42.45592" lon="2.83439">
        <ele>515.18</ele>
        <time>2021-10-29T16:58:51Z</time>
      </trkpt>
      <trkpt lat="42.45608" lon="2.83439">
        <ele>513.13</ele>
        <time>2021-10-29T16:58:51Z</time>
      </trkpt>
      <trkpt lat="42.45623" lon="2.83439">
        <ele>511.89</ele>
        <time>2021-10-29T16:58:51Z</time>
      </trkpt>
      <trkpt lat="42.4564" lon="2.83429">
        <ele>509.11</ele>
        <time>2021-10-29T16:58:51Z</time>
      </trkpt>
      <trkpt lat="42.45662" lon="2.83416">
        <ele>506.21</ele>
        <time>2021-10-29T16:58:51Z</time>
      </trkpt>
      <trkpt lat="42.45676" lon="2.83405">
        <ele>504.37</ele>
        <time>2021-10-29T16:58:51Z</time>
      </trkpt>
      <trkpt lat="42.4569" lon="2.83387">
        <ele>501.2</ele>
        <time>2021-10-29T16:58:51Z</time>
      </trkpt>
      <trkpt lat="42.45705" lon="2.83371">
        <ele>500.7</ele>
        <time>2021-10-29T16:58:51Z</time>
      </trkpt>
      <trkpt lat="42.4571" lon="2.8335">
        <ele>497.62</ele>
        <time>2021-10-29T16:58:51Z</time>
      </trkpt>
      <trkpt lat="42.45725" lon="2.8333">
        <ele>497.09</ele>
        <time>2021-10-29T16:58:51Z</time>
      </trkpt>
      <trkpt lat="42.45744" lon="2.83317">
        <ele>498.56</ele>
        <time>2021-10-29T16:58:51Z</time>
      </trkpt>
      <trkpt lat="42.45758" lon="2.83302">
        <ele>497.36</ele>
        <time>2021-10-29T16:58:51Z</time>
      </trkpt>
      <trkpt lat="42.45775" lon="2.83291">
        <ele>498.25</ele>
        <time>2021-10-29T16:58:51Z</time>
      </trkpt>
      <trkpt lat="42.45794" lon="2.83293">
        <ele>496.6</ele>
        <time>2021-10-29T16:58:51Z</time>
      </trkpt>
      <trkpt lat="42.45812" lon="2.83316">
        <ele>494.9</ele>
        <time>2021-10-29T16:58:51Z</time>
      </trkpt>
      <trkpt lat="42.4582" lon="2.83339">
        <ele>492.14</ele>
        <time>2021-10-29T16:58:51Z</time>
      </trkpt>
      <trkpt lat="42.45817" lon="2.83371">
        <ele>490.13</ele>
        <time>2021-10-29T16:58:51Z</time>
      </trkpt>
      <trkpt lat="42.45813" lon="2.8341">
        <ele>487.04</ele>
        <time>2021-10-29T16:58:51Z</time>
      </trkpt>
      <trkpt lat="42.45809" lon="2.83438">
        <ele>484.66</ele>
        <time>2021-10-29T16:58:51Z</time>
      </trkpt>
      <trkpt lat="42.45806" lon="2.83465">
        <ele>483.69</ele>
        <time>2021-10-29T16:58:51Z</time>
      </trkpt>
      <trkpt lat="42.45805" lon="2.83484">
        <ele>482.28</ele>
        <time>2021-10-29T16:58:51Z</time>
      </trkpt>
      <trkpt lat="42.45804" lon="2.8351">
        <ele>479.62</ele>
        <time>2021-10-29T16:58:51Z</time>
      </trkpt>
      <trkpt lat="42.45802" lon="2.83532">
        <ele>477.99</ele>
        <time>2021-10-29T16:58:51Z</time>
      </trkpt>
      <trkpt lat="42.45801" lon="2.83553">
        <ele>476.56</ele>
        <time>2021-10-29T16:58:51Z</time>
      </trkpt>
      <trkpt lat="42.45801" lon="2.83575">
        <ele>475.82</ele>
        <time>2021-10-29T16:58:51Z</time>
      </trkpt>
      <trkpt lat="42.45808" lon="2.83602">
        <ele>471.87</ele>
        <time>2021-10-29T16:58:51Z</time>
      </trkpt>
      <trkpt lat="42.45808" lon="2.83616">
        <ele>470.65</ele>
        <time>2021-10-29T16:58:51Z</time>
      </trkpt>
      <trkpt lat="42.45806" lon="2.83637">
        <ele>468.95</ele>
        <time>2021-10-29T16:58:51Z</time>
      </trkpt>
      <trkpt lat="42.45801" lon="2.83656">
        <ele>467.96</ele>
        <time>2021-10-29T16:58:51Z</time>
      </trkpt>
      <trkpt lat="42.45797" lon="2.83673">
        <ele>465.55</ele>
        <time>2021-10-29T16:58:51Z</time>
      </trkpt>
      <trkpt lat="42.4579" lon="2.83687">
        <ele>465.05</ele>
        <time>2021-10-29T16:58:51Z</time>
      </trkpt>
      <trkpt lat="42.45784" lon="2.83704">
        <ele>464.91</ele>
        <time>2021-10-29T16:58:51Z</time>
      </trkpt>
      <trkpt lat="42.45794" lon="2.83722">
        <ele>461.81</ele>
        <time>2021-10-29T16:58:51Z</time>
      </trkpt>
      <trkpt lat="42.45801" lon="2.83738">
        <ele>460.43</ele>
        <time>2021-10-29T16:58:51Z</time>
      </trkpt>
      <trkpt lat="42.45803" lon="2.83759">
        <ele>459.98</ele>
        <time>2021-10-29T16:58:51Z</time>
      </trkpt>
      <trkpt lat="42.45806" lon="2.8378">
        <ele>459.28</ele>
        <time>2021-10-29T16:58:51Z</time>
      </trkpt>
      <trkpt lat="42.45818" lon="2.83787">
        <ele>458.13</ele>
        <time>2021-10-29T16:58:51Z</time>
      </trkpt>
      <trkpt lat="42.45836" lon="2.83778">
        <ele>457.41</ele>
        <time>2021-10-29T16:58:51Z</time>
      </trkpt>
      <trkpt lat="42.45847" lon="2.83768">
        <ele>456.88</ele>
        <time>2021-10-29T16:58:51Z</time>
      </trkpt>
      <trkpt lat="42.45861" lon="2.83753">
        <ele>454.62</ele>
        <time>2021-10-29T16:58:51Z</time>
      </trkpt>
      <trkpt lat="42.45877" lon="2.8375">
        <ele>454.41</ele>
        <time>2021-10-29T16:58:51Z</time>
      </trkpt>
      <trkpt lat="42.45895" lon="2.8373">
        <ele>451.34</ele>
        <time>2021-10-29T16:58:51Z</time>
      </trkpt>
      <trkpt lat="42.45915" lon="2.83713">
        <ele>449.25</ele>
        <time>2021-10-29T16:58:51Z</time>
      </trkpt>
      <trkpt lat="42.45931" lon="2.83694">
        <ele>446.81</ele>
        <time>2021-10-29T16:58:51Z</time>
      </trkpt>
      <trkpt lat="42.45948" lon="2.8368">
        <ele>444.38</ele>
        <time>2021-10-29T16:58:51Z</time>
      </trkpt>
      <trkpt lat="42.45965" lon="2.83675">
        <ele>443.68</ele>
        <time>2021-10-29T16:58:51Z</time>
      </trkpt>
      <trkpt lat="42.45988" lon="2.83671">
        <ele>442.93</ele>
        <time>2021-10-29T16:58:51Z</time>
      </trkpt>
      <trkpt lat="42.46007" lon="2.83678">
        <ele>440.17</ele>
        <time>2021-10-29T16:58:51Z</time>
      </trkpt>
      <trkpt lat="42.46025" lon="2.83685">
        <ele>437.36</ele>
        <time>2021-10-29T16:58:51Z</time>
      </trkpt>
      <trkpt lat="42.46039" lon="2.83685">
        <ele>434.87</ele>
        <time>2021-10-29T16:58:51Z</time>
      </trkpt>
      <trkpt lat="42.46059" lon="2.83687">
        <ele>433.73</ele>
        <time>2021-10-29T16:58:51Z</time>
      </trkpt>
      <trkpt lat="42.46071" lon="2.83687">
        <ele>431.7</ele>
        <time>2021-10-29T16:58:51Z</time>
      </trkpt>
      <trkpt lat="42.46084" lon="2.83692">
        <ele>430.91</ele>
        <time>2021-10-29T16:58:51Z</time>
      </trkpt>
      <trkpt lat="42.46097" lon="2.83692">
        <ele>430.03</ele>
        <time>2021-10-29T16:58:51Z</time>
      </trkpt>
      <trkpt lat="42.46117" lon="2.83679">
        <ele>426.56</ele>
        <time>2021-10-29T16:58:51Z</time>
      </trkpt>
      <trkpt lat="42.46138" lon="2.83681">
        <ele>424.5</ele>
        <time>2021-10-29T16:58:51Z</time>
      </trkpt>
      <trkpt lat="42.46153" lon="2.83696">
        <ele>421.7</ele>
        <time>2021-10-29T16:58:51Z</time>
      </trkpt>
      <trkpt lat="42.46161" lon="2.83717">
        <ele>421.83</ele>
        <time>2021-10-29T16:58:51Z</time>
      </trkpt>
      <trkpt lat="42.46173" lon="2.83733">
        <ele>421.03</ele>
        <time>2021-10-29T16:58:51Z</time>
      </trkpt>
      <trkpt lat="42.46192" lon="2.8373">
        <ele>419.06</ele>
        <time>2021-10-29T16:58:51Z</time>
      </trkpt>
      <trkpt lat="42.46207" lon="2.83712">
        <ele>417.09</ele>
        <time>2021-10-29T16:58:51Z</time>
      </trkpt>
      <trkpt lat="42.46213" lon="2.83689">
        <ele>414.07</ele>
        <time>2021-10-29T16:58:51Z</time>
      </trkpt>
      <trkpt lat="42.46229" lon="2.83679">
        <ele>413.14</ele>
        <time>2021-10-29T16:58:51Z</time>
      </trkpt>
      <trkpt lat="42.46244" lon="2.83679">
        <ele>411.84</ele>
        <time>2021-10-29T16:58:51Z</time>
      </trkpt>
      <trkpt lat="42.46257" lon="2.8368">
        <ele>409.65</ele>
        <time>2021-10-29T16:58:51Z</time>
      </trkpt>
      <trkpt lat="42.46256" lon="2.83699">
        <ele>412.28</ele>
        <time>2021-10-29T16:58:51Z</time>
      </trkpt>
      <trkpt lat="42.46251" lon="2.8372">
        <ele>415.58</ele>
        <time>2021-10-29T16:58:51Z</time>
      </trkpt>
      <trkpt lat="42.46251" lon="2.83737">
        <ele>416.82</ele>
        <time>2021-10-29T16:58:51Z</time>
      </trkpt>
      <trkpt lat="42.46254" lon="2.83769">
        <ele>416.29</ele>
        <time>2021-10-29T16:58:51Z</time>
      </trkpt>
      <trkpt lat="42.46252" lon="2.83801">
        <ele>414.85</ele>
        <time>2021-10-29T16:58:51Z</time>
      </trkpt>
      <trkpt lat="42.46243" lon="2.8383">
        <ele>414.49</ele>
        <time>2021-10-29T16:58:51Z</time>
      </trkpt>
      <trkpt lat="42.46231" lon="2.83851">
        <ele>414.95</ele>
        <time>2021-10-29T16:58:51Z</time>
      </trkpt>
      <trkpt lat="42.46211" lon="2.83866">
        <ele>417.47</ele>
        <time>2021-10-29T16:58:51Z</time>
      </trkpt>
      <trkpt lat="42.46192" lon="2.83882">
        <ele>418.81</ele>
        <time>2021-10-29T16:58:51Z</time>
      </trkpt>
      <trkpt lat="42.46188" lon="2.83895">
        <ele>415.52</ele>
        <time>2021-10-29T16:58:51Z</time>
      </trkpt>
      <trkpt lat="42.46181" lon="2.83916">
        <ele>410.18</ele>
        <time>2021-10-29T16:58:51Z</time>
      </trkpt>
      <trkpt lat="42.46182" lon="2.83949">
        <ele>407.13</ele>
        <time>2021-10-29T16:58:51Z</time>
      </trkpt>
      <trkpt lat="42.46187" lon="2.83981">
        <ele>406.25</ele>
        <time>2021-10-29T16:58:51Z</time>
      </trkpt>
      <trkpt lat="42.46192" lon="2.84004">
        <ele>405.38</ele>
        <time>2021-10-29T16:58:51Z</time>
      </trkpt>
      <trkpt lat="42.46196" lon="2.84027">
        <ele>403.92</ele>
        <time>2021-10-29T16:58:51Z</time>
      </trkpt>
      <trkpt lat="42.46194" lon="2.84052">
        <ele>403.44</ele>
        <time>2021-10-29T16:58:51Z</time>
      </trkpt>
      <trkpt lat="42.46191" lon="2.84067">
        <ele>403.19</ele>
        <time>2021-10-29T16:58:51Z</time>
      </trkpt>
      <trkpt lat="42.46184" lon="2.84087">
        <ele>403.67</ele>
        <time>2021-10-29T16:58:51Z</time>
      </trkpt>
      <trkpt lat="42.46172" lon="2.84103">
        <ele>406.18</ele>
        <time>2021-10-29T16:58:51Z</time>
      </trkpt>
      <trkpt lat="42.46158" lon="2.84121">
        <ele>406.98</ele>
        <time>2021-10-29T16:58:51Z</time>
      </trkpt>
      <trkpt lat="42.4615" lon="2.84134">
        <ele>406.23</ele>
        <time>2021-10-29T16:58:51Z</time>
      </trkpt>
      <trkpt lat="42.4615" lon="2.84164">
        <ele>400.29</ele>
        <time>2021-10-29T16:58:51Z</time>
      </trkpt>
      <trkpt lat="42.4615" lon="2.84191">
        <ele>395.48</ele>
        <time>2021-10-29T16:58:51Z</time>
      </trkpt>
      <trkpt lat="42.4615" lon="2.84218">
        <ele>391.49</ele>
        <time>2021-10-29T16:58:51Z</time>
      </trkpt>
      <trkpt lat="42.46151" lon="2.84246">
        <ele>388.63</ele>
        <time>2021-10-29T16:58:51Z</time>
      </trkpt>
      <trkpt lat="42.46154" lon="2.84266">
        <ele>386.05</ele>
        <time>2021-10-29T16:58:51Z</time>
      </trkpt>
      <trkpt lat="42.46168" lon="2.84283">
        <ele>382.11</ele>
        <time>2021-10-29T16:58:51Z</time>
      </trkpt>
      <trkpt lat="42.46178" lon="2.84303">
        <ele>379.04</ele>
        <time>2021-10-29T16:58:51Z</time>
      </trkpt>
      <trkpt lat="42.46186" lon="2.84318">
        <ele>375.75</ele>
        <time>2021-10-29T16:58:51Z</time>
      </trkpt>
      <trkpt lat="42.46194" lon="2.84333">
        <ele>372.71</ele>
        <time>2021-10-29T16:58:51Z</time>
      </trkpt>
      <trkpt lat="42.46205" lon="2.84356">
        <ele>367.54</ele>
        <time>2021-10-29T16:58:51Z</time>
      </trkpt>
      <trkpt lat="42.46203" lon="2.84385">
        <ele>364.45</ele>
        <time>2021-10-29T16:58:51Z</time>
      </trkpt>
      <trkpt lat="42.46201" lon="2.8441">
        <ele>361.17</ele>
        <time>2021-10-29T16:58:51Z</time>
      </trkpt>
      <trkpt lat="42.46198" lon="2.84431">
        <ele>358.91</ele>
        <time>2021-10-29T16:58:51Z</time>
      </trkpt>
      <trkpt lat="42.46194" lon="2.84448">
        <ele>357.45</ele>
        <time>2021-10-29T16:58:51Z</time>
      </trkpt>
      <trkpt lat="42.46186" lon="2.84459">
        <ele>356.8</ele>
        <time>2021-10-29T16:58:51Z</time>
      </trkpt>
      <trkpt lat="42.46175" lon="2.84473">
        <ele>356.59</ele>
        <time>2021-10-29T16:58:51Z</time>
      </trkpt>
      <trkpt lat="42.46165" lon="2.84483">
        <ele>356.48</ele>
        <time>2021-10-29T16:58:51Z</time>
      </trkpt>
      <trkpt lat="42.46155" lon="2.84488">
        <ele>356.54</ele>
        <time>2021-10-29T16:58:51Z</time>
      </trkpt>
      <trkpt lat="42.46145" lon="2.84485">
        <ele>356.37</ele>
        <time>2021-10-29T16:58:51Z</time>
      </trkpt>
      <trkpt lat="42.46139" lon="2.84463">
        <ele>357.71</ele>
        <time>2021-10-29T16:58:51Z</time>
      </trkpt>
      <trkpt lat="42.46133" lon="2.84438">
        <ele>357.96</ele>
        <time>2021-10-29T16:58:51Z</time>
      </trkpt>
      <trkpt lat="42.46129" lon="2.84424">
        <ele>358.31</ele>
        <time>2021-10-29T16:58:51Z</time>
      </trkpt>
      <trkpt lat="42.46118" lon="2.84419">
        <ele>356.84</ele>
        <time>2021-10-29T16:58:51Z</time>
      </trkpt>
      <trkpt lat="42.46107" lon="2.84424">
        <ele>356.68</ele>
        <time>2021-10-29T16:58:51Z</time>
      </trkpt>
      <trkpt lat="42.46097" lon="2.84434">
        <ele>357.64</ele>
        <time>2021-10-29T16:58:51Z</time>
      </trkpt>
      <trkpt lat="42.4609" lon="2.84448">
        <ele>357.4</ele>
        <time>2021-10-29T16:58:51Z</time>
      </trkpt>
      <trkpt lat="42.46077" lon="2.84463">
        <ele>357.63</ele>
        <time>2021-10-29T16:58:51Z</time>
      </trkpt>
      <trkpt lat="42.46061" lon="2.84471">
        <ele>356.63</ele>
        <time>2021-10-29T16:58:51Z</time>
      </trkpt>
      <trkpt lat="42.46047" lon="2.84474">
        <ele>356.95</ele>
        <time>2021-10-29T16:58:51Z</time>
      </trkpt>
      <trkpt lat="42.46034" lon="2.84485">
        <ele>357.05</ele>
        <time>2021-10-29T16:58:51Z</time>
      </trkpt>
      <trkpt lat="42.46023" lon="2.84507">
        <ele>356.89</ele>
        <time>2021-10-29T16:58:51Z</time>
      </trkpt>
      <trkpt lat="42.46018" lon="2.84531">
        <ele>356.38</ele>
        <time>2021-10-29T16:58:51Z</time>
      </trkpt>
      <trkpt lat="42.46014" lon="2.84548">
        <ele>356.73</ele>
        <time>2021-10-29T16:58:51Z</time>
      </trkpt>
      <trkpt lat="42.4601" lon="2.84563">
        <ele>356.27</ele>
        <time>2021-10-29T16:58:51Z</time>
      </trkpt>
      <trkpt lat="42.46003" lon="2.84576">
        <ele>356</ele>
        <time>2021-10-29T16:58:51Z</time>
      </trkpt>
      <trkpt lat="42.45991" lon="2.84589">
        <ele>356.43</ele>
        <time>2021-10-29T16:58:51Z</time>
      </trkpt>
      <trkpt lat="42.45981" lon="2.84601">
        <ele>356.85</ele>
        <time>2021-10-29T16:58:51Z</time>
      </trkpt>
      <trkpt lat="42.45977" lon="2.84613">
        <ele>355.62</ele>
        <time>2021-10-29T16:58:51Z</time>
      </trkpt>
      <trkpt lat="42.45969" lon="2.84628">
        <ele>356.33</ele>
        <time>2021-10-29T16:58:51Z</time>
      </trkpt>
      <trkpt lat="42.45968" lon="2.84642">
        <ele>356.09</ele>
        <time>2021-10-29T16:58:51Z</time>
      </trkpt>
      <trkpt lat="42.45976" lon="2.84661">
        <ele>354.9</ele>
        <time>2021-10-29T16:58:51Z</time>
      </trkpt>
      <trkpt lat="42.4598" lon="2.84675">
        <ele>352.94</ele>
        <time>2021-10-29T16:58:51Z</time>
      </trkpt>
      <trkpt lat="42.45976" lon="2.84689">
        <ele>352.94</ele>
        <time>2021-10-29T16:58:51Z</time>
      </trkpt>
      <trkpt lat="42.45972" lon="2.84702">
        <ele>352.55</ele>
        <time>2021-10-29T16:58:51Z</time>
      </trkpt>
      <trkpt lat="42.45968" lon="2.84719">
        <ele>351.59</ele>
        <time>2021-10-29T16:58:51Z</time>
      </trkpt>
      <trkpt lat="42.45965" lon="2.8474">
        <ele>350.29</ele>
        <time>2021-10-29T16:58:51Z</time>
      </trkpt>
      <trkpt lat="42.45975" lon="2.84746">
        <ele>349.12</ele>
        <time>2021-10-29T16:58:51Z</time>
      </trkpt>
      <trkpt lat="42.45979" lon="2.84761">
        <ele>349.06</ele>
        <time>2021-10-29T16:58:51Z</time>
      </trkpt>
      <trkpt lat="42.45972" lon="2.8478">
        <ele>348.53</ele>
        <time>2021-10-29T16:58:51Z</time>
      </trkpt>
      <trkpt lat="42.45968" lon="2.84797">
        <ele>347.27</ele>
        <time>2021-10-29T16:58:51Z</time>
      </trkpt>
      <trkpt lat="42.45961" lon="2.84818">
        <ele>345.47</ele>
        <time>2021-10-29T16:58:51Z</time>
      </trkpt>
      <trkpt lat="42.45952" lon="2.84833">
        <ele>344.01</ele>
        <time>2021-10-29T16:58:51Z</time>
      </trkpt>
      <trkpt lat="42.45935" lon="2.84835">
        <ele>342.75</ele>
        <time>2021-10-29T16:58:51Z</time>
      </trkpt>
      <trkpt lat="42.45914" lon="2.84848">
        <ele>341</ele>
        <time>2021-10-29T16:58:51Z</time>
      </trkpt>
      <trkpt lat="42.45918" lon="2.84862">
        <ele>339.29</ele>
        <time>2021-10-29T16:58:51Z</time>
      </trkpt>
      <trkpt lat="42.4593" lon="2.84876">
        <ele>337.45</ele>
        <time>2021-10-29T16:58:51Z</time>
      </trkpt>
      <trkpt lat="42.45933" lon="2.84892">
        <ele>336.36</ele>
        <time>2021-10-29T16:58:51Z</time>
      </trkpt>
      <trkpt lat="42.45924" lon="2.84905">
        <ele>334.96</ele>
        <time>2021-10-29T16:58:51Z</time>
      </trkpt>
      <trkpt lat="42.45906" lon="2.84909">
        <ele>332.93</ele>
        <time>2021-10-29T16:58:51Z</time>
      </trkpt>
      <trkpt lat="42.45889" lon="2.84916">
        <ele>331.38</ele>
        <time>2021-10-29T16:58:51Z</time>
      </trkpt>
      <trkpt lat="42.45876" lon="2.84929">
        <ele>330.2</ele>
        <time>2021-10-29T16:58:51Z</time>
      </trkpt>
      <trkpt lat="42.45862" lon="2.84945">
        <ele>328.7</ele>
        <time>2021-10-29T16:58:51Z</time>
      </trkpt>
      <trkpt lat="42.45851" lon="2.84955">
        <ele>328.58</ele>
        <time>2021-10-29T16:58:51Z</time>
      </trkpt>
      <trkpt lat="42.45847" lon="2.84972">
        <ele>326.42</ele>
        <time>2021-10-29T16:58:51Z</time>
      </trkpt>
      <trkpt lat="42.45838" lon="2.84991">
        <ele>325.45</ele>
        <time>2021-10-29T16:58:51Z</time>
      </trkpt>
      <trkpt lat="42.45824" lon="2.85001">
        <ele>326.01</ele>
        <time>2021-10-29T16:58:51Z</time>
      </trkpt>
      <trkpt lat="42.45812" lon="2.85013">
        <ele>325.3</ele>
        <time>2021-10-29T16:58:51Z</time>
      </trkpt>
      <trkpt lat="42.45805" lon="2.85025">
        <ele>324.05</ele>
        <time>2021-10-29T16:58:51Z</time>
      </trkpt>
      <trkpt lat="42.45799" lon="2.85043">
        <ele>322.52</ele>
        <time>2021-10-29T16:58:51Z</time>
      </trkpt>
      <trkpt lat="42.4579" lon="2.8506">
        <ele>321.54</ele>
        <time>2021-10-29T16:58:51Z</time>
      </trkpt>
      <trkpt lat="42.45782" lon="2.85073">
        <ele>321.36</ele>
        <time>2021-10-29T16:58:51Z</time>
      </trkpt>
      <trkpt lat="42.45781" lon="2.8509">
        <ele>320.91</ele>
        <time>2021-10-29T16:58:51Z</time>
      </trkpt>
      <trkpt lat="42.45781" lon="2.85112">
        <ele>321.14</ele>
        <time>2021-10-29T16:58:51Z</time>
      </trkpt>
      <trkpt lat="42.45788" lon="2.85129">
        <ele>320.99</ele>
        <time>2021-10-29T16:58:51Z</time>
      </trkpt>
      <trkpt lat="42.45798" lon="2.85144">
        <ele>319.45</ele>
        <time>2021-10-29T16:58:51Z</time>
      </trkpt>
      <trkpt lat="42.45812" lon="2.85151">
        <ele>318.34</ele>
        <time>2021-10-29T16:58:51Z</time>
      </trkpt>
      <trkpt lat="42.45823" lon="2.85164">
        <ele>317.82</ele>
        <time>2021-10-29T16:58:51Z</time>
      </trkpt>
      <trkpt lat="42.45834" lon="2.85181">
        <ele>318.18</ele>
        <time>2021-10-29T16:58:51Z</time>
      </trkpt>
      <trkpt lat="42.45833" lon="2.85196">
        <ele>318.49</ele>
        <time>2021-10-29T16:58:51Z</time>
      </trkpt>
      <trkpt lat="42.45826" lon="2.85212">
        <ele>317.6</ele>
        <time>2021-10-29T16:58:51Z</time>
      </trkpt>
      <trkpt lat="42.45815" lon="2.85224">
        <ele>316.72</ele>
        <time>2021-10-29T16:58:51Z</time>
      </trkpt>
      <trkpt lat="42.45798" lon="2.85224">
        <ele>316.72</ele>
        <time>2021-10-29T16:58:51Z</time>
      </trkpt>
      <trkpt lat="42.45787" lon="2.85226">
        <ele>316.99</ele>
        <time>2021-10-29T16:58:51Z</time>
      </trkpt>
      <trkpt lat="42.45777" lon="2.85238">
        <ele>316.02</ele>
        <time>2021-10-29T16:58:51Z</time>
      </trkpt>
      <trkpt lat="42.45768" lon="2.85255">
        <ele>314.67</ele>
        <time>2021-10-29T16:58:51Z</time>
      </trkpt>
      <trkpt lat="42.45759" lon="2.85267">
        <ele>314.04</ele>
        <time>2021-10-29T16:58:51Z</time>
      </trkpt>
      <trkpt lat="42.45744" lon="2.8528">
        <ele>313.73</ele>
        <time>2021-10-29T16:58:51Z</time>
      </trkpt>
      <trkpt lat="42.45731" lon="2.85292">
        <ele>313.94</ele>
        <time>2021-10-29T16:58:51Z</time>
      </trkpt>
      <trkpt lat="42.45718" lon="2.85309">
        <ele>312.56</ele>
        <time>2021-10-29T16:58:51Z</time>
      </trkpt>
      <trkpt lat="42.45711" lon="2.85327">
        <ele>310.35</ele>
        <time>2021-10-29T16:58:51Z</time>
      </trkpt>
      <trkpt lat="42.45703" lon="2.85343">
        <ele>310.79</ele>
        <time>2021-10-29T16:58:51Z</time>
      </trkpt>
      <trkpt lat="42.45697" lon="2.85357">
        <ele>310.56</ele>
        <time>2021-10-29T16:58:51Z</time>
      </trkpt>
      <trkpt lat="42.45687" lon="2.85377">
        <ele>309.26</ele>
        <time>2021-10-29T16:58:51Z</time>
      </trkpt>
      <trkpt lat="42.45681" lon="2.85392">
        <ele>309.53</ele>
        <time>2021-10-29T16:58:51Z</time>
      </trkpt>
      <trkpt lat="42.45679" lon="2.85407">
        <ele>309.08</ele>
        <time>2021-10-29T16:58:51Z</time>
      </trkpt>
      <trkpt lat="42.45675" lon="2.85422">
        <ele>307.95</ele>
        <time>2021-10-29T16:58:51Z</time>
      </trkpt>
      <trkpt lat="42.45665" lon="2.85432">
        <ele>308.43</ele>
        <time>2021-10-29T16:58:51Z</time>
      </trkpt>
      <trkpt lat="42.45653" lon="2.8543">
        <ele>308.74</ele>
        <time>2021-10-29T16:58:51Z</time>
      </trkpt>
      <trkpt lat="42.45639" lon="2.8543">
        <ele>308.29</ele>
        <time>2021-10-29T16:58:51Z</time>
      </trkpt>
      <trkpt lat="42.45624" lon="2.85439">
        <ele>307.99</ele>
        <time>2021-10-29T16:58:51Z</time>
      </trkpt>
      <trkpt lat="42.45615" lon="2.85455">
        <ele>308.44</ele>
        <time>2021-10-29T16:58:51Z</time>
      </trkpt>
      <trkpt lat="42.45609" lon="2.85473">
        <ele>308.64</ele>
        <time>2021-10-29T16:58:51Z</time>
      </trkpt>
      <trkpt lat="42.45596" lon="2.85494">
        <ele>310.27</ele>
        <time>2021-10-29T16:58:51Z</time>
      </trkpt>
      <trkpt lat="42.45586" lon="2.85497">
        <ele>311.45</ele>
        <time>2021-10-29T16:58:51Z</time>
      </trkpt>
      <trkpt lat="42.45577" lon="2.85512">
        <ele>311.68</ele>
        <time>2021-10-29T16:58:51Z</time>
      </trkpt>
      <trkpt lat="42.45569" lon="2.8553">
        <ele>311.66</ele>
        <time>2021-10-29T16:58:51Z</time>
      </trkpt>
      <trkpt lat="42.45558" lon="2.85543">
        <ele>312.89</ele>
        <time>2021-10-29T16:58:51Z</time>
      </trkpt>
      <trkpt lat="42.45551" lon="2.85556">
        <ele>313.32</ele>
        <time>2021-10-29T16:58:51Z</time>
      </trkpt>
      <trkpt lat="42.45542" lon="2.85573">
        <ele>313.9</ele>
        <time>2021-10-29T16:58:51Z</time>
      </trkpt>
      <trkpt lat="42.4553" lon="2.85597">
        <ele>314.76</ele>
        <time>2021-10-29T16:58:51Z</time>
      </trkpt>
      <trkpt lat="42.45519" lon="2.85616">
        <ele>316.03</ele>
        <time>2021-10-29T16:58:51Z</time>
      </trkpt>
      <trkpt lat="42.45505" lon="2.85641">
        <ele>318.13</ele>
        <time>2021-10-29T16:58:51Z</time>
      </trkpt>
      <trkpt lat="42.45494" lon="2.85665">
        <ele>319.1</ele>
        <time>2021-10-29T16:58:51Z</time>
      </trkpt>
      <trkpt lat="42.45483" lon="2.85692">
        <ele>320.17</ele>
        <time>2021-10-29T16:58:51Z</time>
      </trkpt>
      <trkpt lat="42.45474" lon="2.85715">
        <ele>321.08</ele>
        <time>2021-10-29T16:58:51Z</time>
      </trkpt>
      <trkpt lat="42.45465" lon="2.85736">
        <ele>322.15</ele>
        <time>2021-10-29T16:58:51Z</time>
      </trkpt>
      <trkpt lat="42.45454" lon="2.85759">
        <ele>323.93</ele>
        <time>2021-10-29T16:58:51Z</time>
      </trkpt>
      <trkpt lat="42.45453" lon="2.8579">
        <ele>326.04</ele>
        <time>2021-10-29T16:58:51Z</time>
      </trkpt>
      <trkpt lat="42.45453" lon="2.85813">
        <ele>326.71</ele>
        <time>2021-10-29T16:58:51Z</time>
      </trkpt>
      <trkpt lat="42.45456" lon="2.85828">
        <ele>327.69</ele>
        <time>2021-10-29T16:58:51Z</time>
      </trkpt>
      <trkpt lat="42.45468" lon="2.8584">
        <ele>331.71</ele>
        <time>2021-10-29T16:58:51Z</time>
      </trkpt>
      <trkpt lat="42.45482" lon="2.85856">
        <ele>336.3</ele>
        <time>2021-10-29T16:58:51Z</time>
      </trkpt>
      <trkpt lat="42.4549" lon="2.85876">
        <ele>341.18</ele>
        <time>2021-10-29T16:58:51Z</time>
      </trkpt>
      <trkpt lat="42.45497" lon="2.85894">
        <ele>344.79</ele>
        <time>2021-10-29T16:58:51Z</time>
      </trkpt>
      <trkpt lat="42.45503" lon="2.8591">
        <ele>348.15</ele>
        <time>2021-10-29T16:58:51Z</time>
      </trkpt>
      <trkpt lat="42.45515" lon="2.85923">
        <ele>352.45</ele>
        <time>2021-10-29T16:58:51Z</time>
      </trkpt>
      <trkpt lat="42.45528" lon="2.85937">
        <ele>358</ele>
        <time>2021-10-29T16:58:51Z</time>
      </trkpt>
      <trkpt lat="42.45539" lon="2.85955">
        <ele>363.99</ele>
        <time>2021-10-29T16:58:51Z</time>
      </trkpt>
      <trkpt lat="42.45566" lon="2.85989">
        <ele>375.79</ele>
        <time>2021-10-29T16:58:51Z</time>
      </trkpt>
      <trkpt lat="42.45576" lon="2.86004">
        <ele>380.27</ele>
        <time>2021-10-29T16:58:51Z</time>
      </trkpt>
      <trkpt lat="42.45589" lon="2.86007">
        <ele>382.46</ele>
        <time>2021-10-29T16:58:51Z</time>
      </trkpt>
      <trkpt lat="42.45602" lon="2.86007">
        <ele>383.18</ele>
        <time>2021-10-29T16:58:51Z</time>
      </trkpt>
      <trkpt lat="42.45615" lon="2.86001">
        <ele>382.59</ele>
        <time>2021-10-29T16:58:51Z</time>
      </trkpt>
      <trkpt lat="42.45634" lon="2.85997">
        <ele>384.46</ele>
        <time>2021-10-29T16:58:51Z</time>
      </trkpt>
      <trkpt lat="42.45646" lon="2.85996">
        <ele>384.88</ele>
        <time>2021-10-29T16:58:51Z</time>
      </trkpt>
      <trkpt lat="42.45646" lon="2.86014">
        <ele>387.52</ele>
        <time>2021-10-29T16:58:51Z</time>
      </trkpt>
      <trkpt lat="42.45657" lon="2.86025">
        <ele>388.29</ele>
        <time>2021-10-29T16:58:51Z</time>
      </trkpt>
      <trkpt lat="42.45667" lon="2.8604">
        <ele>388.93</ele>
        <time>2021-10-29T16:58:51Z</time>
      </trkpt>
      <trkpt lat="42.45677" lon="2.86038">
        <ele>389.29</ele>
        <time>2021-10-29T16:58:51Z</time>
      </trkpt>
      <trkpt lat="42.45688" lon="2.86027">
        <ele>391.14</ele>
        <time>2021-10-29T16:58:51Z</time>
      </trkpt>
      <trkpt lat="42.45697" lon="2.86011">
        <ele>394.53</ele>
        <time>2021-10-29T16:58:51Z</time>
      </trkpt>
      <trkpt lat="42.45706" lon="2.85997">
        <ele>397.42</ele>
        <time>2021-10-29T16:58:51Z</time>
      </trkpt>
      <trkpt lat="42.45718" lon="2.85981">
        <ele>400.93</ele>
        <time>2021-10-29T16:58:51Z</time>
      </trkpt>
      <trkpt lat="42.45729" lon="2.85967">
        <ele>404.09</ele>
        <time>2021-10-29T16:58:51Z</time>
      </trkpt>
      <trkpt lat="42.45741" lon="2.85955">
        <ele>406.81</ele>
        <time>2021-10-29T16:58:51Z</time>
      </trkpt>
      <trkpt lat="42.45752" lon="2.85945">
        <ele>408.5</ele>
        <time>2021-10-29T16:58:51Z</time>
      </trkpt>
      <trkpt lat="42.45762" lon="2.85937">
        <ele>409.09</ele>
        <time>2021-10-29T16:58:51Z</time>
      </trkpt>
      <trkpt lat="42.45756" lon="2.85924">
        <ele>409.36</ele>
        <time>2021-10-29T16:58:51Z</time>
      </trkpt>
      <trkpt lat="42.45752" lon="2.85911">
        <ele>409.74</ele>
        <time>2021-10-29T16:58:51Z</time>
      </trkpt>
      <trkpt lat="42.45756" lon="2.85896">
        <ele>409.82</ele>
        <time>2021-10-29T16:58:51Z</time>
      </trkpt>
      <trkpt lat="42.45763" lon="2.85882">
        <ele>410.03</ele>
        <time>2021-10-29T16:58:51Z</time>
      </trkpt>
      <trkpt lat="42.45767" lon="2.85868">
        <ele>410.51</ele>
        <time>2021-10-29T16:58:51Z</time>
      </trkpt>
      <trkpt lat="42.45766" lon="2.85852">
        <ele>410.02</ele>
        <time>2021-10-29T16:58:51Z</time>
      </trkpt>
      <trkpt lat="42.45763" lon="2.85837">
        <ele>409.61</ele>
        <time>2021-10-29T16:58:51Z</time>
      </trkpt>
      <trkpt lat="42.45773" lon="2.85826">
        <ele>409.63</ele>
        <time>2021-10-29T16:58:51Z</time>
      </trkpt>
      <trkpt lat="42.45784" lon="2.85822">
        <ele>409.1</ele>
        <time>2021-10-29T16:58:51Z</time>
      </trkpt>
      <trkpt lat="42.45789" lon="2.85809">
        <ele>410.18</ele>
        <time>2021-10-29T16:58:51Z</time>
      </trkpt>
      <trkpt lat="42.45794" lon="2.85791">
        <ele>408.26</ele>
        <time>2021-10-29T16:58:51Z</time>
      </trkpt>
      <trkpt lat="42.45805" lon="2.85793">
        <ele>408.56</ele>
        <time>2021-10-29T16:58:51Z</time>
      </trkpt>
      <trkpt lat="42.45815" lon="2.85795">
        <ele>408.62</ele>
        <time>2021-10-29T16:58:51Z</time>
      </trkpt>
      <trkpt lat="42.45827" lon="2.85795">
        <ele>408.41</ele>
        <time>2021-10-29T16:58:51Z</time>
      </trkpt>
      <trkpt lat="42.45836" lon="2.85788">
        <ele>407.98</ele>
        <time>2021-10-29T16:58:51Z</time>
      </trkpt>
      <trkpt lat="42.45847" lon="2.85776">
        <ele>406.83</ele>
        <time>2021-10-29T16:58:51Z</time>
      </trkpt>
      <trkpt lat="42.45862" lon="2.8579">
        <ele>407.17</ele>
        <time>2021-10-29T16:58:51Z</time>
      </trkpt>
      <trkpt lat="42.45868" lon="2.85804">
        <ele>407.46</ele>
        <time>2021-10-29T16:58:51Z</time>
      </trkpt>
      <trkpt lat="42.45876" lon="2.85815">
        <ele>406.9</ele>
        <time>2021-10-29T16:58:51Z</time>
      </trkpt>
      <trkpt lat="42.45885" lon="2.85827">
        <ele>406.39</ele>
        <time>2021-10-29T16:58:51Z</time>
      </trkpt>
      <trkpt lat="42.45896" lon="2.85843">
        <ele>406.04</ele>
        <time>2021-10-29T16:58:51Z</time>
      </trkpt>
      <trkpt lat="42.45895" lon="2.85858">
        <ele>406.55</ele>
        <time>2021-10-29T16:58:51Z</time>
      </trkpt>
      <trkpt lat="42.45907" lon="2.85866">
        <ele>406.08</ele>
        <time>2021-10-29T16:58:51Z</time>
      </trkpt>
      <trkpt lat="42.45916" lon="2.85867">
        <ele>405.49</ele>
        <time>2021-10-29T16:58:51Z</time>
      </trkpt>
      <trkpt lat="42.45928" lon="2.85865">
        <ele>405.19</ele>
        <time>2021-10-29T16:58:51Z</time>
      </trkpt>
      <trkpt lat="42.45938" lon="2.85862">
        <ele>404.57</ele>
        <time>2021-10-29T16:58:51Z</time>
      </trkpt>
      <trkpt lat="42.45957" lon="2.85864">
        <ele>403.49</ele>
        <time>2021-10-29T16:58:51Z</time>
      </trkpt>
      <trkpt lat="42.45971" lon="2.85876">
        <ele>401.54</ele>
        <time>2021-10-29T16:58:51Z</time>
      </trkpt>
      <trkpt lat="42.45976" lon="2.85892">
        <ele>400.07</ele>
        <time>2021-10-29T16:58:51Z</time>
      </trkpt>
      <trkpt lat="42.45978" lon="2.85911">
        <ele>397.54</ele>
        <time>2021-10-29T16:58:51Z</time>
      </trkpt>
      <trkpt lat="42.45981" lon="2.85924">
        <ele>394.32</ele>
        <time>2021-10-29T16:58:51Z</time>
      </trkpt>
      <trkpt lat="42.45992" lon="2.85935">
        <ele>388.33</ele>
        <time>2021-10-29T16:58:51Z</time>
      </trkpt>
      <trkpt lat="42.46006" lon="2.85943">
        <ele>382.44</ele>
        <time>2021-10-29T16:58:51Z</time>
      </trkpt>
      <trkpt lat="42.46021" lon="2.85953">
        <ele>376.58</ele>
        <time>2021-10-29T16:58:51Z</time>
      </trkpt>
      <trkpt lat="42.46034" lon="2.85957">
        <ele>372.39</ele>
        <time>2021-10-29T16:58:51Z</time>
      </trkpt>
      <trkpt lat="42.46046" lon="2.85974">
        <ele>368.76</ele>
        <time>2021-10-29T16:58:51Z</time>
      </trkpt>
      <trkpt lat="42.46053" lon="2.85992">
        <ele>364.33</ele>
        <time>2021-10-29T16:58:51Z</time>
      </trkpt>
      <trkpt lat="42.46064" lon="2.86007">
        <ele>356.94</ele>
        <time>2021-10-29T16:58:51Z</time>
      </trkpt>
      <trkpt lat="42.46079" lon="2.86013">
        <ele>352.24</ele>
        <time>2021-10-29T16:58:51Z</time>
      </trkpt>
      <trkpt lat="42.46093" lon="2.86029">
        <ele>345.77</ele>
        <time>2021-10-29T16:58:51Z</time>
      </trkpt>
      <trkpt lat="42.46103" lon="2.8604">
        <ele>343.71</ele>
        <time>2021-10-29T16:58:51Z</time>
      </trkpt>
      <trkpt lat="42.4611" lon="2.86055">
        <ele>341.77</ele>
        <time>2021-10-29T16:58:51Z</time>
      </trkpt>
      <trkpt lat="42.46118" lon="2.86068">
        <ele>340.31</ele>
        <time>2021-10-29T16:58:51Z</time>
      </trkpt>
      <trkpt lat="42.46129" lon="2.86077">
        <ele>338.34</ele>
        <time>2021-10-29T16:58:51Z</time>
      </trkpt>
      <trkpt lat="42.4614" lon="2.86078">
        <ele>337.98</ele>
        <time>2021-10-29T16:58:51Z</time>
      </trkpt>
      <trkpt lat="42.46154" lon="2.86074">
        <ele>338.27</ele>
        <time>2021-10-29T16:58:51Z</time>
      </trkpt>
      <trkpt lat="42.46165" lon="2.86091">
        <ele>338.27</ele>
        <time>2021-10-29T16:58:51Z</time>
      </trkpt>
      <trkpt lat="42.4617" lon="2.86112">
        <ele>336.86</ele>
        <time>2021-10-29T16:58:51Z</time>
      </trkpt>
      <trkpt lat="42.46174" lon="2.86133">
        <ele>335.05</ele>
        <time>2021-10-29T16:58:51Z</time>
      </trkpt>
      <trkpt lat="42.46178" lon="2.86157">
        <ele>332.83</ele>
        <time>2021-10-29T16:58:51Z</time>
      </trkpt>
      <trkpt lat="42.46185" lon="2.86176">
        <ele>331.27</ele>
        <time>2021-10-29T16:58:51Z</time>
      </trkpt>
      <trkpt lat="42.46192" lon="2.86193">
        <ele>331.04</ele>
        <time>2021-10-29T16:58:51Z</time>
      </trkpt>
      <trkpt lat="42.462" lon="2.86208">
        <ele>329.27</ele>
        <time>2021-10-29T16:58:51Z</time>
      </trkpt>
      <trkpt lat="42.4621" lon="2.86215">
        <ele>327.78</ele>
        <time>2021-10-29T16:58:51Z</time>
      </trkpt>
      <trkpt lat="42.46228" lon="2.86215">
        <ele>325.47</ele>
        <time>2021-10-29T16:58:51Z</time>
      </trkpt>
      <trkpt lat="42.46242" lon="2.86203">
        <ele>324.5</ele>
        <time>2021-10-29T16:58:51Z</time>
      </trkpt>
      <trkpt lat="42.46257" lon="2.8619">
        <ele>322.74</ele>
        <time>2021-10-29T16:58:51Z</time>
      </trkpt>
      <trkpt lat="42.4627" lon="2.86179">
        <ele>320.94</ele>
        <time>2021-10-29T16:58:51Z</time>
      </trkpt>
      <trkpt lat="42.46287" lon="2.86166">
        <ele>319.77</ele>
        <time>2021-10-29T16:58:51Z</time>
      </trkpt>
      <trkpt lat="42.46302" lon="2.86151">
        <ele>318.31</ele>
        <time>2021-10-29T16:58:51Z</time>
      </trkpt>
      <trkpt lat="42.46317" lon="2.86134">
        <ele>315.69</ele>
        <time>2021-10-29T16:58:51Z</time>
      </trkpt>
      <trkpt lat="42.46328" lon="2.86118">
        <ele>314.49</ele>
        <time>2021-10-29T16:58:51Z</time>
      </trkpt>
      <trkpt lat="42.46337" lon="2.86102">
        <ele>313.51</ele>
        <time>2021-10-29T16:58:51Z</time>
      </trkpt>
      <trkpt lat="42.46346" lon="2.86085">
        <ele>312.21</ele>
        <time>2021-10-29T16:58:51Z</time>
      </trkpt>
      <trkpt lat="42.46348" lon="2.86066">
        <ele>312.32</ele>
        <time>2021-10-29T16:58:51Z</time>
      </trkpt>
      <trkpt lat="42.46355" lon="2.8605">
        <ele>310.07</ele>
        <time>2021-10-29T16:58:51Z</time>
      </trkpt>
      <trkpt lat="42.46365" lon="2.86054">
        <ele>307.96</ele>
        <time>2021-10-29T16:58:51Z</time>
      </trkpt>
      <trkpt lat="42.46369" lon="2.86075">
        <ele>305.99</ele>
        <time>2021-10-29T16:58:51Z</time>
      </trkpt>
      <trkpt lat="42.46375" lon="2.86092">
        <ele>304.31</ele>
        <time>2021-10-29T16:58:51Z</time>
      </trkpt>
      <trkpt lat="42.46389" lon="2.86104">
        <ele>301.81</ele>
        <time>2021-10-29T16:58:51Z</time>
      </trkpt>
      <trkpt lat="42.46398" lon="2.86118">
        <ele>300.38</ele>
        <time>2021-10-29T16:58:51Z</time>
      </trkpt>
      <trkpt lat="42.46411" lon="2.86127">
        <ele>299.99</ele>
        <time>2021-10-29T16:58:51Z</time>
      </trkpt>
      <trkpt lat="42.46424" lon="2.86139">
        <ele>299.83</ele>
        <time>2021-10-29T16:58:51Z</time>
      </trkpt>
      <trkpt lat="42.46434" lon="2.86149">
        <ele>300.01</ele>
        <time>2021-10-29T16:58:51Z</time>
      </trkpt>
      <trkpt lat="42.46443" lon="2.86161">
        <ele>299.65</ele>
        <time>2021-10-29T16:58:51Z</time>
      </trkpt>
      <trkpt lat="42.46443" lon="2.86179">
        <ele>298.75</ele>
        <time>2021-10-29T16:58:51Z</time>
      </trkpt>
      <trkpt lat="42.46443" lon="2.86196">
        <ele>298.15</ele>
        <time>2021-10-29T16:58:51Z</time>
      </trkpt>
      <trkpt lat="42.46443" lon="2.86211">
        <ele>297.36</ele>
        <time>2021-10-29T16:58:51Z</time>
      </trkpt>
      <trkpt lat="42.46443" lon="2.86226">
        <ele>296.05</ele>
        <time>2021-10-29T16:58:51Z</time>
      </trkpt>
      <trkpt lat="42.46454" lon="2.86233">
        <ele>294.75</ele>
        <time>2021-10-29T16:58:51Z</time>
      </trkpt>
      <trkpt lat="42.46469" lon="2.86232">
        <ele>293.96</ele>
        <time>2021-10-29T16:58:51Z</time>
      </trkpt>
      <trkpt lat="42.46483" lon="2.86231">
        <ele>293.07</ele>
        <time>2021-10-29T16:58:51Z</time>
      </trkpt>
      <trkpt lat="42.46497" lon="2.86231">
        <ele>292.54</ele>
        <time>2021-10-29T16:58:51Z</time>
      </trkpt>
      <trkpt lat="42.46511" lon="2.86232">
        <ele>291.64</ele>
        <time>2021-10-29T16:58:51Z</time>
      </trkpt>
      <trkpt lat="42.46524" lon="2.86239">
        <ele>289.51</ele>
        <time>2021-10-29T16:58:51Z</time>
      </trkpt>
      <trkpt lat="42.46524" lon="2.86256">
        <ele>287.56</ele>
        <time>2021-10-29T16:58:51Z</time>
      </trkpt>
      <trkpt lat="42.46523" lon="2.86276">
        <ele>285.97</ele>
        <time>2021-10-29T16:58:51Z</time>
      </trkpt>
      <trkpt lat="42.46523" lon="2.86291">
        <ele>284.6</ele>
        <time>2021-10-29T16:58:51Z</time>
      </trkpt>
      <trkpt lat="42.46525" lon="2.86322">
        <ele>283.37</ele>
        <time>2021-10-29T16:58:51Z</time>
      </trkpt>
      <trkpt lat="42.46547" lon="2.86321">
        <ele>281.92</ele>
        <time>2021-10-29T16:58:51Z</time>
      </trkpt>
      <trkpt lat="42.4656" lon="2.86321">
        <ele>280.99</ele>
        <time>2021-10-29T16:58:51Z</time>
      </trkpt>
      <trkpt lat="42.46572" lon="2.86318">
        <ele>279.78</ele>
        <time>2021-10-29T16:58:51Z</time>
      </trkpt>
      <trkpt lat="42.46583" lon="2.86314">
        <ele>278.27</ele>
        <time>2021-10-29T16:58:51Z</time>
      </trkpt>
      <trkpt lat="42.46595" lon="2.8631">
        <ele>278.12</ele>
        <time>2021-10-29T16:58:51Z</time>
      </trkpt>
      <trkpt lat="42.46605" lon="2.86324">
        <ele>279.28</ele>
        <time>2021-10-29T16:58:51Z</time>
      </trkpt>
      <trkpt lat="42.46617" lon="2.86333">
        <ele>281.07</ele>
        <time>2021-10-29T16:58:51Z</time>
      </trkpt>
      <trkpt lat="42.46633" lon="2.86334">
        <ele>279.31</ele>
        <time>2021-10-29T16:58:51Z</time>
      </trkpt>
      <trkpt lat="42.46648" lon="2.86335">
        <ele>279.46</ele>
        <time>2021-10-29T16:58:51Z</time>
      </trkpt>
      <trkpt lat="42.46661" lon="2.86338">
        <ele>278.92</ele>
        <time>2021-10-29T16:58:51Z</time>
      </trkpt>
      <trkpt lat="42.46674" lon="2.86351">
        <ele>280.39</ele>
        <time>2021-10-29T16:58:51Z</time>
      </trkpt>
      <trkpt lat="42.46686" lon="2.86362">
        <ele>279.77</ele>
        <time>2021-10-29T16:58:51Z</time>
      </trkpt>
      <trkpt lat="42.46691" lon="2.86378">
        <ele>278.66</ele>
        <time>2021-10-29T16:58:51Z</time>
      </trkpt>
      <trkpt lat="42.46686" lon="2.86398">
        <ele>280.54</ele>
        <time>2021-10-29T16:58:51Z</time>
      </trkpt>
      <trkpt lat="42.46678" lon="2.86415">
        <ele>283.95</ele>
        <time>2021-10-29T16:58:51Z</time>
      </trkpt>
      <trkpt lat="42.46677" lon="2.86437">
        <ele>283.29</ele>
        <time>2021-10-29T16:58:51Z</time>
      </trkpt>
      <trkpt lat="42.46678" lon="2.86461">
        <ele>282.11</ele>
        <time>2021-10-29T16:58:51Z</time>
      </trkpt>
      <trkpt lat="42.46678" lon="2.86493">
        <ele>282.58</ele>
        <time>2021-10-29T16:58:51Z</time>
      </trkpt>
      <trkpt lat="42.46669" lon="2.86516">
        <ele>286.02</ele>
        <time>2021-10-29T16:58:51Z</time>
      </trkpt>
      <trkpt lat="42.46657" lon="2.86537">
        <ele>288.11</ele>
        <time>2021-10-29T16:58:51Z</time>
      </trkpt>
      <trkpt lat="42.46648" lon="2.86547">
        <ele>291.15</ele>
        <time>2021-10-29T16:58:51Z</time>
      </trkpt>
      <trkpt lat="42.4664" lon="2.86571">
        <ele>294.89</ele>
        <time>2021-10-29T16:58:51Z</time>
      </trkpt>
      <trkpt lat="42.46631" lon="2.86589">
        <ele>297.71</ele>
        <time>2021-10-29T16:58:51Z</time>
      </trkpt>
      <trkpt lat="42.46617" lon="2.86606">
        <ele>301.2</ele>
        <time>2021-10-29T16:58:51Z</time>
      </trkpt>
      <trkpt lat="42.46621" lon="2.86644">
        <ele>305.76</ele>
        <time>2021-10-29T16:58:51Z</time>
      </trkpt>
      <trkpt lat="42.46612" lon="2.86652">
        <ele>309.1</ele>
        <time>2021-10-29T16:58:51Z</time>
      </trkpt>
      <trkpt lat="42.46602" lon="2.86624">
        <ele>308.35</ele>
        <time>2021-10-29T16:58:51Z</time>
      </trkpt>
      <trkpt lat="42.46589" lon="2.8659">
        <ele>312.96</ele>
        <time>2021-10-29T16:58:51Z</time>
      </trkpt>
      <trkpt lat="42.46574" lon="2.86605">
        <ele>314.97</ele>
        <time>2021-10-29T16:58:51Z</time>
      </trkpt>
      <trkpt lat="42.46574" lon="2.86632">
        <ele>318.18</ele>
        <time>2021-10-29T16:58:51Z</time>
      </trkpt>
      <trkpt lat="42.46574" lon="2.86663">
        <ele>319.56</ele>
        <time>2021-10-29T16:58:51Z</time>
      </trkpt>
      <trkpt lat="42.46576" lon="2.86678">
        <ele>320.57</ele>
        <time>2021-10-29T16:58:51Z</time>
      </trkpt>
      <trkpt lat="42.46591" lon="2.86701">
        <ele>326.12</ele>
        <time>2021-10-29T16:58:51Z</time>
      </trkpt>
      <trkpt lat="42.46597" lon="2.86721">
        <ele>331.99</ele>
        <time>2021-10-29T16:58:51Z</time>
      </trkpt>
      <trkpt lat="42.46602" lon="2.86737">
        <ele>337.47</ele>
        <time>2021-10-29T16:58:51Z</time>
      </trkpt>
      <trkpt lat="42.46611" lon="2.86756">
        <ele>344.87</ele>
        <time>2021-10-29T16:58:51Z</time>
      </trkpt>
      <trkpt lat="42.46606" lon="2.86782">
        <ele>346.97</ele>
        <time>2021-10-29T16:58:51Z</time>
      </trkpt>
      <trkpt lat="42.46604" lon="2.86824">
        <ele>350.11</ele>
        <time>2021-10-29T16:58:51Z</time>
      </trkpt>
      <trkpt lat="42.46605" lon="2.86856">
        <ele>353.34</ele>
        <time>2021-10-29T16:58:51Z</time>
      </trkpt>
      <trkpt lat="42.46604" lon="2.86894">
        <ele>359.48</ele>
        <time>2021-10-29T16:58:51Z</time>
      </trkpt>
      <trkpt lat="42.46599" lon="2.86911">
        <ele>361.32</ele>
        <time>2021-10-29T16:58:51Z</time>
      </trkpt>
      <trkpt lat="42.46599" lon="2.86941">
        <ele>364.52</ele>
        <time>2021-10-29T16:58:51Z</time>
      </trkpt>
      <trkpt lat="42.46599" lon="2.8697">
        <ele>367.63</ele>
        <time>2021-10-29T16:58:51Z</time>
      </trkpt>
      <trkpt lat="42.46606" lon="2.86993">
        <ele>372.73</ele>
        <time>2021-10-29T16:58:51Z</time>
      </trkpt>
      <trkpt lat="42.46614" lon="2.87015">
        <ele>376.09</ele>
        <time>2021-10-29T16:58:51Z</time>
      </trkpt>
      <trkpt lat="42.46623" lon="2.87036">
        <ele>380.06</ele>
        <time>2021-10-29T16:58:51Z</time>
      </trkpt>
      <trkpt lat="42.46624" lon="2.87062">
        <ele>382.81</ele>
        <time>2021-10-29T16:58:51Z</time>
      </trkpt>
      <trkpt lat="42.46628" lon="2.87099">
        <ele>388.11</ele>
        <time>2021-10-29T16:58:51Z</time>
      </trkpt>
      <trkpt lat="42.46633" lon="2.87078">
        <ele>387.29</ele>
        <time>2021-10-29T16:58:51Z</time>
      </trkpt>
      <trkpt lat="42.46639" lon="2.87043">
        <ele>386.59</ele>
        <time>2021-10-29T16:58:51Z</time>
      </trkpt>
      <trkpt lat="42.46644" lon="2.87019">
        <ele>387.08</ele>
        <time>2021-10-29T16:58:51Z</time>
      </trkpt>
      <trkpt lat="42.46663" lon="2.86997">
        <ele>390.21</ele>
        <time>2021-10-29T16:58:51Z</time>
      </trkpt>
      <trkpt lat="42.46678" lon="2.8698">
        <ele>392.73</ele>
        <time>2021-10-29T16:58:51Z</time>
      </trkpt>
      <trkpt lat="42.46691" lon="2.86966">
        <ele>394.11</ele>
        <time>2021-10-29T16:58:51Z</time>
      </trkpt>
      <trkpt lat="42.46709" lon="2.86952">
        <ele>395.87</ele>
        <time>2021-10-29T16:58:51Z</time>
      </trkpt>
      <trkpt lat="42.46723" lon="2.86941">
        <ele>396.73</ele>
        <time>2021-10-29T16:58:51Z</time>
      </trkpt>
      <trkpt lat="42.46735" lon="2.86941">
        <ele>398.8</ele>
        <time>2021-10-29T16:58:51Z</time>
      </trkpt>
      <trkpt lat="42.46738" lon="2.86957">
        <ele>403.96</ele>
        <time>2021-10-29T16:58:51Z</time>
      </trkpt>
      <trkpt lat="42.46727" lon="2.86967">
        <ele>404.16</ele>
        <time>2021-10-29T16:58:51Z</time>
      </trkpt>
      <trkpt lat="42.46714" lon="2.86987">
        <ele>405.88</ele>
        <time>2021-10-29T16:58:51Z</time>
      </trkpt>
      <trkpt lat="42.46706" lon="2.87008">
        <ele>407.4</ele>
        <time>2021-10-29T16:58:51Z</time>
      </trkpt>
      <trkpt lat="42.467" lon="2.87028">
        <ele>408.63</ele>
        <time>2021-10-29T16:58:51Z</time>
      </trkpt>
      <trkpt lat="42.46697" lon="2.87067">
        <ele>412.39</ele>
        <time>2021-10-29T16:58:51Z</time>
      </trkpt>
      <trkpt lat="42.46697" lon="2.87089">
        <ele>414.17</ele>
        <time>2021-10-29T16:58:51Z</time>
      </trkpt>
      <trkpt lat="42.46696" lon="2.87109">
        <ele>415.97</ele>
        <time>2021-10-29T16:58:51Z</time>
      </trkpt>
      <trkpt lat="42.46686" lon="2.87122">
        <ele>414.96</ele>
        <time>2021-10-29T16:58:51Z</time>
      </trkpt>
      <trkpt lat="42.46677" lon="2.87136">
        <ele>415.43</ele>
        <time>2021-10-29T16:58:51Z</time>
      </trkpt>
      <trkpt lat="42.46673" lon="2.87153">
        <ele>417.81</ele>
        <time>2021-10-29T16:58:51Z</time>
      </trkpt>
      <trkpt lat="42.46666" lon="2.8717">
        <ele>417.83</ele>
        <time>2021-10-29T16:58:51Z</time>
      </trkpt>
      <trkpt lat="42.46661" lon="2.87192">
        <ele>419.85</ele>
        <time>2021-10-29T16:58:51Z</time>
      </trkpt>
      <trkpt lat="42.46647" lon="2.87212">
        <ele>418.04</ele>
        <time>2021-10-29T16:58:51Z</time>
      </trkpt>
      <trkpt lat="42.46637" lon="2.87242">
        <ele>420.83</ele>
        <time>2021-10-29T16:58:51Z</time>
      </trkpt>
      <trkpt lat="42.46629" lon="2.87268">
        <ele>423.33</ele>
        <time>2021-10-29T16:58:51Z</time>
      </trkpt>
      <trkpt lat="42.46625" lon="2.87284">
        <ele>425.72</ele>
        <time>2021-10-29T16:58:51Z</time>
      </trkpt>
      <trkpt lat="42.46617" lon="2.87315">
        <ele>428.58</ele>
        <time>2021-10-29T16:58:51Z</time>
      </trkpt>
      <trkpt lat="42.46615" lon="2.87342">
        <ele>433.74</ele>
        <time>2021-10-29T16:58:51Z</time>
      </trkpt>
      <trkpt lat="42.46611" lon="2.87373">
        <ele>438.97</ele>
        <time>2021-10-29T16:58:51Z</time>
      </trkpt>
      <trkpt lat="42.46605" lon="2.87399">
        <ele>442.73</ele>
        <time>2021-10-29T16:58:51Z</time>
      </trkpt>
      <trkpt lat="42.46598" lon="2.87418">
        <ele>445.72</ele>
        <time>2021-10-29T16:58:51Z</time>
      </trkpt>
      <trkpt lat="42.46587" lon="2.87438">
        <ele>448.28</ele>
        <time>2021-10-29T16:58:51Z</time>
      </trkpt>
      <trkpt lat="42.46571" lon="2.87463">
        <ele>452.12</ele>
        <time>2021-10-29T16:58:51Z</time>
      </trkpt>
      <trkpt lat="42.46559" lon="2.87488">
        <ele>456.39</ele>
        <time>2021-10-29T16:58:51Z</time>
      </trkpt>
      <trkpt lat="42.46544" lon="2.87503">
        <ele>457.88</ele>
        <time>2021-10-29T16:58:51Z</time>
      </trkpt>
      <trkpt lat="42.46526" lon="2.8752">
        <ele>462.34</ele>
        <time>2021-10-29T16:58:51Z</time>
      </trkpt>
      <trkpt lat="42.46516" lon="2.87532">
        <ele>465.13</ele>
        <time>2021-10-29T16:58:51Z</time>
      </trkpt>
      <trkpt lat="42.46498" lon="2.87542">
        <ele>468.06</ele>
        <time>2021-10-29T16:58:51Z</time>
      </trkpt>
      <trkpt lat="42.46486" lon="2.87548">
        <ele>470.24</ele>
        <time>2021-10-29T16:58:51Z</time>
      </trkpt>
      <trkpt lat="42.46462" lon="2.87562">
        <ele>473.78</ele>
        <time>2021-10-29T16:58:51Z</time>
      </trkpt>
      <trkpt lat="42.46474" lon="2.87571">
        <ele>474.44</ele>
        <time>2021-10-29T16:58:51Z</time>
      </trkpt>
      <trkpt lat="42.46493" lon="2.87577">
        <ele>475.51</ele>
        <time>2021-10-29T16:58:51Z</time>
      </trkpt>
      <trkpt lat="42.46488" lon="2.8759">
        <ele>477.77</ele>
        <time>2021-10-29T16:58:51Z</time>
      </trkpt>
      <trkpt lat="42.46475" lon="2.87601">
        <ele>480.3</ele>
        <time>2021-10-29T16:58:51Z</time>
      </trkpt>
      <trkpt lat="42.4646" lon="2.8761">
        <ele>481.22</ele>
        <time>2021-10-29T16:58:51Z</time>
      </trkpt>
      <trkpt lat="42.46452" lon="2.87623">
        <ele>482.9</ele>
        <time>2021-10-29T16:58:51Z</time>
      </trkpt>
      <trkpt lat="42.46452" lon="2.87643">
        <ele>487.24</ele>
        <time>2021-10-29T16:58:51Z</time>
      </trkpt>
      <trkpt lat="42.46449" lon="2.87661">
        <ele>490.61</ele>
        <time>2021-10-29T16:58:51Z</time>
      </trkpt>
      <trkpt lat="42.46439" lon="2.87682">
        <ele>492.55</ele>
        <time>2021-10-29T16:58:51Z</time>
      </trkpt>
      <trkpt lat="42.46439" lon="2.87709">
        <ele>498.19</ele>
        <time>2021-10-29T16:58:51Z</time>
      </trkpt>
      <trkpt lat="42.46439" lon="2.87732">
        <ele>502.94</ele>
        <time>2021-10-29T16:58:51Z</time>
      </trkpt>
      <trkpt lat="42.46439" lon="2.8775">
        <ele>506.3</ele>
        <time>2021-10-29T16:58:51Z</time>
      </trkpt>
      <trkpt lat="42.46445" lon="2.87771">
        <ele>510.4</ele>
        <time>2021-10-29T16:58:51Z</time>
      </trkpt>
      <trkpt lat="42.4644" lon="2.87812">
        <ele>516.03</ele>
        <time>2021-10-29T16:58:51Z</time>
      </trkpt>
      <trkpt lat="42.46435" lon="2.87841">
        <ele>517.78</ele>
        <time>2021-10-29T16:58:51Z</time>
      </trkpt>
      <trkpt lat="42.46423" lon="2.8787">
        <ele>521.1</ele>
        <time>2021-10-29T16:58:51Z</time>
      </trkpt>
      <trkpt lat="42.46416" lon="2.87887">
        <ele>521.14</ele>
        <time>2021-10-29T16:58:51Z</time>
      </trkpt>
      <trkpt lat="42.4641" lon="2.87908">
        <ele>519.67</ele>
        <time>2021-10-29T16:58:51Z</time>
      </trkpt>
      <trkpt lat="42.46404" lon="2.87926">
        <ele>520.62</ele>
        <time>2021-10-29T16:58:51Z</time>
      </trkpt>
      <trkpt lat="42.46398" lon="2.87948">
        <ele>522.22</ele>
        <time>2021-10-29T16:58:51Z</time>
      </trkpt>
      <trkpt lat="42.46398" lon="2.8797">
        <ele>521.19</ele>
        <time>2021-10-29T16:58:51Z</time>
      </trkpt>
      <trkpt lat="42.46398" lon="2.87983">
        <ele>521.33</ele>
        <time>2021-10-29T16:58:51Z</time>
      </trkpt>
      <trkpt lat="42.46389" lon="2.88002">
        <ele>526.96</ele>
        <time>2021-10-29T16:58:51Z</time>
      </trkpt>
      <trkpt lat="42.46382" lon="2.88016">
        <ele>530.46</ele>
        <time>2021-10-29T16:58:51Z</time>
      </trkpt>
      <trkpt lat="42.4637" lon="2.88045">
        <ele>533.58</ele>
        <time>2021-10-29T16:58:51Z</time>
      </trkpt>
      <trkpt lat="42.46363" lon="2.88061">
        <ele>534.72</ele>
        <time>2021-10-29T16:58:51Z</time>
      </trkpt>
      <trkpt lat="42.46356" lon="2.88081">
        <ele>535.24</ele>
        <time>2021-10-29T16:58:51Z</time>
      </trkpt>
      <trkpt lat="42.46345" lon="2.88101">
        <ele>537.87</ele>
        <time>2021-10-29T16:58:51Z</time>
      </trkpt>
      <trkpt lat="42.46328" lon="2.88114">
        <ele>543.44</ele>
        <time>2021-10-29T16:58:51Z</time>
      </trkpt>
      <trkpt lat="42.4631" lon="2.88126">
        <ele>548.23</ele>
        <time>2021-10-29T16:58:51Z</time>
      </trkpt>
      <trkpt lat="42.46296" lon="2.8814">
        <ele>552.45</ele>
        <time>2021-10-29T16:58:51Z</time>
      </trkpt>
      <trkpt lat="42.46288" lon="2.8816">
        <ele>553.57</ele>
        <time>2021-10-29T16:58:51Z</time>
      </trkpt>
      <trkpt lat="42.46286" lon="2.8818">
        <ele>551.67</ele>
        <time>2021-10-29T16:58:51Z</time>
      </trkpt>
      <trkpt lat="42.46279" lon="2.88203">
        <ele>553.11</ele>
        <time>2021-10-29T16:58:51Z</time>
      </trkpt>
      <trkpt lat="42.46274" lon="2.88221">
        <ele>552.9</ele>
        <time>2021-10-29T16:58:51Z</time>
      </trkpt>
      <trkpt lat="42.46261" lon="2.88235">
        <ele>555.22</ele>
        <time>2021-10-29T16:58:51Z</time>
      </trkpt>
      <trkpt lat="42.46249" lon="2.8825">
        <ele>558.28</ele>
        <time>2021-10-29T16:58:51Z</time>
      </trkpt>
      <trkpt lat="42.4624" lon="2.88274">
        <ele>559.72</ele>
        <time>2021-10-29T16:58:51Z</time>
      </trkpt>
      <trkpt lat="42.46234" lon="2.88293">
        <ele>561.09</ele>
        <time>2021-10-29T16:58:51Z</time>
      </trkpt>
      <trkpt lat="42.46228" lon="2.8831">
        <ele>563.8</ele>
        <time>2021-10-29T16:58:51Z</time>
      </trkpt>
      <trkpt lat="42.46227" lon="2.88326">
        <ele>565.37</ele>
        <time>2021-10-29T16:58:51Z</time>
      </trkpt>
      <trkpt lat="42.4623" lon="2.8835">
        <ele>566.94</ele>
        <time>2021-10-29T16:58:51Z</time>
      </trkpt>
      <trkpt lat="42.46235" lon="2.8837">
        <ele>566.06</ele>
        <time>2021-10-29T16:58:51Z</time>
      </trkpt>
      <trkpt lat="42.46233" lon="2.88398">
        <ele>569.01</ele>
        <time>2021-10-29T16:58:51Z</time>
      </trkpt>
      <trkpt lat="42.46231" lon="2.88416">
        <ele>571.3</ele>
        <time>2021-10-29T16:58:51Z</time>
      </trkpt>
      <trkpt lat="42.4623" lon="2.88439">
        <ele>572.53</ele>
        <time>2021-10-29T16:58:51Z</time>
      </trkpt>
      <trkpt lat="42.46223" lon="2.8846">
        <ele>573.37</ele>
        <time>2021-10-29T16:58:51Z</time>
      </trkpt>
      <trkpt lat="42.46211" lon="2.8848">
        <ele>575.32</ele>
        <time>2021-10-29T16:58:51Z</time>
      </trkpt>
      <trkpt lat="42.462" lon="2.8849">
        <ele>577.41</ele>
        <time>2021-10-29T16:58:51Z</time>
      </trkpt>
      <trkpt lat="42.46187" lon="2.88505">
        <ele>578.81</ele>
        <time>2021-10-29T16:58:51Z</time>
      </trkpt>
      <trkpt lat="42.46173" lon="2.88514">
        <ele>581.21</ele>
        <time>2021-10-29T16:58:51Z</time>
      </trkpt>
      <trkpt lat="42.46158" lon="2.88533">
        <ele>583.78</ele>
        <time>2021-10-29T16:58:51Z</time>
      </trkpt>
      <trkpt lat="42.46153" lon="2.8855">
        <ele>584.38</ele>
        <time>2021-10-29T16:58:51Z</time>
      </trkpt>
      <trkpt lat="42.46142" lon="2.88573">
        <ele>586.36</ele>
        <time>2021-10-29T16:58:51Z</time>
      </trkpt>
      <trkpt lat="42.46133" lon="2.886">
        <ele>588.39</ele>
        <time>2021-10-29T16:58:51Z</time>
      </trkpt>
      <trkpt lat="42.46126" lon="2.88625">
        <ele>590.97</ele>
        <time>2021-10-29T16:58:51Z</time>
      </trkpt>
      <trkpt lat="42.46119" lon="2.8865">
        <ele>592.96</ele>
        <time>2021-10-29T16:58:51Z</time>
      </trkpt>
      <trkpt lat="42.46114" lon="2.88674">
        <ele>594.49</ele>
        <time>2021-10-29T16:58:51Z</time>
      </trkpt>
      <trkpt lat="42.46109" lon="2.88698">
        <ele>596.02</ele>
        <time>2021-10-29T16:58:51Z</time>
      </trkpt>
      <trkpt lat="42.46101" lon="2.88725">
        <ele>596.91</ele>
        <time>2021-10-29T16:58:51Z</time>
      </trkpt>
      <trkpt lat="42.46093" lon="2.88747">
        <ele>598.45</ele>
        <time>2021-10-29T16:58:51Z</time>
      </trkpt>
      <trkpt lat="42.4609" lon="2.88764">
        <ele>599</ele>
        <time>2021-10-29T16:58:51Z</time>
      </trkpt>
      <trkpt lat="42.46087" lon="2.8878">
        <ele>599.69</ele>
        <time>2021-10-29T16:58:51Z</time>
      </trkpt>
      <trkpt lat="42.46091" lon="2.88799">
        <ele>600.05</ele>
        <time>2021-10-29T16:58:51Z</time>
      </trkpt>
      <trkpt lat="42.46106" lon="2.88809">
        <ele>601.09</ele>
        <time>2021-10-29T16:58:51Z</time>
      </trkpt>
      <trkpt lat="42.46123" lon="2.88806">
        <ele>601.4</ele>
        <time>2021-10-29T16:58:51Z</time>
      </trkpt>
      <trkpt lat="42.46139" lon="2.88796">
        <ele>599.99</ele>
        <time>2021-10-29T16:58:51Z</time>
      </trkpt>
      <trkpt lat="42.46161" lon="2.88791">
        <ele>601.83</ele>
        <time>2021-10-29T16:58:51Z</time>
      </trkpt>
      <trkpt lat="42.46177" lon="2.88784">
        <ele>601.96</ele>
        <time>2021-10-29T16:58:51Z</time>
      </trkpt>
      <trkpt lat="42.46202" lon="2.88776">
        <ele>600.09</ele>
        <time>2021-10-29T16:58:51Z</time>
      </trkpt>
      <trkpt lat="42.46217" lon="2.8878">
        <ele>600.51</ele>
        <time>2021-10-29T16:58:51Z</time>
      </trkpt>
      <trkpt lat="42.4623" lon="2.88789">
        <ele>601.87</ele>
        <time>2021-10-29T16:58:51Z</time>
      </trkpt>
      <trkpt lat="42.46245" lon="2.88793">
        <ele>601.12</ele>
        <time>2021-10-29T16:58:51Z</time>
      </trkpt>
      <trkpt lat="42.46261" lon="2.88808">
        <ele>602.71</ele>
        <time>2021-10-29T16:58:51Z</time>
      </trkpt>
      <trkpt lat="42.46276" lon="2.88822">
        <ele>601.9</ele>
        <time>2021-10-29T16:58:51Z</time>
      </trkpt>
      <trkpt lat="42.46292" lon="2.88844">
        <ele>601.87</ele>
        <time>2021-10-29T16:58:51Z</time>
      </trkpt>
      <trkpt lat="42.46294" lon="2.88859">
        <ele>601.76</ele>
        <time>2021-10-29T16:58:51Z</time>
      </trkpt>
      <trkpt lat="42.4629" lon="2.88886">
        <ele>601.46</ele>
        <time>2021-10-29T16:58:51Z</time>
      </trkpt>
      <trkpt lat="42.46283" lon="2.8891">
        <ele>601.17</ele>
        <time>2021-10-29T16:58:51Z</time>
      </trkpt>
      <trkpt lat="42.46268" lon="2.88939">
        <ele>601.88</ele>
        <time>2021-10-29T16:58:51Z</time>
      </trkpt>
      <trkpt lat="42.46261" lon="2.88959">
        <ele>602.01</ele>
        <time>2021-10-29T16:58:51Z</time>
      </trkpt>
      <trkpt lat="42.46252" lon="2.88978">
        <ele>603.39</ele>
        <time>2021-10-29T16:58:51Z</time>
      </trkpt>
      <trkpt lat="42.46248" lon="2.89">
        <ele>604.4</ele>
        <time>2021-10-29T16:58:51Z</time>
      </trkpt>
      <trkpt lat="42.46253" lon="2.89021">
        <ele>604.51</ele>
        <time>2021-10-29T16:58:51Z</time>
      </trkpt>
      <trkpt lat="42.46262" lon="2.89051">
        <ele>605.26</ele>
        <time>2021-10-29T16:58:51Z</time>
      </trkpt>
      <trkpt lat="42.46266" lon="2.89073">
        <ele>605.21</ele>
        <time>2021-10-29T16:58:51Z</time>
      </trkpt>
      <trkpt lat="42.46267" lon="2.89103">
        <ele>606.38</ele>
        <time>2021-10-29T16:58:51Z</time>
      </trkpt>
      <trkpt lat="42.46269" lon="2.89131">
        <ele>606.37</ele>
        <time>2021-10-29T16:58:51Z</time>
      </trkpt>
      <trkpt lat="42.46269" lon="2.8916">
        <ele>607.44</ele>
        <time>2021-10-29T16:58:51Z</time>
      </trkpt>
      <trkpt lat="42.46269" lon="2.89177">
        <ele>607.38</ele>
        <time>2021-10-29T16:58:51Z</time>
      </trkpt>
      <trkpt lat="42.46269" lon="2.89198">
        <ele>606.38</ele>
        <time>2021-10-29T16:58:51Z</time>
      </trkpt>
      <trkpt lat="42.46267" lon="2.89222">
        <ele>605.71</ele>
        <time>2021-10-29T16:58:51Z</time>
      </trkpt>
      <trkpt lat="42.46265" lon="2.89241">
        <ele>605.2</ele>
        <time>2021-10-29T16:58:51Z</time>
      </trkpt>
      <trkpt lat="42.46264" lon="2.89262">
        <ele>606.13</ele>
        <time>2021-10-29T16:58:51Z</time>
      </trkpt>
      <trkpt lat="42.46266" lon="2.89287">
        <ele>607.47</ele>
        <time>2021-10-29T16:58:51Z</time>
      </trkpt>
      <trkpt lat="42.46272" lon="2.89312">
        <ele>607.07</ele>
        <time>2021-10-29T16:58:51Z</time>
      </trkpt>
      <trkpt lat="42.46276" lon="2.89341">
        <ele>605.63</ele>
        <time>2021-10-29T16:58:51Z</time>
      </trkpt>
      <trkpt lat="42.46263" lon="2.8936">
        <ele>608.02</ele>
        <time>2021-10-29T16:58:51Z</time>
      </trkpt>
      <trkpt lat="42.46253" lon="2.8938">
        <ele>607.1</ele>
        <time>2021-10-29T16:58:51Z</time>
      </trkpt>
      <trkpt lat="42.46239" lon="2.89397">
        <ele>609.37</ele>
        <time>2021-10-29T16:58:51Z</time>
      </trkpt>
      <trkpt lat="42.46233" lon="2.89414">
        <ele>609.11</ele>
        <time>2021-10-29T16:58:51Z</time>
      </trkpt>
      <trkpt lat="42.46231" lon="2.89428">
        <ele>608.5</ele>
        <time>2021-10-29T16:58:51Z</time>
      </trkpt>
      <trkpt lat="42.46229" lon="2.89444">
        <ele>608.7</ele>
        <time>2021-10-29T16:58:51Z</time>
      </trkpt>
      <trkpt lat="42.46227" lon="2.89462">
        <ele>609.59</ele>
        <time>2021-10-29T16:58:51Z</time>
      </trkpt>
      <trkpt lat="42.46228" lon="2.89483">
        <ele>609.69</ele>
        <time>2021-10-29T16:58:51Z</time>
      </trkpt>
      <trkpt lat="42.4623" lon="2.89505">
        <ele>609.94</ele>
        <time>2021-10-29T16:58:51Z</time>
      </trkpt>
      <trkpt lat="42.46235" lon="2.89528">
        <ele>608.98</ele>
        <time>2021-10-29T16:58:51Z</time>
      </trkpt>
      <trkpt lat="42.46238" lon="2.89545">
        <ele>607.78</ele>
        <time>2021-10-29T16:58:51Z</time>
      </trkpt>
      <trkpt lat="42.4623" lon="2.89569">
        <ele>609.16</ele>
        <time>2021-10-29T16:58:51Z</time>
      </trkpt>
      <trkpt lat="42.46217" lon="2.89581">
        <ele>609.6</ele>
        <time>2021-10-29T16:58:51Z</time>
      </trkpt>
      <trkpt lat="42.46199" lon="2.89594">
        <ele>609.82</ele>
        <time>2021-10-29T16:58:51Z</time>
      </trkpt>
      <trkpt lat="42.46185" lon="2.89608">
        <ele>611.41</ele>
        <time>2021-10-29T16:58:51Z</time>
      </trkpt>
      <trkpt lat="42.46177" lon="2.8963">
        <ele>612.04</ele>
        <time>2021-10-29T16:58:51Z</time>
      </trkpt>
      <trkpt lat="42.46173" lon="2.89649">
        <ele>611.38</ele>
        <time>2021-10-29T16:58:51Z</time>
      </trkpt>
      <trkpt lat="42.46163" lon="2.89664">
        <ele>611.58</ele>
        <time>2021-10-29T16:58:51Z</time>
      </trkpt>
      <trkpt lat="42.46152" lon="2.89681">
        <ele>611.62</ele>
        <time>2021-10-29T16:58:51Z</time>
      </trkpt>
      <trkpt lat="42.46144" lon="2.89696">
        <ele>611.62</ele>
        <time>2021-10-29T16:58:51Z</time>
      </trkpt>
      <trkpt lat="42.46135" lon="2.89725">
        <ele>610.54</ele>
        <time>2021-10-29T16:58:51Z</time>
      </trkpt>
      <trkpt lat="42.46126" lon="2.89749">
        <ele>612</ele>
        <time>2021-10-29T16:58:51Z</time>
      </trkpt>
      <trkpt lat="42.4612" lon="2.8977">
        <ele>612.83</ele>
        <time>2021-10-29T16:58:51Z</time>
      </trkpt>
      <trkpt lat="42.46113" lon="2.89794">
        <ele>612.07</ele>
        <time>2021-10-29T16:58:51Z</time>
      </trkpt>
      <trkpt lat="42.46105" lon="2.89817">
        <ele>612.45</ele>
        <time>2021-10-29T16:58:51Z</time>
      </trkpt>
      <trkpt lat="42.46094" lon="2.89845">
        <ele>615.25</ele>
        <time>2021-10-29T16:58:51Z</time>
      </trkpt>
      <trkpt lat="42.46092" lon="2.89863">
        <ele>615.96</ele>
        <time>2021-10-29T16:58:51Z</time>
      </trkpt>
      <trkpt lat="42.46097" lon="2.89896">
        <ele>615.29</ele>
        <time>2021-10-29T16:58:51Z</time>
      </trkpt>
      <trkpt lat="42.46098" lon="2.8992">
        <ele>615.83</ele>
        <time>2021-10-29T16:58:51Z</time>
      </trkpt>
      <trkpt lat="42.46097" lon="2.89939">
        <ele>615.66</ele>
        <time>2021-10-29T16:58:51Z</time>
      </trkpt>
      <trkpt lat="42.46095" lon="2.89956">
        <ele>615.37</ele>
        <time>2021-10-29T16:58:51Z</time>
      </trkpt>
      <trkpt lat="42.46082" lon="2.8998">
        <ele>616.87</ele>
        <time>2021-10-29T16:58:51Z</time>
      </trkpt>
      <trkpt lat="42.4606" lon="2.90008">
        <ele>615.98</ele>
        <time>2021-10-29T16:58:51Z</time>
      </trkpt>
      <trkpt lat="42.46046" lon="2.90017">
        <ele>617.44</ele>
        <time>2021-10-29T16:58:51Z</time>
      </trkpt>
      <trkpt lat="42.46036" lon="2.90024">
        <ele>617.55</ele>
        <time>2021-10-29T16:58:51Z</time>
      </trkpt>
      <trkpt lat="42.46028" lon="2.90037">
        <ele>617.59</ele>
        <time>2021-10-29T16:58:51Z</time>
      </trkpt>
      <trkpt lat="42.46028" lon="2.90055">
        <ele>616.41</ele>
        <time>2021-10-29T16:58:51Z</time>
      </trkpt>
      <trkpt lat="42.46022" lon="2.90074">
        <ele>617.28</ele>
        <time>2021-10-29T16:58:51Z</time>
      </trkpt>
      <trkpt lat="42.46" lon="2.90086">
        <ele>618.37</ele>
        <time>2021-10-29T16:58:51Z</time>
      </trkpt>
      <trkpt lat="42.45983" lon="2.90092">
        <ele>619.03</ele>
        <time>2021-10-29T16:58:51Z</time>
      </trkpt>
      <trkpt lat="42.45961" lon="2.90107">
        <ele>618.43</ele>
        <time>2021-10-29T16:58:51Z</time>
      </trkpt>
      <trkpt lat="42.45949" lon="2.90123">
        <ele>616.86</ele>
        <time>2021-10-29T16:58:51Z</time>
      </trkpt>
      <trkpt lat="42.45935" lon="2.90141">
        <ele>618.17</ele>
        <time>2021-10-29T16:58:51Z</time>
      </trkpt>
      <trkpt lat="42.45928" lon="2.90158">
        <ele>618.38</ele>
        <time>2021-10-29T16:58:51Z</time>
      </trkpt>
      <trkpt lat="42.45927" lon="2.90178">
        <ele>618.11</ele>
        <time>2021-10-29T16:58:51Z</time>
      </trkpt>
      <trkpt lat="42.45927" lon="2.90201">
        <ele>618.12</ele>
        <time>2021-10-29T16:58:51Z</time>
      </trkpt>
      <trkpt lat="42.45933" lon="2.90225">
        <ele>619.46</ele>
        <time>2021-10-29T16:58:51Z</time>
      </trkpt>
      <trkpt lat="42.45946" lon="2.90254">
        <ele>620.88</ele>
        <time>2021-10-29T16:58:51Z</time>
      </trkpt>
      <trkpt lat="42.45957" lon="2.90272">
        <ele>620.01</ele>
        <time>2021-10-29T16:58:51Z</time>
      </trkpt>
      <trkpt lat="42.45968" lon="2.90294">
        <ele>620.32</ele>
        <time>2021-10-29T16:58:51Z</time>
      </trkpt>
      <trkpt lat="42.45973" lon="2.90317">
        <ele>621.25</ele>
        <time>2021-10-29T16:58:51Z</time>
      </trkpt>
      <trkpt lat="42.45968" lon="2.90339">
        <ele>621.69</ele>
        <time>2021-10-29T16:58:51Z</time>
      </trkpt>
      <trkpt lat="42.45962" lon="2.9037">
        <ele>621.79</ele>
        <time>2021-10-29T16:58:51Z</time>
      </trkpt>
      <trkpt lat="42.45955" lon="2.90382">
        <ele>622.47</ele>
        <time>2021-10-29T16:58:51Z</time>
      </trkpt>
      <trkpt lat="42.45943" lon="2.9039">
        <ele>622.34</ele>
        <time>2021-10-29T16:58:51Z</time>
      </trkpt>
      <trkpt lat="42.45927" lon="2.90397">
        <ele>622.64</ele>
        <time>2021-10-29T16:58:51Z</time>
      </trkpt>
      <trkpt lat="42.45914" lon="2.90405">
        <ele>623.58</ele>
        <time>2021-10-29T16:58:51Z</time>
      </trkpt>
      <trkpt lat="42.45904" lon="2.90422">
        <ele>623.78</ele>
        <time>2021-10-29T16:58:51Z</time>
      </trkpt>
      <trkpt lat="42.459" lon="2.9044">
        <ele>624.12</ele>
        <time>2021-10-29T16:58:51Z</time>
      </trkpt>
      <trkpt lat="42.45901" lon="2.90458">
        <ele>625.36</ele>
        <time>2021-10-29T16:58:51Z</time>
      </trkpt>
      <trkpt lat="42.45913" lon="2.90473">
        <ele>624.14</ele>
        <time>2021-10-29T16:58:51Z</time>
      </trkpt>
      <trkpt lat="42.45923" lon="2.90499">
        <ele>625.54</ele>
        <time>2021-10-29T16:58:51Z</time>
      </trkpt>
      <trkpt lat="42.45926" lon="2.90519">
        <ele>625.1</ele>
        <time>2021-10-29T16:58:51Z</time>
      </trkpt>
      <trkpt lat="42.45926" lon="2.90549">
        <ele>625.55</ele>
        <time>2021-10-29T16:58:51Z</time>
      </trkpt>
      <trkpt lat="42.45925" lon="2.90575">
        <ele>625.66</ele>
        <time>2021-10-29T16:58:51Z</time>
      </trkpt>
      <trkpt lat="42.45923" lon="2.90602">
        <ele>626.59</ele>
        <time>2021-10-29T16:58:51Z</time>
      </trkpt>
      <trkpt lat="42.45923" lon="2.90624">
        <ele>626.85</ele>
        <time>2021-10-29T16:58:51Z</time>
      </trkpt>
      <trkpt lat="42.45932" lon="2.90643">
        <ele>627.44</ele>
        <time>2021-10-29T16:58:51Z</time>
      </trkpt>
      <trkpt lat="42.45947" lon="2.9065">
        <ele>627.91</ele>
        <time>2021-10-29T16:58:51Z</time>
      </trkpt>
      <trkpt lat="42.45965" lon="2.90655">
        <ele>628.03</ele>
        <time>2021-10-29T16:58:51Z</time>
      </trkpt>
      <trkpt lat="42.45983" lon="2.90659">
        <ele>627.59</ele>
        <time>2021-10-29T16:58:51Z</time>
      </trkpt>
      <trkpt lat="42.45997" lon="2.90678">
        <ele>629.26</ele>
        <time>2021-10-29T16:58:51Z</time>
      </trkpt>
      <trkpt lat="42.46014" lon="2.90697">
        <ele>629.26</ele>
        <time>2021-10-29T16:58:51Z</time>
      </trkpt>
      <trkpt lat="42.46031" lon="2.90711">
        <ele>628.87</ele>
        <time>2021-10-29T16:58:51Z</time>
      </trkpt>
      <trkpt lat="42.46049" lon="2.90728">
        <ele>630.62</ele>
        <time>2021-10-29T16:58:51Z</time>
      </trkpt>
      <trkpt lat="42.46068" lon="2.90745">
        <ele>631</ele>
        <time>2021-10-29T16:58:51Z</time>
      </trkpt>
      <trkpt lat="42.46077" lon="2.90771">
        <ele>630.3</ele>
        <time>2021-10-29T16:58:51Z</time>
      </trkpt>
      <trkpt lat="42.46082" lon="2.90804">
        <ele>630.62</ele>
        <time>2021-10-29T16:58:51Z</time>
      </trkpt>
      <trkpt lat="42.4609" lon="2.90831">
        <ele>630.73</ele>
        <time>2021-10-29T16:58:51Z</time>
      </trkpt>
      <trkpt lat="42.46099" lon="2.90849">
        <ele>631.21</ele>
        <time>2021-10-29T16:58:51Z</time>
      </trkpt>
      <trkpt lat="42.46114" lon="2.90864">
        <ele>629.88</ele>
        <time>2021-10-29T16:58:51Z</time>
      </trkpt>
      <trkpt lat="42.46123" lon="2.90885">
        <ele>629.82</ele>
        <time>2021-10-29T16:58:51Z</time>
      </trkpt>
      <trkpt lat="42.46125" lon="2.90913">
        <ele>629.66</ele>
        <time>2021-10-29T16:58:51Z</time>
      </trkpt>
      <trkpt lat="42.46115" lon="2.90941">
        <ele>630.85</ele>
        <time>2021-10-29T16:58:51Z</time>
      </trkpt>
      <trkpt lat="42.46107" lon="2.90963">
        <ele>631.37</ele>
        <time>2021-10-29T16:58:51Z</time>
      </trkpt>
      <trkpt lat="42.46098" lon="2.90989">
        <ele>633.82</ele>
        <time>2021-10-29T16:58:51Z</time>
      </trkpt>
      <trkpt lat="42.46098" lon="2.9101">
        <ele>633.41</ele>
        <time>2021-10-29T16:58:51Z</time>
      </trkpt>
      <trkpt lat="42.46108" lon="2.9102">
        <ele>633.04</ele>
        <time>2021-10-29T16:58:51Z</time>
      </trkpt>
      <trkpt lat="42.46121" lon="2.91026">
        <ele>633.8</ele>
        <time>2021-10-29T16:58:51Z</time>
      </trkpt>
      <trkpt lat="42.46136" lon="2.91026">
        <ele>633.08</ele>
        <time>2021-10-29T16:58:51Z</time>
      </trkpt>
      <trkpt lat="42.46157" lon="2.91024">
        <ele>633.41</ele>
        <time>2021-10-29T16:58:51Z</time>
      </trkpt>
      <trkpt lat="42.4617" lon="2.91023">
        <ele>633.67</ele>
        <time>2021-10-29T16:58:51Z</time>
      </trkpt>
      <trkpt lat="42.46183" lon="2.9102">
        <ele>632.8</ele>
        <time>2021-10-29T16:58:51Z</time>
      </trkpt>
      <trkpt lat="42.46192" lon="2.91035">
        <ele>633.14</ele>
        <time>2021-10-29T16:58:51Z</time>
      </trkpt>
      <trkpt lat="42.4619" lon="2.91053">
        <ele>633.6</ele>
        <time>2021-10-29T16:58:51Z</time>
      </trkpt>
      <trkpt lat="42.46189" lon="2.91068">
        <ele>634.28</ele>
        <time>2021-10-29T16:58:51Z</time>
      </trkpt>
      <trkpt lat="42.46189" lon="2.91084">
        <ele>635.25</ele>
        <time>2021-10-29T16:58:51Z</time>
      </trkpt>
      <trkpt lat="42.46197" lon="2.911">
        <ele>635.04</ele>
        <time>2021-10-29T16:58:51Z</time>
      </trkpt>
      <trkpt lat="42.46212" lon="2.91119">
        <ele>634.96</ele>
        <time>2021-10-29T16:58:51Z</time>
      </trkpt>
      <trkpt lat="42.46226" lon="2.91138">
        <ele>635.75</ele>
        <time>2021-10-29T16:58:51Z</time>
      </trkpt>
      <trkpt lat="42.4624" lon="2.91149">
        <ele>635.74</ele>
        <time>2021-10-29T16:58:51Z</time>
      </trkpt>
      <trkpt lat="42.46253" lon="2.91163">
        <ele>635.78</ele>
        <time>2021-10-29T16:58:51Z</time>
      </trkpt>
      <trkpt lat="42.46259" lon="2.91179">
        <ele>635.55</ele>
        <time>2021-10-29T16:58:51Z</time>
      </trkpt>
      <trkpt lat="42.46263" lon="2.912">
        <ele>636.14</ele>
        <time>2021-10-29T16:58:51Z</time>
      </trkpt>
      <trkpt lat="42.4627" lon="2.91216">
        <ele>637.1</ele>
        <time>2021-10-29T16:58:51Z</time>
      </trkpt>
      <trkpt lat="42.4628" lon="2.91236">
        <ele>636.4</ele>
        <time>2021-10-29T16:58:51Z</time>
      </trkpt>
      <trkpt lat="42.46281" lon="2.91254">
        <ele>637.02</ele>
        <time>2021-10-29T16:58:51Z</time>
      </trkpt>
      <trkpt lat="42.4628" lon="2.91271">
        <ele>637.79</ele>
        <time>2021-10-29T16:58:51Z</time>
      </trkpt>
      <trkpt lat="42.46277" lon="2.91292">
        <ele>639.79</ele>
        <time>2021-10-29T16:58:51Z</time>
      </trkpt>
      <trkpt lat="42.46272" lon="2.91312">
        <ele>640.65</ele>
        <time>2021-10-29T16:58:51Z</time>
      </trkpt>
      <trkpt lat="42.46266" lon="2.91325">
        <ele>641.67</ele>
        <time>2021-10-29T16:58:51Z</time>
      </trkpt>
      <trkpt lat="42.46259" lon="2.91338">
        <ele>643.86</ele>
        <time>2021-10-29T16:58:51Z</time>
      </trkpt>
      <trkpt lat="42.46256" lon="2.9136">
        <ele>642.55</ele>
        <time>2021-10-29T16:58:51Z</time>
      </trkpt>
      <trkpt lat="42.46252" lon="2.91388">
        <ele>642.28</ele>
        <time>2021-10-29T16:58:51Z</time>
      </trkpt>
      <trkpt lat="42.4625" lon="2.91415">
        <ele>643.25</ele>
        <time>2021-10-29T16:58:51Z</time>
      </trkpt>
      <trkpt lat="42.46247" lon="2.91434">
        <ele>645.1</ele>
        <time>2021-10-29T16:58:51Z</time>
      </trkpt>
      <trkpt lat="42.46247" lon="2.91453">
        <ele>644.86</ele>
        <time>2021-10-29T16:58:51Z</time>
      </trkpt>
      <trkpt lat="42.46246" lon="2.9147">
        <ele>644.99</ele>
        <time>2021-10-29T16:58:51Z</time>
      </trkpt>
      <trkpt lat="42.46246" lon="2.91488">
        <ele>645.51</ele>
        <time>2021-10-29T16:58:51Z</time>
      </trkpt>
      <trkpt lat="42.46246" lon="2.91509">
        <ele>649.78</ele>
        <time>2021-10-29T16:58:51Z</time>
      </trkpt>
      <trkpt lat="42.46262" lon="2.91511">
        <ele>652.94</ele>
        <time>2021-10-29T16:58:51Z</time>
      </trkpt>
      <trkpt lat="42.46275" lon="2.91497">
        <ele>649.56</ele>
        <time>2021-10-29T16:58:51Z</time>
      </trkpt>
      <trkpt lat="42.46289" lon="2.91482">
        <ele>650.14</ele>
        <time>2021-10-29T16:58:51Z</time>
      </trkpt>
      <trkpt lat="42.46301" lon="2.91467">
        <ele>649.68</ele>
        <time>2021-10-29T16:58:51Z</time>
      </trkpt>
      <trkpt lat="42.46317" lon="2.91449">
        <ele>647.87</ele>
        <time>2021-10-29T16:58:51Z</time>
      </trkpt>
      <trkpt lat="42.46328" lon="2.91439">
        <ele>646.35</ele>
        <time>2021-10-29T16:58:51Z</time>
      </trkpt>
      <trkpt lat="42.46345" lon="2.91429">
        <ele>645.82</ele>
        <time>2021-10-29T16:58:51Z</time>
      </trkpt>
      <trkpt lat="42.46362" lon="2.91415">
        <ele>644.75</ele>
        <time>2021-10-29T16:58:51Z</time>
      </trkpt>
      <trkpt lat="42.46389" lon="2.91403">
        <ele>644.76</ele>
        <time>2021-10-29T16:58:51Z</time>
      </trkpt>
      <trkpt lat="42.46405" lon="2.91398">
        <ele>643.6</ele>
        <time>2021-10-29T16:58:51Z</time>
      </trkpt>
      <trkpt lat="42.46422" lon="2.91398">
        <ele>640.49</ele>
        <time>2021-10-29T16:58:51Z</time>
      </trkpt>
      <trkpt lat="42.46435" lon="2.91408">
        <ele>640.9</ele>
        <time>2021-10-29T16:58:51Z</time>
      </trkpt>
      <trkpt lat="42.4645" lon="2.91424">
        <ele>640.74</ele>
        <time>2021-10-29T16:58:51Z</time>
      </trkpt>
      <trkpt lat="42.46466" lon="2.91437">
        <ele>640.23</ele>
        <time>2021-10-29T16:58:51Z</time>
      </trkpt>
      <trkpt lat="42.46478" lon="2.91445">
        <ele>639.9</ele>
        <time>2021-10-29T16:58:51Z</time>
      </trkpt>
      <trkpt lat="42.46488" lon="2.91445">
        <ele>638.9</ele>
        <time>2021-10-29T16:58:51Z</time>
      </trkpt>
      <trkpt lat="42.46499" lon="2.91447">
        <ele>638.68</ele>
        <time>2021-10-29T16:58:51Z</time>
      </trkpt>
      <trkpt lat="42.46508" lon="2.91449">
        <ele>639.75</ele>
        <time>2021-10-29T16:58:51Z</time>
      </trkpt>
      <trkpt lat="42.46522" lon="2.91462">
        <ele>642.58</ele>
        <time>2021-10-29T16:58:51Z</time>
      </trkpt>
      <trkpt lat="42.46532" lon="2.9148">
        <ele>645.6</ele>
        <time>2021-10-29T16:58:51Z</time>
      </trkpt>
      <trkpt lat="42.4654" lon="2.91515">
        <ele>649.7</ele>
        <time>2021-10-29T16:58:51Z</time>
      </trkpt>
      <trkpt lat="42.46548" lon="2.9153">
        <ele>652.55</ele>
        <time>2021-10-29T16:58:51Z</time>
      </trkpt>
      <trkpt lat="42.46558" lon="2.91529">
        <ele>654.83</ele>
        <time>2021-10-29T16:58:51Z</time>
      </trkpt>
      <trkpt lat="42.46564" lon="2.91514">
        <ele>658.93</ele>
        <time>2021-10-29T16:58:51Z</time>
      </trkpt>
      <trkpt lat="42.46568" lon="2.91496">
        <ele>662.57</ele>
        <time>2021-10-29T16:58:51Z</time>
      </trkpt>
      <trkpt lat="42.4658" lon="2.9148">
        <ele>669.47</ele>
        <time>2021-10-29T16:58:51Z</time>
      </trkpt>
      <trkpt lat="42.46587" lon="2.9146">
        <ele>671.86</ele>
        <time>2021-10-29T16:58:51Z</time>
      </trkpt>
      <trkpt lat="42.46601" lon="2.91447">
        <ele>676.24</ele>
        <time>2021-10-29T16:58:51Z</time>
      </trkpt>
      <trkpt lat="42.46614" lon="2.91432">
        <ele>680.51</ele>
        <time>2021-10-29T16:58:51Z</time>
      </trkpt>
      <trkpt lat="42.46629" lon="2.91436">
        <ele>689.35</ele>
        <time>2021-10-29T16:58:51Z</time>
      </trkpt>
      <trkpt lat="42.46644" lon="2.91439">
        <ele>696.6</ele>
        <time>2021-10-29T16:58:51Z</time>
      </trkpt>
      <trkpt lat="42.46657" lon="2.91445">
        <ele>700.51</ele>
        <time>2021-10-29T16:58:51Z</time>
      </trkpt>
      <trkpt lat="42.46667" lon="2.91448">
        <ele>703.44</ele>
        <time>2021-10-29T16:58:51Z</time>
      </trkpt>
      <trkpt lat="42.46678" lon="2.91429">
        <ele>701.9</ele>
        <time>2021-10-29T16:58:51Z</time>
      </trkpt>
      <trkpt lat="42.46686" lon="2.91411">
        <ele>702.4</ele>
        <time>2021-10-29T16:58:51Z</time>
      </trkpt>
      <trkpt lat="42.46697" lon="2.91391">
        <ele>702.61</ele>
        <time>2021-10-29T16:58:51Z</time>
      </trkpt>
      <trkpt lat="42.46711" lon="2.91373">
        <ele>703.79</ele>
        <time>2021-10-29T16:58:51Z</time>
      </trkpt>
      <trkpt lat="42.46729" lon="2.91361">
        <ele>705.88</ele>
        <time>2021-10-29T16:58:51Z</time>
      </trkpt>
      <trkpt lat="42.46741" lon="2.91355">
        <ele>707.23</ele>
        <time>2021-10-29T16:58:51Z</time>
      </trkpt>
      <trkpt lat="42.46754" lon="2.91344">
        <ele>706.75</ele>
        <time>2021-10-29T16:58:51Z</time>
      </trkpt>
      <trkpt lat="42.46767" lon="2.91335">
        <ele>706.75</ele>
        <time>2021-10-29T16:58:51Z</time>
      </trkpt>
      <trkpt lat="42.46781" lon="2.91326">
        <ele>707.89</ele>
        <time>2021-10-29T16:58:51Z</time>
      </trkpt>
      <trkpt lat="42.46796" lon="2.91313">
        <ele>708.12</ele>
        <time>2021-10-29T16:58:51Z</time>
      </trkpt>
      <trkpt lat="42.4681" lon="2.91303">
        <ele>709.13</ele>
        <time>2021-10-29T16:58:51Z</time>
      </trkpt>
      <trkpt lat="42.46823" lon="2.91296">
        <ele>709.84</ele>
        <time>2021-10-29T16:58:51Z</time>
      </trkpt>
      <trkpt lat="42.46839" lon="2.91297">
        <ele>710.25</ele>
        <time>2021-10-29T16:58:51Z</time>
      </trkpt>
      <trkpt lat="42.46849" lon="2.91311">
        <ele>711.36</ele>
        <time>2021-10-29T16:58:51Z</time>
      </trkpt>
      <trkpt lat="42.46843" lon="2.91325">
        <ele>714.6</ele>
        <time>2021-10-29T16:58:51Z</time>
      </trkpt>
      <trkpt lat="42.46841" lon="2.91338">
        <ele>717.5</ele>
        <time>2021-10-29T16:58:51Z</time>
      </trkpt>
      <trkpt lat="42.46847" lon="2.91352">
        <ele>720.56</ele>
        <time>2021-10-29T16:58:51Z</time>
      </trkpt>
      <trkpt lat="42.46848" lon="2.91372">
        <ele>726.43</ele>
        <time>2021-10-29T16:58:51Z</time>
      </trkpt>
      <trkpt lat="42.46851" lon="2.91386">
        <ele>730.23</ele>
        <time>2021-10-29T16:58:51Z</time>
      </trkpt>
      <trkpt lat="42.46863" lon="2.91407">
        <ele>734.63</ele>
        <time>2021-10-29T16:58:51Z</time>
      </trkpt>
      <trkpt lat="42.46875" lon="2.9143">
        <ele>737.47</ele>
        <time>2021-10-29T16:58:51Z</time>
      </trkpt>
      <trkpt lat="42.46881" lon="2.91451">
        <ele>741.68</ele>
        <time>2021-10-29T16:58:51Z</time>
      </trkpt>
      <trkpt lat="42.46884" lon="2.91476">
        <ele>746.5</ele>
        <time>2021-10-29T16:58:51Z</time>
      </trkpt>
      <trkpt lat="42.46884" lon="2.91495">
        <ele>750.62</ele>
        <time>2021-10-29T16:58:51Z</time>
      </trkpt>
      <trkpt lat="42.46881" lon="2.91517">
        <ele>756.41</ele>
        <time>2021-10-29T16:58:51Z</time>
      </trkpt>
      <trkpt lat="42.46877" lon="2.9154">
        <ele>761.58</ele>
        <time>2021-10-29T16:58:51Z</time>
      </trkpt>
      <trkpt lat="42.46874" lon="2.91567">
        <ele>765.67</ele>
        <time>2021-10-29T16:58:51Z</time>
      </trkpt>
      <trkpt lat="42.46872" lon="2.91582">
        <ele>768.91</ele>
        <time>2021-10-29T16:58:51Z</time>
      </trkpt>
      <trkpt lat="42.46879" lon="2.91598">
        <ele>770.58</ele>
        <time>2021-10-29T16:58:51Z</time>
      </trkpt>
      <trkpt lat="42.46872" lon="2.91618">
        <ele>776.99</ele>
        <time>2021-10-29T16:58:51Z</time>
      </trkpt>
      <trkpt lat="42.4688" lon="2.9164">
        <ele>780.61</ele>
        <time>2021-10-29T16:58:51Z</time>
      </trkpt>
      <trkpt lat="42.46889" lon="2.91666">
        <ele>785.72</ele>
        <time>2021-10-29T16:58:51Z</time>
      </trkpt>
      <trkpt lat="42.46899" lon="2.91691">
        <ele>790.28</ele>
        <time>2021-10-29T16:58:51Z</time>
      </trkpt>
      <trkpt lat="42.4691" lon="2.91709">
        <ele>793.52</ele>
        <time>2021-10-29T16:58:51Z</time>
      </trkpt>
      <trkpt lat="42.46922" lon="2.91729">
        <ele>796.48</ele>
        <time>2021-10-29T16:58:51Z</time>
      </trkpt>
      <trkpt lat="42.46932" lon="2.91735">
        <ele>799.09</ele>
        <time>2021-10-29T16:58:51Z</time>
      </trkpt>
      <trkpt lat="42.46947" lon="2.91751">
        <ele>802.65</ele>
        <time>2021-10-29T16:58:51Z</time>
      </trkpt>
      <trkpt lat="42.46958" lon="2.9176">
        <ele>804.94</ele>
        <time>2021-10-29T16:58:51Z</time>
      </trkpt>
      <trkpt lat="42.46971" lon="2.91779">
        <ele>808.63</ele>
        <time>2021-10-29T16:58:51Z</time>
      </trkpt>
      <trkpt lat="42.46981" lon="2.91795">
        <ele>811.81</ele>
        <time>2021-10-29T16:58:51Z</time>
      </trkpt>
      <trkpt lat="42.46986" lon="2.91812">
        <ele>814.91</ele>
        <time>2021-10-29T16:58:51Z</time>
      </trkpt>
      <trkpt lat="42.46992" lon="2.91838">
        <ele>819.52</ele>
        <time>2021-10-29T16:58:51Z</time>
      </trkpt>
      <trkpt lat="42.46996" lon="2.9186">
        <ele>822.51</ele>
        <time>2021-10-29T16:58:51Z</time>
      </trkpt>
      <trkpt lat="42.47001" lon="2.91884">
        <ele>827.03</ele>
        <time>2021-10-29T16:58:51Z</time>
      </trkpt>
      <trkpt lat="42.47005" lon="2.91908">
        <ele>831.43</ele>
        <time>2021-10-29T16:58:51Z</time>
      </trkpt>
      <trkpt lat="42.47012" lon="2.91931">
        <ele>834.72</ele>
        <time>2021-10-29T16:58:51Z</time>
      </trkpt>
      <trkpt lat="42.47016" lon="2.91949">
        <ele>837.91</ele>
        <time>2021-10-29T16:58:51Z</time>
      </trkpt>
      <trkpt lat="42.4702" lon="2.91973">
        <ele>842</ele>
        <time>2021-10-29T16:58:51Z</time>
      </trkpt>
      <trkpt lat="42.47018" lon="2.91997">
        <ele>845.63</ele>
        <time>2021-10-29T16:58:51Z</time>
      </trkpt>
      <trkpt lat="42.47016" lon="2.92023">
        <ele>847.5</ele>
        <time>2021-10-29T16:58:51Z</time>
      </trkpt>
      <trkpt lat="42.47017" lon="2.92042">
        <ele>848.78</ele>
        <time>2021-10-29T16:58:51Z</time>
      </trkpt>
      <trkpt lat="42.47023" lon="2.92066">
        <ele>851.33</ele>
        <time>2021-10-29T16:58:51Z</time>
      </trkpt>
      <trkpt lat="42.47026" lon="2.92096">
        <ele>852.88</ele>
        <time>2021-10-29T16:58:51Z</time>
      </trkpt>
      <trkpt lat="42.4703" lon="2.92122">
        <ele>855.36</ele>
        <time>2021-10-29T16:58:51Z</time>
      </trkpt>
      <trkpt lat="42.47035" lon="2.92144">
        <ele>858.84</ele>
        <time>2021-10-29T16:58:51Z</time>
      </trkpt>
      <trkpt lat="42.47038" lon="2.92165">
        <ele>860.08</ele>
        <time>2021-10-29T16:58:51Z</time>
      </trkpt>
      <trkpt lat="42.47042" lon="2.92186">
        <ele>861.43</ele>
        <time>2021-10-29T16:58:51Z</time>
      </trkpt>
      <trkpt lat="42.47048" lon="2.92204">
        <ele>864.69</ele>
        <time>2021-10-29T16:58:51Z</time>
      </trkpt>
      <trkpt lat="42.47051" lon="2.92221">
        <ele>866.63</ele>
        <time>2021-10-29T16:58:51Z</time>
      </trkpt>
      <trkpt lat="42.47061" lon="2.92214">
        <ele>869.29</ele>
        <time>2021-10-29T16:58:51Z</time>
      </trkpt>
      <trkpt lat="42.47063" lon="2.92198">
        <ele>869.23</ele>
        <time>2021-10-29T16:58:51Z</time>
      </trkpt>
      <trkpt lat="42.4707" lon="2.92183">
        <ele>870.65</ele>
        <time>2021-10-29T16:58:51Z</time>
      </trkpt>
      <trkpt lat="42.4708" lon="2.92173">
        <ele>872.94</ele>
        <time>2021-10-29T16:58:51Z</time>
      </trkpt>
      <trkpt lat="42.47092" lon="2.92178">
        <ele>875.23</ele>
        <time>2021-10-29T16:58:51Z</time>
      </trkpt>
      <trkpt lat="42.47095" lon="2.92196">
        <ele>877.8</ele>
        <time>2021-10-29T16:58:51Z</time>
      </trkpt>
      <trkpt lat="42.47099" lon="2.92213">
        <ele>880.37</ele>
        <time>2021-10-29T16:58:51Z</time>
      </trkpt>
      <trkpt lat="42.47103" lon="2.92233">
        <ele>883.12</ele>
        <time>2021-10-29T16:58:51Z</time>
      </trkpt>
      <trkpt lat="42.47109" lon="2.92263">
        <ele>888.25</ele>
        <time>2021-10-29T16:58:51Z</time>
      </trkpt>
      <trkpt lat="42.47126" lon="2.92273">
        <ele>889.63</ele>
        <time>2021-10-29T16:58:51Z</time>
      </trkpt>
      <trkpt lat="42.4715" lon="2.92291">
        <ele>889.25</ele>
        <time>2021-10-29T16:58:51Z</time>
      </trkpt>
      <trkpt lat="42.47164" lon="2.92301">
        <ele>889.21</ele>
        <time>2021-10-29T16:58:51Z</time>
      </trkpt>
      <trkpt lat="42.4718" lon="2.92319">
        <ele>892.76</ele>
        <time>2021-10-29T16:58:51Z</time>
      </trkpt>
      <trkpt lat="42.47194" lon="2.92335">
        <ele>896.85</ele>
        <time>2021-10-29T16:58:51Z</time>
      </trkpt>
      <trkpt lat="42.47206" lon="2.92347">
        <ele>901.28</ele>
        <time>2021-10-29T16:58:51Z</time>
      </trkpt>
      <trkpt lat="42.47225" lon="2.92365">
        <ele>907.95</ele>
        <time>2021-10-29T16:58:51Z</time>
      </trkpt>
      <trkpt lat="42.4724" lon="2.92381">
        <ele>913.72</ele>
        <time>2021-10-29T16:58:51Z</time>
      </trkpt>
      <trkpt lat="42.47255" lon="2.924">
        <ele>916.39</ele>
        <time>2021-10-29T16:58:51Z</time>
      </trkpt>
      <trkpt lat="42.47271" lon="2.92413">
        <ele>915.42</ele>
        <time>2021-10-29T16:58:51Z</time>
      </trkpt>
      <trkpt lat="42.47286" lon="2.92421">
        <ele>915.11</ele>
        <time>2021-10-29T16:58:51Z</time>
      </trkpt>
      <trkpt lat="42.47303" lon="2.92433">
        <ele>916.03</ele>
        <time>2021-10-29T16:58:51Z</time>
      </trkpt>
      <trkpt lat="42.47322" lon="2.92445">
        <ele>915.86</ele>
        <time>2021-10-29T16:58:51Z</time>
      </trkpt>
      <trkpt lat="42.47334" lon="2.92459">
        <ele>915.37</ele>
        <time>2021-10-29T16:58:51Z</time>
      </trkpt>
      <trkpt lat="42.47345" lon="2.92466">
        <ele>912.61</ele>
        <time>2021-10-29T16:58:51Z</time>
      </trkpt>
      <trkpt lat="42.47354" lon="2.92483">
        <ele>914.47</ele>
        <time>2021-10-29T16:58:51Z</time>
      </trkpt>
      <trkpt lat="42.47375" lon="2.92492">
        <ele>909.87</ele>
        <time>2021-10-29T16:58:51Z</time>
      </trkpt>
      <trkpt lat="42.47383" lon="2.92512">
        <ele>911.06</ele>
        <time>2021-10-29T16:58:51Z</time>
      </trkpt>
      <trkpt lat="42.4739" lon="2.92532">
        <ele>911.89</ele>
        <time>2021-10-29T16:58:51Z</time>
      </trkpt>
      <trkpt lat="42.47402" lon="2.92545">
        <ele>908.83</ele>
        <time>2021-10-29T16:58:51Z</time>
      </trkpt>
      <trkpt lat="42.47408" lon="2.92564">
        <ele>911.56</ele>
        <time>2021-10-29T16:58:51Z</time>
      </trkpt>
      <trkpt lat="42.47411" lon="2.92583">
        <ele>916.47</ele>
        <time>2021-10-29T16:58:51Z</time>
      </trkpt>
      <trkpt lat="42.47423" lon="2.92599">
        <ele>917.54</ele>
        <time>2021-10-29T16:58:51Z</time>
      </trkpt>
      <trkpt lat="42.47438" lon="2.92607">
        <ele>918.22</ele>
        <time>2021-10-29T16:58:51Z</time>
      </trkpt>
      <trkpt lat="42.47456" lon="2.92615">
        <ele>925.26</ele>
        <time>2021-10-29T16:58:51Z</time>
      </trkpt>
      <trkpt lat="42.47475" lon="2.92605">
        <ele>925.85</ele>
        <time>2021-10-29T16:58:51Z</time>
      </trkpt>
      <trkpt lat="42.47486" lon="2.92599">
        <ele>925.63</ele>
        <time>2021-10-29T16:58:51Z</time>
      </trkpt>
      <trkpt lat="42.47505" lon="2.92601">
        <ele>929.78</ele>
        <time>2021-10-29T16:58:51Z</time>
      </trkpt>
      <trkpt lat="42.47517" lon="2.92597">
        <ele>930.65</ele>
        <time>2021-10-29T16:58:51Z</time>
      </trkpt>
      <trkpt lat="42.4753" lon="2.92597">
        <ele>933.55</ele>
        <time>2021-10-29T16:58:51Z</time>
      </trkpt>
      <trkpt lat="42.47562" lon="2.9259">
        <ele>939.61</ele>
        <time>2021-10-29T16:58:51Z</time>
      </trkpt>
      <trkpt lat="42.47574" lon="2.92579">
        <ele>940.44</ele>
        <time>2021-10-29T16:58:51Z</time>
      </trkpt>
      <trkpt lat="42.47587" lon="2.92564">
        <ele>939.25</ele>
        <time>2021-10-29T16:58:51Z</time>
      </trkpt>
      <trkpt lat="42.47601" lon="2.92551">
        <ele>938.62</ele>
        <time>2021-10-29T16:58:51Z</time>
      </trkpt>
      <trkpt lat="42.47615" lon="2.92535">
        <ele>937.87</ele>
        <time>2021-10-29T16:58:51Z</time>
      </trkpt>
      <trkpt lat="42.47628" lon="2.9252">
        <ele>939.23</ele>
        <time>2021-10-29T16:58:51Z</time>
      </trkpt>
      <trkpt lat="42.47642" lon="2.92497">
        <ele>938.82</ele>
        <time>2021-10-29T16:58:51Z</time>
      </trkpt>
      <trkpt lat="42.47664" lon="2.92487">
        <ele>942.37</ele>
        <time>2021-10-29T16:58:51Z</time>
      </trkpt>
      <trkpt lat="42.47679" lon="2.92478">
        <ele>943.19</ele>
        <time>2021-10-29T16:58:51Z</time>
      </trkpt>
      <trkpt lat="42.47695" lon="2.92459">
        <ele>940.04</ele>
        <time>2021-10-29T16:58:51Z</time>
      </trkpt>
      <trkpt lat="42.47706" lon="2.92446">
        <ele>937.84</ele>
        <time>2021-10-29T16:58:51Z</time>
      </trkpt>
      <trkpt lat="42.4772" lon="2.92435">
        <ele>938.01</ele>
        <time>2021-10-29T16:58:51Z</time>
      </trkpt>
      <trkpt lat="42.47734" lon="2.9244">
        <ele>942.24</ele>
        <time>2021-10-29T16:58:51Z</time>
      </trkpt>
      <trkpt lat="42.4775" lon="2.9244">
        <ele>946.83</ele>
        <time>2021-10-29T16:58:51Z</time>
      </trkpt>
      <trkpt lat="42.47764" lon="2.92433">
        <ele>948.31</ele>
        <time>2021-10-29T16:58:51Z</time>
      </trkpt>
      <trkpt lat="42.47779" lon="2.92419">
        <ele>946.64</ele>
        <time>2021-10-29T16:58:51Z</time>
      </trkpt>
      <trkpt lat="42.47789" lon="2.92404">
        <ele>943.97</ele>
        <time>2021-10-29T16:58:51Z</time>
      </trkpt>
      <trkpt lat="42.47803" lon="2.92391">
        <ele>942.37</ele>
        <time>2021-10-29T16:58:51Z</time>
      </trkpt>
      <trkpt lat="42.4782" lon="2.92379">
        <ele>943.45</ele>
        <time>2021-10-29T16:58:51Z</time>
      </trkpt>
      <trkpt lat="42.47834" lon="2.92371">
        <ele>944.13</ele>
        <time>2021-10-29T16:58:51Z</time>
      </trkpt>
      <trkpt lat="42.47846" lon="2.92361">
        <ele>943.43</ele>
        <time>2021-10-29T16:58:51Z</time>
      </trkpt>
      <trkpt lat="42.47858" lon="2.92349">
        <ele>942.53</ele>
        <time>2021-10-29T16:58:51Z</time>
      </trkpt>
      <trkpt lat="42.47872" lon="2.92326">
        <ele>940.76</ele>
        <time>2021-10-29T16:58:51Z</time>
      </trkpt>
      <trkpt lat="42.47878" lon="2.9231">
        <ele>939.63</ele>
        <time>2021-10-29T16:58:51Z</time>
      </trkpt>
      <trkpt lat="42.47886" lon="2.92293">
        <ele>939.09</ele>
        <time>2021-10-29T16:58:51Z</time>
      </trkpt>
      <trkpt lat="42.47903" lon="2.92282">
        <ele>939.54</ele>
        <time>2021-10-29T16:58:51Z</time>
      </trkpt>
      <trkpt lat="42.47914" lon="2.92273">
        <ele>938.53</ele>
        <time>2021-10-29T16:58:51Z</time>
      </trkpt>
      <trkpt lat="42.47927" lon="2.92271">
        <ele>938.88</ele>
        <time>2021-10-29T16:58:51Z</time>
      </trkpt>
      <trkpt lat="42.47944" lon="2.92276">
        <ele>944.18</ele>
        <time>2021-10-29T16:58:51Z</time>
      </trkpt>
      <trkpt lat="42.47949" lon="2.92291">
        <ele>946.54</ele>
        <time>2021-10-29T16:58:51Z</time>
      </trkpt>
      <trkpt lat="42.47957" lon="2.92314">
        <ele>950</ele>
        <time>2021-10-29T16:58:51Z</time>
      </trkpt>
      <trkpt lat="42.47962" lon="2.9234">
        <ele>954.28</ele>
        <time>2021-10-29T16:58:51Z</time>
      </trkpt>
      <trkpt lat="42.47966" lon="2.92363">
        <ele>958.02</ele>
        <time>2021-10-29T16:58:51Z</time>
      </trkpt>
      <trkpt lat="42.47965" lon="2.92389">
        <ele>959.47</ele>
        <time>2021-10-29T16:58:51Z</time>
      </trkpt>
      <trkpt lat="42.47968" lon="2.92414">
        <ele>958.88</ele>
        <time>2021-10-29T16:58:51Z</time>
      </trkpt>
      <trkpt lat="42.47972" lon="2.92437">
        <ele>957.86</ele>
        <time>2021-10-29T16:58:51Z</time>
      </trkpt>
      <trkpt lat="42.47974" lon="2.92463">
        <ele>957.33</ele>
        <time>2021-10-29T16:58:51Z</time>
      </trkpt>
      <trkpt lat="42.47975" lon="2.92492">
        <ele>957.31</ele>
        <time>2021-10-29T16:58:51Z</time>
      </trkpt>
      <trkpt lat="42.47976" lon="2.92512">
        <ele>957.31</ele>
        <time>2021-10-29T16:58:51Z</time>
      </trkpt>
      <trkpt lat="42.47982" lon="2.92535">
        <ele>956.42</ele>
        <time>2021-10-29T16:58:51Z</time>
      </trkpt>
      <trkpt lat="42.47987" lon="2.92563">
        <ele>954.13</ele>
        <time>2021-10-29T16:58:51Z</time>
      </trkpt>
      <trkpt lat="42.47992" lon="2.92582">
        <ele>951.45</ele>
        <time>2021-10-29T16:58:51Z</time>
      </trkpt>
      <trkpt lat="42.47999" lon="2.92602">
        <ele>952.91</ele>
        <time>2021-10-29T16:58:51Z</time>
      </trkpt>
      <trkpt lat="42.48012" lon="2.92613">
        <ele>953.07</ele>
        <time>2021-10-29T16:58:51Z</time>
      </trkpt>
      <trkpt lat="42.48017" lon="2.92634">
        <ele>958.63</ele>
        <time>2021-10-29T16:58:51Z</time>
      </trkpt>
      <trkpt lat="42.48017" lon="2.92656">
        <ele>962.22</ele>
        <time>2021-10-29T16:58:51Z</time>
      </trkpt>
      <trkpt lat="42.48014" lon="2.92684">
        <ele>965.49</ele>
        <time>2021-10-29T16:58:51Z</time>
      </trkpt>
      <trkpt lat="42.48013" lon="2.92701">
        <ele>967.05</ele>
        <time>2021-10-29T16:58:51Z</time>
      </trkpt>
      <trkpt lat="42.48013" lon="2.92719">
        <ele>968.77</ele>
        <time>2021-10-29T16:58:51Z</time>
      </trkpt>
      <trkpt lat="42.4802" lon="2.92737">
        <ele>970.09</ele>
        <time>2021-10-29T16:58:51Z</time>
      </trkpt>
      <trkpt lat="42.48036" lon="2.92747">
        <ele>969.28</ele>
        <time>2021-10-29T16:58:51Z</time>
      </trkpt>
      <trkpt lat="42.48056" lon="2.92753">
        <ele>967.18</ele>
        <time>2021-10-29T16:58:51Z</time>
      </trkpt>
      <trkpt lat="42.48074" lon="2.92758">
        <ele>966.16</ele>
        <time>2021-10-29T16:58:51Z</time>
      </trkpt>
      <trkpt lat="42.48096" lon="2.92758">
        <ele>965.45</ele>
        <time>2021-10-29T16:58:51Z</time>
      </trkpt>
      <trkpt lat="42.48112" lon="2.92763">
        <ele>965.85</ele>
        <time>2021-10-29T16:58:51Z</time>
      </trkpt>
      <trkpt lat="42.48127" lon="2.92781">
        <ele>968.13</ele>
        <time>2021-10-29T16:58:51Z</time>
      </trkpt>
      <trkpt lat="42.48127" lon="2.92798">
        <ele>969.08</ele>
        <time>2021-10-29T16:58:51Z</time>
      </trkpt>
      <trkpt lat="42.48117" lon="2.92814">
        <ele>968.79</ele>
        <time>2021-10-29T16:58:51Z</time>
      </trkpt>
      <trkpt lat="42.48106" lon="2.92829">
        <ele>969.31</ele>
        <time>2021-10-29T16:58:51Z</time>
      </trkpt>
      <trkpt lat="42.48093" lon="2.92841">
        <ele>970.31</ele>
        <time>2021-10-29T16:58:51Z</time>
      </trkpt>
      <trkpt lat="42.48081" lon="2.92847">
        <ele>971.5</ele>
        <time>2021-10-29T16:58:51Z</time>
      </trkpt>
      <trkpt lat="42.48069" lon="2.92851">
        <ele>972.94</ele>
        <time>2021-10-29T16:58:51Z</time>
      </trkpt>
      <trkpt lat="42.48051" lon="2.92852">
        <ele>975.59</ele>
        <time>2021-10-29T16:58:51Z</time>
      </trkpt>
      <trkpt lat="42.4803" lon="2.92856">
        <ele>978.54</ele>
        <time>2021-10-29T16:58:51Z</time>
      </trkpt>
      <trkpt lat="42.48018" lon="2.92856">
        <ele>979.82</ele>
        <time>2021-10-29T16:58:51Z</time>
      </trkpt>
      <trkpt lat="42.48003" lon="2.92859">
        <ele>981.61</ele>
        <time>2021-10-29T16:58:51Z</time>
      </trkpt>
      <trkpt lat="42.4799" lon="2.92862">
        <ele>983.61</ele>
        <time>2021-10-29T16:58:51Z</time>
      </trkpt>
      <trkpt lat="42.47979" lon="2.92867">
        <ele>985.96</ele>
        <time>2021-10-29T16:58:51Z</time>
      </trkpt>
      <trkpt lat="42.47963" lon="2.92877">
        <ele>987.63</ele>
        <time>2021-10-29T16:58:51Z</time>
      </trkpt>
      <trkpt lat="42.47945" lon="2.92883">
        <ele>992.01</ele>
        <time>2021-10-29T16:58:51Z</time>
      </trkpt>
      <trkpt lat="42.47932" lon="2.92886">
        <ele>992.37</ele>
        <time>2021-10-29T16:58:51Z</time>
      </trkpt>
      <trkpt lat="42.47916" lon="2.92893">
        <ele>994.54</ele>
        <time>2021-10-29T16:58:51Z</time>
      </trkpt>
      <trkpt lat="42.47902" lon="2.92901">
        <ele>1000.4</ele>
        <time>2021-10-29T16:58:51Z</time>
      </trkpt>
      <trkpt lat="42.47886" lon="2.92911">
        <ele>1005.65</ele>
        <time>2021-10-29T16:58:51Z</time>
      </trkpt>
      <trkpt lat="42.47874" lon="2.92919">
        <ele>1008.25</ele>
        <time>2021-10-29T16:58:51Z</time>
      </trkpt>
      <trkpt lat="42.47857" lon="2.92931">
        <ele>1011.72</ele>
        <time>2021-10-29T16:58:51Z</time>
      </trkpt>
      <trkpt lat="42.47846" lon="2.9294">
        <ele>1014.7</ele>
        <time>2021-10-29T16:58:51Z</time>
      </trkpt>
      <trkpt lat="42.4784" lon="2.92954">
        <ele>1015.02</ele>
        <time>2021-10-29T16:58:51Z</time>
      </trkpt>
      <trkpt lat="42.47831" lon="2.92963">
        <ele>1016.75</ele>
        <time>2021-10-29T16:58:51Z</time>
      </trkpt>
      <trkpt lat="42.47822" lon="2.92974">
        <ele>1017.65</ele>
        <time>2021-10-29T16:58:51Z</time>
      </trkpt>
      <trkpt lat="42.47818" lon="2.9299">
        <ele>1017.23</ele>
        <time>2021-10-29T16:58:51Z</time>
      </trkpt>
      <trkpt lat="42.47812" lon="2.93013">
        <ele>1016.12</ele>
        <time>2021-10-29T16:58:51Z</time>
      </trkpt>
      <trkpt lat="42.47805" lon="2.93043">
        <ele>1015.76</ele>
        <time>2021-10-29T16:58:51Z</time>
      </trkpt>
      <trkpt lat="42.47801" lon="2.93058">
        <ele>1016.62</ele>
        <time>2021-10-29T16:58:51Z</time>
      </trkpt>
      <trkpt lat="42.47798" lon="2.9307">
        <ele>1016.77</ele>
        <time>2021-10-29T16:58:51Z</time>
      </trkpt>
      <trkpt lat="42.47786" lon="2.93085">
        <ele>1019.91</ele>
        <time>2021-10-29T16:58:51Z</time>
      </trkpt>
      <trkpt lat="42.47778" lon="2.93102">
        <ele>1020.12</ele>
        <time>2021-10-29T16:58:51Z</time>
      </trkpt>
      <trkpt lat="42.4777" lon="2.93115">
        <ele>1021.17</ele>
        <time>2021-10-29T16:58:51Z</time>
      </trkpt>
      <trkpt lat="42.47759" lon="2.93143">
        <ele>1022.2</ele>
        <time>2021-10-29T16:58:51Z</time>
      </trkpt>
      <trkpt lat="42.47753" lon="2.93172">
        <ele>1022.22</ele>
        <time>2021-10-29T16:58:51Z</time>
      </trkpt>
      <trkpt lat="42.47747" lon="2.93201">
        <ele>1023.31</ele>
        <time>2021-10-29T16:58:51Z</time>
      </trkpt>
      <trkpt lat="42.47742" lon="2.93225">
        <ele>1024.27</ele>
        <time>2021-10-29T16:58:51Z</time>
      </trkpt>
      <trkpt lat="42.47736" lon="2.93241">
        <ele>1025.82</ele>
        <time>2021-10-29T16:58:51Z</time>
      </trkpt>
      <trkpt lat="42.47729" lon="2.93258">
        <ele>1028.18</ele>
        <time>2021-10-29T16:58:51Z</time>
      </trkpt>
      <trkpt lat="42.47726" lon="2.93277">
        <ele>1028.84</ele>
        <time>2021-10-29T16:58:51Z</time>
      </trkpt>
      <trkpt lat="42.47722" lon="2.93298">
        <ele>1029.82</ele>
        <time>2021-10-29T16:58:51Z</time>
      </trkpt>
      <trkpt lat="42.47721" lon="2.93322">
        <ele>1030.92</ele>
        <time>2021-10-29T16:58:51Z</time>
      </trkpt>
      <trkpt lat="42.47721" lon="2.93343">
        <ele>1032.81</ele>
        <time>2021-10-29T16:58:51Z</time>
      </trkpt>
      <trkpt lat="42.47728" lon="2.93361">
        <ele>1033.66</ele>
        <time>2021-10-29T16:58:51Z</time>
      </trkpt>
      <trkpt lat="42.47742" lon="2.93365">
        <ele>1035.27</ele>
        <time>2021-10-29T16:58:51Z</time>
      </trkpt>
      <trkpt lat="42.47762" lon="2.93362">
        <ele>1037.39</ele>
        <time>2021-10-29T16:58:51Z</time>
      </trkpt>
      <trkpt lat="42.47781" lon="2.93357">
        <ele>1038.34</ele>
        <time>2021-10-29T16:58:51Z</time>
      </trkpt>
      <trkpt lat="42.47799" lon="2.93356">
        <ele>1041.23</ele>
        <time>2021-10-29T16:58:51Z</time>
      </trkpt>
      <trkpt lat="42.47813" lon="2.93354">
        <ele>1041.66</ele>
        <time>2021-10-29T16:58:51Z</time>
      </trkpt>
      <trkpt lat="42.47829" lon="2.93354">
        <ele>1041.88</ele>
        <time>2021-10-29T16:58:51Z</time>
      </trkpt>
      <trkpt lat="42.47845" lon="2.93358">
        <ele>1042.44</ele>
        <time>2021-10-29T16:58:51Z</time>
      </trkpt>
      <trkpt lat="42.47879" lon="2.93369">
        <ele>1046.34</ele>
        <time>2021-10-29T16:58:51Z</time>
      </trkpt>
      <trkpt lat="42.47896" lon="2.93376">
        <ele>1049.75</ele>
        <time>2021-10-29T16:58:51Z</time>
      </trkpt>
      <trkpt lat="42.47911" lon="2.93388">
        <ele>1052.04</ele>
        <time>2021-10-29T16:58:51Z</time>
      </trkpt>
      <trkpt lat="42.47923" lon="2.93395">
        <ele>1053.29</ele>
        <time>2021-10-29T16:58:51Z</time>
      </trkpt>
      <trkpt lat="42.47937" lon="2.93401">
        <ele>1054.15</ele>
        <time>2021-10-29T16:58:51Z</time>
      </trkpt>
      <trkpt lat="42.47949" lon="2.93411">
        <ele>1054.91</ele>
        <time>2021-10-29T16:58:51Z</time>
      </trkpt>
      <trkpt lat="42.47951" lon="2.93425">
        <ele>1055.39</ele>
        <time>2021-10-29T16:58:51Z</time>
      </trkpt>
      <trkpt lat="42.47948" lon="2.93439">
        <ele>1054.44</ele>
        <time>2021-10-29T16:58:51Z</time>
      </trkpt>
      <trkpt lat="42.47957" lon="2.93449">
        <ele>1054.21</ele>
        <time>2021-10-29T16:58:51Z</time>
      </trkpt>
      <trkpt lat="42.47953" lon="2.93462">
        <ele>1056.56</ele>
        <time>2021-10-29T16:58:51Z</time>
      </trkpt>
      <trkpt lat="42.47951" lon="2.93482">
        <ele>1057.94</ele>
        <time>2021-10-29T16:58:51Z</time>
      </trkpt>
      <trkpt lat="42.47949" lon="2.93502">
        <ele>1060.03</ele>
        <time>2021-10-29T16:58:51Z</time>
      </trkpt>
      <trkpt lat="42.47949" lon="2.93524">
        <ele>1059.78</ele>
        <time>2021-10-29T16:58:51Z</time>
      </trkpt>
      <trkpt lat="42.47949" lon="2.93547">
        <ele>1060.92</ele>
        <time>2021-10-29T16:58:51Z</time>
      </trkpt>
      <trkpt lat="42.47951" lon="2.93568">
        <ele>1060.65</ele>
        <time>2021-10-29T16:58:51Z</time>
      </trkpt>
      <trkpt lat="42.47953" lon="2.93591">
        <ele>1063.95</ele>
        <time>2021-10-29T16:58:51Z</time>
      </trkpt>
      <trkpt lat="42.47952" lon="2.9361">
        <ele>1067.62</ele>
        <time>2021-10-29T16:58:51Z</time>
      </trkpt>
      <trkpt lat="42.47952" lon="2.93627">
        <ele>1070.38</ele>
        <time>2021-10-29T16:58:51Z</time>
      </trkpt>
      <trkpt lat="42.47956" lon="2.93647">
        <ele>1069.48</ele>
        <time>2021-10-29T16:58:51Z</time>
      </trkpt>
      <trkpt lat="42.47968" lon="2.93659">
        <ele>1067.57</ele>
        <time>2021-10-29T16:58:51Z</time>
      </trkpt>
      <trkpt lat="42.47985" lon="2.93674">
        <ele>1071.01</ele>
        <time>2021-10-29T16:58:51Z</time>
      </trkpt>
      <trkpt lat="42.47993" lon="2.93698">
        <ele>1072.33</ele>
        <time>2021-10-29T16:58:51Z</time>
      </trkpt>
      <trkpt lat="42.48002" lon="2.93722">
        <ele>1072.13</ele>
        <time>2021-10-29T16:58:51Z</time>
      </trkpt>
      <trkpt lat="42.48005" lon="2.93747">
        <ele>1073.03</ele>
        <time>2021-10-29T16:58:51Z</time>
      </trkpt>
      <trkpt lat="42.48008" lon="2.93769">
        <ele>1073.07</ele>
        <time>2021-10-29T16:58:51Z</time>
      </trkpt>
      <trkpt lat="42.48006" lon="2.93793">
        <ele>1075.52</ele>
        <time>2021-10-29T16:58:51Z</time>
      </trkpt>
      <trkpt lat="42.48002" lon="2.93823">
        <ele>1077.99</ele>
        <time>2021-10-29T16:58:51Z</time>
      </trkpt>
      <trkpt lat="42.48009" lon="2.9385">
        <ele>1077.45</ele>
        <time>2021-10-29T16:58:51Z</time>
      </trkpt>
      <trkpt lat="42.48018" lon="2.93888">
        <ele>1079.73</ele>
        <time>2021-10-29T16:58:51Z</time>
      </trkpt>
      <trkpt lat="42.48025" lon="2.93912">
        <ele>1081.91</ele>
        <time>2021-10-29T16:58:51Z</time>
      </trkpt>
      <trkpt lat="42.48029" lon="2.93932">
        <ele>1083.9</ele>
        <time>2021-10-29T16:58:51Z</time>
      </trkpt>
      <trkpt lat="42.48037" lon="2.9395">
        <ele>1084.23</ele>
        <time>2021-10-29T16:58:51Z</time>
      </trkpt>
      <trkpt lat="42.48051" lon="2.9396">
        <ele>1083.12</ele>
        <time>2021-10-29T16:58:51Z</time>
      </trkpt>
      <trkpt lat="42.48066" lon="2.9397">
        <ele>1082.35</ele>
        <time>2021-10-29T16:58:51Z</time>
      </trkpt>
      <trkpt lat="42.48075" lon="2.93987">
        <ele>1084.53</ele>
        <time>2021-10-29T16:58:51Z</time>
      </trkpt>
      <trkpt lat="42.48089" lon="2.94008">
        <ele>1084.52</ele>
        <time>2021-10-29T16:58:51Z</time>
      </trkpt>
      <trkpt lat="42.48102" lon="2.9403">
        <ele>1085.06</ele>
        <time>2021-10-29T16:58:51Z</time>
      </trkpt>
      <trkpt lat="42.48108" lon="2.9405">
        <ele>1088.5</ele>
        <time>2021-10-29T16:58:51Z</time>
      </trkpt>
      <trkpt lat="42.48119" lon="2.94071">
        <ele>1089.15</ele>
        <time>2021-10-29T16:58:51Z</time>
      </trkpt>
      <trkpt lat="42.48131" lon="2.94097">
        <ele>1089.79</ele>
        <time>2021-10-29T16:58:51Z</time>
      </trkpt>
      <trkpt lat="42.48141" lon="2.94123">
        <ele>1090.17</ele>
        <time>2021-10-29T16:58:51Z</time>
      </trkpt>
      <trkpt lat="42.4815" lon="2.94144">
        <ele>1090.42</ele>
        <time>2021-10-29T16:58:51Z</time>
      </trkpt>
      <trkpt lat="42.48161" lon="2.9417">
        <ele>1091.99</ele>
        <time>2021-10-29T16:58:51Z</time>
      </trkpt>
      <trkpt lat="42.48171" lon="2.94187">
        <ele>1093.99</ele>
        <time>2021-10-29T16:58:51Z</time>
      </trkpt>
      <trkpt lat="42.48186" lon="2.94206">
        <ele>1095.91</ele>
        <time>2021-10-29T16:58:51Z</time>
      </trkpt>
      <trkpt lat="42.48198" lon="2.94226">
        <ele>1099.33</ele>
        <time>2021-10-29T16:58:51Z</time>
      </trkpt>
      <trkpt lat="42.48219" lon="2.94231">
        <ele>1099.76</ele>
        <time>2021-10-29T16:58:51Z</time>
      </trkpt>
      <trkpt lat="42.48231" lon="2.94231">
        <ele>1099.65</ele>
        <time>2021-10-29T16:58:51Z</time>
      </trkpt>
      <trkpt lat="42.48248" lon="2.94246">
        <ele>1102.68</ele>
        <time>2021-10-29T16:58:51Z</time>
      </trkpt>
      <trkpt lat="42.48264" lon="2.94255">
        <ele>1103.62</ele>
        <time>2021-10-29T16:58:51Z</time>
      </trkpt>
      <trkpt lat="42.48282" lon="2.94261">
        <ele>1104.86</ele>
        <time>2021-10-29T16:58:51Z</time>
      </trkpt>
      <trkpt lat="42.48299" lon="2.9427">
        <ele>1105.74</ele>
        <time>2021-10-29T16:58:51Z</time>
      </trkpt>
      <trkpt lat="42.48314" lon="2.94275">
        <ele>1106.04</ele>
        <time>2021-10-29T16:58:51Z</time>
      </trkpt>
      <trkpt lat="42.48327" lon="2.94284">
        <ele>1106.72</ele>
        <time>2021-10-29T16:58:51Z</time>
      </trkpt>
      <trkpt lat="42.48343" lon="2.94291">
        <ele>1108.77</ele>
        <time>2021-10-29T16:58:51Z</time>
      </trkpt>
      <trkpt lat="42.48362" lon="2.94295">
        <ele>1110.7</ele>
        <time>2021-10-29T16:58:51Z</time>
      </trkpt>
      <trkpt lat="42.48377" lon="2.943">
        <ele>1112.66</ele>
        <time>2021-10-29T16:58:51Z</time>
      </trkpt>
      <trkpt lat="42.48388" lon="2.94299">
        <ele>1111.62</ele>
        <time>2021-10-29T16:58:51Z</time>
      </trkpt>
      <trkpt lat="42.48399" lon="2.94299">
        <ele>1111.5</ele>
        <time>2021-10-29T16:58:51Z</time>
      </trkpt>
      <trkpt lat="42.48419" lon="2.94308">
        <ele>1113.13</ele>
        <time>2021-10-29T16:58:51Z</time>
      </trkpt>
      <trkpt lat="42.48422" lon="2.94334">
        <ele>1115.57</ele>
        <time>2021-10-29T16:58:51Z</time>
      </trkpt>
      <trkpt lat="42.48422" lon="2.94358">
        <ele>1116.2</ele>
        <time>2021-10-29T16:58:51Z</time>
      </trkpt>
      <trkpt lat="42.48429" lon="2.94389">
        <ele>1114.95</ele>
        <time>2021-10-29T16:58:51Z</time>
      </trkpt>
      <trkpt lat="42.48435" lon="2.94409">
        <ele>1114.55</ele>
        <time>2021-10-29T16:58:51Z</time>
      </trkpt>
      <trkpt lat="42.48442" lon="2.94431">
        <ele>1115.35</ele>
        <time>2021-10-29T16:58:51Z</time>
      </trkpt>
      <trkpt lat="42.4845" lon="2.94451">
        <ele>1115.81</ele>
        <time>2021-10-29T16:58:51Z</time>
      </trkpt>
      <trkpt lat="42.48458" lon="2.94467">
        <ele>1117.29</ele>
        <time>2021-10-29T16:58:51Z</time>
      </trkpt>
      <trkpt lat="42.48473" lon="2.94482">
        <ele>1116.38</ele>
        <time>2021-10-29T16:58:51Z</time>
      </trkpt>
      <trkpt lat="42.48489" lon="2.94493">
        <ele>1117.02</ele>
        <time>2021-10-29T16:58:51Z</time>
      </trkpt>
      <trkpt lat="42.48504" lon="2.94497">
        <ele>1115.92</ele>
        <time>2021-10-29T16:58:51Z</time>
      </trkpt>
      <trkpt lat="42.48518" lon="2.94508">
        <ele>1116.38</ele>
        <time>2021-10-29T16:58:51Z</time>
      </trkpt>
      <trkpt lat="42.48525" lon="2.9453">
        <ele>1117.91</ele>
        <time>2021-10-29T16:58:51Z</time>
      </trkpt>
      <trkpt lat="42.48532" lon="2.94553">
        <ele>1116.79</ele>
        <time>2021-10-29T16:58:51Z</time>
      </trkpt>
      <trkpt lat="42.48536" lon="2.94574">
        <ele>1116.88</ele>
        <time>2021-10-29T16:58:51Z</time>
      </trkpt>
      <trkpt lat="42.48546" lon="2.94596">
        <ele>1118.35</ele>
        <time>2021-10-29T16:58:51Z</time>
      </trkpt>
      <trkpt lat="42.48563" lon="2.94608">
        <ele>1117.83</ele>
        <time>2021-10-29T16:58:51Z</time>
      </trkpt>
      <trkpt lat="42.48574" lon="2.94623">
        <ele>1117.78</ele>
        <time>2021-10-29T16:58:51Z</time>
      </trkpt>
      <trkpt lat="42.48574" lon="2.94641">
        <ele>1119.52</ele>
        <time>2021-10-29T16:58:51Z</time>
      </trkpt>
      <trkpt lat="42.48574" lon="2.94663">
        <ele>1120.6</ele>
        <time>2021-10-29T16:58:51Z</time>
      </trkpt>
      <trkpt lat="42.48581" lon="2.94688">
        <ele>1118.73</ele>
        <time>2021-10-29T16:58:51Z</time>
      </trkpt>
      <trkpt lat="42.4859" lon="2.94713">
        <ele>1116.57</ele>
        <time>2021-10-29T16:58:51Z</time>
      </trkpt>
      <trkpt lat="42.48596" lon="2.94738">
        <ele>1118.7</ele>
        <time>2021-10-29T16:58:51Z</time>
      </trkpt>
      <trkpt lat="42.48608" lon="2.94754">
        <ele>1118.22</ele>
        <time>2021-10-29T16:58:51Z</time>
      </trkpt>
      <trkpt lat="42.48619" lon="2.94774">
        <ele>1117.07</ele>
        <time>2021-10-29T16:58:51Z</time>
      </trkpt>
      <trkpt lat="42.48626" lon="2.94794">
        <ele>1116.78</ele>
        <time>2021-10-29T16:58:51Z</time>
      </trkpt>
      <trkpt lat="42.48634" lon="2.94817">
        <ele>1115.03</ele>
        <time>2021-10-29T16:58:51Z</time>
      </trkpt>
      <trkpt lat="42.48638" lon="2.94839">
        <ele>1116.16</ele>
        <time>2021-10-29T16:58:51Z</time>
      </trkpt>
      <trkpt lat="42.48639" lon="2.94858">
        <ele>1116.1</ele>
        <time>2021-10-29T16:58:51Z</time>
      </trkpt>
      <trkpt lat="42.48635" lon="2.94872">
        <ele>1116.57</ele>
        <time>2021-10-29T16:58:51Z</time>
      </trkpt>
      <trkpt lat="42.48627" lon="2.94887">
        <ele>1114.55</ele>
        <time>2021-10-29T16:58:51Z</time>
      </trkpt>
      <trkpt lat="42.48608" lon="2.94905">
        <ele>1114.03</ele>
        <time>2021-10-29T16:58:51Z</time>
      </trkpt>
      <trkpt lat="42.48599" lon="2.94918">
        <ele>1112.66</ele>
        <time>2021-10-29T16:58:51Z</time>
      </trkpt>
      <trkpt lat="42.48583" lon="2.94926">
        <ele>1113.23</ele>
        <time>2021-10-29T16:58:51Z</time>
      </trkpt>
      <trkpt lat="42.4857" lon="2.94938">
        <ele>1110.99</ele>
        <time>2021-10-29T16:58:51Z</time>
      </trkpt>
      <trkpt lat="42.4855" lon="2.94948">
        <ele>1108.79</ele>
        <time>2021-10-29T16:58:51Z</time>
      </trkpt>
      <trkpt lat="42.48525" lon="2.94955">
        <ele>1108.59</ele>
        <time>2021-10-29T16:58:51Z</time>
      </trkpt>
      <trkpt lat="42.48507" lon="2.94961">
        <ele>1108.88</ele>
        <time>2021-10-29T16:58:51Z</time>
      </trkpt>
      <trkpt lat="42.48495" lon="2.94967">
        <ele>1107.65</ele>
        <time>2021-10-29T16:58:51Z</time>
      </trkpt>
      <trkpt lat="42.48476" lon="2.94979">
        <ele>1108.67</ele>
        <time>2021-10-29T16:58:51Z</time>
      </trkpt>
      <trkpt lat="42.48461" lon="2.94994">
        <ele>1107.2</ele>
        <time>2021-10-29T16:58:51Z</time>
      </trkpt>
      <trkpt lat="42.48453" lon="2.95006">
        <ele>1105.24</ele>
        <time>2021-10-29T16:58:51Z</time>
      </trkpt>
      <trkpt lat="42.48441" lon="2.9502">
        <ele>1104.17</ele>
        <time>2021-10-29T16:58:51Z</time>
      </trkpt>
      <trkpt lat="42.4843" lon="2.95034">
        <ele>1104.16</ele>
        <time>2021-10-29T16:58:51Z</time>
      </trkpt>
      <trkpt lat="42.48422" lon="2.95054">
        <ele>1103.36</ele>
        <time>2021-10-29T16:58:51Z</time>
      </trkpt>
      <trkpt lat="42.48406" lon="2.95084">
        <ele>1102.19</ele>
        <time>2021-10-29T16:58:51Z</time>
      </trkpt>
      <trkpt lat="42.48399" lon="2.95107">
        <ele>1101.28</ele>
        <time>2021-10-29T16:58:51Z</time>
      </trkpt>
      <trkpt lat="42.48392" lon="2.95127">
        <ele>1100.37</ele>
        <time>2021-10-29T16:58:51Z</time>
      </trkpt>
      <trkpt lat="42.48387" lon="2.95144">
        <ele>1098.83</ele>
        <time>2021-10-29T16:58:51Z</time>
      </trkpt>
      <trkpt lat="42.48377" lon="2.95168">
        <ele>1097.42</ele>
        <time>2021-10-29T16:58:51Z</time>
      </trkpt>
      <trkpt lat="42.48366" lon="2.95181">
        <ele>1098.28</ele>
        <time>2021-10-29T16:58:51Z</time>
      </trkpt>
      <trkpt lat="42.48348" lon="2.95187">
        <ele>1098.62</ele>
        <time>2021-10-29T16:58:51Z</time>
      </trkpt>
      <trkpt lat="42.48331" lon="2.95196">
        <ele>1099.93</ele>
        <time>2021-10-29T16:58:51Z</time>
      </trkpt>
      <trkpt lat="42.48319" lon="2.95209">
        <ele>1097.36</ele>
        <time>2021-10-29T16:58:51Z</time>
      </trkpt>
      <trkpt lat="42.48309" lon="2.95222">
        <ele>1094.98</ele>
        <time>2021-10-29T16:58:51Z</time>
      </trkpt>
      <trkpt lat="42.48296" lon="2.95234">
        <ele>1094.49</ele>
        <time>2021-10-29T16:58:51Z</time>
      </trkpt>
      <trkpt lat="42.48282" lon="2.95247">
        <ele>1092.9</ele>
        <time>2021-10-29T16:58:51Z</time>
      </trkpt>
      <trkpt lat="42.48267" lon="2.95259">
        <ele>1093.03</ele>
        <time>2021-10-29T16:58:51Z</time>
      </trkpt>
      <trkpt lat="42.48255" lon="2.95271">
        <ele>1093.41</ele>
        <time>2021-10-29T16:58:51Z</time>
      </trkpt>
      <trkpt lat="42.4824" lon="2.9529">
        <ele>1092.29</ele>
        <time>2021-10-29T16:58:51Z</time>
      </trkpt>
      <trkpt lat="42.48224" lon="2.95317">
        <ele>1090.12</ele>
        <time>2021-10-29T16:58:51Z</time>
      </trkpt>
      <trkpt lat="42.48215" lon="2.95344">
        <ele>1088.76</ele>
        <time>2021-10-29T16:58:51Z</time>
      </trkpt>
      <trkpt lat="42.48212" lon="2.95371">
        <ele>1087.87</ele>
        <time>2021-10-29T16:58:51Z</time>
      </trkpt>
      <trkpt lat="42.48209" lon="2.95388">
        <ele>1087.54</ele>
        <time>2021-10-29T16:58:51Z</time>
      </trkpt>
      <trkpt lat="42.48201" lon="2.95406">
        <ele>1085.92</ele>
        <time>2021-10-29T16:58:51Z</time>
      </trkpt>
      <trkpt lat="42.48192" lon="2.95415">
        <ele>1084.26</ele>
        <time>2021-10-29T16:58:51Z</time>
      </trkpt>
      <trkpt lat="42.48182" lon="2.95419">
        <ele>1084</ele>
        <time>2021-10-29T16:58:51Z</time>
      </trkpt>
      <trkpt lat="42.48163" lon="2.95426">
        <ele>1081.92</ele>
        <time>2021-10-29T16:58:51Z</time>
      </trkpt>
      <trkpt lat="42.48149" lon="2.9542">
        <ele>1082.14</ele>
        <time>2021-10-29T16:58:51Z</time>
      </trkpt>
      <trkpt lat="42.48134" lon="2.95415">
        <ele>1081.52</ele>
        <time>2021-10-29T16:58:51Z</time>
      </trkpt>
      <trkpt lat="42.48113" lon="2.95409">
        <ele>1080.02</ele>
        <time>2021-10-29T16:58:51Z</time>
      </trkpt>
      <trkpt lat="42.48097" lon="2.95402">
        <ele>1079.32</ele>
        <time>2021-10-29T16:58:51Z</time>
      </trkpt>
      <trkpt lat="42.48083" lon="2.95399">
        <ele>1078.56</ele>
        <time>2021-10-29T16:58:51Z</time>
      </trkpt>
      <trkpt lat="42.48074" lon="2.95387">
        <ele>1079.01</ele>
        <time>2021-10-29T16:58:51Z</time>
      </trkpt>
      <trkpt lat="42.48057" lon="2.95367">
        <ele>1077.67</ele>
        <time>2021-10-29T16:58:51Z</time>
      </trkpt>
      <trkpt lat="42.48047" lon="2.95351">
        <ele>1077.02</ele>
        <time>2021-10-29T16:58:51Z</time>
      </trkpt>
      <trkpt lat="42.48041" lon="2.95337">
        <ele>1076.51</ele>
        <time>2021-10-29T16:58:51Z</time>
      </trkpt>
      <trkpt lat="42.48035" lon="2.95324">
        <ele>1075.16</ele>
        <time>2021-10-29T16:58:51Z</time>
      </trkpt>
      <trkpt lat="42.48027" lon="2.9531">
        <ele>1073.36</ele>
        <time>2021-10-29T16:58:51Z</time>
      </trkpt>
      <trkpt lat="42.48014" lon="2.95293">
        <ele>1069.87</ele>
        <time>2021-10-29T16:58:51Z</time>
      </trkpt>
      <trkpt lat="42.48006" lon="2.95283">
        <ele>1068.58</ele>
        <time>2021-10-29T16:58:51Z</time>
      </trkpt>
      <trkpt lat="42.47996" lon="2.95264">
        <ele>1068.02</ele>
        <time>2021-10-29T16:58:51Z</time>
      </trkpt>
      <trkpt lat="42.47984" lon="2.95254">
        <ele>1066.31</ele>
        <time>2021-10-29T16:58:51Z</time>
      </trkpt>
      <trkpt lat="42.47974" lon="2.95241">
        <ele>1065.43</ele>
        <time>2021-10-29T16:58:51Z</time>
      </trkpt>
      <trkpt lat="42.47965" lon="2.95227">
        <ele>1065.12</ele>
        <time>2021-10-29T16:58:51Z</time>
      </trkpt>
      <trkpt lat="42.47954" lon="2.95217">
        <ele>1063.89</ele>
        <time>2021-10-29T16:58:51Z</time>
      </trkpt>
      <trkpt lat="42.47939" lon="2.95212">
        <ele>1062.29</ele>
        <time>2021-10-29T16:58:51Z</time>
      </trkpt>
      <trkpt lat="42.47924" lon="2.95206">
        <ele>1060.28</ele>
        <time>2021-10-29T16:58:51Z</time>
      </trkpt>
      <trkpt lat="42.47906" lon="2.95202">
        <ele>1058.96</ele>
        <time>2021-10-29T16:58:51Z</time>
      </trkpt>
      <trkpt lat="42.47891" lon="2.95202">
        <ele>1057.86</ele>
        <time>2021-10-29T16:58:51Z</time>
      </trkpt>
      <trkpt lat="42.47877" lon="2.95201">
        <ele>1057.7</ele>
        <time>2021-10-29T16:58:51Z</time>
      </trkpt>
      <trkpt lat="42.47861" lon="2.95207">
        <ele>1055.7</ele>
        <time>2021-10-29T16:58:51Z</time>
      </trkpt>
      <trkpt lat="42.47843" lon="2.95214">
        <ele>1055.14</ele>
        <time>2021-10-29T16:58:51Z</time>
      </trkpt>
      <trkpt lat="42.47835" lon="2.95226">
        <ele>1053.79</ele>
        <time>2021-10-29T16:58:51Z</time>
      </trkpt>
      <trkpt lat="42.47822" lon="2.95246">
        <ele>1052.33</ele>
        <time>2021-10-29T16:58:51Z</time>
      </trkpt>
      <trkpt lat="42.47809" lon="2.95262">
        <ele>1051.2</ele>
        <time>2021-10-29T16:58:51Z</time>
      </trkpt>
      <trkpt lat="42.47796" lon="2.95284">
        <ele>1049.09</ele>
        <time>2021-10-29T16:58:51Z</time>
      </trkpt>
      <trkpt lat="42.47783" lon="2.95299">
        <ele>1048.69</ele>
        <time>2021-10-29T16:58:51Z</time>
      </trkpt>
      <trkpt lat="42.47775" lon="2.95316">
        <ele>1046.72</ele>
        <time>2021-10-29T16:58:51Z</time>
      </trkpt>
      <trkpt lat="42.47762" lon="2.95337">
        <ele>1044.6</ele>
        <time>2021-10-29T16:58:51Z</time>
      </trkpt>
      <trkpt lat="42.47747" lon="2.95353">
        <ele>1044.36</ele>
        <time>2021-10-29T16:58:51Z</time>
      </trkpt>
      <trkpt lat="42.47736" lon="2.95378">
        <ele>1040.91</ele>
        <time>2021-10-29T16:58:51Z</time>
      </trkpt>
      <trkpt lat="42.47724" lon="2.95397">
        <ele>1040.09</ele>
        <time>2021-10-29T16:58:51Z</time>
      </trkpt>
      <trkpt lat="42.47712" lon="2.95419">
        <ele>1038.02</ele>
        <time>2021-10-29T16:58:51Z</time>
      </trkpt>
      <trkpt lat="42.47702" lon="2.95442">
        <ele>1036.57</ele>
        <time>2021-10-29T16:58:51Z</time>
      </trkpt>
      <trkpt lat="42.47687" lon="2.95471">
        <ele>1035.82</ele>
        <time>2021-10-29T16:58:51Z</time>
      </trkpt>
      <trkpt lat="42.47681" lon="2.95486">
        <ele>1034.99</ele>
        <time>2021-10-29T16:58:51Z</time>
      </trkpt>
      <trkpt lat="42.47672" lon="2.95518">
        <ele>1031.62</ele>
        <time>2021-10-29T16:58:51Z</time>
      </trkpt>
      <trkpt lat="42.47666" lon="2.95544">
        <ele>1029.98</ele>
        <time>2021-10-29T16:58:51Z</time>
      </trkpt>
      <trkpt lat="42.47655" lon="2.95566">
        <ele>1029.74</ele>
        <time>2021-10-29T16:58:51Z</time>
      </trkpt>
      <trkpt lat="42.47654" lon="2.95593">
        <ele>1027.5</ele>
        <time>2021-10-29T16:58:51Z</time>
      </trkpt>
      <trkpt lat="42.47649" lon="2.95619">
        <ele>1027.05</ele>
        <time>2021-10-29T16:58:51Z</time>
      </trkpt>
      <trkpt lat="42.47646" lon="2.95649">
        <ele>1025.87</ele>
        <time>2021-10-29T16:58:51Z</time>
      </trkpt>
      <trkpt lat="42.47646" lon="2.95672">
        <ele>1024.21</ele>
        <time>2021-10-29T16:58:51Z</time>
      </trkpt>
      <trkpt lat="42.47644" lon="2.95702">
        <ele>1022.8</ele>
        <time>2021-10-29T16:58:51Z</time>
      </trkpt>
      <trkpt lat="42.4764" lon="2.95729">
        <ele>1021.18</ele>
        <time>2021-10-29T16:58:51Z</time>
      </trkpt>
      <trkpt lat="42.4763" lon="2.95758">
        <ele>1018.67</ele>
        <time>2021-10-29T16:58:51Z</time>
      </trkpt>
      <trkpt lat="42.47621" lon="2.9578">
        <ele>1015.99</ele>
        <time>2021-10-29T16:58:51Z</time>
      </trkpt>
      <trkpt lat="42.47607" lon="2.95803">
        <ele>1014.27</ele>
        <time>2021-10-29T16:58:51Z</time>
      </trkpt>
      <trkpt lat="42.47596" lon="2.95811">
        <ele>1015.37</ele>
        <time>2021-10-29T16:58:51Z</time>
      </trkpt>
      <trkpt lat="42.47582" lon="2.95828">
        <ele>1014.28</ele>
        <time>2021-10-29T16:58:51Z</time>
      </trkpt>
      <trkpt lat="42.47562" lon="2.95845">
        <ele>1014.21</ele>
        <time>2021-10-29T16:58:51Z</time>
      </trkpt>
      <trkpt lat="42.47551" lon="2.95853">
        <ele>1014</ele>
        <time>2021-10-29T16:58:51Z</time>
      </trkpt>
      <trkpt lat="42.47545" lon="2.95868">
        <ele>1011.13</ele>
        <time>2021-10-29T16:58:51Z</time>
      </trkpt>
      <trkpt lat="42.47532" lon="2.95896">
        <ele>1007.64</ele>
        <time>2021-10-29T16:58:51Z</time>
      </trkpt>
      <trkpt lat="42.47524" lon="2.95911">
        <ele>1006.82</ele>
        <time>2021-10-29T16:58:51Z</time>
      </trkpt>
      <trkpt lat="42.4752" lon="2.9594">
        <ele>1004.13</ele>
        <time>2021-10-29T16:58:51Z</time>
      </trkpt>
      <trkpt lat="42.47518" lon="2.95961">
        <ele>1003.42</ele>
        <time>2021-10-29T16:58:51Z</time>
      </trkpt>
      <trkpt lat="42.47513" lon="2.95984">
        <ele>1002.85</ele>
        <time>2021-10-29T16:58:51Z</time>
      </trkpt>
      <trkpt lat="42.47512" lon="2.96009">
        <ele>1000.19</ele>
        <time>2021-10-29T16:58:51Z</time>
      </trkpt>
      <trkpt lat="42.47504" lon="2.96035">
        <ele>998.93</ele>
        <time>2021-10-29T16:58:51Z</time>
      </trkpt>
      <trkpt lat="42.47495" lon="2.96057">
        <ele>997.35</ele>
        <time>2021-10-29T16:58:51Z</time>
      </trkpt>
      <trkpt lat="42.47484" lon="2.9607">
        <ele>996.83</ele>
        <time>2021-10-29T16:58:51Z</time>
      </trkpt>
      <trkpt lat="42.47466" lon="2.96084">
        <ele>995.27</ele>
        <time>2021-10-29T16:58:51Z</time>
      </trkpt>
      <trkpt lat="42.47456" lon="2.96099">
        <ele>993.37</ele>
        <time>2021-10-29T16:58:51Z</time>
      </trkpt>
      <trkpt lat="42.47444" lon="2.96113">
        <ele>991.97</ele>
        <time>2021-10-29T16:58:51Z</time>
      </trkpt>
      <trkpt lat="42.47426" lon="2.96124">
        <ele>992.33</ele>
        <time>2021-10-29T16:58:51Z</time>
      </trkpt>
      <trkpt lat="42.4741" lon="2.96134">
        <ele>991.99</ele>
        <time>2021-10-29T16:58:51Z</time>
      </trkpt>
      <trkpt lat="42.47399" lon="2.96147">
        <ele>991.44</ele>
        <time>2021-10-29T16:58:51Z</time>
      </trkpt>
      <trkpt lat="42.47395" lon="2.96166">
        <ele>988.65</ele>
        <time>2021-10-29T16:58:51Z</time>
      </trkpt>
      <trkpt lat="42.47388" lon="2.96181">
        <ele>986.51</ele>
        <time>2021-10-29T16:58:51Z</time>
      </trkpt>
      <trkpt lat="42.47377" lon="2.96196">
        <ele>985.92</ele>
        <time>2021-10-29T16:58:51Z</time>
      </trkpt>
      <trkpt lat="42.47371" lon="2.96217">
        <ele>983.11</ele>
        <time>2021-10-29T16:58:51Z</time>
      </trkpt>
      <trkpt lat="42.47361" lon="2.96241">
        <ele>982.58</ele>
        <time>2021-10-29T16:58:51Z</time>
      </trkpt>
      <trkpt lat="42.47357" lon="2.96267">
        <ele>981.64</ele>
        <time>2021-10-29T16:58:51Z</time>
      </trkpt>
      <trkpt lat="42.47357" lon="2.96294">
        <ele>981.05</ele>
        <time>2021-10-29T16:58:51Z</time>
      </trkpt>
      <trkpt lat="42.47359" lon="2.96319">
        <ele>978.97</ele>
        <time>2021-10-29T16:58:51Z</time>
      </trkpt>
      <trkpt lat="42.47367" lon="2.96346">
        <ele>975.19</ele>
        <time>2021-10-29T16:58:51Z</time>
      </trkpt>
      <trkpt lat="42.4737" lon="2.9637">
        <ele>974.1</ele>
        <time>2021-10-29T16:58:51Z</time>
      </trkpt>
      <trkpt lat="42.47374" lon="2.9639">
        <ele>973.11</ele>
        <time>2021-10-29T16:58:51Z</time>
      </trkpt>
      <trkpt lat="42.4738" lon="2.96427">
        <ele>971.64</ele>
        <time>2021-10-29T16:58:51Z</time>
      </trkpt>
      <trkpt lat="42.47386" lon="2.96451">
        <ele>969.98</ele>
        <time>2021-10-29T16:58:51Z</time>
      </trkpt>
      <trkpt lat="42.47386" lon="2.96473">
        <ele>968.98</ele>
        <time>2021-10-29T16:58:51Z</time>
      </trkpt>
      <trkpt lat="42.47384" lon="2.96494">
        <ele>967.26</ele>
        <time>2021-10-29T16:58:51Z</time>
      </trkpt>
      <trkpt lat="42.47375" lon="2.96509">
        <ele>966.45</ele>
        <time>2021-10-29T16:58:51Z</time>
      </trkpt>
      <trkpt lat="42.47363" lon="2.96519">
        <ele>965.48</ele>
        <time>2021-10-29T16:58:51Z</time>
      </trkpt>
      <trkpt lat="42.47346" lon="2.96528">
        <ele>964.66</ele>
        <time>2021-10-29T16:58:51Z</time>
      </trkpt>
      <trkpt lat="42.4733" lon="2.96537">
        <ele>963.23</ele>
        <time>2021-10-29T16:58:51Z</time>
      </trkpt>
      <trkpt lat="42.47316" lon="2.9654">
        <ele>962.53</ele>
        <time>2021-10-29T16:58:51Z</time>
      </trkpt>
      <trkpt lat="42.47298" lon="2.96538">
        <ele>960.76</ele>
        <time>2021-10-29T16:58:51Z</time>
      </trkpt>
      <trkpt lat="42.47284" lon="2.96526">
        <ele>960.77</ele>
        <time>2021-10-29T16:58:51Z</time>
      </trkpt>
      <trkpt lat="42.47267" lon="2.96515">
        <ele>958.08</ele>
        <time>2021-10-29T16:58:51Z</time>
      </trkpt>
      <trkpt lat="42.47255" lon="2.96501">
        <ele>956.71</ele>
        <time>2021-10-29T16:58:51Z</time>
      </trkpt>
      <trkpt lat="42.47243" lon="2.96487">
        <ele>955.62</ele>
        <time>2021-10-29T16:58:51Z</time>
      </trkpt>
      <trkpt lat="42.47226" lon="2.96477">
        <ele>954.35</ele>
        <time>2021-10-29T16:58:51Z</time>
      </trkpt>
      <trkpt lat="42.47213" lon="2.96479">
        <ele>952.98</ele>
        <time>2021-10-29T16:58:51Z</time>
      </trkpt>
      <trkpt lat="42.47201" lon="2.96488">
        <ele>953.03</ele>
        <time>2021-10-29T16:58:51Z</time>
      </trkpt>
      <trkpt lat="42.47194" lon="2.96505">
        <ele>951.26</ele>
        <time>2021-10-29T16:58:51Z</time>
      </trkpt>
      <trkpt lat="42.47183" lon="2.96519">
        <ele>950.33</ele>
        <time>2021-10-29T16:58:51Z</time>
      </trkpt>
      <trkpt lat="42.47174" lon="2.96527">
        <ele>950.05</ele>
        <time>2021-10-29T16:58:51Z</time>
      </trkpt>
      <trkpt lat="42.47161" lon="2.96544">
        <ele>948.26</ele>
        <time>2021-10-29T16:58:51Z</time>
      </trkpt>
      <trkpt lat="42.47149" lon="2.96558">
        <ele>947.2</ele>
        <time>2021-10-29T16:58:51Z</time>
      </trkpt>
      <trkpt lat="42.47144" lon="2.96572">
        <ele>945.23</ele>
        <time>2021-10-29T16:58:51Z</time>
      </trkpt>
      <trkpt lat="42.47133" lon="2.96583">
        <ele>944.56</ele>
        <time>2021-10-29T16:58:51Z</time>
      </trkpt>
      <trkpt lat="42.47122" lon="2.96597">
        <ele>944.14</ele>
        <time>2021-10-29T16:58:51Z</time>
      </trkpt>
      <trkpt lat="42.47111" lon="2.96612">
        <ele>943.08</ele>
        <time>2021-10-29T16:58:51Z</time>
      </trkpt>
      <trkpt lat="42.47104" lon="2.96627">
        <ele>941.69</ele>
        <time>2021-10-29T16:58:51Z</time>
      </trkpt>
      <trkpt lat="42.47097" lon="2.96646">
        <ele>939.98</ele>
        <time>2021-10-29T16:58:51Z</time>
      </trkpt>
      <trkpt lat="42.47088" lon="2.96667">
        <ele>938.67</ele>
        <time>2021-10-29T16:58:51Z</time>
      </trkpt>
      <trkpt lat="42.47077" lon="2.96684">
        <ele>937.77</ele>
        <time>2021-10-29T16:58:51Z</time>
      </trkpt>
      <trkpt lat="42.47069" lon="2.96702">
        <ele>936.64</ele>
        <time>2021-10-29T16:58:51Z</time>
      </trkpt>
      <trkpt lat="42.4706" lon="2.96718">
        <ele>935.11</ele>
        <time>2021-10-29T16:58:51Z</time>
      </trkpt>
      <trkpt lat="42.4705" lon="2.96734">
        <ele>933.79</ele>
        <time>2021-10-29T16:58:51Z</time>
      </trkpt>
      <trkpt lat="42.47037" lon="2.9675">
        <ele>932.13</ele>
        <time>2021-10-29T16:58:51Z</time>
      </trkpt>
      <trkpt lat="42.4702" lon="2.96766">
        <ele>930.08</ele>
        <time>2021-10-29T16:58:51Z</time>
      </trkpt>
      <trkpt lat="42.47004" lon="2.96779">
        <ele>928.97</ele>
        <time>2021-10-29T16:58:51Z</time>
      </trkpt>
      <trkpt lat="42.46989" lon="2.96793">
        <ele>927.49</ele>
        <time>2021-10-29T16:58:51Z</time>
      </trkpt>
      <trkpt lat="42.46978" lon="2.96802">
        <ele>926.37</ele>
        <time>2021-10-29T16:58:51Z</time>
      </trkpt>
      <trkpt lat="42.46955" lon="2.96815">
        <ele>925.42</ele>
        <time>2021-10-29T16:58:51Z</time>
      </trkpt>
      <trkpt lat="42.46938" lon="2.96825">
        <ele>925.61</ele>
        <time>2021-10-29T16:58:51Z</time>
      </trkpt>
      <trkpt lat="42.4692" lon="2.96837">
        <ele>925.02</ele>
        <time>2021-10-29T16:58:51Z</time>
      </trkpt>
      <trkpt lat="42.46909" lon="2.9685">
        <ele>921.75</ele>
        <time>2021-10-29T16:58:51Z</time>
      </trkpt>
      <trkpt lat="42.46894" lon="2.96866">
        <ele>920.37</ele>
        <time>2021-10-29T16:58:51Z</time>
      </trkpt>
      <trkpt lat="42.46892" lon="2.96882">
        <ele>919.89</ele>
        <time>2021-10-29T16:58:51Z</time>
      </trkpt>
      <trkpt lat="42.469" lon="2.96897">
        <ele>919.07</ele>
        <time>2021-10-29T16:58:51Z</time>
      </trkpt>
      <trkpt lat="42.46914" lon="2.96902">
        <ele>919.09</ele>
        <time>2021-10-29T16:58:51Z</time>
      </trkpt>
      <trkpt lat="42.46931" lon="2.96906">
        <ele>917.91</ele>
        <time>2021-10-29T16:58:51Z</time>
      </trkpt>
      <trkpt lat="42.46948" lon="2.96915">
        <ele>919.7</ele>
        <time>2021-10-29T16:58:51Z</time>
      </trkpt>
      <trkpt lat="42.46967" lon="2.96928">
        <ele>922.78</ele>
        <time>2021-10-29T16:58:51Z</time>
      </trkpt>
      <trkpt lat="42.46984" lon="2.96936">
        <ele>923.67</ele>
        <time>2021-10-29T16:58:51Z</time>
      </trkpt>
      <trkpt lat="42.47001" lon="2.96944">
        <ele>924.26</ele>
        <time>2021-10-29T16:58:51Z</time>
      </trkpt>
      <trkpt lat="42.47018" lon="2.96958">
        <ele>924.93</ele>
        <time>2021-10-29T16:58:51Z</time>
      </trkpt>
      <trkpt lat="42.47027" lon="2.96978">
        <ele>927.28</ele>
        <time>2021-10-29T16:58:51Z</time>
      </trkpt>
      <trkpt lat="42.47039" lon="2.96998">
        <ele>927.07</ele>
        <time>2021-10-29T16:58:51Z</time>
      </trkpt>
      <trkpt lat="42.47049" lon="2.97018">
        <ele>928.15</ele>
        <time>2021-10-29T16:58:51Z</time>
      </trkpt>
      <trkpt lat="42.47055" lon="2.97039">
        <ele>930.29</ele>
        <time>2021-10-29T16:58:51Z</time>
      </trkpt>
      <trkpt lat="42.47062" lon="2.97057">
        <ele>931.16</ele>
        <time>2021-10-29T16:58:51Z</time>
      </trkpt>
      <trkpt lat="42.47069" lon="2.97075">
        <ele>931.52</ele>
        <time>2021-10-29T16:58:51Z</time>
      </trkpt>
      <trkpt lat="42.47069" lon="2.97098">
        <ele>935.23</ele>
        <time>2021-10-29T16:58:51Z</time>
      </trkpt>
      <trkpt lat="42.47069" lon="2.97112">
        <ele>936.65</ele>
        <time>2021-10-29T16:58:51Z</time>
      </trkpt>
      <trkpt lat="42.47075" lon="2.97132">
        <ele>936.76</ele>
        <time>2021-10-29T16:58:51Z</time>
      </trkpt>
      <trkpt lat="42.47086" lon="2.97154">
        <ele>937.77</ele>
        <time>2021-10-29T16:58:51Z</time>
      </trkpt>
      <trkpt lat="42.47096" lon="2.97174">
        <ele>938.6</ele>
        <time>2021-10-29T16:58:51Z</time>
      </trkpt>
      <trkpt lat="42.471" lon="2.97196">
        <ele>941.72</ele>
        <time>2021-10-29T16:58:51Z</time>
      </trkpt>
      <trkpt lat="42.47114" lon="2.97211">
        <ele>942.37</ele>
        <time>2021-10-29T16:58:51Z</time>
      </trkpt>
      <trkpt lat="42.47125" lon="2.97227">
        <ele>942.9</ele>
        <time>2021-10-29T16:58:51Z</time>
      </trkpt>
      <trkpt lat="42.47135" lon="2.97242">
        <ele>944.55</ele>
        <time>2021-10-29T16:58:51Z</time>
      </trkpt>
      <trkpt lat="42.47147" lon="2.97253">
        <ele>945.39</ele>
        <time>2021-10-29T16:58:51Z</time>
      </trkpt>
      <trkpt lat="42.47159" lon="2.97266">
        <ele>946.61</ele>
        <time>2021-10-29T16:58:51Z</time>
      </trkpt>
      <trkpt lat="42.47171" lon="2.97275">
        <ele>946.64</ele>
        <time>2021-10-29T16:58:51Z</time>
      </trkpt>
      <trkpt lat="42.47185" lon="2.97289">
        <ele>946.91</ele>
        <time>2021-10-29T16:58:51Z</time>
      </trkpt>
      <trkpt lat="42.47195" lon="2.97304">
        <ele>948.56</ele>
        <time>2021-10-29T16:58:51Z</time>
      </trkpt>
      <trkpt lat="42.47202" lon="2.97321">
        <ele>949.26</ele>
        <time>2021-10-29T16:58:51Z</time>
      </trkpt>
      <trkpt lat="42.472" lon="2.97342">
        <ele>950.27</ele>
        <time>2021-10-29T16:58:51Z</time>
      </trkpt>
      <trkpt lat="42.47191" lon="2.97361">
        <ele>952.06</ele>
        <time>2021-10-29T16:58:51Z</time>
      </trkpt>
      <trkpt lat="42.4718" lon="2.97378">
        <ele>954.3</ele>
        <time>2021-10-29T16:58:51Z</time>
      </trkpt>
      <trkpt lat="42.47165" lon="2.97398">
        <ele>955.85</ele>
        <time>2021-10-29T16:58:51Z</time>
      </trkpt>
      <trkpt lat="42.47154" lon="2.97414">
        <ele>957.06</ele>
        <time>2021-10-29T16:58:51Z</time>
      </trkpt>
      <trkpt lat="42.47145" lon="2.97434">
        <ele>957.12</ele>
        <time>2021-10-29T16:58:51Z</time>
      </trkpt>
      <trkpt lat="42.47133" lon="2.97455">
        <ele>959.3</ele>
        <time>2021-10-29T16:58:51Z</time>
      </trkpt>
      <trkpt lat="42.47123" lon="2.97478">
        <ele>962.07</ele>
        <time>2021-10-29T16:58:51Z</time>
      </trkpt>
      <trkpt lat="42.4712" lon="2.97499">
        <ele>961.26</ele>
        <time>2021-10-29T16:58:51Z</time>
      </trkpt>
      <trkpt lat="42.47115" lon="2.97518">
        <ele>962.44</ele>
        <time>2021-10-29T16:58:51Z</time>
      </trkpt>
      <trkpt lat="42.47104" lon="2.97542">
        <ele>965.84</ele>
        <time>2021-10-29T16:58:51Z</time>
      </trkpt>
      <trkpt lat="42.47099" lon="2.97573">
        <ele>969.57</ele>
        <time>2021-10-29T16:58:51Z</time>
      </trkpt>
      <trkpt lat="42.47097" lon="2.97597">
        <ele>969.81</ele>
        <time>2021-10-29T16:58:51Z</time>
      </trkpt>
      <trkpt lat="42.47092" lon="2.97619">
        <ele>972.15</ele>
        <time>2021-10-29T16:58:51Z</time>
      </trkpt>
      <trkpt lat="42.4709" lon="2.97643">
        <ele>972.79</ele>
        <time>2021-10-29T16:58:51Z</time>
      </trkpt>
      <trkpt lat="42.47086" lon="2.97658">
        <ele>973.62</ele>
        <time>2021-10-29T16:58:51Z</time>
      </trkpt>
      <trkpt lat="42.47073" lon="2.97671">
        <ele>976.57</ele>
        <time>2021-10-29T16:58:51Z</time>
      </trkpt>
      <trkpt lat="42.47067" lon="2.97685">
        <ele>977.27</ele>
        <time>2021-10-29T16:58:51Z</time>
      </trkpt>
      <trkpt lat="42.47071" lon="2.97702">
        <ele>977.09</ele>
        <time>2021-10-29T16:58:51Z</time>
      </trkpt>
      <trkpt lat="42.47078" lon="2.97722">
        <ele>977.65</ele>
        <time>2021-10-29T16:58:51Z</time>
      </trkpt>
      <trkpt lat="42.47076" lon="2.97743">
        <ele>979.5</ele>
        <time>2021-10-29T16:58:51Z</time>
      </trkpt>
      <trkpt lat="42.47076" lon="2.97768">
        <ele>981.08</ele>
        <time>2021-10-29T16:58:51Z</time>
      </trkpt>
      <trkpt lat="42.47078" lon="2.97793">
        <ele>982.83</ele>
        <time>2021-10-29T16:58:51Z</time>
      </trkpt>
      <trkpt lat="42.47078" lon="2.97812">
        <ele>984.31</ele>
        <time>2021-10-29T16:58:51Z</time>
      </trkpt>
      <trkpt lat="42.47081" lon="2.97832">
        <ele>986.35</ele>
        <time>2021-10-29T16:58:51Z</time>
      </trkpt>
      <trkpt lat="42.47087" lon="2.97856">
        <ele>986.62</ele>
        <time>2021-10-29T16:58:51Z</time>
      </trkpt>
      <trkpt lat="42.47087" lon="2.97877">
        <ele>987.15</ele>
        <time>2021-10-29T16:58:51Z</time>
      </trkpt>
      <trkpt lat="42.47084" lon="2.97912">
        <ele>989.48</ele>
        <time>2021-10-29T16:58:51Z</time>
      </trkpt>
      <trkpt lat="42.471" lon="2.97921">
        <ele>990.35</ele>
        <time>2021-10-29T16:58:51Z</time>
      </trkpt>
      <trkpt lat="42.47111" lon="2.97926">
        <ele>991.12</ele>
        <time>2021-10-29T16:58:51Z</time>
      </trkpt>
      <trkpt lat="42.47127" lon="2.97945">
        <ele>992.92</ele>
        <time>2021-10-29T16:58:51Z</time>
      </trkpt>
      <trkpt lat="42.47148" lon="2.97953">
        <ele>992.08</ele>
        <time>2021-10-29T16:58:51Z</time>
      </trkpt>
      <trkpt lat="42.47171" lon="2.97958">
        <ele>993.64</ele>
        <time>2021-10-29T16:58:51Z</time>
      </trkpt>
      <trkpt lat="42.47188" lon="2.97962">
        <ele>996.08</ele>
        <time>2021-10-29T16:58:51Z</time>
      </trkpt>
      <trkpt lat="42.47206" lon="2.97962">
        <ele>997.81</ele>
        <time>2021-10-29T16:58:51Z</time>
      </trkpt>
      <trkpt lat="42.47221" lon="2.97962">
        <ele>999.16</ele>
        <time>2021-10-29T16:58:51Z</time>
      </trkpt>
      <trkpt lat="42.47246" lon="2.97972">
        <ele>1001.62</ele>
        <time>2021-10-29T16:58:51Z</time>
      </trkpt>
      <trkpt lat="42.47256" lon="2.97981">
        <ele>1002.76</ele>
        <time>2021-10-29T16:58:51Z</time>
      </trkpt>
      <trkpt lat="42.47268" lon="2.97999">
        <ele>1004.02</ele>
        <time>2021-10-29T16:58:51Z</time>
      </trkpt>
      <trkpt lat="42.47277" lon="2.98021">
        <ele>1005.68</ele>
        <time>2021-10-29T16:58:51Z</time>
      </trkpt>
      <trkpt lat="42.47283" lon="2.98037">
        <ele>1006.97</ele>
        <time>2021-10-29T16:58:51Z</time>
      </trkpt>
      <trkpt lat="42.47288" lon="2.98059">
        <ele>1008.76</ele>
        <time>2021-10-29T16:58:51Z</time>
      </trkpt>
      <trkpt lat="42.47294" lon="2.98084">
        <ele>1009.49</ele>
        <time>2021-10-29T16:58:51Z</time>
      </trkpt>
      <trkpt lat="42.47288" lon="2.98112">
        <ele>1011.5</ele>
        <time>2021-10-29T16:58:51Z</time>
      </trkpt>
      <trkpt lat="42.47281" lon="2.98141">
        <ele>1013.06</ele>
        <time>2021-10-29T16:58:51Z</time>
      </trkpt>
      <trkpt lat="42.47277" lon="2.98161">
        <ele>1013.95</ele>
        <time>2021-10-29T16:58:51Z</time>
      </trkpt>
      <trkpt lat="42.4727" lon="2.98185">
        <ele>1015.51</ele>
        <time>2021-10-29T16:58:51Z</time>
      </trkpt>
      <trkpt lat="42.47264" lon="2.98205">
        <ele>1016.85</ele>
        <time>2021-10-29T16:58:51Z</time>
      </trkpt>
      <trkpt lat="42.47255" lon="2.98227">
        <ele>1018.84</ele>
        <time>2021-10-29T16:58:51Z</time>
      </trkpt>
      <trkpt lat="42.4725" lon="2.98246">
        <ele>1019.79</ele>
        <time>2021-10-29T16:58:51Z</time>
      </trkpt>
      <trkpt lat="42.47243" lon="2.98261">
        <ele>1020.64</ele>
        <time>2021-10-29T16:58:51Z</time>
      </trkpt>
      <trkpt lat="42.47237" lon="2.9828">
        <ele>1021</ele>
        <time>2021-10-29T16:58:51Z</time>
      </trkpt>
      <trkpt lat="42.47239" lon="2.983">
        <ele>1021.66</ele>
        <time>2021-10-29T16:58:51Z</time>
      </trkpt>
      <trkpt lat="42.47249" lon="2.98316">
        <ele>1021.92</ele>
        <time>2021-10-29T16:58:51Z</time>
      </trkpt>
      <trkpt lat="42.47266" lon="2.98331">
        <ele>1022.92</ele>
        <time>2021-10-29T16:58:51Z</time>
      </trkpt>
      <trkpt lat="42.47283" lon="2.98337">
        <ele>1022.68</ele>
        <time>2021-10-29T16:58:51Z</time>
      </trkpt>
      <trkpt lat="42.47299" lon="2.98348">
        <ele>1023.83</ele>
        <time>2021-10-29T16:58:51Z</time>
      </trkpt>
      <trkpt lat="42.47316" lon="2.98357">
        <ele>1024.1</ele>
        <time>2021-10-29T16:58:51Z</time>
      </trkpt>
      <trkpt lat="42.47334" lon="2.98364">
        <ele>1024.54</ele>
        <time>2021-10-29T16:58:51Z</time>
      </trkpt>
      <trkpt lat="42.47349" lon="2.98372">
        <ele>1024.83</ele>
        <time>2021-10-29T16:58:51Z</time>
      </trkpt>
      <trkpt lat="42.47365" lon="2.98382">
        <ele>1026.44</ele>
        <time>2021-10-29T16:58:51Z</time>
      </trkpt>
      <trkpt lat="42.47384" lon="2.98387">
        <ele>1025.88</ele>
        <time>2021-10-29T16:58:51Z</time>
      </trkpt>
      <trkpt lat="42.47399" lon="2.98392">
        <ele>1025.58</ele>
        <time>2021-10-29T16:58:51Z</time>
      </trkpt>
      <trkpt lat="42.47413" lon="2.98401">
        <ele>1026.3</ele>
        <time>2021-10-29T16:58:51Z</time>
      </trkpt>
      <trkpt lat="42.47427" lon="2.98407">
        <ele>1025.42</ele>
        <time>2021-10-29T16:58:51Z</time>
      </trkpt>
      <trkpt lat="42.47444" lon="2.98419">
        <ele>1025.19</ele>
        <time>2021-10-29T16:58:51Z</time>
      </trkpt>
      <trkpt lat="42.47455" lon="2.98438">
        <ele>1025.93</ele>
        <time>2021-10-29T16:58:51Z</time>
      </trkpt>
      <trkpt lat="42.47467" lon="2.98463">
        <ele>1026.63</ele>
        <time>2021-10-29T16:58:51Z</time>
      </trkpt>
      <trkpt lat="42.47482" lon="2.98472">
        <ele>1027.51</ele>
        <time>2021-10-29T16:58:51Z</time>
      </trkpt>
      <trkpt lat="42.47494" lon="2.98473">
        <ele>1027.89</ele>
        <time>2021-10-29T16:58:51Z</time>
      </trkpt>
      <trkpt lat="42.47505" lon="2.98473">
        <ele>1029.01</ele>
        <time>2021-10-29T16:58:51Z</time>
      </trkpt>
      <trkpt lat="42.4752" lon="2.98469">
        <ele>1029.89</ele>
        <time>2021-10-29T16:58:51Z</time>
      </trkpt>
      <trkpt lat="42.47533" lon="2.98459">
        <ele>1029.18</ele>
        <time>2021-10-29T16:58:51Z</time>
      </trkpt>
      <trkpt lat="42.47547" lon="2.98451">
        <ele>1030.6</ele>
        <time>2021-10-29T16:58:51Z</time>
      </trkpt>
      <trkpt lat="42.47562" lon="2.98443">
        <ele>1031.04</ele>
        <time>2021-10-29T16:58:51Z</time>
      </trkpt>
      <trkpt lat="42.47575" lon="2.98434">
        <ele>1031.02</ele>
        <time>2021-10-29T16:58:51Z</time>
      </trkpt>
      <trkpt lat="42.47588" lon="2.98429">
        <ele>1031.97</ele>
        <time>2021-10-29T16:58:51Z</time>
      </trkpt>
      <trkpt lat="42.476" lon="2.98416">
        <ele>1031.47</ele>
        <time>2021-10-29T16:58:51Z</time>
      </trkpt>
      <trkpt lat="42.47612" lon="2.98414">
        <ele>1032.36</ele>
        <time>2021-10-29T16:58:51Z</time>
      </trkpt>
      <trkpt lat="42.47625" lon="2.98408">
        <ele>1032.88</ele>
        <time>2021-10-29T16:58:51Z</time>
      </trkpt>
      <trkpt lat="42.47632" lon="2.9839">
        <ele>1032.06</ele>
        <time>2021-10-29T16:58:51Z</time>
      </trkpt>
      <trkpt lat="42.47633" lon="2.98361">
        <ele>1031.12</ele>
        <time>2021-10-29T16:58:51Z</time>
      </trkpt>
      <trkpt lat="42.47636" lon="2.98336">
        <ele>1032.94</ele>
        <time>2021-10-29T16:58:51Z</time>
      </trkpt>
      <trkpt lat="42.4764" lon="2.98317">
        <ele>1033.97</ele>
        <time>2021-10-29T16:58:51Z</time>
      </trkpt>
      <trkpt lat="42.47646" lon="2.98301">
        <ele>1033.51</ele>
        <time>2021-10-29T16:58:51Z</time>
      </trkpt>
      <trkpt lat="42.47661" lon="2.98282">
        <ele>1033.63</ele>
        <time>2021-10-29T16:58:51Z</time>
      </trkpt>
      <trkpt lat="42.47678" lon="2.98263">
        <ele>1033.6</ele>
        <time>2021-10-29T16:58:51Z</time>
      </trkpt>
      <trkpt lat="42.47692" lon="2.98249">
        <ele>1034.59</ele>
        <time>2021-10-29T16:58:51Z</time>
      </trkpt>
      <trkpt lat="42.47704" lon="2.98231">
        <ele>1034.56</ele>
        <time>2021-10-29T16:58:51Z</time>
      </trkpt>
      <trkpt lat="42.47721" lon="2.98215">
        <ele>1036.46</ele>
        <time>2021-10-29T16:58:51Z</time>
      </trkpt>
      <trkpt lat="42.47729" lon="2.98202">
        <ele>1036.32</ele>
        <time>2021-10-29T16:58:51Z</time>
      </trkpt>
      <trkpt lat="42.4774" lon="2.98189">
        <ele>1036.24</ele>
        <time>2021-10-29T16:58:51Z</time>
      </trkpt>
      <trkpt lat="42.47749" lon="2.98172">
        <ele>1034.43</ele>
        <time>2021-10-29T16:58:51Z</time>
      </trkpt>
      <trkpt lat="42.4776" lon="2.98162">
        <ele>1034.99</ele>
        <time>2021-10-29T16:58:51Z</time>
      </trkpt>
      <trkpt lat="42.47783" lon="2.98148">
        <ele>1035.71</ele>
        <time>2021-10-29T16:58:51Z</time>
      </trkpt>
      <trkpt lat="42.47803" lon="2.98145">
        <ele>1037.48</ele>
        <time>2021-10-29T16:58:51Z</time>
      </trkpt>
      <trkpt lat="42.4782" lon="2.98145">
        <ele>1038.44</ele>
        <time>2021-10-29T16:58:51Z</time>
      </trkpt>
      <trkpt lat="42.47843" lon="2.98145">
        <ele>1042.46</ele>
        <time>2021-10-29T16:58:51Z</time>
      </trkpt>
      <trkpt lat="42.47858" lon="2.98145">
        <ele>1043.19</ele>
        <time>2021-10-29T16:58:51Z</time>
      </trkpt>
      <trkpt lat="42.47877" lon="2.98142">
        <ele>1039.95</ele>
        <time>2021-10-29T16:58:51Z</time>
      </trkpt>
      <trkpt lat="42.47894" lon="2.98132">
        <ele>1038.46</ele>
        <time>2021-10-29T16:58:51Z</time>
      </trkpt>
      <trkpt lat="42.47912" lon="2.98131">
        <ele>1038.4</ele>
        <time>2021-10-29T16:58:51Z</time>
      </trkpt>
      <trkpt lat="42.4793" lon="2.9813">
        <ele>1039.58</ele>
        <time>2021-10-29T16:58:51Z</time>
      </trkpt>
      <trkpt lat="42.47945" lon="2.98129">
        <ele>1041.44</ele>
        <time>2021-10-29T16:58:51Z</time>
      </trkpt>
      <trkpt lat="42.4796" lon="2.98118">
        <ele>1037.82</ele>
        <time>2021-10-29T16:58:51Z</time>
      </trkpt>
      <trkpt lat="42.47975" lon="2.98116">
        <ele>1037.16</ele>
        <time>2021-10-29T16:58:51Z</time>
      </trkpt>
      <trkpt lat="42.47988" lon="2.98116">
        <ele>1035.44</ele>
        <time>2021-10-29T16:58:51Z</time>
      </trkpt>
      <trkpt lat="42.48006" lon="2.98129">
        <ele>1036.51</ele>
        <time>2021-10-29T16:58:51Z</time>
      </trkpt>
      <trkpt lat="42.48021" lon="2.98141">
        <ele>1038.21</ele>
        <time>2021-10-29T16:58:51Z</time>
      </trkpt>
      <trkpt lat="42.48033" lon="2.98144">
        <ele>1037.85</ele>
        <time>2021-10-29T16:58:51Z</time>
      </trkpt>
      <trkpt lat="42.48046" lon="2.98149">
        <ele>1037.79</ele>
        <time>2021-10-29T16:58:51Z</time>
      </trkpt>
      <trkpt lat="42.48046" lon="2.98165">
        <ele>1041</ele>
        <time>2021-10-29T16:58:51Z</time>
      </trkpt>
      <trkpt lat="42.4804" lon="2.98181">
        <ele>1044.72</ele>
        <time>2021-10-29T16:58:51Z</time>
      </trkpt>
      <trkpt lat="42.48028" lon="2.98191">
        <ele>1047.76</ele>
        <time>2021-10-29T16:58:51Z</time>
      </trkpt>
      <trkpt lat="42.48017" lon="2.98206">
        <ele>1051.39</ele>
        <time>2021-10-29T16:58:51Z</time>
      </trkpt>
      <trkpt lat="42.48" lon="2.98221">
        <ele>1055.5</ele>
        <time>2021-10-29T16:58:51Z</time>
      </trkpt>
      <trkpt lat="42.47985" lon="2.98235">
        <ele>1059.55</ele>
        <time>2021-10-29T16:58:51Z</time>
      </trkpt>
      <trkpt lat="42.47972" lon="2.98256">
        <ele>1064.7</ele>
        <time>2021-10-29T16:58:51Z</time>
      </trkpt>
      <trkpt lat="42.47964" lon="2.9828">
        <ele>1066.47</ele>
        <time>2021-10-29T16:58:51Z</time>
      </trkpt>
      <trkpt lat="42.47956" lon="2.98306">
        <ele>1063.66</ele>
        <time>2021-10-29T16:58:51Z</time>
      </trkpt>
      <trkpt lat="42.47953" lon="2.98335">
        <ele>1063.64</ele>
        <time>2021-10-29T16:58:51Z</time>
      </trkpt>
      <trkpt lat="42.4795" lon="2.98362">
        <ele>1064.84</ele>
        <time>2021-10-29T16:58:51Z</time>
      </trkpt>
      <trkpt lat="42.47945" lon="2.9839">
        <ele>1063.9</ele>
        <time>2021-10-29T16:58:51Z</time>
      </trkpt>
      <trkpt lat="42.47944" lon="2.98411">
        <ele>1064.33</ele>
        <time>2021-10-29T16:58:51Z</time>
      </trkpt>
      <trkpt lat="42.47943" lon="2.98433">
        <ele>1064.41</ele>
        <time>2021-10-29T16:58:51Z</time>
      </trkpt>
      <trkpt lat="42.47957" lon="2.98444">
        <ele>1060.98</ele>
        <time>2021-10-29T16:58:51Z</time>
      </trkpt>
      <trkpt lat="42.47975" lon="2.98448">
        <ele>1058.52</ele>
        <time>2021-10-29T16:58:51Z</time>
      </trkpt>
      <trkpt lat="42.47987" lon="2.98462">
        <ele>1058.39</ele>
        <time>2021-10-29T16:58:51Z</time>
      </trkpt>
      <trkpt lat="42.48003" lon="2.98478">
        <ele>1061.45</ele>
        <time>2021-10-29T16:58:51Z</time>
      </trkpt>
      <trkpt lat="42.4802" lon="2.98487">
        <ele>1058.6</ele>
        <time>2021-10-29T16:58:51Z</time>
      </trkpt>
      <trkpt lat="42.4804" lon="2.98494">
        <ele>1056.56</ele>
        <time>2021-10-29T16:58:51Z</time>
      </trkpt>
      <trkpt lat="42.48051" lon="2.98499">
        <ele>1055.61</ele>
        <time>2021-10-29T16:58:51Z</time>
      </trkpt>
      <trkpt lat="42.48066" lon="2.98502">
        <ele>1052.29</ele>
        <time>2021-10-29T16:58:51Z</time>
      </trkpt>
      <trkpt lat="42.48079" lon="2.98511">
        <ele>1051.32</ele>
        <time>2021-10-29T16:58:51Z</time>
      </trkpt>
      <trkpt lat="42.48095" lon="2.98529">
        <ele>1055.57</ele>
        <time>2021-10-29T16:58:51Z</time>
      </trkpt>
      <trkpt lat="42.48112" lon="2.98544">
        <ele>1055.56</ele>
        <time>2021-10-29T16:58:51Z</time>
      </trkpt>
      <trkpt lat="42.48127" lon="2.98562">
        <ele>1053.08</ele>
        <time>2021-10-29T16:58:51Z</time>
      </trkpt>
      <trkpt lat="42.48137" lon="2.98584">
        <ele>1052.33</ele>
        <time>2021-10-29T16:58:51Z</time>
      </trkpt>
      <trkpt lat="42.48142" lon="2.98605">
        <ele>1050.82</ele>
        <time>2021-10-29T16:58:51Z</time>
      </trkpt>
      <trkpt lat="42.48141" lon="2.98626">
        <ele>1052.63</ele>
        <time>2021-10-29T16:58:51Z</time>
      </trkpt>
      <trkpt lat="42.48137" lon="2.98644">
        <ele>1053.94</ele>
        <time>2021-10-29T16:58:51Z</time>
      </trkpt>
      <trkpt lat="42.48124" lon="2.98666">
        <ele>1059.73</ele>
        <time>2021-10-29T16:58:51Z</time>
      </trkpt>
      <trkpt lat="42.48116" lon="2.98679">
        <ele>1060.25</ele>
        <time>2021-10-29T16:58:51Z</time>
      </trkpt>
      <trkpt lat="42.48108" lon="2.98691">
        <ele>1061.21</ele>
        <time>2021-10-29T16:58:51Z</time>
      </trkpt>
      <trkpt lat="42.48086" lon="2.98725">
        <ele>1061.2</ele>
        <time>2021-10-29T16:58:51Z</time>
      </trkpt>
      <trkpt lat="42.48076" lon="2.98738">
        <ele>1060.01</ele>
        <time>2021-10-29T16:58:51Z</time>
      </trkpt>
      <trkpt lat="42.48064" lon="2.98751">
        <ele>1058.43</ele>
        <time>2021-10-29T16:58:51Z</time>
      </trkpt>
      <trkpt lat="42.48051" lon="2.9876">
        <ele>1058.87</ele>
        <time>2021-10-29T16:58:51Z</time>
      </trkpt>
      <trkpt lat="42.4804" lon="2.98773">
        <ele>1056.67</ele>
        <time>2021-10-29T16:58:51Z</time>
      </trkpt>
      <trkpt lat="42.48025" lon="2.98791">
        <ele>1053.85</ele>
        <time>2021-10-29T16:58:51Z</time>
      </trkpt>
      <trkpt lat="42.48009" lon="2.98811">
        <ele>1054.7</ele>
        <time>2021-10-29T16:58:51Z</time>
      </trkpt>
      <trkpt lat="42.47998" lon="2.9883">
        <ele>1055.73</ele>
        <time>2021-10-29T16:58:51Z</time>
      </trkpt>
      <trkpt lat="42.47986" lon="2.98848">
        <ele>1057.69</ele>
        <time>2021-10-29T16:58:51Z</time>
      </trkpt>
      <trkpt lat="42.47978" lon="2.98862">
        <ele>1058.65</ele>
        <time>2021-10-29T16:58:51Z</time>
      </trkpt>
      <trkpt lat="42.47969" lon="2.98877">
        <ele>1059.18</ele>
        <time>2021-10-29T16:58:51Z</time>
      </trkpt>
      <trkpt lat="42.47961" lon="2.9889">
        <ele>1060.51</ele>
        <time>2021-10-29T16:58:51Z</time>
      </trkpt>
      <trkpt lat="42.47956" lon="2.98906">
        <ele>1060.05</ele>
        <time>2021-10-29T16:58:51Z</time>
      </trkpt>
      <trkpt lat="42.47953" lon="2.9892">
        <ele>1059.84</ele>
        <time>2021-10-29T16:58:51Z</time>
      </trkpt>
      <trkpt lat="42.47952" lon="2.98939">
        <ele>1058.45</ele>
        <time>2021-10-29T16:58:51Z</time>
      </trkpt>
      <trkpt lat="42.47952" lon="2.9896">
        <ele>1058.63</ele>
        <time>2021-10-29T16:58:51Z</time>
      </trkpt>
      <trkpt lat="42.47954" lon="2.98986">
        <ele>1060.51</ele>
        <time>2021-10-29T16:58:51Z</time>
      </trkpt>
      <trkpt lat="42.47955" lon="2.99009">
        <ele>1063.21</ele>
        <time>2021-10-29T16:58:51Z</time>
      </trkpt>
      <trkpt lat="42.4796" lon="2.99028">
        <ele>1061.84</ele>
        <time>2021-10-29T16:58:51Z</time>
      </trkpt>
      <trkpt lat="42.47968" lon="2.99053">
        <ele>1056.02</ele>
        <time>2021-10-29T16:58:51Z</time>
      </trkpt>
      <trkpt lat="42.47972" lon="2.99076">
        <ele>1053.74</ele>
        <time>2021-10-29T16:58:51Z</time>
      </trkpt>
      <trkpt lat="42.47973" lon="2.99098">
        <ele>1049.48</ele>
        <time>2021-10-29T16:58:51Z</time>
      </trkpt>
      <trkpt lat="42.47965" lon="2.99119">
        <ele>1051.37</ele>
        <time>2021-10-29T16:58:51Z</time>
      </trkpt>
      <trkpt lat="42.47953" lon="2.99138">
        <ele>1053.64</ele>
        <time>2021-10-29T16:58:51Z</time>
      </trkpt>
      <trkpt lat="42.47941" lon="2.9915">
        <ele>1054.11</ele>
        <time>2021-10-29T16:58:51Z</time>
      </trkpt>
      <trkpt lat="42.4793" lon="2.99157">
        <ele>1055.8</ele>
        <time>2021-10-29T16:58:51Z</time>
      </trkpt>
      <trkpt lat="42.47913" lon="2.99164">
        <ele>1054.43</ele>
        <time>2021-10-29T16:58:51Z</time>
      </trkpt>
      <trkpt lat="42.47899" lon="2.9917">
        <ele>1050.18</ele>
        <time>2021-10-29T16:58:51Z</time>
      </trkpt>
      <trkpt lat="42.47883" lon="2.99172">
        <ele>1049.52</ele>
        <time>2021-10-29T16:58:51Z</time>
      </trkpt>
      <trkpt lat="42.47866" lon="2.9917">
        <ele>1053.33</ele>
        <time>2021-10-29T16:58:51Z</time>
      </trkpt>
      <trkpt lat="42.47847" lon="2.99163">
        <ele>1054.6</ele>
        <time>2021-10-29T16:58:51Z</time>
      </trkpt>
      <trkpt lat="42.47829" lon="2.99163">
        <ele>1051.84</ele>
        <time>2021-10-29T16:58:51Z</time>
      </trkpt>
      <trkpt lat="42.47814" lon="2.9916">
        <ele>1048.85</ele>
        <time>2021-10-29T16:58:51Z</time>
      </trkpt>
      <trkpt lat="42.47797" lon="2.99152">
        <ele>1045.28</ele>
        <time>2021-10-29T16:58:51Z</time>
      </trkpt>
      <trkpt lat="42.47786" lon="2.9915">
        <ele>1044.09</ele>
        <time>2021-10-29T16:58:51Z</time>
      </trkpt>
      <trkpt lat="42.47774" lon="2.99141">
        <ele>1044.58</ele>
        <time>2021-10-29T16:58:51Z</time>
      </trkpt>
      <trkpt lat="42.47769" lon="2.99126">
        <ele>1048.41</ele>
        <time>2021-10-29T16:58:51Z</time>
      </trkpt>
      <trkpt lat="42.47767" lon="2.99112">
        <ele>1051.19</ele>
        <time>2021-10-29T16:58:51Z</time>
      </trkpt>
      <trkpt lat="42.4776" lon="2.99098">
        <ele>1053.02</ele>
        <time>2021-10-29T16:58:51Z</time>
      </trkpt>
      <trkpt lat="42.47751" lon="2.99089">
        <ele>1052.75</ele>
        <time>2021-10-29T16:58:51Z</time>
      </trkpt>
      <trkpt lat="42.47734" lon="2.99087">
        <ele>1047.86</ele>
        <time>2021-10-29T16:58:51Z</time>
      </trkpt>
      <trkpt lat="42.47721" lon="2.99095">
        <ele>1045.93</ele>
        <time>2021-10-29T16:58:51Z</time>
      </trkpt>
      <trkpt lat="42.47709" lon="2.9911">
        <ele>1048.43</ele>
        <time>2021-10-29T16:58:51Z</time>
      </trkpt>
      <trkpt lat="42.47698" lon="2.99123">
        <ele>1049.03</ele>
        <time>2021-10-29T16:58:51Z</time>
      </trkpt>
      <trkpt lat="42.47691" lon="2.99144">
        <ele>1047.62</ele>
        <time>2021-10-29T16:58:51Z</time>
      </trkpt>
      <trkpt lat="42.47686" lon="2.99169">
        <ele>1044.85</ele>
        <time>2021-10-29T16:58:51Z</time>
      </trkpt>
      <trkpt lat="42.47679" lon="2.99196">
        <ele>1042.85</ele>
        <time>2021-10-29T16:58:51Z</time>
      </trkpt>
      <trkpt lat="42.47674" lon="2.99223">
        <ele>1041.45</ele>
        <time>2021-10-29T16:58:51Z</time>
      </trkpt>
      <trkpt lat="42.47668" lon="2.99244">
        <ele>1041.62</ele>
        <time>2021-10-29T16:58:51Z</time>
      </trkpt>
      <trkpt lat="42.47663" lon="2.99267">
        <ele>1041.32</ele>
        <time>2021-10-29T16:58:51Z</time>
      </trkpt>
      <trkpt lat="42.47661" lon="2.99295">
        <ele>1039.86</ele>
        <time>2021-10-29T16:58:51Z</time>
      </trkpt>
      <trkpt lat="42.47656" lon="2.99321">
        <ele>1039.41</ele>
        <time>2021-10-29T16:58:51Z</time>
      </trkpt>
      <trkpt lat="42.47652" lon="2.99346">
        <ele>1039.34</ele>
        <time>2021-10-29T16:58:51Z</time>
      </trkpt>
      <trkpt lat="42.47649" lon="2.99368">
        <ele>1040.05</ele>
        <time>2021-10-29T16:58:51Z</time>
      </trkpt>
      <trkpt lat="42.47645" lon="2.99392">
        <ele>1041.03</ele>
        <time>2021-10-29T16:58:51Z</time>
      </trkpt>
      <trkpt lat="42.47644" lon="2.9941">
        <ele>1041.32</ele>
        <time>2021-10-29T16:58:51Z</time>
      </trkpt>
      <trkpt lat="42.47648" lon="2.99436">
        <ele>1041.03</ele>
        <time>2021-10-29T16:58:51Z</time>
      </trkpt>
      <trkpt lat="42.47654" lon="2.99456">
        <ele>1041.46</ele>
        <time>2021-10-29T16:58:51Z</time>
      </trkpt>
      <trkpt lat="42.47661" lon="2.99478">
        <ele>1041.84</ele>
        <time>2021-10-29T16:58:51Z</time>
      </trkpt>
      <trkpt lat="42.47668" lon="2.99498">
        <ele>1042.88</ele>
        <time>2021-10-29T16:58:51Z</time>
      </trkpt>
      <trkpt lat="42.47681" lon="2.99516">
        <ele>1043.75</ele>
        <time>2021-10-29T16:58:51Z</time>
      </trkpt>
      <trkpt lat="42.47695" lon="2.99529">
        <ele>1043.37</ele>
        <time>2021-10-29T16:58:51Z</time>
      </trkpt>
      <trkpt lat="42.47712" lon="2.99533">
        <ele>1042.04</ele>
        <time>2021-10-29T16:58:51Z</time>
      </trkpt>
      <trkpt lat="42.47729" lon="2.99544">
        <ele>1043.04</ele>
        <time>2021-10-29T16:58:51Z</time>
      </trkpt>
      <trkpt lat="42.47744" lon="2.99559">
        <ele>1043.73</ele>
        <time>2021-10-29T16:58:51Z</time>
      </trkpt>
      <trkpt lat="42.47758" lon="2.99578">
        <ele>1042.82</ele>
        <time>2021-10-29T16:58:51Z</time>
      </trkpt>
      <trkpt lat="42.47765" lon="2.99603">
        <ele>1041.8</ele>
        <time>2021-10-29T16:58:51Z</time>
      </trkpt>
      <trkpt lat="42.47773" lon="2.99623">
        <ele>1040.64</ele>
        <time>2021-10-29T16:58:51Z</time>
      </trkpt>
      <trkpt lat="42.47774" lon="2.99646">
        <ele>1043.07</ele>
        <time>2021-10-29T16:58:51Z</time>
      </trkpt>
      <trkpt lat="42.47778" lon="2.99673">
        <ele>1043.21</ele>
        <time>2021-10-29T16:58:51Z</time>
      </trkpt>
      <trkpt lat="42.47778" lon="2.99691">
        <ele>1043.67</ele>
        <time>2021-10-29T16:58:51Z</time>
      </trkpt>
      <trkpt lat="42.47777" lon="2.99716">
        <ele>1042.4</ele>
        <time>2021-10-29T16:58:51Z</time>
      </trkpt>
      <trkpt lat="42.47776" lon="2.99733">
        <ele>1041.33</ele>
        <time>2021-10-29T16:58:51Z</time>
      </trkpt>
      <trkpt lat="42.47776" lon="2.99756">
        <ele>1041.88</ele>
        <time>2021-10-29T16:58:51Z</time>
      </trkpt>
      <trkpt lat="42.47786" lon="2.99779">
        <ele>1042.57</ele>
        <time>2021-10-29T16:58:51Z</time>
      </trkpt>
      <trkpt lat="42.47796" lon="2.99803">
        <ele>1041.94</ele>
        <time>2021-10-29T16:58:51Z</time>
      </trkpt>
      <trkpt lat="42.47804" lon="2.99826">
        <ele>1040.89</ele>
        <time>2021-10-29T16:58:51Z</time>
      </trkpt>
      <trkpt lat="42.47812" lon="2.99856">
        <ele>1040.2</ele>
        <time>2021-10-29T16:58:51Z</time>
      </trkpt>
      <trkpt lat="42.4782" lon="2.99887">
        <ele>1039.09</ele>
        <time>2021-10-29T16:58:51Z</time>
      </trkpt>
      <trkpt lat="42.4782" lon="2.99907">
        <ele>1039.05</ele>
        <time>2021-10-29T16:58:51Z</time>
      </trkpt>
      <trkpt lat="42.4782" lon="2.99924">
        <ele>1038.91</ele>
        <time>2021-10-29T16:58:51Z</time>
      </trkpt>
      <trkpt lat="42.47821" lon="2.99943">
        <ele>1037.89</ele>
        <time>2021-10-29T16:58:51Z</time>
      </trkpt>
      <trkpt lat="42.47831" lon="2.99957">
        <ele>1035.16</ele>
        <time>2021-10-29T16:58:51Z</time>
      </trkpt>
      <trkpt lat="42.47846" lon="2.99955">
        <ele>1033.97</ele>
        <time>2021-10-29T16:58:51Z</time>
      </trkpt>
      <trkpt lat="42.47858" lon="2.99944">
        <ele>1034.73</ele>
        <time>2021-10-29T16:58:51Z</time>
      </trkpt>
      <trkpt lat="42.47878" lon="2.99945">
        <ele>1033.83</ele>
        <time>2021-10-29T16:58:51Z</time>
      </trkpt>
      <trkpt lat="42.47895" lon="2.99955">
        <ele>1033.69</ele>
        <time>2021-10-29T16:58:51Z</time>
      </trkpt>
      <trkpt lat="42.47909" lon="2.99975">
        <ele>1029.21</ele>
        <time>2021-10-29T16:58:51Z</time>
      </trkpt>
      <trkpt lat="42.47923" lon="2.99985">
        <ele>1026.71</ele>
        <time>2021-10-29T16:58:51Z</time>
      </trkpt>
      <trkpt lat="42.47937" lon="2.99998">
        <ele>1023.67</ele>
        <time>2021-10-29T16:58:51Z</time>
      </trkpt>
      <trkpt lat="42.47953" lon="3.00016">
        <ele>1021.56</ele>
        <time>2021-10-29T16:58:51Z</time>
      </trkpt>
      <trkpt lat="42.47962" lon="3.00042">
        <ele>1017.87</ele>
        <time>2021-10-29T16:58:51Z</time>
      </trkpt>
      <trkpt lat="42.47975" lon="3.00061">
        <ele>1017.26</ele>
        <time>2021-10-29T16:58:51Z</time>
      </trkpt>
      <trkpt lat="42.47988" lon="3.00085">
        <ele>1014.44</ele>
        <time>2021-10-29T16:58:51Z</time>
      </trkpt>
      <trkpt lat="42.47994" lon="3.00106">
        <ele>1010.74</ele>
        <time>2021-10-29T16:58:51Z</time>
      </trkpt>
      <trkpt lat="42.48011" lon="3.00127">
        <ele>1009.53</ele>
        <time>2021-10-29T16:58:51Z</time>
      </trkpt>
      <trkpt lat="42.48039" lon="3.00134">
        <ele>1011.05</ele>
        <time>2021-10-29T16:58:51Z</time>
      </trkpt>
      <trkpt lat="42.48057" lon="3.00131">
        <ele>1013.02</ele>
        <time>2021-10-29T16:58:51Z</time>
      </trkpt>
      <trkpt lat="42.48074" lon="3.00145">
        <ele>1010.91</ele>
        <time>2021-10-29T16:58:51Z</time>
      </trkpt>
      <trkpt lat="42.48088" lon="3.00156">
        <ele>1008.38</ele>
        <time>2021-10-29T16:58:51Z</time>
      </trkpt>
      <trkpt lat="42.48104" lon="3.00167">
        <ele>997.54</ele>
        <time>2021-10-29T16:58:51Z</time>
      </trkpt>
      <trkpt lat="42.48123" lon="3.00183">
        <ele>985</ele>
        <time>2021-10-29T16:58:51Z</time>
      </trkpt>
      <trkpt lat="42.48144" lon="3.002">
        <ele>983.42</ele>
        <time>2021-10-29T16:58:51Z</time>
      </trkpt>
      <trkpt lat="42.48157" lon="3.0021">
        <ele>981.26</ele>
        <time>2021-10-29T16:58:51Z</time>
      </trkpt>
      <trkpt lat="42.4817" lon="3.00223">
        <ele>978.51</ele>
        <time>2021-10-29T16:58:51Z</time>
      </trkpt>
      <trkpt lat="42.48185" lon="3.00229">
        <ele>975.29</ele>
        <time>2021-10-29T16:58:51Z</time>
      </trkpt>
      <trkpt lat="42.48199" lon="3.00224">
        <ele>979.38</ele>
        <time>2021-10-29T16:58:51Z</time>
      </trkpt>
      <trkpt lat="42.48219" lon="3.00211">
        <ele>986.75</ele>
        <time>2021-10-29T16:58:51Z</time>
      </trkpt>
      <trkpt lat="42.48247" lon="3.00191">
        <ele>979.94</ele>
        <time>2021-10-29T16:58:51Z</time>
      </trkpt>
      <trkpt lat="42.48262" lon="3.00178">
        <ele>976.99</ele>
        <time>2021-10-29T16:58:51Z</time>
      </trkpt>
      <trkpt lat="42.48274" lon="3.00173">
        <ele>973.91</ele>
        <time>2021-10-29T16:58:51Z</time>
      </trkpt>
      <trkpt lat="42.48285" lon="3.00168">
        <ele>972.55</ele>
        <time>2021-10-29T16:58:51Z</time>
      </trkpt>
      <trkpt lat="42.48301" lon="3.00164">
        <ele>967.81</ele>
        <time>2021-10-29T16:58:51Z</time>
      </trkpt>
      <trkpt lat="42.4832" lon="3.00158">
        <ele>965.28</ele>
        <time>2021-10-29T16:58:51Z</time>
      </trkpt>
      <trkpt lat="42.48332" lon="3.00155">
        <ele>962.74</ele>
        <time>2021-10-29T16:58:51Z</time>
      </trkpt>
      <trkpt lat="42.48351" lon="3.00152">
        <ele>954.44</ele>
        <time>2021-10-29T16:58:51Z</time>
      </trkpt>
      <trkpt lat="42.48369" lon="3.00145">
        <ele>949.86</ele>
        <time>2021-10-29T16:58:51Z</time>
      </trkpt>
      <trkpt lat="42.48388" lon="3.00145">
        <ele>950.58</ele>
        <time>2021-10-29T16:58:51Z</time>
      </trkpt>
      <trkpt lat="42.48403" lon="3.00147">
        <ele>950.72</ele>
        <time>2021-10-29T16:58:51Z</time>
      </trkpt>
      <trkpt lat="42.48419" lon="3.00147">
        <ele>948.33</ele>
        <time>2021-10-29T16:58:51Z</time>
      </trkpt>
      <trkpt lat="42.48441" lon="3.0015">
        <ele>944.14</ele>
        <time>2021-10-29T16:58:51Z</time>
      </trkpt>
      <trkpt lat="42.48458" lon="3.00158">
        <ele>941.49</ele>
        <time>2021-10-29T16:58:51Z</time>
      </trkpt>
      <trkpt lat="42.48472" lon="3.00161">
        <ele>939.98</ele>
        <time>2021-10-29T16:58:51Z</time>
      </trkpt>
      <trkpt lat="42.48487" lon="3.00161">
        <ele>938.97</ele>
        <time>2021-10-29T16:58:51Z</time>
      </trkpt>
      <trkpt lat="42.48498" lon="3.00161">
        <ele>937.48</ele>
        <time>2021-10-29T16:58:51Z</time>
      </trkpt>
      <trkpt lat="42.48512" lon="3.00146">
        <ele>939.82</ele>
        <time>2021-10-29T16:58:51Z</time>
      </trkpt>
      <trkpt lat="42.48525" lon="3.00129">
        <ele>943.79</ele>
        <time>2021-10-29T16:58:51Z</time>
      </trkpt>
      <trkpt lat="42.48538" lon="3.00113">
        <ele>940.98</ele>
        <time>2021-10-29T16:58:51Z</time>
      </trkpt>
      <trkpt lat="42.48551" lon="3.00098">
        <ele>940.84</ele>
        <time>2021-10-29T16:58:51Z</time>
      </trkpt>
      <trkpt lat="42.48565" lon="3.00085">
        <ele>936.73</ele>
        <time>2021-10-29T16:58:51Z</time>
      </trkpt>
      <trkpt lat="42.48579" lon="3.00074">
        <ele>932.71</ele>
        <time>2021-10-29T16:58:51Z</time>
      </trkpt>
      <trkpt lat="42.48593" lon="3.0006">
        <ele>929.02</ele>
        <time>2021-10-29T16:58:51Z</time>
      </trkpt>
      <trkpt lat="42.48612" lon="3.00056">
        <ele>924.36</ele>
        <time>2021-10-29T16:58:51Z</time>
      </trkpt>
      <trkpt lat="42.48635" lon="3.00044">
        <ele>915.12</ele>
        <time>2021-10-29T16:58:51Z</time>
      </trkpt>
      <trkpt lat="42.48657" lon="3.0003">
        <ele>910.09</ele>
        <time>2021-10-29T16:58:51Z</time>
      </trkpt>
      <trkpt lat="42.48665" lon="3.00015">
        <ele>909.39</ele>
        <time>2021-10-29T16:58:51Z</time>
      </trkpt>
      <trkpt lat="42.48677" lon="3.00002">
        <ele>908.05</ele>
        <time>2021-10-29T16:58:51Z</time>
      </trkpt>
      <trkpt lat="42.48695" lon="2.99989">
        <ele>905.75</ele>
        <time>2021-10-29T16:58:51Z</time>
      </trkpt>
      <trkpt lat="42.48709" lon="2.99982">
        <ele>903.7</ele>
        <time>2021-10-29T16:58:51Z</time>
      </trkpt>
      <trkpt lat="42.48726" lon="2.9997">
        <ele>901.42</ele>
        <time>2021-10-29T16:58:51Z</time>
      </trkpt>
      <trkpt lat="42.48742" lon="2.99957">
        <ele>899.28</ele>
        <time>2021-10-29T16:58:51Z</time>
      </trkpt>
      <trkpt lat="42.4876" lon="2.99947">
        <ele>897.09</ele>
        <time>2021-10-29T16:58:51Z</time>
      </trkpt>
      <trkpt lat="42.48775" lon="2.99942">
        <ele>897.88</ele>
        <time>2021-10-29T16:58:51Z</time>
      </trkpt>
      <trkpt lat="42.48794" lon="2.9993">
        <ele>900.59</ele>
        <time>2021-10-29T16:58:51Z</time>
      </trkpt>
      <trkpt lat="42.48811" lon="2.99924">
        <ele>903.19</ele>
        <time>2021-10-29T16:58:51Z</time>
      </trkpt>
      <trkpt lat="42.48824" lon="2.99917">
        <ele>905.47</ele>
        <time>2021-10-29T16:58:51Z</time>
      </trkpt>
      <trkpt lat="42.48845" lon="2.99909">
        <ele>909.23</ele>
        <time>2021-10-29T16:58:51Z</time>
      </trkpt>
      <trkpt lat="42.48865" lon="2.99905">
        <ele>913.92</ele>
        <time>2021-10-29T16:58:51Z</time>
      </trkpt>
      <trkpt lat="42.4888" lon="2.99898">
        <ele>918.79</ele>
        <time>2021-10-29T16:58:51Z</time>
      </trkpt>
      <trkpt lat="42.48898" lon="2.99888">
        <ele>925.26</ele>
        <time>2021-10-29T16:58:51Z</time>
      </trkpt>
      <trkpt lat="42.48913" lon="2.99881">
        <ele>928.82</ele>
        <time>2021-10-29T16:58:51Z</time>
      </trkpt>
      <trkpt lat="42.48926" lon="2.99869">
        <ele>930.05</ele>
        <time>2021-10-29T16:58:51Z</time>
      </trkpt>
      <trkpt lat="42.48938" lon="2.99857">
        <ele>930.63</ele>
        <time>2021-10-29T16:58:51Z</time>
      </trkpt>
      <trkpt lat="42.48949" lon="2.99848">
        <ele>930.22</ele>
        <time>2021-10-29T16:58:51Z</time>
      </trkpt>
      <trkpt lat="42.4896" lon="2.99838">
        <ele>929.23</ele>
        <time>2021-10-29T16:58:51Z</time>
      </trkpt>
      <trkpt lat="42.48972" lon="2.99825">
        <ele>927.49</ele>
        <time>2021-10-29T16:58:51Z</time>
      </trkpt>
      <trkpt lat="42.48983" lon="2.99815">
        <ele>926.44</ele>
        <time>2021-10-29T16:58:51Z</time>
      </trkpt>
      <trkpt lat="42.48996" lon="2.9981">
        <ele>925.61</ele>
        <time>2021-10-29T16:58:51Z</time>
      </trkpt>
      <trkpt lat="42.4901" lon="2.99808">
        <ele>924</ele>
        <time>2021-10-29T16:58:51Z</time>
      </trkpt>
      <trkpt lat="42.49022" lon="2.998">
        <ele>923.24</ele>
        <time>2021-10-29T16:58:51Z</time>
      </trkpt>
      <trkpt lat="42.49036" lon="2.99785">
        <ele>921.44</ele>
        <time>2021-10-29T16:58:51Z</time>
      </trkpt>
      <trkpt lat="42.4905" lon="2.99769">
        <ele>918.12</ele>
        <time>2021-10-29T16:58:51Z</time>
      </trkpt>
      <trkpt lat="42.49069" lon="2.99775">
        <ele>914.12</ele>
        <time>2021-10-29T16:58:51Z</time>
      </trkpt>
      <trkpt lat="42.49082" lon="2.99761">
        <ele>910.17</ele>
        <time>2021-10-29T16:58:51Z</time>
      </trkpt>
      <trkpt lat="42.49093" lon="2.99745">
        <ele>904.45</ele>
        <time>2021-10-29T16:58:51Z</time>
      </trkpt>
      <trkpt lat="42.49107" lon="2.99746">
        <ele>902.02</ele>
        <time>2021-10-29T16:58:51Z</time>
      </trkpt>
      <trkpt lat="42.49126" lon="2.9974">
        <ele>899.89</ele>
        <time>2021-10-29T16:58:51Z</time>
      </trkpt>
      <trkpt lat="42.4914" lon="2.99729">
        <ele>897.02</ele>
        <time>2021-10-29T16:58:51Z</time>
      </trkpt>
      <trkpt lat="42.49154" lon="2.99732">
        <ele>892.59</ele>
        <time>2021-10-29T16:58:51Z</time>
      </trkpt>
      <trkpt lat="42.49164" lon="2.99734">
        <ele>888.98</ele>
        <time>2021-10-29T16:58:51Z</time>
      </trkpt>
      <trkpt lat="42.49186" lon="2.99722">
        <ele>884.63</ele>
        <time>2021-10-29T16:58:51Z</time>
      </trkpt>
      <trkpt lat="42.492" lon="2.99722">
        <ele>881.34</ele>
        <time>2021-10-29T16:58:51Z</time>
      </trkpt>
      <trkpt lat="42.49218" lon="2.99725">
        <ele>878.4</ele>
        <time>2021-10-29T16:58:51Z</time>
      </trkpt>
      <trkpt lat="42.49231" lon="2.99728">
        <ele>876.38</ele>
        <time>2021-10-29T16:58:51Z</time>
      </trkpt>
      <trkpt lat="42.49246" lon="2.9972">
        <ele>874.8</ele>
        <time>2021-10-29T16:58:51Z</time>
      </trkpt>
      <trkpt lat="42.49259" lon="2.997">
        <ele>872.99</ele>
        <time>2021-10-29T16:58:51Z</time>
      </trkpt>
      <trkpt lat="42.49262" lon="2.9967">
        <ele>868.15</ele>
        <time>2021-10-29T16:58:51Z</time>
      </trkpt>
      <trkpt lat="42.49271" lon="2.99653">
        <ele>865.03</ele>
        <time>2021-10-29T16:58:51Z</time>
      </trkpt>
      <trkpt lat="42.49282" lon="2.99638">
        <ele>863.22</ele>
        <time>2021-10-29T16:58:51Z</time>
      </trkpt>
      <trkpt lat="42.493" lon="2.99622">
        <ele>861.65</ele>
        <time>2021-10-29T16:58:51Z</time>
      </trkpt>
      <trkpt lat="42.49313" lon="2.99611">
        <ele>860.61</ele>
        <time>2021-10-29T16:58:51Z</time>
      </trkpt>
      <trkpt lat="42.49327" lon="2.99594">
        <ele>853.09</ele>
        <time>2021-10-29T16:58:51Z</time>
      </trkpt>
      <trkpt lat="42.4933" lon="2.99568">
        <ele>846.63</ele>
        <time>2021-10-29T16:58:51Z</time>
      </trkpt>
      <trkpt lat="42.49333" lon="2.99542">
        <ele>839.58</ele>
        <time>2021-10-29T16:58:51Z</time>
      </trkpt>
      <trkpt lat="42.49337" lon="2.99516">
        <ele>832.97</ele>
        <time>2021-10-29T16:58:51Z</time>
      </trkpt>
      <trkpt lat="42.49343" lon="2.995">
        <ele>824.85</ele>
        <time>2021-10-29T16:58:51Z</time>
      </trkpt>
      <trkpt lat="42.49356" lon="2.99485">
        <ele>818.84</ele>
        <time>2021-10-29T16:58:51Z</time>
      </trkpt>
      <trkpt lat="42.49375" lon="2.99467">
        <ele>813.95</ele>
        <time>2021-10-29T16:58:51Z</time>
      </trkpt>
      <trkpt lat="42.49388" lon="2.99451">
        <ele>807.16</ele>
        <time>2021-10-29T16:58:51Z</time>
      </trkpt>
      <trkpt lat="42.49398" lon="2.99434">
        <ele>802.16</ele>
        <time>2021-10-29T16:58:51Z</time>
      </trkpt>
      <trkpt lat="42.49418" lon="2.99431">
        <ele>798.19</ele>
        <time>2021-10-29T16:58:51Z</time>
      </trkpt>
      <trkpt lat="42.49434" lon="2.99439">
        <ele>791.91</ele>
        <time>2021-10-29T16:58:51Z</time>
      </trkpt>
      <trkpt lat="42.49451" lon="2.99449">
        <ele>787.99</ele>
        <time>2021-10-29T16:58:51Z</time>
      </trkpt>
      <trkpt lat="42.49461" lon="2.99449">
        <ele>785.12</ele>
        <time>2021-10-29T16:58:51Z</time>
      </trkpt>
      <trkpt lat="42.49477" lon="2.99441">
        <ele>774.64</ele>
        <time>2021-10-29T16:58:51Z</time>
      </trkpt>
      <trkpt lat="42.49488" lon="2.9944">
        <ele>770.21</ele>
        <time>2021-10-29T16:58:51Z</time>
      </trkpt>
      <trkpt lat="42.49498" lon="2.99427">
        <ele>766.84</ele>
        <time>2021-10-29T16:58:51Z</time>
      </trkpt>
      <trkpt lat="42.49508" lon="2.99426">
        <ele>764.17</ele>
        <time>2021-10-29T16:58:51Z</time>
      </trkpt>
      <trkpt lat="42.49519" lon="2.99419">
        <ele>759.46</ele>
        <time>2021-10-29T16:58:51Z</time>
      </trkpt>
      <trkpt lat="42.4953" lon="2.99422">
        <ele>755</ele>
        <time>2021-10-29T16:58:51Z</time>
      </trkpt>
      <trkpt lat="42.49532" lon="2.99406">
        <ele>751.35</ele>
        <time>2021-10-29T16:58:51Z</time>
      </trkpt>
      <trkpt lat="42.49544" lon="2.99392">
        <ele>745.93</ele>
        <time>2021-10-29T16:58:51Z</time>
      </trkpt>
      <trkpt lat="42.49552" lon="2.99378">
        <ele>741.65</ele>
        <time>2021-10-29T16:58:51Z</time>
      </trkpt>
      <trkpt lat="42.4956" lon="2.99364">
        <ele>737.05</ele>
        <time>2021-10-29T16:58:51Z</time>
      </trkpt>
      <trkpt lat="42.49572" lon="2.99356">
        <ele>732.74</ele>
        <time>2021-10-29T16:58:51Z</time>
      </trkpt>
      <trkpt lat="42.49582" lon="2.99349">
        <ele>729.1</ele>
        <time>2021-10-29T16:58:51Z</time>
      </trkpt>
      <trkpt lat="42.49598" lon="2.99335">
        <ele>722.11</ele>
        <time>2021-10-29T16:58:51Z</time>
      </trkpt>
      <trkpt lat="42.49612" lon="2.99339">
        <ele>717.49</ele>
        <time>2021-10-29T16:58:51Z</time>
      </trkpt>
      <trkpt lat="42.49618" lon="2.99356">
        <ele>713.78</ele>
        <time>2021-10-29T16:58:51Z</time>
      </trkpt>
      <trkpt lat="42.49631" lon="2.99347">
        <ele>708.93</ele>
        <time>2021-10-29T16:58:51Z</time>
      </trkpt>
      <trkpt lat="42.49646" lon="2.99332">
        <ele>705.95</ele>
        <time>2021-10-29T16:58:51Z</time>
      </trkpt>
      <trkpt lat="42.49661" lon="2.99324">
        <ele>700.47</ele>
        <time>2021-10-29T16:58:51Z</time>
      </trkpt>
      <trkpt lat="42.49673" lon="2.99307">
        <ele>696.77</ele>
        <time>2021-10-29T16:58:51Z</time>
      </trkpt>
      <trkpt lat="42.4968" lon="2.99291">
        <ele>693.45</ele>
        <time>2021-10-29T16:58:51Z</time>
      </trkpt>
      <trkpt lat="42.49691" lon="2.99278">
        <ele>689.77</ele>
        <time>2021-10-29T16:58:51Z</time>
      </trkpt>
      <trkpt lat="42.49702" lon="2.99267">
        <ele>684.79</ele>
        <time>2021-10-29T16:58:51Z</time>
      </trkpt>
      <trkpt lat="42.49719" lon="2.99255">
        <ele>678.81</ele>
        <time>2021-10-29T16:58:51Z</time>
      </trkpt>
      <trkpt lat="42.49733" lon="2.99262">
        <ele>676.75</ele>
        <time>2021-10-29T16:58:51Z</time>
      </trkpt>
      <trkpt lat="42.4975" lon="2.99263">
        <ele>670.52</ele>
        <time>2021-10-29T16:58:51Z</time>
      </trkpt>
      <trkpt lat="42.49763" lon="2.99263">
        <ele>665.16</ele>
        <time>2021-10-29T16:58:51Z</time>
      </trkpt>
      <trkpt lat="42.49776" lon="2.9925">
        <ele>662.41</ele>
        <time>2021-10-29T16:58:51Z</time>
      </trkpt>
      <trkpt lat="42.49794" lon="2.99267">
        <ele>659.82</ele>
        <time>2021-10-29T16:58:51Z</time>
      </trkpt>
      <trkpt lat="42.49805" lon="2.99282">
        <ele>652.96</ele>
        <time>2021-10-29T16:58:51Z</time>
      </trkpt>
      <trkpt lat="42.49819" lon="2.99295">
        <ele>643.15</ele>
        <time>2021-10-29T16:58:51Z</time>
      </trkpt>
      <trkpt lat="42.49831" lon="2.99305">
        <ele>636.57</ele>
        <time>2021-10-29T16:58:51Z</time>
      </trkpt>
      <trkpt lat="42.49848" lon="2.99318">
        <ele>627.56</ele>
        <time>2021-10-29T16:58:51Z</time>
      </trkpt>
      <trkpt lat="42.4986" lon="2.99336">
        <ele>618.65</ele>
        <time>2021-10-29T16:58:51Z</time>
      </trkpt>
      <trkpt lat="42.49877" lon="2.99343">
        <ele>607.63</ele>
        <time>2021-10-29T16:58:51Z</time>
      </trkpt>
      <trkpt lat="42.49898" lon="2.99349">
        <ele>595.95</ele>
        <time>2021-10-29T16:58:51Z</time>
      </trkpt>
      <trkpt lat="42.49917" lon="2.99352">
        <ele>588.44</ele>
        <time>2021-10-29T16:58:51Z</time>
      </trkpt>
      <trkpt lat="42.4993" lon="2.99353">
        <ele>581.84</ele>
        <time>2021-10-29T16:58:51Z</time>
      </trkpt>
      <trkpt lat="42.49948" lon="2.99357">
        <ele>573.81</ele>
        <time>2021-10-29T16:58:51Z</time>
      </trkpt>
      <trkpt lat="42.49969" lon="2.99365">
        <ele>564.93</ele>
        <time>2021-10-29T16:58:51Z</time>
      </trkpt>
      <trkpt lat="42.49985" lon="2.99372">
        <ele>559.72</ele>
        <time>2021-10-29T16:58:51Z</time>
      </trkpt>
      <trkpt lat="42.50001" lon="2.99391">
        <ele>554.75</ele>
        <time>2021-10-29T16:58:51Z</time>
      </trkpt>
      <trkpt lat="42.50016" lon="2.99403">
        <ele>549.86</ele>
        <time>2021-10-29T16:58:51Z</time>
      </trkpt>
      <trkpt lat="42.50031" lon="2.9942">
        <ele>543.12</ele>
        <time>2021-10-29T16:58:51Z</time>
      </trkpt>
      <trkpt lat="42.50043" lon="2.99437">
        <ele>535.79</ele>
        <time>2021-10-29T16:58:51Z</time>
      </trkpt>
      <trkpt lat="42.50055" lon="2.99464">
        <ele>525.61</ele>
        <time>2021-10-29T16:58:51Z</time>
      </trkpt>
      <trkpt lat="42.50063" lon="2.99497">
        <ele>514.26</ele>
        <time>2021-10-29T16:58:51Z</time>
      </trkpt>
      <trkpt lat="42.5007" lon="2.99528">
        <ele>504.51</ele>
        <time>2021-10-29T16:58:51Z</time>
      </trkpt>
      <trkpt lat="42.50074" lon="2.99547">
        <ele>496.36</ele>
        <time>2021-10-29T16:58:51Z</time>
      </trkpt>
      <trkpt lat="42.50081" lon="2.9956">
        <ele>487.91</ele>
        <time>2021-10-29T16:58:51Z</time>
      </trkpt>
      <trkpt lat="42.50081" lon="2.99576">
        <ele>479.21</ele>
        <time>2021-10-29T16:58:51Z</time>
      </trkpt>
      <trkpt lat="42.50088" lon="2.99605">
        <ele>465.42</ele>
        <time>2021-10-29T16:58:51Z</time>
      </trkpt>
      <trkpt lat="42.50104" lon="2.99601">
        <ele>456.49</ele>
        <time>2021-10-29T16:58:51Z</time>
      </trkpt>
      <trkpt lat="42.50119" lon="2.99597">
        <ele>449.09</ele>
        <time>2021-10-29T16:58:51Z</time>
      </trkpt>
      <trkpt lat="42.50119" lon="2.99616">
        <ele>444.04</ele>
        <time>2021-10-29T16:58:51Z</time>
      </trkpt>
      <trkpt lat="42.50133" lon="2.9962">
        <ele>436.83</ele>
        <time>2021-10-29T16:58:51Z</time>
      </trkpt>
      <trkpt lat="42.50153" lon="2.99608">
        <ele>433.3</ele>
        <time>2021-10-29T16:58:51Z</time>
      </trkpt>
      <trkpt lat="42.50167" lon="2.99594">
        <ele>432.63</ele>
        <time>2021-10-29T16:58:51Z</time>
      </trkpt>
      <trkpt lat="42.50179" lon="2.99579">
        <ele>432.29</ele>
        <time>2021-10-29T16:58:51Z</time>
      </trkpt>
      <trkpt lat="42.50191" lon="2.99572">
        <ele>427.57</ele>
        <time>2021-10-29T16:58:51Z</time>
      </trkpt>
      <trkpt lat="42.50208" lon="2.99566">
        <ele>420.8</ele>
        <time>2021-10-29T16:58:51Z</time>
      </trkpt>
      <trkpt lat="42.50223" lon="2.99553">
        <ele>415.98</ele>
        <time>2021-10-29T16:58:51Z</time>
      </trkpt>
      <trkpt lat="42.50236" lon="2.99538">
        <ele>410.97</ele>
        <time>2021-10-29T16:58:51Z</time>
      </trkpt>
      <trkpt lat="42.50251" lon="2.99529">
        <ele>403.4</ele>
        <time>2021-10-29T16:58:51Z</time>
      </trkpt>
      <trkpt lat="42.50269" lon="2.99519">
        <ele>394.17</ele>
        <time>2021-10-29T16:58:51Z</time>
      </trkpt>
      <trkpt lat="42.50284" lon="2.99503">
        <ele>385.46</ele>
        <time>2021-10-29T16:58:51Z</time>
      </trkpt>
      <trkpt lat="42.50298" lon="2.99496">
        <ele>376.96</ele>
        <time>2021-10-29T16:58:51Z</time>
      </trkpt>
      <trkpt lat="42.50314" lon="2.99487">
        <ele>365.03</ele>
        <time>2021-10-29T16:58:51Z</time>
      </trkpt>
      <trkpt lat="42.50333" lon="2.99471">
        <ele>352.92</ele>
        <time>2021-10-29T16:58:51Z</time>
      </trkpt>
      <trkpt lat="42.50346" lon="2.99493">
        <ele>349.88</ele>
        <time>2021-10-29T16:58:51Z</time>
      </trkpt>
      <trkpt lat="42.50358" lon="2.9952">
        <ele>342.83</ele>
        <time>2021-10-29T16:58:51Z</time>
      </trkpt>
      <trkpt lat="42.50364" lon="2.9954">
        <ele>339.68</ele>
        <time>2021-10-29T16:58:51Z</time>
      </trkpt>
      <trkpt lat="42.50377" lon="2.99546">
        <ele>333.71</ele>
        <time>2021-10-29T16:58:51Z</time>
      </trkpt>
      <trkpt lat="42.50399" lon="2.99552">
        <ele>327.02</ele>
        <time>2021-10-29T16:58:51Z</time>
      </trkpt>
      <trkpt lat="42.50415" lon="2.99556">
        <ele>321.69</ele>
        <time>2021-10-29T16:58:51Z</time>
      </trkpt>
      <trkpt lat="42.5043" lon="2.99564">
        <ele>317.47</ele>
        <time>2021-10-29T16:58:51Z</time>
      </trkpt>
      <trkpt lat="42.50448" lon="2.99584">
        <ele>311.77</ele>
        <time>2021-10-29T16:58:51Z</time>
      </trkpt>
      <trkpt lat="42.50462" lon="2.99607">
        <ele>307.03</ele>
        <time>2021-10-29T16:58:51Z</time>
      </trkpt>
      <trkpt lat="42.50474" lon="2.99627">
        <ele>304.29</ele>
        <time>2021-10-29T16:58:51Z</time>
      </trkpt>
      <trkpt lat="42.50489" lon="2.99633">
        <ele>302.63</ele>
        <time>2021-10-29T16:58:51Z</time>
      </trkpt>
      <trkpt lat="42.50513" lon="2.99637">
        <ele>299.42</ele>
        <time>2021-10-29T16:58:51Z</time>
      </trkpt>
      <trkpt lat="42.50539" lon="2.99643">
        <ele>297.64</ele>
        <time>2021-10-29T16:58:51Z</time>
      </trkpt>
      <trkpt lat="42.50562" lon="2.99651">
        <ele>290.11</ele>
        <time>2021-10-29T16:58:51Z</time>
      </trkpt>
      <trkpt lat="42.50581" lon="2.99667">
        <ele>282.65</ele>
        <time>2021-10-29T16:58:51Z</time>
      </trkpt>
      <trkpt lat="42.50594" lon="2.99691">
        <ele>276.27</ele>
        <time>2021-10-29T16:58:51Z</time>
      </trkpt>
      <trkpt lat="42.50604" lon="2.99716">
        <ele>267.8</ele>
        <time>2021-10-29T16:58:51Z</time>
      </trkpt>
      <trkpt lat="42.50613" lon="2.99733">
        <ele>261.25</ele>
        <time>2021-10-29T16:58:51Z</time>
      </trkpt>
      <trkpt lat="42.50622" lon="2.99754">
        <ele>256.42</ele>
        <time>2021-10-29T16:58:51Z</time>
      </trkpt>
      <trkpt lat="42.50637" lon="2.99776">
        <ele>250.82</ele>
        <time>2021-10-29T16:58:51Z</time>
      </trkpt>
      <trkpt lat="42.50649" lon="2.99792">
        <ele>245.17</ele>
        <time>2021-10-29T16:58:51Z</time>
      </trkpt>
      <trkpt lat="42.50653" lon="2.99813">
        <ele>240.19</ele>
        <time>2021-10-29T16:58:51Z</time>
      </trkpt>
      <trkpt lat="42.50653" lon="2.99833">
        <ele>235.62</ele>
        <time>2021-10-29T16:58:51Z</time>
      </trkpt>
      <trkpt lat="42.50653" lon="2.99863">
        <ele>227.64</ele>
        <time>2021-10-29T16:58:51Z</time>
      </trkpt>
      <trkpt lat="42.50668" lon="2.99861">
        <ele>226.5</ele>
        <time>2021-10-29T16:58:51Z</time>
      </trkpt>
      <trkpt lat="42.5068" lon="2.99862">
        <ele>222.87</ele>
        <time>2021-10-29T16:58:51Z</time>
      </trkpt>
      <trkpt lat="42.50691" lon="2.99885">
        <ele>216.66</ele>
        <time>2021-10-29T16:58:51Z</time>
      </trkpt>
      <trkpt lat="42.50701" lon="2.99876">
        <ele>214.48</ele>
        <time>2021-10-29T16:58:51Z</time>
      </trkpt>
      <trkpt lat="42.50714" lon="2.99884">
        <ele>207.9</ele>
        <time>2021-10-29T16:58:51Z</time>
      </trkpt>
      <trkpt lat="42.50726" lon="2.99899">
        <ele>198.52</ele>
        <time>2021-10-29T16:58:51Z</time>
      </trkpt>
      <trkpt lat="42.50731" lon="2.99921">
        <ele>200.12</ele>
        <time>2021-10-29T16:58:51Z</time>
      </trkpt>
      <trkpt lat="42.50732" lon="2.9994">
        <ele>201.38</ele>
        <time>2021-10-29T16:58:51Z</time>
      </trkpt>
      <trkpt lat="42.50728" lon="2.99966">
        <ele>203.27</ele>
        <time>2021-10-29T16:58:51Z</time>
      </trkpt>
      <trkpt lat="42.50725" lon="2.9999">
        <ele>205.51</ele>
        <time>2021-10-29T16:58:51Z</time>
      </trkpt>
      <trkpt lat="42.50723" lon="3.00011">
        <ele>206.67</ele>
        <time>2021-10-29T16:58:51Z</time>
      </trkpt>
      <trkpt lat="42.50725" lon="3.00034">
        <ele>205.67</ele>
        <time>2021-10-29T16:58:51Z</time>
      </trkpt>
      <trkpt lat="42.50736" lon="3.00052">
        <ele>201.47</ele>
        <time>2021-10-29T16:58:51Z</time>
      </trkpt>
      <trkpt lat="42.50749" lon="3.00054">
        <ele>203.02</ele>
        <time>2021-10-29T16:58:51Z</time>
      </trkpt>
      <trkpt lat="42.50751" lon="3.00033">
        <ele>205.21</ele>
        <time>2021-10-29T16:58:51Z</time>
      </trkpt>
      <trkpt lat="42.50755" lon="3.00016">
        <ele>205.87</ele>
        <time>2021-10-29T16:58:51Z</time>
      </trkpt>
      <trkpt lat="42.50762" lon="3.00003">
        <ele>207.08</ele>
        <time>2021-10-29T16:58:51Z</time>
      </trkpt>
      <trkpt lat="42.50773" lon="2.99995">
        <ele>208.91</ele>
        <time>2021-10-29T16:58:51Z</time>
      </trkpt>
      <trkpt lat="42.50785" lon="2.99994">
        <ele>210.96</ele>
        <time>2021-10-29T16:58:51Z</time>
      </trkpt>
      <trkpt lat="42.50797" lon="3.00005">
        <ele>212.87</ele>
        <time>2021-10-29T16:58:51Z</time>
      </trkpt>
      <trkpt lat="42.50809" lon="3.00013">
        <ele>214.68</ele>
        <time>2021-10-29T16:58:51Z</time>
      </trkpt>
      <trkpt lat="42.50823" lon="3.00023">
        <ele>216.02</ele>
        <time>2021-10-29T16:58:51Z</time>
      </trkpt>
      <trkpt lat="42.50832" lon="3.00032">
        <ele>217.24</ele>
        <time>2021-10-29T16:58:51Z</time>
      </trkpt>
      <trkpt lat="42.50824" lon="3.00053">
        <ele>219.98</ele>
        <time>2021-10-29T16:58:51Z</time>
      </trkpt>
      <trkpt lat="42.50819" lon="3.00073">
        <ele>221.7</ele>
        <time>2021-10-29T16:58:51Z</time>
      </trkpt>
      <trkpt lat="42.50818" lon="3.00092">
        <ele>223.98</ele>
        <time>2021-10-29T16:58:51Z</time>
      </trkpt>
      <trkpt lat="42.50812" lon="3.00112">
        <ele>222.48</ele>
        <time>2021-10-29T16:58:51Z</time>
      </trkpt>
      <trkpt lat="42.50802" lon="3.00129">
        <ele>219.81</ele>
        <time>2021-10-29T16:58:51Z</time>
      </trkpt>
      <trkpt lat="42.50795" lon="3.00142">
        <ele>217.81</ele>
        <time>2021-10-29T16:58:51Z</time>
      </trkpt>
      <trkpt lat="42.50785" lon="3.00173">
        <ele>219.91</ele>
        <time>2021-10-29T16:58:51Z</time>
      </trkpt>
      <trkpt lat="42.50777" lon="3.00204">
        <ele>220.45</ele>
        <time>2021-10-29T16:58:51Z</time>
      </trkpt>
      <trkpt lat="42.50773" lon="3.00231">
        <ele>221.08</ele>
        <time>2021-10-29T16:58:51Z</time>
      </trkpt>
      <trkpt lat="42.50769" lon="3.00258">
        <ele>223.22</ele>
        <time>2021-10-29T16:58:51Z</time>
      </trkpt>
      <trkpt lat="42.50769" lon="3.0029">
        <ele>225.51</ele>
        <time>2021-10-29T16:58:51Z</time>
      </trkpt>
      <trkpt lat="42.50769" lon="3.00318">
        <ele>227.75</ele>
        <time>2021-10-29T16:58:51Z</time>
      </trkpt>
      <trkpt lat="42.5077" lon="3.0035">
        <ele>230</ele>
        <time>2021-10-29T16:58:51Z</time>
      </trkpt>
      <trkpt lat="42.50769" lon="3.00371">
        <ele>230.84</ele>
        <time>2021-10-29T16:58:51Z</time>
      </trkpt>
      <trkpt lat="42.5077" lon="3.00387">
        <ele>232.31</ele>
        <time>2021-10-29T16:58:51Z</time>
      </trkpt>
      <trkpt lat="42.50771" lon="3.00432">
        <ele>235.83</ele>
        <time>2021-10-29T16:58:51Z</time>
      </trkpt>
      <trkpt lat="42.5077" lon="3.00451">
        <ele>236.59</ele>
        <time>2021-10-29T16:58:51Z</time>
      </trkpt>
      <trkpt lat="42.50766" lon="3.00469">
        <ele>234.63</ele>
        <time>2021-10-29T16:58:51Z</time>
      </trkpt>
      <trkpt lat="42.50764" lon="3.00487">
        <ele>235.01</ele>
        <time>2021-10-29T16:58:51Z</time>
      </trkpt>
      <trkpt lat="42.50761" lon="3.00513">
        <ele>236.64</ele>
        <time>2021-10-29T16:58:51Z</time>
      </trkpt>
      <trkpt lat="42.5076" lon="3.00538">
        <ele>238.53</ele>
        <time>2021-10-29T16:58:51Z</time>
      </trkpt>
      <trkpt lat="42.50755" lon="3.00565">
        <ele>238.63</ele>
        <time>2021-10-29T16:58:51Z</time>
      </trkpt>
      <trkpt lat="42.5075" lon="3.00587">
        <ele>240.08</ele>
        <time>2021-10-29T16:58:51Z</time>
      </trkpt>
      <trkpt lat="42.50746" lon="3.00602">
        <ele>241.25</ele>
        <time>2021-10-29T16:58:51Z</time>
      </trkpt>
      <trkpt lat="42.50743" lon="3.00633">
        <ele>243.85</ele>
        <time>2021-10-29T16:58:51Z</time>
      </trkpt>
      <trkpt lat="42.50743" lon="3.00654">
        <ele>241.75</ele>
        <time>2021-10-29T16:58:51Z</time>
      </trkpt>
      <trkpt lat="42.50737" lon="3.00677">
        <ele>237.62</ele>
        <time>2021-10-29T16:58:51Z</time>
      </trkpt>
      <trkpt lat="42.50732" lon="3.00704">
        <ele>238.84</ele>
        <time>2021-10-29T16:58:51Z</time>
      </trkpt>
      <trkpt lat="42.50723" lon="3.00718">
        <ele>239.14</ele>
        <time>2021-10-29T16:58:51Z</time>
      </trkpt>
      <trkpt lat="42.50713" lon="3.00736">
        <ele>240.56</ele>
        <time>2021-10-29T16:58:51Z</time>
      </trkpt>
      <trkpt lat="42.50717" lon="3.00765">
        <ele>261.9</ele>
        <time>2021-10-29T16:58:51Z</time>
      </trkpt>
      <trkpt lat="42.50721" lon="3.0079">
        <ele>280.76</ele>
        <time>2021-10-29T16:58:51Z</time>
      </trkpt>
      <trkpt lat="42.50728" lon="3.00811">
        <ele>291.85</ele>
        <time>2021-10-29T16:58:51Z</time>
      </trkpt>
      <trkpt lat="42.50732" lon="3.00839">
        <ele>303.53</ele>
        <time>2021-10-29T16:58:51Z</time>
      </trkpt>
      <trkpt lat="42.50733" lon="3.00859">
        <ele>312.1</ele>
        <time>2021-10-29T16:58:51Z</time>
      </trkpt>
      <trkpt lat="42.50737" lon="3.00883">
        <ele>322.08</ele>
        <time>2021-10-29T16:58:51Z</time>
      </trkpt>
      <trkpt lat="42.50739" lon="3.00907">
        <ele>326.71</ele>
        <time>2021-10-29T16:58:51Z</time>
      </trkpt>
      <trkpt lat="42.50742" lon="3.00926">
        <ele>329.66</ele>
        <time>2021-10-29T16:58:51Z</time>
      </trkpt>
      <trkpt lat="42.50748" lon="3.00946">
        <ele>332.23</ele>
        <time>2021-10-29T16:58:51Z</time>
      </trkpt>
      <trkpt lat="42.50757" lon="3.00962">
        <ele>336.31</ele>
        <time>2021-10-29T16:58:51Z</time>
      </trkpt>
      <trkpt lat="42.50767" lon="3.00981">
        <ele>340.69</ele>
        <time>2021-10-29T16:58:51Z</time>
      </trkpt>
      <trkpt lat="42.50779" lon="3.00999">
        <ele>346.13</ele>
        <time>2021-10-29T16:58:51Z</time>
      </trkpt>
      <trkpt lat="42.50787" lon="3.01014">
        <ele>350.55</ele>
        <time>2021-10-29T16:58:51Z</time>
      </trkpt>
      <trkpt lat="42.50796" lon="3.01024">
        <ele>356.09</ele>
        <time>2021-10-29T16:58:51Z</time>
      </trkpt>
      <trkpt lat="42.50804" lon="3.01047">
        <ele>361.71</ele>
        <time>2021-10-29T16:58:51Z</time>
      </trkpt>
      <trkpt lat="42.50811" lon="3.01064">
        <ele>367.82</ele>
        <time>2021-10-29T16:58:51Z</time>
      </trkpt>
      <trkpt lat="42.5082" lon="3.01078">
        <ele>375.58</ele>
        <time>2021-10-29T16:58:51Z</time>
      </trkpt>
      <trkpt lat="42.50826" lon="3.01093">
        <ele>380.54</ele>
        <time>2021-10-29T16:58:51Z</time>
      </trkpt>
      <trkpt lat="42.50836" lon="3.01112">
        <ele>385.63</ele>
        <time>2021-10-29T16:58:51Z</time>
      </trkpt>
      <trkpt lat="42.50848" lon="3.01124">
        <ele>393.15</ele>
        <time>2021-10-29T16:58:51Z</time>
      </trkpt>
      <trkpt lat="42.50863" lon="3.01139">
        <ele>403.54</ele>
        <time>2021-10-29T16:58:51Z</time>
      </trkpt>
      <trkpt lat="42.50877" lon="3.01152">
        <ele>411.56</ele>
        <time>2021-10-29T16:58:51Z</time>
      </trkpt>
      <trkpt lat="42.50891" lon="3.01165">
        <ele>415.76</ele>
        <time>2021-10-29T16:58:51Z</time>
      </trkpt>
      <trkpt lat="42.50902" lon="3.01176">
        <ele>418.83</ele>
        <time>2021-10-29T16:58:51Z</time>
      </trkpt>
      <trkpt lat="42.50916" lon="3.01188">
        <ele>421.18</ele>
        <time>2021-10-29T16:58:51Z</time>
      </trkpt>
      <trkpt lat="42.50926" lon="3.01197">
        <ele>422.41</ele>
        <time>2021-10-29T16:58:51Z</time>
      </trkpt>
      <trkpt lat="42.50936" lon="3.01215">
        <ele>423.65</ele>
        <time>2021-10-29T16:58:51Z</time>
      </trkpt>
      <trkpt lat="42.50949" lon="3.01222">
        <ele>431.98</ele>
        <time>2021-10-29T16:58:51Z</time>
      </trkpt>
      <trkpt lat="42.50967" lon="3.0123">
        <ele>441.66</ele>
        <time>2021-10-29T16:58:51Z</time>
      </trkpt>
      <trkpt lat="42.50981" lon="3.01238">
        <ele>449.56</ele>
        <time>2021-10-29T16:58:51Z</time>
      </trkpt>
      <trkpt lat="42.50996" lon="3.01247">
        <ele>457.91</ele>
        <time>2021-10-29T16:58:51Z</time>
      </trkpt>
      <trkpt lat="42.51008" lon="3.01259">
        <ele>465.29</ele>
        <time>2021-10-29T16:58:51Z</time>
      </trkpt>
      <trkpt lat="42.51023" lon="3.01266">
        <ele>475.6</ele>
        <time>2021-10-29T16:58:51Z</time>
      </trkpt>
      <trkpt lat="42.51035" lon="3.01272">
        <ele>482.16</ele>
        <time>2021-10-29T16:58:51Z</time>
      </trkpt>
      <trkpt lat="42.51049" lon="3.01286">
        <ele>491.59</ele>
        <time>2021-10-29T16:58:51Z</time>
      </trkpt>
      <trkpt lat="42.51063" lon="3.01294">
        <ele>503.29</ele>
        <time>2021-10-29T16:58:51Z</time>
      </trkpt>
      <trkpt lat="42.51075" lon="3.013">
        <ele>512.5</ele>
        <time>2021-10-29T16:58:51Z</time>
      </trkpt>
      <trkpt lat="42.51091" lon="3.0131">
        <ele>523.79</ele>
        <time>2021-10-29T16:58:51Z</time>
      </trkpt>
      <trkpt lat="42.51105" lon="3.01321">
        <ele>534.21</ele>
        <time>2021-10-29T16:58:51Z</time>
      </trkpt>
      <trkpt lat="42.5111" lon="3.01338">
        <ele>536.26</ele>
        <time>2021-10-29T16:58:51Z</time>
      </trkpt>
      <trkpt lat="42.51116" lon="3.01353">
        <ele>539.47</ele>
        <time>2021-10-29T16:58:51Z</time>
      </trkpt>
      <trkpt lat="42.51121" lon="3.01368">
        <ele>543.53</ele>
        <time>2021-10-29T16:58:51Z</time>
      </trkpt>
      <trkpt lat="42.51123" lon="3.01387">
        <ele>544.06</ele>
        <time>2021-10-29T16:58:51Z</time>
      </trkpt>
      <trkpt lat="42.51123" lon="3.01405">
        <ele>543.18</ele>
        <time>2021-10-29T16:58:51Z</time>
      </trkpt>
      <trkpt lat="42.5112" lon="3.01429">
        <ele>541.45</ele>
        <time>2021-10-29T16:58:51Z</time>
      </trkpt>
      <trkpt lat="42.5112" lon="3.01447">
        <ele>539.99</ele>
        <time>2021-10-29T16:58:51Z</time>
      </trkpt>
      <trkpt lat="42.51111" lon="3.01468">
        <ele>537.83</ele>
        <time>2021-10-29T16:58:51Z</time>
      </trkpt>
      <trkpt lat="42.5111" lon="3.01485">
        <ele>538.76</ele>
        <time>2021-10-29T16:58:51Z</time>
      </trkpt>
      <trkpt lat="42.5112" lon="3.01499">
        <ele>537.06</ele>
        <time>2021-10-29T16:58:51Z</time>
      </trkpt>
      <trkpt lat="42.51127" lon="3.01515">
        <ele>533.32</ele>
        <time>2021-10-29T16:58:51Z</time>
      </trkpt>
      <trkpt lat="42.51131" lon="3.01532">
        <ele>532.81</ele>
        <time>2021-10-29T16:58:51Z</time>
      </trkpt>
      <trkpt lat="42.51137" lon="3.0155">
        <ele>530.8</ele>
        <time>2021-10-29T16:58:51Z</time>
      </trkpt>
      <trkpt lat="42.51144" lon="3.01575">
        <ele>525.57</ele>
        <time>2021-10-29T16:58:51Z</time>
      </trkpt>
      <trkpt lat="42.51149" lon="3.01606">
        <ele>521.61</ele>
        <time>2021-10-29T16:58:51Z</time>
      </trkpt>
      <trkpt lat="42.51156" lon="3.01629">
        <ele>514.88</ele>
        <time>2021-10-29T16:58:51Z</time>
      </trkpt>
      <trkpt lat="42.51163" lon="3.01644">
        <ele>511.49</ele>
        <time>2021-10-29T16:58:51Z</time>
      </trkpt>
      <trkpt lat="42.51177" lon="3.01662">
        <ele>504.08</ele>
        <time>2021-10-29T16:58:51Z</time>
      </trkpt>
      <trkpt lat="42.51184" lon="3.01688">
        <ele>501.59</ele>
        <time>2021-10-29T16:58:51Z</time>
      </trkpt>
      <trkpt lat="42.5119" lon="3.01711">
        <ele>496.37</ele>
        <time>2021-10-29T16:58:51Z</time>
      </trkpt>
      <trkpt lat="42.51197" lon="3.01728">
        <ele>493.19</ele>
        <time>2021-10-29T16:58:51Z</time>
      </trkpt>
      <trkpt lat="42.51209" lon="3.0174">
        <ele>489.49</ele>
        <time>2021-10-29T16:58:51Z</time>
      </trkpt>
      <trkpt lat="42.5122" lon="3.01749">
        <ele>486.69</ele>
        <time>2021-10-29T16:58:51Z</time>
      </trkpt>
      <trkpt lat="42.51231" lon="3.01749">
        <ele>483.71</ele>
        <time>2021-10-29T16:58:51Z</time>
      </trkpt>
      <trkpt lat="42.51244" lon="3.01754">
        <ele>480.61</ele>
        <time>2021-10-29T16:58:51Z</time>
      </trkpt>
      <trkpt lat="42.51254" lon="3.01768">
        <ele>478.76</ele>
        <time>2021-10-29T16:58:51Z</time>
      </trkpt>
      <trkpt lat="42.51265" lon="3.01772">
        <ele>476.15</ele>
        <time>2021-10-29T16:58:51Z</time>
      </trkpt>
      <trkpt lat="42.51277" lon="3.01785">
        <ele>475.68</ele>
        <time>2021-10-29T16:58:51Z</time>
      </trkpt>
      <trkpt lat="42.51287" lon="3.01791">
        <ele>475.14</ele>
        <time>2021-10-29T16:58:51Z</time>
      </trkpt>
      <trkpt lat="42.51299" lon="3.0178">
        <ele>471.2</ele>
        <time>2021-10-29T16:58:51Z</time>
      </trkpt>
      <trkpt lat="42.5131" lon="3.01778">
        <ele>467.1</ele>
        <time>2021-10-29T16:58:51Z</time>
      </trkpt>
      <trkpt lat="42.5133" lon="3.01782">
        <ele>461.51</ele>
        <time>2021-10-29T16:58:51Z</time>
      </trkpt>
      <trkpt lat="42.51352" lon="3.01787">
        <ele>455.62</ele>
        <time>2021-10-29T16:58:51Z</time>
      </trkpt>
      <trkpt lat="42.51368" lon="3.01794">
        <ele>452.86</ele>
        <time>2021-10-29T16:58:51Z</time>
      </trkpt>
      <trkpt lat="42.51383" lon="3.01794">
        <ele>451.19</ele>
        <time>2021-10-29T16:58:51Z</time>
      </trkpt>
      <trkpt lat="42.51397" lon="3.01794">
        <ele>449.52</ele>
        <time>2021-10-29T16:58:51Z</time>
      </trkpt>
      <trkpt lat="42.51411" lon="3.01795">
        <ele>446.93</ele>
        <time>2021-10-29T16:58:51Z</time>
      </trkpt>
      <trkpt lat="42.51426" lon="3.01797">
        <ele>445.7</ele>
        <time>2021-10-29T16:58:51Z</time>
      </trkpt>
      <trkpt lat="42.51442" lon="3.01791">
        <ele>441.24</ele>
        <time>2021-10-29T16:58:51Z</time>
      </trkpt>
      <trkpt lat="42.51452" lon="3.01791">
        <ele>439.83</ele>
        <time>2021-10-29T16:58:51Z</time>
      </trkpt>
      <trkpt lat="42.51466" lon="3.01794">
        <ele>437.47</ele>
        <time>2021-10-29T16:58:51Z</time>
      </trkpt>
      <trkpt lat="42.51479" lon="3.01785">
        <ele>432.04</ele>
        <time>2021-10-29T16:58:51Z</time>
      </trkpt>
      <trkpt lat="42.51492" lon="3.01777">
        <ele>429.55</ele>
        <time>2021-10-29T16:58:51Z</time>
      </trkpt>
      <trkpt lat="42.51504" lon="3.0177">
        <ele>428.12</ele>
        <time>2021-10-29T16:58:51Z</time>
      </trkpt>
      <trkpt lat="42.51518" lon="3.01768">
        <ele>428.53</ele>
        <time>2021-10-29T16:58:51Z</time>
      </trkpt>
      <trkpt lat="42.51527" lon="3.01766">
        <ele>428.01</ele>
        <time>2021-10-29T16:58:51Z</time>
      </trkpt>
      <trkpt lat="42.51543" lon="3.01766">
        <ele>427.33</ele>
        <time>2021-10-29T16:58:51Z</time>
      </trkpt>
      <trkpt lat="42.51558" lon="3.01761">
        <ele>424.21</ele>
        <time>2021-10-29T16:58:51Z</time>
      </trkpt>
      <trkpt lat="42.51574" lon="3.01754">
        <ele>420.17</ele>
        <time>2021-10-29T16:58:51Z</time>
      </trkpt>
      <trkpt lat="42.51588" lon="3.01754">
        <ele>416.57</ele>
        <time>2021-10-29T16:58:51Z</time>
      </trkpt>
      <trkpt lat="42.51602" lon="3.01754">
        <ele>415.19</ele>
        <time>2021-10-29T16:58:51Z</time>
      </trkpt>
      <trkpt lat="42.51614" lon="3.01754">
        <ele>414.74</ele>
        <time>2021-10-29T16:58:51Z</time>
      </trkpt>
      <trkpt lat="42.51629" lon="3.01745">
        <ele>411.35</ele>
        <time>2021-10-29T16:58:51Z</time>
      </trkpt>
      <trkpt lat="42.51642" lon="3.01737">
        <ele>407.14</ele>
        <time>2021-10-29T16:58:51Z</time>
      </trkpt>
      <trkpt lat="42.51655" lon="3.01737">
        <ele>405.74</ele>
        <time>2021-10-29T16:58:51Z</time>
      </trkpt>
      <trkpt lat="42.51665" lon="3.01734">
        <ele>402.47</ele>
        <time>2021-10-29T16:58:51Z</time>
      </trkpt>
      <trkpt lat="42.51678" lon="3.01735">
        <ele>399.76</ele>
        <time>2021-10-29T16:58:51Z</time>
      </trkpt>
      <trkpt lat="42.51691" lon="3.01738">
        <ele>396.42</ele>
        <time>2021-10-29T16:58:51Z</time>
      </trkpt>
      <trkpt lat="42.51703" lon="3.01738">
        <ele>392.23</ele>
        <time>2021-10-29T16:58:51Z</time>
      </trkpt>
      <trkpt lat="42.51713" lon="3.01738">
        <ele>388.86</ele>
        <time>2021-10-29T16:58:51Z</time>
      </trkpt>
      <trkpt lat="42.51728" lon="3.01738">
        <ele>385.82</ele>
        <time>2021-10-29T16:58:51Z</time>
      </trkpt>
      <trkpt lat="42.51741" lon="3.01734">
        <ele>383.99</ele>
        <time>2021-10-29T16:58:51Z</time>
      </trkpt>
      <trkpt lat="42.51756" lon="3.01726">
        <ele>382.99</ele>
        <time>2021-10-29T16:58:51Z</time>
      </trkpt>
      <trkpt lat="42.51765" lon="3.01721">
        <ele>382.09</ele>
        <time>2021-10-29T16:58:51Z</time>
      </trkpt>
      <trkpt lat="42.51776" lon="3.01721">
        <ele>380.81</ele>
        <time>2021-10-29T16:58:51Z</time>
      </trkpt>
      <trkpt lat="42.51776" lon="3.01735">
        <ele>381.34</ele>
        <time>2021-10-29T16:58:51Z</time>
      </trkpt>
      <trkpt lat="42.51776" lon="3.01752">
        <ele>379.83</ele>
        <time>2021-10-29T16:58:51Z</time>
      </trkpt>
      <trkpt lat="42.51776" lon="3.0177">
        <ele>376.33</ele>
        <time>2021-10-29T16:58:51Z</time>
      </trkpt>
      <trkpt lat="42.51773" lon="3.01794">
        <ele>370.02</ele>
        <time>2021-10-29T16:58:51Z</time>
      </trkpt>
      <trkpt lat="42.51772" lon="3.01833">
        <ele>355.37</ele>
        <time>2021-10-29T16:58:51Z</time>
      </trkpt>
      <trkpt lat="42.51773" lon="3.01858">
        <ele>345.18</ele>
        <time>2021-10-29T16:58:51Z</time>
      </trkpt>
      <trkpt lat="42.51775" lon="3.01884">
        <ele>334.95</ele>
        <time>2021-10-29T16:58:51Z</time>
      </trkpt>
      <trkpt lat="42.51782" lon="3.01903">
        <ele>325.5</ele>
        <time>2021-10-29T16:58:51Z</time>
      </trkpt>
      <trkpt lat="42.51795" lon="3.01932">
        <ele>313.42</ele>
        <time>2021-10-29T16:58:51Z</time>
      </trkpt>
      <trkpt lat="42.51806" lon="3.01919">
        <ele>312.73</ele>
        <time>2021-10-29T16:58:51Z</time>
      </trkpt>
      <trkpt lat="42.51819" lon="3.0192">
        <ele>312.55</ele>
        <time>2021-10-29T16:58:51Z</time>
      </trkpt>
      <trkpt lat="42.51832" lon="3.01923">
        <ele>311.43</ele>
        <time>2021-10-29T16:58:51Z</time>
      </trkpt>
      <trkpt lat="42.51849" lon="3.01918">
        <ele>310.41</ele>
        <time>2021-10-29T16:58:51Z</time>
      </trkpt>
      <trkpt lat="42.51866" lon="3.01911">
        <ele>312.46</ele>
        <time>2021-10-29T16:58:51Z</time>
      </trkpt>
      <trkpt lat="42.51881" lon="3.01911">
        <ele>312.55</ele>
        <time>2021-10-29T16:58:51Z</time>
      </trkpt>
      <trkpt lat="42.51897" lon="3.01915">
        <ele>313.26</ele>
        <time>2021-10-29T16:58:51Z</time>
      </trkpt>
      <trkpt lat="42.51909" lon="3.01924">
        <ele>311.67</ele>
        <time>2021-10-29T16:58:51Z</time>
      </trkpt>
      <trkpt lat="42.51921" lon="3.01929">
        <ele>310.65</ele>
        <time>2021-10-29T16:58:51Z</time>
      </trkpt>
      <trkpt lat="42.51932" lon="3.01927">
        <ele>310.46</ele>
        <time>2021-10-29T16:58:51Z</time>
      </trkpt>
      <trkpt lat="42.51944" lon="3.01916">
        <ele>311.7</ele>
        <time>2021-10-29T16:58:51Z</time>
      </trkpt>
      <trkpt lat="42.51953" lon="3.01905">
        <ele>314</ele>
        <time>2021-10-29T16:58:51Z</time>
      </trkpt>
      <trkpt lat="42.51965" lon="3.01895">
        <ele>313.98</ele>
        <time>2021-10-29T16:58:51Z</time>
      </trkpt>
      <trkpt lat="42.51976" lon="3.01884">
        <ele>313.14</ele>
        <time>2021-10-29T16:58:51Z</time>
      </trkpt>
      <trkpt lat="42.51989" lon="3.01879">
        <ele>310.88</ele>
        <time>2021-10-29T16:58:51Z</time>
      </trkpt>
      <trkpt lat="42.52006" lon="3.01879">
        <ele>308.69</ele>
        <time>2021-10-29T16:58:51Z</time>
      </trkpt>
      <trkpt lat="42.5202" lon="3.01884">
        <ele>306.71</ele>
        <time>2021-10-29T16:58:51Z</time>
      </trkpt>
      <trkpt lat="42.52039" lon="3.01888">
        <ele>303.23</ele>
        <time>2021-10-29T16:58:51Z</time>
      </trkpt>
      <trkpt lat="42.52053" lon="3.01892">
        <ele>300.81</ele>
        <time>2021-10-29T16:58:51Z</time>
      </trkpt>
      <trkpt lat="42.52068" lon="3.01898">
        <ele>300.56</ele>
        <time>2021-10-29T16:58:51Z</time>
      </trkpt>
      <trkpt lat="42.52082" lon="3.01901">
        <ele>298.5</ele>
        <time>2021-10-29T16:58:51Z</time>
      </trkpt>
      <trkpt lat="42.52093" lon="3.0191">
        <ele>298.43</ele>
        <time>2021-10-29T16:58:51Z</time>
      </trkpt>
      <trkpt lat="42.52106" lon="3.01919">
        <ele>297.39</ele>
        <time>2021-10-29T16:58:51Z</time>
      </trkpt>
      <trkpt lat="42.52118" lon="3.01932">
        <ele>295.06</ele>
        <time>2021-10-29T16:58:51Z</time>
      </trkpt>
      <trkpt lat="42.52116" lon="3.01948">
        <ele>294.48</ele>
        <time>2021-10-29T16:58:51Z</time>
      </trkpt>
      <trkpt lat="42.52116" lon="3.01969">
        <ele>293.84</ele>
        <time>2021-10-29T16:58:51Z</time>
      </trkpt>
      <trkpt lat="42.52096" lon="3.01975">
        <ele>294</ele>
        <time>2021-10-29T16:58:51Z</time>
      </trkpt>
      <trkpt lat="42.52086" lon="3.01983">
        <ele>291.03</ele>
        <time>2021-10-29T16:58:51Z</time>
      </trkpt>
      <trkpt lat="42.52073" lon="3.01987">
        <ele>287.77</ele>
        <time>2021-10-29T16:58:51Z</time>
      </trkpt>
      <trkpt lat="42.52057" lon="3.01988">
        <ele>282.99</ele>
        <time>2021-10-29T16:58:51Z</time>
      </trkpt>
      <trkpt lat="42.52047" lon="3.01988">
        <ele>281.34</ele>
        <time>2021-10-29T16:58:51Z</time>
      </trkpt>
      <trkpt lat="42.52033" lon="3.0199">
        <ele>279.09</ele>
        <time>2021-10-29T16:58:51Z</time>
      </trkpt>
      <trkpt lat="42.52018" lon="3.01991">
        <ele>275.98</ele>
        <time>2021-10-29T16:58:51Z</time>
      </trkpt>
      <trkpt lat="42.52006" lon="3.02002">
        <ele>273.47</ele>
        <time>2021-10-29T16:58:51Z</time>
      </trkpt>
      <trkpt lat="42.51994" lon="3.02032">
        <ele>267.68</ele>
        <time>2021-10-29T16:58:51Z</time>
      </trkpt>
      <trkpt lat="42.51987" lon="3.02048">
        <ele>263.98</ele>
        <time>2021-10-29T16:58:51Z</time>
      </trkpt>
      <trkpt lat="42.5198" lon="3.0206">
        <ele>261.09</ele>
        <time>2021-10-29T16:58:51Z</time>
      </trkpt>
      <trkpt lat="42.51971" lon="3.02075">
        <ele>257.03</ele>
        <time>2021-10-29T16:58:51Z</time>
      </trkpt>
      <trkpt lat="42.51969" lon="3.0209">
        <ele>251.92</ele>
        <time>2021-10-29T16:58:51Z</time>
      </trkpt>
      <trkpt lat="42.51984" lon="3.0209">
        <ele>247.66</ele>
        <time>2021-10-29T16:58:51Z</time>
      </trkpt>
      <trkpt lat="42.52007" lon="3.0209">
        <ele>242.35</ele>
        <time>2021-10-29T16:58:51Z</time>
      </trkpt>
      <trkpt lat="42.52027" lon="3.02092">
        <ele>238.59</ele>
        <time>2021-10-29T16:58:51Z</time>
      </trkpt>
      <trkpt lat="42.52045" lon="3.021">
        <ele>237.87</ele>
        <time>2021-10-29T16:58:51Z</time>
      </trkpt>
      <trkpt lat="42.52062" lon="3.02114">
        <ele>236.8</ele>
        <time>2021-10-29T16:58:51Z</time>
      </trkpt>
      <trkpt lat="42.5208" lon="3.02134">
        <ele>232.99</ele>
        <time>2021-10-29T16:58:51Z</time>
      </trkpt>
      <trkpt lat="42.52096" lon="3.02149">
        <ele>234.01</ele>
        <time>2021-10-29T16:58:51Z</time>
      </trkpt>
      <trkpt lat="42.52108" lon="3.02164">
        <ele>236.13</ele>
        <time>2021-10-29T16:58:51Z</time>
      </trkpt>
      <trkpt lat="42.52112" lon="3.02187">
        <ele>232.5</ele>
        <time>2021-10-29T16:58:51Z</time>
      </trkpt>
      <trkpt lat="42.52125" lon="3.02213">
        <ele>233.44</ele>
        <time>2021-10-29T16:58:51Z</time>
      </trkpt>
      <trkpt lat="42.52134" lon="3.02239">
        <ele>230.42</ele>
        <time>2021-10-29T16:58:51Z</time>
      </trkpt>
      <trkpt lat="42.52149" lon="3.0225">
        <ele>230.31</ele>
        <time>2021-10-29T16:58:51Z</time>
      </trkpt>
      <trkpt lat="42.52168" lon="3.02262">
        <ele>228.23</ele>
        <time>2021-10-29T16:58:51Z</time>
      </trkpt>
      <trkpt lat="42.52184" lon="3.02278">
        <ele>225.16</ele>
        <time>2021-10-29T16:58:51Z</time>
      </trkpt>
      <trkpt lat="42.52197" lon="3.02297">
        <ele>223.38</ele>
        <time>2021-10-29T16:58:51Z</time>
      </trkpt>
      <trkpt lat="42.52214" lon="3.02311">
        <ele>222.3</ele>
        <time>2021-10-29T16:58:51Z</time>
      </trkpt>
      <trkpt lat="42.52234" lon="3.02314">
        <ele>220.55</ele>
        <time>2021-10-29T16:58:51Z</time>
      </trkpt>
      <trkpt lat="42.52249" lon="3.02314">
        <ele>219.16</ele>
        <time>2021-10-29T16:58:51Z</time>
      </trkpt>
      <trkpt lat="42.52266" lon="3.02312">
        <ele>217.47</ele>
        <time>2021-10-29T16:58:51Z</time>
      </trkpt>
      <trkpt lat="42.52278" lon="3.02305">
        <ele>216.07</ele>
        <time>2021-10-29T16:58:51Z</time>
      </trkpt>
      <trkpt lat="42.52288" lon="3.02285">
        <ele>217.32</ele>
        <time>2021-10-29T16:58:51Z</time>
      </trkpt>
      <trkpt lat="42.523" lon="3.02269">
        <ele>214.55</ele>
        <time>2021-10-29T16:58:51Z</time>
      </trkpt>
      <trkpt lat="42.52313" lon="3.02254">
        <ele>213.66</ele>
        <time>2021-10-29T16:58:51Z</time>
      </trkpt>
      <trkpt lat="42.52324" lon="3.02239">
        <ele>213.59</ele>
        <time>2021-10-29T16:58:51Z</time>
      </trkpt>
      <trkpt lat="42.52338" lon="3.02239">
        <ele>209.03</ele>
        <time>2021-10-29T16:58:51Z</time>
      </trkpt>
      <trkpt lat="42.52352" lon="3.0224">
        <ele>206.7</ele>
        <time>2021-10-29T16:58:51Z</time>
      </trkpt>
      <trkpt lat="42.52368" lon="3.02251">
        <ele>202.36</ele>
        <time>2021-10-29T16:58:51Z</time>
      </trkpt>
      <trkpt lat="42.52382" lon="3.02262">
        <ele>198.59</ele>
        <time>2021-10-29T16:58:51Z</time>
      </trkpt>
      <trkpt lat="42.52388" lon="3.02278">
        <ele>194.29</ele>
        <time>2021-10-29T16:58:51Z</time>
      </trkpt>
      <trkpt lat="42.52376" lon="3.02272">
        <ele>194.25</ele>
        <time>2021-10-29T16:58:51Z</time>
      </trkpt>
      <trkpt lat="42.52364" lon="3.02265">
        <ele>195.49</ele>
        <time>2021-10-29T16:58:51Z</time>
      </trkpt>
      <trkpt lat="42.52354" lon="3.02272">
        <ele>192.44</ele>
        <time>2021-10-29T16:58:51Z</time>
      </trkpt>
      <trkpt lat="42.52358" lon="3.02284">
        <ele>191.75</ele>
        <time>2021-10-29T16:58:51Z</time>
      </trkpt>
      <trkpt lat="42.52371" lon="3.02284">
        <ele>192.27</ele>
        <time>2021-10-29T16:58:51Z</time>
      </trkpt>
      <trkpt lat="42.5238" lon="3.02305">
        <ele>188.3</ele>
        <time>2021-10-29T16:58:51Z</time>
      </trkpt>
      <trkpt lat="42.52392" lon="3.0232">
        <ele>184.53</ele>
        <time>2021-10-29T16:58:51Z</time>
      </trkpt>
      <trkpt lat="42.52408" lon="3.02335">
        <ele>181.91</ele>
        <time>2021-10-29T16:58:51Z</time>
      </trkpt>
      <trkpt lat="42.52424" lon="3.02345">
        <ele>181.39</ele>
        <time>2021-10-29T16:58:51Z</time>
      </trkpt>
      <trkpt lat="42.52438" lon="3.02352">
        <ele>180.02</ele>
        <time>2021-10-29T16:58:51Z</time>
      </trkpt>
      <trkpt lat="42.52452" lon="3.02352">
        <ele>178.46</ele>
        <time>2021-10-29T16:58:51Z</time>
      </trkpt>
      <trkpt lat="42.52466" lon="3.02352">
        <ele>175.34</ele>
        <time>2021-10-29T16:58:51Z</time>
      </trkpt>
      <trkpt lat="42.5248" lon="3.0235">
        <ele>172.71</ele>
        <time>2021-10-29T16:58:51Z</time>
      </trkpt>
      <trkpt lat="42.52491" lon="3.02346">
        <ele>171.54</ele>
        <time>2021-10-29T16:58:51Z</time>
      </trkpt>
      <trkpt lat="42.52498" lon="3.02329">
        <ele>169.59</ele>
        <time>2021-10-29T16:58:51Z</time>
      </trkpt>
      <trkpt lat="42.52508" lon="3.02317">
        <ele>168</ele>
        <time>2021-10-29T16:58:51Z</time>
      </trkpt>
      <trkpt lat="42.52519" lon="3.02321">
        <ele>165.44</ele>
        <time>2021-10-29T16:58:51Z</time>
      </trkpt>
      <trkpt lat="42.52518" lon="3.02338">
        <ele>164.26</ele>
        <time>2021-10-29T16:58:51Z</time>
      </trkpt>
      <trkpt lat="42.52519" lon="3.02357">
        <ele>162.54</ele>
        <time>2021-10-29T16:58:51Z</time>
      </trkpt>
      <trkpt lat="42.52524" lon="3.02379">
        <ele>160.65</ele>
        <time>2021-10-29T16:58:51Z</time>
      </trkpt>
      <trkpt lat="42.52534" lon="3.02395">
        <ele>157.83</ele>
        <time>2021-10-29T16:58:51Z</time>
      </trkpt>
      <trkpt lat="42.52549" lon="3.02411">
        <ele>156.15</ele>
        <time>2021-10-29T16:58:51Z</time>
      </trkpt>
      <trkpt lat="42.52565" lon="3.0242">
        <ele>153.07</ele>
        <time>2021-10-29T16:58:51Z</time>
      </trkpt>
      <trkpt lat="42.52579" lon="3.0243">
        <ele>150.88</ele>
        <time>2021-10-29T16:58:51Z</time>
      </trkpt>
      <trkpt lat="42.52593" lon="3.02438">
        <ele>147.6</ele>
        <time>2021-10-29T16:58:51Z</time>
      </trkpt>
      <trkpt lat="42.52607" lon="3.02444">
        <ele>144.37</ele>
        <time>2021-10-29T16:58:51Z</time>
      </trkpt>
      <trkpt lat="42.52615" lon="3.02462">
        <ele>142.45</ele>
        <time>2021-10-29T16:58:51Z</time>
      </trkpt>
      <trkpt lat="42.52629" lon="3.02479">
        <ele>139.74</ele>
        <time>2021-10-29T16:58:51Z</time>
      </trkpt>
      <trkpt lat="42.52642" lon="3.02483">
        <ele>137.25</ele>
        <time>2021-10-29T16:58:51Z</time>
      </trkpt>
      <trkpt lat="42.52653" lon="3.02481">
        <ele>135.63</ele>
        <time>2021-10-29T16:58:51Z</time>
      </trkpt>
      <trkpt lat="42.52664" lon="3.0247">
        <ele>133.96</ele>
        <time>2021-10-29T16:58:51Z</time>
      </trkpt>
      <trkpt lat="42.52675" lon="3.02467">
        <ele>132.99</ele>
        <time>2021-10-29T16:58:51Z</time>
      </trkpt>
      <trkpt lat="42.5269" lon="3.02472">
        <ele>130.92</ele>
        <time>2021-10-29T16:58:51Z</time>
      </trkpt>
      <trkpt lat="42.52702" lon="3.02489">
        <ele>128.22</ele>
        <time>2021-10-29T16:58:51Z</time>
      </trkpt>
      <trkpt lat="42.52706" lon="3.02506">
        <ele>126.04</ele>
        <time>2021-10-29T16:58:51Z</time>
      </trkpt>
      <trkpt lat="42.52708" lon="3.02527">
        <ele>123.18</ele>
        <time>2021-10-29T16:58:51Z</time>
      </trkpt>
      <trkpt lat="42.52719" lon="3.02523">
        <ele>121.69</ele>
        <time>2021-10-29T16:58:51Z</time>
      </trkpt>
      <trkpt lat="42.52725" lon="3.02505">
        <ele>120.78</ele>
        <time>2021-10-29T16:58:51Z</time>
      </trkpt>
      <trkpt lat="42.52728" lon="3.02489">
        <ele>119.66</ele>
        <time>2021-10-29T16:58:51Z</time>
      </trkpt>
      <trkpt lat="42.52728" lon="3.02474">
        <ele>117.99</ele>
        <time>2021-10-29T16:58:51Z</time>
      </trkpt>
      <trkpt lat="42.52728" lon="3.02458">
        <ele>115.85</ele>
        <time>2021-10-29T16:58:51Z</time>
      </trkpt>
      <trkpt lat="42.52727" lon="3.02443">
        <ele>114.33</ele>
        <time>2021-10-29T16:58:51Z</time>
      </trkpt>
      <trkpt lat="42.52728" lon="3.0243">
        <ele>113.86</ele>
        <time>2021-10-29T16:58:51Z</time>
      </trkpt>
      <trkpt lat="42.52743" lon="3.02437">
        <ele>110.3</ele>
        <time>2021-10-29T16:58:51Z</time>
      </trkpt>
      <trkpt lat="42.52775" lon="3.02475">
        <ele>103.44</ele>
        <time>2021-10-29T16:58:51Z</time>
      </trkpt>
      <trkpt lat="42.52782" lon="3.02496">
        <ele>101.4</ele>
        <time>2021-10-29T16:58:51Z</time>
      </trkpt>
      <trkpt lat="42.52788" lon="3.02517">
        <ele>97.48</ele>
        <time>2021-10-29T16:58:51Z</time>
      </trkpt>
      <trkpt lat="42.52796" lon="3.02533">
        <ele>96.53</ele>
        <time>2021-10-29T16:58:51Z</time>
      </trkpt>
      <trkpt lat="42.52805" lon="3.02547">
        <ele>97.01</ele>
        <time>2021-10-29T16:58:51Z</time>
      </trkpt>
      <trkpt lat="42.52818" lon="3.02559">
        <ele>98.3</ele>
        <time>2021-10-29T16:58:51Z</time>
      </trkpt>
      <trkpt lat="42.5283" lon="3.02571">
        <ele>98.8</ele>
        <time>2021-10-29T16:58:51Z</time>
      </trkpt>
      <trkpt lat="42.52847" lon="3.02581">
        <ele>95.87</ele>
        <time>2021-10-29T16:58:51Z</time>
      </trkpt>
      <trkpt lat="42.52857" lon="3.02605">
        <ele>93.24</ele>
        <time>2021-10-29T16:58:51Z</time>
      </trkpt>
      <trkpt lat="42.52871" lon="3.02619">
        <ele>89.71</ele>
        <time>2021-10-29T16:58:51Z</time>
      </trkpt>
      <trkpt lat="42.52883" lon="3.02631">
        <ele>87.7</ele>
        <time>2021-10-29T16:58:51Z</time>
      </trkpt>
      <trkpt lat="42.52896" lon="3.02637">
        <ele>85.17</ele>
        <time>2021-10-29T16:58:51Z</time>
      </trkpt>
      <trkpt lat="42.52913" lon="3.02637">
        <ele>83.47</ele>
        <time>2021-10-29T16:58:51Z</time>
      </trkpt>
      <trkpt lat="42.52932" lon="3.02644">
        <ele>82.6</ele>
        <time>2021-10-29T16:58:51Z</time>
      </trkpt>
      <trkpt lat="42.52949" lon="3.02647">
        <ele>81.19</ele>
        <time>2021-10-29T16:58:51Z</time>
      </trkpt>
      <trkpt lat="42.52963" lon="3.02647">
        <ele>78.71</ele>
        <time>2021-10-29T16:58:51Z</time>
      </trkpt>
      <trkpt lat="42.52977" lon="3.02643">
        <ele>74.89</ele>
        <time>2021-10-29T16:58:51Z</time>
      </trkpt>
      <trkpt lat="42.52993" lon="3.02643">
        <ele>73.02</ele>
        <time>2021-10-29T16:58:51Z</time>
      </trkpt>
      <trkpt lat="42.53006" lon="3.0264">
        <ele>72.22</ele>
        <time>2021-10-29T16:58:51Z</time>
      </trkpt>
      <trkpt lat="42.5302" lon="3.02635">
        <ele>70.99</ele>
        <time>2021-10-29T16:58:51Z</time>
      </trkpt>
      <trkpt lat="42.53038" lon="3.02628">
        <ele>68.65</ele>
        <time>2021-10-29T16:58:51Z</time>
      </trkpt>
      <trkpt lat="42.53053" lon="3.02624">
        <ele>66.97</ele>
        <time>2021-10-29T16:58:51Z</time>
      </trkpt>
      <trkpt lat="42.53068" lon="3.02622">
        <ele>65.14</ele>
        <time>2021-10-29T16:58:51Z</time>
      </trkpt>
      <trkpt lat="42.53078" lon="3.02615">
        <ele>64.24</ele>
        <time>2021-10-29T16:58:51Z</time>
      </trkpt>
      <trkpt lat="42.53091" lon="3.02615">
        <ele>63.07</ele>
        <time>2021-10-29T16:58:51Z</time>
      </trkpt>
      <trkpt lat="42.53109" lon="3.02617">
        <ele>62.19</ele>
        <time>2021-10-29T16:58:51Z</time>
      </trkpt>
      <trkpt lat="42.53123" lon="3.02618">
        <ele>61.42</ele>
        <time>2021-10-29T16:58:51Z</time>
      </trkpt>
      <trkpt lat="42.53134" lon="3.0263">
        <ele>61.81</ele>
        <time>2021-10-29T16:58:51Z</time>
      </trkpt>
      <trkpt lat="42.53144" lon="3.0265">
        <ele>59.41</ele>
        <time>2021-10-29T16:58:51Z</time>
      </trkpt>
      <trkpt lat="42.53153" lon="3.02669">
        <ele>57.89</ele>
        <time>2021-10-29T16:58:51Z</time>
      </trkpt>
      <trkpt lat="42.53162" lon="3.02687">
        <ele>55.81</ele>
        <time>2021-10-29T16:58:51Z</time>
      </trkpt>
      <trkpt lat="42.53174" lon="3.02694">
        <ele>54.8</ele>
        <time>2021-10-29T16:58:51Z</time>
      </trkpt>
      <trkpt lat="42.53186" lon="3.02704">
        <ele>52.99</ele>
        <time>2021-10-29T16:58:51Z</time>
      </trkpt>
      <trkpt lat="42.53196" lon="3.02717">
        <ele>52.08</ele>
        <time>2021-10-29T16:58:51Z</time>
      </trkpt>
      <trkpt lat="42.53204" lon="3.02733">
        <ele>50.57</ele>
        <time>2021-10-29T16:58:51Z</time>
      </trkpt>
      <trkpt lat="42.53209" lon="3.02747">
        <ele>49.36</ele>
        <time>2021-10-29T16:58:51Z</time>
      </trkpt>
      <trkpt lat="42.53218" lon="3.02766">
        <ele>47.6</ele>
        <time>2021-10-29T16:58:51Z</time>
      </trkpt>
      <trkpt lat="42.5323" lon="3.02777">
        <ele>47.19</ele>
        <time>2021-10-29T16:58:51Z</time>
      </trkpt>
      <trkpt lat="42.53245" lon="3.02786">
        <ele>49.47</ele>
        <time>2021-10-29T16:58:51Z</time>
      </trkpt>
      <trkpt lat="42.53258" lon="3.02795">
        <ele>49.86</ele>
        <time>2021-10-29T16:58:51Z</time>
      </trkpt>
      <trkpt lat="42.53272" lon="3.02806">
        <ele>50.87</ele>
        <time>2021-10-29T16:58:51Z</time>
      </trkpt>
      <trkpt lat="42.53283" lon="3.02816">
        <ele>50.84</ele>
        <time>2021-10-29T16:58:51Z</time>
      </trkpt>
      <trkpt lat="42.53294" lon="3.02831">
        <ele>51.08</ele>
        <time>2021-10-29T16:58:51Z</time>
      </trkpt>
      <trkpt lat="42.53311" lon="3.02835">
        <ele>50.62</ele>
        <time>2021-10-29T16:58:51Z</time>
      </trkpt>
      <trkpt lat="42.53325" lon="3.02841">
        <ele>50.08</ele>
        <time>2021-10-29T16:58:51Z</time>
      </trkpt>
      <trkpt lat="42.53332" lon="3.02855">
        <ele>49.73</ele>
        <time>2021-10-29T16:58:51Z</time>
      </trkpt>
      <trkpt lat="42.53347" lon="3.02869">
        <ele>48.14</ele>
        <time>2021-10-29T16:58:51Z</time>
      </trkpt>
      <trkpt lat="42.5336" lon="3.02886">
        <ele>46.99</ele>
        <time>2021-10-29T16:58:51Z</time>
      </trkpt>
      <trkpt lat="42.53373" lon="3.02902">
        <ele>46.41</ele>
        <time>2021-10-29T16:58:51Z</time>
      </trkpt>
      <trkpt lat="42.53384" lon="3.02916">
        <ele>45.56</ele>
        <time>2021-10-29T16:58:51Z</time>
      </trkpt>
      <trkpt lat="42.53389" lon="3.02935">
        <ele>44.62</ele>
        <time>2021-10-29T16:58:51Z</time>
      </trkpt>
      <trkpt lat="42.53396" lon="3.02955">
        <ele>43.76</ele>
        <time>2021-10-29T16:58:51Z</time>
      </trkpt>
      <trkpt lat="42.53403" lon="3.0297">
        <ele>43.07</ele>
        <time>2021-10-29T16:58:51Z</time>
      </trkpt>
      <trkpt lat="42.53411" lon="3.02986">
        <ele>42.37</ele>
        <time>2021-10-29T16:58:51Z</time>
      </trkpt>
      <trkpt lat="42.53421" lon="3.03003">
        <ele>41.62</ele>
        <time>2021-10-29T16:58:51Z</time>
      </trkpt>
      <trkpt lat="42.53435" lon="3.03011">
        <ele>40.56</ele>
        <time>2021-10-29T16:58:51Z</time>
      </trkpt>
      <trkpt lat="42.53449" lon="3.0302">
        <ele>40.24</ele>
        <time>2021-10-29T16:58:51Z</time>
      </trkpt>
      <trkpt lat="42.53462" lon="3.03032">
        <ele>39.42</ele>
        <time>2021-10-29T16:58:51Z</time>
      </trkpt>
      <trkpt lat="42.53476" lon="3.03055">
        <ele>38.41</ele>
        <time>2021-10-29T16:58:51Z</time>
      </trkpt>
      <trkpt lat="42.53486" lon="3.03074">
        <ele>37.79</ele>
        <time>2021-10-29T16:58:51Z</time>
      </trkpt>
      <trkpt lat="42.53498" lon="3.0309">
        <ele>37.12</ele>
        <time>2021-10-29T16:58:51Z</time>
      </trkpt>
      <trkpt lat="42.5351" lon="3.03108">
        <ele>36.7</ele>
        <time>2021-10-29T16:58:51Z</time>
      </trkpt>
      <trkpt lat="42.53522" lon="3.03122">
        <ele>36.6</ele>
        <time>2021-10-29T16:58:51Z</time>
      </trkpt>
      <trkpt lat="42.53534" lon="3.03135">
        <ele>35.31</ele>
        <time>2021-10-29T16:58:51Z</time>
      </trkpt>
      <trkpt lat="42.53544" lon="3.03146">
        <ele>33.98</ele>
        <time>2021-10-29T16:58:51Z</time>
      </trkpt>
      <trkpt lat="42.53562" lon="3.03158">
        <ele>32.78</ele>
        <time>2021-10-29T16:58:51Z</time>
      </trkpt>
      <trkpt lat="42.53565" lon="3.03173">
        <ele>32.63</ele>
        <time>2021-10-29T16:58:51Z</time>
      </trkpt>
      <trkpt lat="42.53571" lon="3.0319">
        <ele>32.29</ele>
        <time>2021-10-29T16:58:51Z</time>
      </trkpt>
      <trkpt lat="42.53582" lon="3.03204">
        <ele>31.77</ele>
        <time>2021-10-29T16:58:51Z</time>
      </trkpt>
      <trkpt lat="42.53593" lon="3.0322">
        <ele>32.06</ele>
        <time>2021-10-29T16:58:51Z</time>
      </trkpt>
      <trkpt lat="42.53608" lon="3.03235">
        <ele>30.77</ele>
        <time>2021-10-29T16:58:51Z</time>
      </trkpt>
      <trkpt lat="42.53621" lon="3.03251">
        <ele>27.66</ele>
        <time>2021-10-29T16:58:51Z</time>
      </trkpt>
      <trkpt lat="42.53633" lon="3.03268">
        <ele>27.56</ele>
        <time>2021-10-29T16:58:51Z</time>
      </trkpt>
      <trkpt lat="42.53646" lon="3.03285">
        <ele>30.12</ele>
        <time>2021-10-29T16:58:51Z</time>
      </trkpt>
      <trkpt lat="42.53668" lon="3.03309">
        <ele>30.14</ele>
        <time>2021-10-29T16:58:51Z</time>
      </trkpt>
      <trkpt lat="42.5368" lon="3.03331">
        <ele>29.47</ele>
        <time>2021-10-29T16:58:51Z</time>
      </trkpt>
      <trkpt lat="42.53694" lon="3.03348">
        <ele>28.67</ele>
        <time>2021-10-29T16:58:51Z</time>
      </trkpt>
      <trkpt lat="42.53714" lon="3.03368">
        <ele>27.75</ele>
        <time>2021-10-29T16:58:51Z</time>
      </trkpt>
      <trkpt lat="42.53727" lon="3.03385">
        <ele>27.09</ele>
        <time>2021-10-29T16:58:51Z</time>
      </trkpt>
      <trkpt lat="42.53742" lon="3.03399">
        <ele>26.35</ele>
        <time>2021-10-29T16:58:51Z</time>
      </trkpt>
      <trkpt lat="42.53755" lon="3.03413">
        <ele>26.24</ele>
        <time>2021-10-29T16:58:51Z</time>
      </trkpt>
      <trkpt lat="42.53776" lon="3.03432">
        <ele>25.47</ele>
        <time>2021-10-29T16:58:51Z</time>
      </trkpt>
      <trkpt lat="42.53794" lon="3.03447">
        <ele>23.62</ele>
        <time>2021-10-29T16:58:51Z</time>
      </trkpt>
      <trkpt lat="42.5381" lon="3.03463">
        <ele>23.65</ele>
        <time>2021-10-29T16:58:51Z</time>
      </trkpt>
      <trkpt lat="42.53834" lon="3.0348">
        <ele>22.86</ele>
        <time>2021-10-29T16:58:51Z</time>
      </trkpt>
      <trkpt lat="42.53858" lon="3.03505">
        <ele>22.11</ele>
        <time>2021-10-29T16:58:51Z</time>
      </trkpt>
      <trkpt lat="42.53881" lon="3.03523">
        <ele>20.35</ele>
        <time>2021-10-29T16:58:51Z</time>
      </trkpt>
      <trkpt lat="42.53895" lon="3.03541">
        <ele>19.49</ele>
        <time>2021-10-29T16:58:51Z</time>
      </trkpt>
      <trkpt lat="42.53912" lon="3.03551">
        <ele>18.66</ele>
        <time>2021-10-29T16:58:51Z</time>
      </trkpt>
      <trkpt lat="42.53921" lon="3.03567">
        <ele>18.14</ele>
        <time>2021-10-29T16:58:51Z</time>
      </trkpt>
      <trkpt lat="42.53932" lon="3.03586">
        <ele>16.34</ele>
        <time>2021-10-29T16:58:51Z</time>
      </trkpt>
      <trkpt lat="42.53942" lon="3.03597">
        <ele>15.28</ele>
        <time>2021-10-29T16:58:51Z</time>
      </trkpt>
      <trkpt lat="42.53953" lon="3.03609">
        <ele>14.65</ele>
        <time>2021-10-29T16:58:51Z</time>
      </trkpt>
      <trkpt lat="42.53964" lon="3.03622">
        <ele>14.05</ele>
        <time>2021-10-29T16:58:51Z</time>
      </trkpt>
      <trkpt lat="42.5397" lon="3.03636">
        <ele>13.47</ele>
        <time>2021-10-29T16:58:51Z</time>
      </trkpt>
      <trkpt lat="42.53968" lon="3.03648">
        <ele>13.4</ele>
        <time>2021-10-29T16:58:51Z</time>
      </trkpt>
      <trkpt lat="42.5397" lon="3.03664">
        <ele>13.4</ele>
        <time>2021-10-29T16:58:51Z</time>
      </trkpt>
      <trkpt lat="42.53978" lon="3.03679">
        <ele>12.82</ele>
        <time>2021-10-29T16:58:51Z</time>
      </trkpt>
      <trkpt lat="42.53988" lon="3.03688">
        <ele>12.53</ele>
        <time>2021-10-29T16:58:51Z</time>
      </trkpt>
      <trkpt lat="42.54004" lon="3.03689">
        <ele>12.18</ele>
        <time>2021-10-29T16:58:51Z</time>
      </trkpt>
      <trkpt lat="42.54019" lon="3.03692">
        <ele>11.62</ele>
        <time>2021-10-29T16:58:51Z</time>
      </trkpt>
      <trkpt lat="42.54035" lon="3.03699">
        <ele>11</ele>
        <time>2021-10-29T16:58:51Z</time>
      </trkpt>
      <trkpt lat="42.54057" lon="3.03711">
        <ele>10.49</ele>
        <time>2021-10-29T16:58:51Z</time>
      </trkpt>
      <trkpt lat="42.54069" lon="3.03722">
        <ele>10.5</ele>
        <time>2021-10-29T16:58:51Z</time>
      </trkpt>
      <trkpt lat="42.54083" lon="3.03734">
        <ele>10.06</ele>
        <time>2021-10-29T16:58:51Z</time>
      </trkpt>
      <trkpt lat="42.54098" lon="3.0375">
        <ele>9.51</ele>
        <time>2021-10-29T16:58:51Z</time>
      </trkpt>
      <trkpt lat="42.54106" lon="3.03769">
        <ele>8.9</ele>
        <time>2021-10-29T16:58:51Z</time>
      </trkpt>
      <trkpt lat="42.54115" lon="3.03788">
        <ele>8.53</ele>
        <time>2021-10-29T16:58:51Z</time>
      </trkpt>
      <trkpt lat="42.5412" lon="3.03806">
        <ele>8.39</ele>
        <time>2021-10-29T16:58:51Z</time>
      </trkpt>
      <trkpt lat="42.54121" lon="3.03822">
        <ele>7.98</ele>
        <time>2021-10-29T16:58:51Z</time>
      </trkpt>
      <trkpt lat="42.54125" lon="3.0384">
        <ele>7.84</ele>
        <time>2021-10-29T16:58:51Z</time>
      </trkpt>
      <trkpt lat="42.54125" lon="3.03859">
        <ele>7.47</ele>
        <time>2021-10-29T16:58:51Z</time>
      </trkpt>
      <trkpt lat="42.54122" lon="3.03886">
        <ele>7.27</ele>
        <time>2021-10-29T16:58:51Z</time>
      </trkpt>
      <trkpt lat="42.54122" lon="3.03911">
        <ele>6.47</ele>
        <time>2021-10-29T16:58:51Z</time>
      </trkpt>
      <trkpt lat="42.54118" lon="3.03941">
        <ele>6.12</ele>
        <time>2021-10-29T16:58:51Z</time>
      </trkpt>
      <trkpt lat="42.54117" lon="3.03969">
        <ele>6.05</ele>
        <time>2021-10-29T16:58:51Z</time>
      </trkpt>
      <trkpt lat="42.54111" lon="3.03991">
        <ele>6.27</ele>
        <time>2021-10-29T16:58:51Z</time>
      </trkpt>
      <trkpt lat="42.54108" lon="3.04021">
        <ele>6.33</ele>
        <time>2021-10-29T16:58:51Z</time>
      </trkpt>
      <trkpt lat="42.54106" lon="3.04043">
        <ele>5.8</ele>
        <time>2021-10-29T16:58:51Z</time>
      </trkpt>
      <trkpt lat="42.54105" lon="3.04065">
        <ele>4.89</ele>
        <time>2021-10-29T16:58:51Z</time>
      </trkpt>
      <trkpt lat="42.54104" lon="3.04082">
        <ele>5.17</ele>
        <time>2021-10-29T16:58:51Z</time>
      </trkpt>
      <trkpt lat="42.54102" lon="3.04102">
        <ele>4.67</ele>
        <time>2021-10-29T16:58:51Z</time>
      </trkpt>
      <trkpt lat="42.54102" lon="3.04118">
        <ele>4.26</ele>
        <time>2021-10-29T16:58:51Z</time>
      </trkpt>
      <trkpt lat="42.54102" lon="3.04134">
        <ele>4.5</ele>
        <time>2021-10-29T16:58:51Z</time>
      </trkpt>
      <trkpt lat="42.54101" lon="3.0415">
        <ele>4.86</ele>
        <time>2021-10-29T16:58:51Z</time>
      </trkpt>
      <trkpt lat="42.54101" lon="3.04167">
        <ele>4.94</ele>
        <time>2021-10-29T16:58:51Z</time>
      </trkpt>
      <trkpt lat="42.54101" lon="3.04185">
        <ele>4.91</ele>
        <time>2021-10-29T16:58:51Z</time>
      </trkpt>
      <trkpt lat="42.54098" lon="3.0421">
        <ele>6.15</ele>
        <time>2021-10-29T16:58:51Z</time>
      </trkpt>
      <trkpt lat="42.54095" lon="3.04233">
        <ele>5.59</ele>
        <time>2021-10-29T16:58:51Z</time>
      </trkpt>
      <trkpt lat="42.54091" lon="3.04248">
        <ele>4.96</ele>
        <time>2021-10-29T16:58:51Z</time>
      </trkpt>
      <trkpt lat="42.54087" lon="3.04265">
        <ele>4.35</ele>
        <time>2021-10-29T16:58:51Z</time>
      </trkpt>
      <trkpt lat="42.54082" lon="3.04281">
        <ele>4.58</ele>
        <time>2021-10-29T16:58:51Z</time>
      </trkpt>
      <trkpt lat="42.54078" lon="3.043">
        <ele>4.49</ele>
        <time>2021-10-29T16:58:51Z</time>
      </trkpt>
      <trkpt lat="42.54072" lon="3.04319">
        <ele>5.02</ele>
        <time>2021-10-29T16:58:51Z</time>
      </trkpt>
      <trkpt lat="42.54068" lon="3.04339">
        <ele>4.97</ele>
        <time>2021-10-29T16:58:51Z</time>
      </trkpt>
      <trkpt lat="42.54062" lon="3.04356">
        <ele>4.92</ele>
        <time>2021-10-29T16:58:51Z</time>
      </trkpt>
      <trkpt lat="42.54058" lon="3.04374">
        <ele>4.65</ele>
        <time>2021-10-29T16:58:51Z</time>
      </trkpt>
      <trkpt lat="42.54052" lon="3.04392">
        <ele>4.68</ele>
        <time>2021-10-29T16:58:51Z</time>
      </trkpt>
      <trkpt lat="42.54045" lon="3.04415">
        <ele>4.76</ele>
        <time>2021-10-29T16:58:51Z</time>
      </trkpt>
      <trkpt lat="42.5404" lon="3.0444">
        <ele>4.85</ele>
        <time>2021-10-29T16:58:51Z</time>
      </trkpt>
      <trkpt lat="42.54035" lon="3.04461">
        <ele>4.57</ele>
        <time>2021-10-29T16:58:51Z</time>
      </trkpt>
      <trkpt lat="42.54029" lon="3.04484">
        <ele>4.61</ele>
        <time>2021-10-29T16:58:51Z</time>
      </trkpt>
      <trkpt lat="42.54025" lon="3.04502">
        <ele>4.28</ele>
        <time>2021-10-29T16:58:51Z</time>
      </trkpt>
      <trkpt lat="42.54014" lon="3.04547">
        <ele>4.25</ele>
        <time>2021-10-29T16:58:51Z</time>
      </trkpt>
      <trkpt lat="42.54008" lon="3.04565">
        <ele>3.8</ele>
        <time>2021-10-29T16:58:51Z</time>
      </trkpt>
      <trkpt lat="42.54007" lon="3.04582">
        <ele>3.64</ele>
        <time>2021-10-29T16:58:51Z</time>
      </trkpt>
      <trkpt lat="42.54001" lon="3.04602">
        <ele>4.49</ele>
        <time>2021-10-29T16:58:51Z</time>
      </trkpt>
      <trkpt lat="42.53998" lon="3.04617">
        <ele>4.86</ele>
        <time>2021-10-29T16:58:51Z</time>
      </trkpt>
      <trkpt lat="42.53995" lon="3.04634">
        <ele>4.47</ele>
        <time>2021-10-29T16:58:51Z</time>
      </trkpt>
      <trkpt lat="42.53994" lon="3.04648">
        <ele>3.94</ele>
        <time>2021-10-29T16:58:51Z</time>
      </trkpt>
      <trkpt lat="42.53994" lon="3.04661">
        <ele>3.84</ele>
        <time>2021-10-29T16:58:51Z</time>
      </trkpt>
      <trkpt lat="42.53994" lon="3.04674">
        <ele>3.39</ele>
        <time>2021-10-29T16:58:51Z</time>
      </trkpt>
      <trkpt lat="42.53994" lon="3.0469">
        <ele>2.96</ele>
        <time>2021-10-29T16:58:51Z</time>
      </trkpt>
      <trkpt lat="42.53996" lon="3.04704">
        <ele>3</ele>
        <time>2021-10-29T16:58:51Z</time>
      </trkpt>
      <trkpt lat="42.54" lon="3.04722">
        <ele>3.27</ele>
        <time>2021-10-29T16:58:51Z</time>
      </trkpt>
      <trkpt lat="42.54007" lon="3.04734">
        <ele>2.91</ele>
        <time>2021-10-29T16:58:51Z</time>
      </trkpt>
      <trkpt lat="42.54012" lon="3.04752">
        <ele>2.17</ele>
        <time>2021-10-29T16:58:51Z</time>
      </trkpt>
      <trkpt lat="42.54017" lon="3.04766">
        <ele>1.87</ele>
        <time>2021-10-29T16:58:51Z</time>
      </trkpt>
      <trkpt lat="42.54021" lon="3.04778">
        <ele>1.92</ele>
        <time>2021-10-29T16:58:51Z</time>
      </trkpt>
      <trkpt lat="42.54025" lon="3.04789">
        <ele>2.15</ele>
        <time>2021-10-29T16:58:51Z</time>
      </trkpt>
      <trkpt lat="42.54036" lon="3.04783">
        <ele>1.59</ele>
        <time>2021-10-29T16:58:51Z</time>
      </trkpt>
      <trkpt lat="42.54049" lon="3.04773">
        <ele>0.38</ele>
        <time>2021-10-29T16:58:51Z</time>
      </trkpt>
      <trkpt lat="42.54061" lon="3.04766">
        <ele>0.31</ele>
        <time>2021-10-29T16:58:51Z</time>
      </trkpt>
      <trkpt lat="42.54073" lon="3.04758">
        <ele>0.49</ele>
        <time>2021-10-29T16:58:51Z</time>
      </trkpt>
      <trkpt lat="42.54083" lon="3.04753">
        <ele>0.89</ele>
        <time>2021-10-29T16:58:51Z</time>
      </trkpt>
      <trkpt lat="42.54098" lon="3.04765">
        <ele>0.98</ele>
        <time>2021-10-29T16:58:51Z</time>
      </trkpt>
      <trkpt lat="42.54106" lon="3.04784">
        <ele>1.18</ele>
        <time>2021-10-29T16:58:51Z</time>
      </trkpt>
      <trkpt lat="42.54113" lon="3.04799">
        <ele>1.39</ele>
        <time>2021-10-29T16:58:51Z</time>
      </trkpt>
      <trkpt lat="42.54116" lon="3.04815">
        <ele>1.17</ele>
        <time>2021-10-29T16:58:51Z</time>
      </trkpt>
      <trkpt lat="42.54126" lon="3.04831">
        <ele>1.18</ele>
        <time>2021-10-29T16:58:51Z</time>
      </trkpt>
      <trkpt lat="42.5414" lon="3.04831">
        <ele>1.51</ele>
        <time>2021-10-29T16:58:51Z</time>
      </trkpt>
      <trkpt lat="42.54153" lon="3.04826">
        <ele>1.53</ele>
        <time>2021-10-29T16:58:51Z</time>
      </trkpt>
      <trkpt lat="42.54163" lon="3.04816">
        <ele>1.71</ele>
        <time>2021-10-29T16:58:51Z</time>
      </trkpt>
      <trkpt lat="42.54174" lon="3.04802">
        <ele>1.57</ele>
        <time>2021-10-29T16:58:51Z</time>
      </trkpt>
      <trkpt lat="42.54182" lon="3.04789">
        <ele>1.45</ele>
        <time>2021-10-29T16:58:51Z</time>
      </trkpt>
      <trkpt lat="42.54191" lon="3.04801">
        <ele>1.62</ele>
        <time>2021-10-29T16:58:51Z</time>
      </trkpt>
      <trkpt lat="42.54195" lon="3.04817">
        <ele>0.53</ele>
        <time>2021-10-29T16:58:51Z</time>
      </trkpt>
      <trkpt lat="42.542" lon="3.04833">
        <ele>0.52</ele>
        <time>2021-10-29T16:58:51Z</time>
      </trkpt>
      <trkpt lat="42.54205" lon="3.04852">
        <ele>0.48</ele>
        <time>2021-10-29T16:58:51Z</time>
      </trkpt>
      <trkpt lat="42.54212" lon="3.04868">
        <ele>0.38</ele>
        <time>2021-10-29T16:58:51Z</time>
      </trkpt>
      <trkpt lat="42.54217" lon="3.04886">
        <ele>0.24</ele>
        <time>2021-10-29T16:58:51Z</time>
      </trkpt>
      <trkpt lat="42.54222" lon="3.04905">
        <ele>0.73</ele>
        <time>2021-10-29T16:58:51Z</time>
      </trkpt>
      <trkpt lat="42.5423" lon="3.04921">
        <ele>1.14</ele>
        <time>2021-10-29T16:58:51Z</time>
      </trkpt>
      <trkpt lat="42.54237" lon="3.0494">
        <ele>1.21</ele>
        <time>2021-10-29T16:58:51Z</time>
      </trkpt>
      <trkpt lat="42.54243" lon="3.04958">
        <ele>1.3</ele>
        <time>2021-10-29T16:58:51Z</time>
      </trkpt>
      <trkpt lat="42.54249" lon="3.04975">
        <ele>1.65</ele>
        <time>2021-10-29T16:58:51Z</time>
      </trkpt>
      <trkpt lat="42.54252" lon="3.04991">
        <ele>1.43</ele>
        <time>2021-10-29T16:58:51Z</time>
      </trkpt>
      <trkpt lat="42.54243" lon="3.05008">
        <ele>1.74</ele>
        <time>2021-10-29T16:58:51Z</time>
      </trkpt>
      <trkpt lat="42.54229" lon="3.05017">
        <ele>1.97</ele>
        <time>2021-10-29T16:58:51Z</time>
      </trkpt>
      <trkpt lat="42.54218" lon="3.05024">
        <ele>2.29</ele>
        <time>2021-10-29T16:58:51Z</time>
      </trkpt>
      <trkpt lat="42.54204" lon="3.05033">
        <ele>2.52</ele>
        <time>2021-10-29T16:58:51Z</time>
      </trkpt>
      <trkpt lat="42.54193" lon="3.05039">
        <ele>2.23</ele>
        <time>2021-10-29T16:58:51Z</time>
      </trkpt>
      <trkpt lat="42.54181" lon="3.05045">
        <ele>1.83</ele>
        <time>2021-10-29T16:58:51Z</time>
      </trkpt>
      <trkpt lat="42.5417" lon="3.05052">
        <ele>1.44</ele>
        <time>2021-10-29T16:58:51Z</time>
      </trkpt>
      <trkpt lat="42.54165" lon="3.05068">
        <ele>0.69</ele>
        <time>2021-10-29T16:58:51Z</time>
      </trkpt>
      <trkpt lat="42.54176" lon="3.05072">
        <ele>1.31</ele>
        <time>2021-10-29T16:58:51Z</time>
      </trkpt>
      <trkpt lat="42.54182" lon="3.05088">
        <ele>1.23</ele>
        <time>2021-10-29T16:58:51Z</time>
      </trkpt>
      <trkpt lat="42.54194" lon="3.05096">
        <ele>1.55</ele>
        <time>2021-10-29T16:58:51Z</time>
      </trkpt>
      <trkpt lat="42.54208" lon="3.05096">
        <ele>1.57</ele>
        <time>2021-10-29T16:58:51Z</time>
      </trkpt>
      <trkpt lat="42.54219" lon="3.05102">
        <ele>1.41</ele>
        <time>2021-10-29T16:58:51Z</time>
      </trkpt>
      <trkpt lat="42.54232" lon="3.05105">
        <ele>1.48</ele>
        <time>2021-10-29T16:58:51Z</time>
      </trkpt>
      <trkpt lat="42.54247" lon="3.05105">
        <ele>2.19</ele>
        <time>2021-10-29T16:58:51Z</time>
      </trkpt>
      <trkpt lat="42.5427" lon="3.05113">
        <ele>3.01</ele>
        <time>2021-10-29T16:58:51Z</time>
      </trkpt>
      <trkpt lat="42.54284" lon="3.05113">
        <ele>2.45</ele>
        <time>2021-10-29T16:58:51Z</time>
      </trkpt>
      <trkpt lat="42.54298" lon="3.0511">
        <ele>2.41</ele>
        <time>2021-10-29T16:58:51Z</time>
      </trkpt>
      <trkpt lat="42.54315" lon="3.0511">
        <ele>1.63</ele>
        <time>2021-10-29T16:58:51Z</time>
      </trkpt>
      <trkpt lat="42.54332" lon="3.05112">
        <ele>0.18</ele>
        <time>2021-10-29T16:58:51Z</time>
      </trkpt>
      <trkpt lat="42.54344" lon="3.05114">
        <ele>1.04</ele>
        <time>2021-10-29T16:58:51Z</time>
      </trkpt>
      <trkpt lat="42.54359" lon="3.05112">
        <ele>2.46</ele>
        <time>2021-10-29T16:58:51Z</time>
      </trkpt>
      <trkpt lat="42.54377" lon="3.05112">
        <ele>3.44</ele>
        <time>2021-10-29T16:58:51Z</time>
      </trkpt>
      <trkpt lat="42.5439" lon="3.05112">
        <ele>3.03</ele>
        <time>2021-10-29T16:58:51Z</time>
      </trkpt>
      <trkpt lat="42.54403" lon="3.05117">
        <ele>3.31</ele>
        <time>2021-10-29T16:58:51Z</time>
      </trkpt>
      <trkpt lat="42.54415" lon="3.05118">
        <ele>3.53</ele>
        <time>2021-10-29T16:58:51Z</time>
      </trkpt>
      <trkpt lat="42.54429" lon="3.05119">
        <ele>3.08</ele>
        <time>2021-10-29T16:58:51Z</time>
      </trkpt>
      <trkpt lat="42.54439" lon="3.05118">
        <ele>3.01</ele>
        <time>2021-10-29T16:58:51Z</time>
      </trkpt>
      <trkpt lat="42.54455" lon="3.05107">
        <ele>2.86</ele>
        <time>2021-10-29T16:58:51Z</time>
      </trkpt>
      <trkpt lat="42.54474" lon="3.05093">
        <ele>2.93</ele>
        <time>2021-10-29T16:58:51Z</time>
      </trkpt>
      <trkpt lat="42.54489" lon="3.05084">
        <ele>3.08</ele>
        <time>2021-10-29T16:58:51Z</time>
      </trkpt>
      <trkpt lat="42.54504" lon="3.05077">
        <ele>3.08</ele>
        <time>2021-10-29T16:58:51Z</time>
      </trkpt>
      <trkpt lat="42.5452" lon="3.05064">
        <ele>3.22</ele>
        <time>2021-10-29T16:58:51Z</time>
      </trkpt>
      <trkpt lat="42.54538" lon="3.05054">
        <ele>3.97</ele>
        <time>2021-10-29T16:58:51Z</time>
      </trkpt>
      <trkpt lat="42.54561" lon="3.05039">
        <ele>3.4</ele>
        <time>2021-10-29T16:58:51Z</time>
      </trkpt>
      <trkpt lat="42.54579" lon="3.05031">
        <ele>3.74</ele>
        <time>2021-10-29T16:58:51Z</time>
      </trkpt>
      <trkpt lat="42.54598" lon="3.05017">
        <ele>3.39</ele>
        <time>2021-10-29T16:58:51Z</time>
      </trkpt>
      <trkpt lat="42.54611" lon="3.05008">
        <ele>2.87</ele>
        <time>2021-10-29T16:58:51Z</time>
      </trkpt>
      <trkpt lat="42.54629" lon="3.04999">
        <ele>3.34</ele>
        <time>2021-10-29T16:58:51Z</time>
      </trkpt>
      <trkpt lat="42.54647" lon="3.04985">
        <ele>3.28</ele>
        <time>2021-10-29T16:58:51Z</time>
      </trkpt>
      <trkpt lat="42.54664" lon="3.04977">
        <ele>3.47</ele>
        <time>2021-10-29T16:58:51Z</time>
      </trkpt>
      <trkpt lat="42.54683" lon="3.04963">
        <ele>3.44</ele>
        <time>2021-10-29T16:58:51Z</time>
      </trkpt>
      <trkpt lat="42.54698" lon="3.04952">
        <ele>3.52</ele>
        <time>2021-10-29T16:58:51Z</time>
      </trkpt>
      <trkpt lat="42.54714" lon="3.04945">
        <ele>3.24</ele>
        <time>2021-10-29T16:58:51Z</time>
      </trkpt>
      <trkpt lat="42.54732" lon="3.04932">
        <ele>3.36</ele>
        <time>2021-10-29T16:58:51Z</time>
      </trkpt>
      <trkpt lat="42.54746" lon="3.04925">
        <ele>3.16</ele>
        <time>2021-10-29T16:58:51Z</time>
      </trkpt>
      <trkpt lat="42.54761" lon="3.04917">
        <ele>3.69</ele>
        <time>2021-10-29T16:58:51Z</time>
      </trkpt>
      <trkpt lat="42.5478" lon="3.04902">
        <ele>3.86</ele>
        <time>2021-10-29T16:58:51Z</time>
      </trkpt>
      <trkpt lat="42.54797" lon="3.04902">
        <ele>3.51</ele>
        <time>2021-10-29T16:58:51Z</time>
      </trkpt>
      <trkpt lat="42.54817" lon="3.04897">
        <ele>4.05</ele>
        <time>2021-10-29T16:58:51Z</time>
      </trkpt>
      <trkpt lat="42.54834" lon="3.04891">
        <ele>3.94</ele>
        <time>2021-10-29T16:58:51Z</time>
      </trkpt>
      <trkpt lat="42.54857" lon="3.04887">
        <ele>3.61</ele>
        <time>2021-10-29T16:58:51Z</time>
      </trkpt>
      <trkpt lat="42.54875" lon="3.04884">
        <ele>3.86</ele>
        <time>2021-10-29T16:58:51Z</time>
      </trkpt>
      <trkpt lat="42.5489" lon="3.04882">
        <ele>3.63</ele>
        <time>2021-10-29T16:58:51Z</time>
      </trkpt>
      <trkpt lat="42.54913" lon="3.04877">
        <ele>3.94</ele>
        <time>2021-10-29T16:58:51Z</time>
      </trkpt>
      <trkpt lat="42.54932" lon="3.04871">
        <ele>4.09</ele>
        <time>2021-10-29T16:58:51Z</time>
      </trkpt>
      <trkpt lat="42.54949" lon="3.04869">
        <ele>3.41</ele>
        <time>2021-10-29T16:58:51Z</time>
      </trkpt>
      <trkpt lat="42.54965" lon="3.04866">
        <ele>3.69</ele>
        <time>2021-10-29T16:58:51Z</time>
      </trkpt>
      <trkpt lat="42.54984" lon="3.04862">
        <ele>3.92</ele>
        <time>2021-10-29T16:58:51Z</time>
      </trkpt>
      <trkpt lat="42.55004" lon="3.04857">
        <ele>3.44</ele>
        <time>2021-10-29T16:58:51Z</time>
      </trkpt>
      <trkpt lat="42.55026" lon="3.04852">
        <ele>3.38</ele>
        <time>2021-10-29T16:58:51Z</time>
      </trkpt>
      <trkpt lat="42.55041" lon="3.04849">
        <ele>3.4</ele>
        <time>2021-10-29T16:58:51Z</time>
      </trkpt>
      <trkpt lat="42.55059" lon="3.04846">
        <ele>2.8</ele>
        <time>2021-10-29T16:58:51Z</time>
      </trkpt>
      <trkpt lat="42.55077" lon="3.04845">
        <ele>2.98</ele>
        <time>2021-10-29T16:58:51Z</time>
      </trkpt>
      <trkpt lat="42.55094" lon="3.04843">
        <ele>2.68</ele>
        <time>2021-10-29T16:58:51Z</time>
      </trkpt>
      <trkpt lat="42.55116" lon="3.04836">
        <ele>3.06</ele>
        <time>2021-10-29T16:58:51Z</time>
      </trkpt>
    </trkseg>
  </trk>
</gpx>